<?xml version="1.0" encoding="UTF-8" standalone="no" ?>
<gpx xmlns="http://www.topografix.com/GPX/1/1" xmlns:xsi="http://www.w3.org/2001/XMLSchema-instance" xsi:schemaLocation="http://www.topografix.com/GPX/1/1 http://www.topografix.com/GPX/1/1/gpx.xsd" version="1.1" creator="VisuGPX - https://www.visugpx.com">
  <metadata>
    <name>Les Hauts plateaux du Vercors</name>
    <desc><![CDATA[Rando sur les hauts plateaux en 2 ou 3 jours: super!]]></desc>
  </metadata>
  <trk>
    <name><![CDATA[Pot du Loup Espelines]]></name>
    <trkseg>
      <trkpt lat="45.01989" lon="5.47356">
        <ele>1305.13</ele>
        <time>2011-09-08T13:50:05Z</time>
      </trkpt>
      <trkpt lat="45.01986" lon="5.47357">
        <ele>1306.09</ele>
        <time>2011-09-08T13:50:04Z</time>
      </trkpt>
      <trkpt lat="45.01973" lon="5.47371">
        <ele>1307.53</ele>
        <time>2011-09-08T13:50:01Z</time>
      </trkpt>
      <trkpt lat="45.01967" lon="5.47378">
        <ele>1308.49</ele>
        <time>2011-09-08T13:50:00Z</time>
      </trkpt>
      <trkpt lat="45.01949" lon="5.474">
        <ele>1311.86</ele>
        <time>2011-09-08T13:49:57Z</time>
      </trkpt>
      <trkpt lat="45.01937" lon="5.47424">
        <ele>1317.14</ele>
        <time>2011-09-08T13:49:53Z</time>
      </trkpt>
      <trkpt lat="45.01931" lon="5.47436">
        <ele>1319.07</ele>
        <time>2011-09-08T13:49:51Z</time>
      </trkpt>
      <trkpt lat="45.01925" lon="5.47459">
        <ele>1318.59</ele>
        <time>2011-09-08T13:49:47Z</time>
      </trkpt>
      <trkpt lat="45.01914" lon="5.47488">
        <ele>1319.07</ele>
        <time>2011-09-08T13:49:42Z</time>
      </trkpt>
      <trkpt lat="45.01912" lon="5.47489">
        <ele>1316.66</ele>
        <time>2011-09-08T13:49:41Z</time>
      </trkpt>
      <trkpt lat="45.01881" lon="5.47544">
        <ele>1319.55</ele>
        <time>2011-09-08T13:49:32Z</time>
      </trkpt>
      <trkpt lat="45.0187" lon="5.47561">
        <ele>1318.1</ele>
        <time>2011-09-08T13:49:30Z</time>
      </trkpt>
      <trkpt lat="45.01865" lon="5.47566">
        <ele>1320.51</ele>
        <time>2011-09-08T13:49:29Z</time>
      </trkpt>
      <trkpt lat="45.01858" lon="5.47572">
        <ele>1318.59</ele>
        <time>2011-09-08T13:49:28Z</time>
      </trkpt>
      <trkpt lat="45.01857" lon="5.47572">
        <ele>1317.62</ele>
        <time>2011-09-08T13:49:27Z</time>
      </trkpt>
      <trkpt lat="45.01854" lon="5.47574">
        <ele>1320.99</ele>
        <time>2011-09-08T13:49:26Z</time>
      </trkpt>
      <trkpt lat="45.01823" lon="5.47573">
        <ele>1320.03</ele>
        <time>2011-09-08T13:49:19Z</time>
      </trkpt>
      <trkpt lat="45.01806" lon="5.47562">
        <ele>1320.03</ele>
        <time>2011-09-08T13:49:14Z</time>
      </trkpt>
      <trkpt lat="45.01801" lon="5.47556">
        <ele>1321.95</ele>
        <time>2011-09-08T13:49:12Z</time>
      </trkpt>
      <trkpt lat="45.01798" lon="5.47554">
        <ele>1320.03</ele>
        <time>2011-09-08T13:49:11Z</time>
      </trkpt>
      <trkpt lat="45.01796" lon="5.47552">
        <ele>1323.87</ele>
        <time>2011-09-08T13:49:10Z</time>
      </trkpt>
      <trkpt lat="45.01793" lon="5.4755">
        <ele>1319.55</ele>
        <time>2011-09-08T13:49:09Z</time>
      </trkpt>
      <trkpt lat="45.0179" lon="5.47549">
        <ele>1320.99</ele>
        <time>2011-09-08T13:49:08Z</time>
      </trkpt>
      <trkpt lat="45.01774" lon="5.4754">
        <ele>1322.43</ele>
        <time>2011-09-08T13:49:03Z</time>
      </trkpt>
      <trkpt lat="45.0176" lon="5.47533">
        <ele>1321.95</ele>
        <time>2011-09-08T13:49:00Z</time>
      </trkpt>
      <trkpt lat="45.01716" lon="5.47537">
        <ele>1320.99</ele>
        <time>2011-09-08T13:48:47Z</time>
      </trkpt>
      <trkpt lat="45.01712" lon="5.47541">
        <ele>1322.91</ele>
        <time>2011-09-08T13:48:46Z</time>
      </trkpt>
      <trkpt lat="45.0171" lon="5.47546">
        <ele>1321.95</ele>
        <time>2011-09-08T13:48:45Z</time>
      </trkpt>
      <trkpt lat="45.01708" lon="5.47551">
        <ele>1323.87</ele>
        <time>2011-09-08T13:48:44Z</time>
      </trkpt>
      <trkpt lat="45.01706" lon="5.47554">
        <ele>1324.83</ele>
        <time>2011-09-08T13:48:43Z</time>
      </trkpt>
      <trkpt lat="45.01704" lon="5.47556">
        <ele>1324.83</ele>
        <time>2011-09-08T13:48:42Z</time>
      </trkpt>
      <trkpt lat="45.01696" lon="5.47557">
        <ele>1323.87</ele>
        <time>2011-09-08T13:48:38Z</time>
      </trkpt>
      <trkpt lat="45.01687" lon="5.47554">
        <ele>1326.28</ele>
        <time>2011-09-08T13:48:25Z</time>
      </trkpt>
      <trkpt lat="45.01686" lon="5.47554">
        <ele>1326.76</ele>
        <time>2011-09-08T13:48:24Z</time>
      </trkpt>
      <trkpt lat="45.01679" lon="5.47557">
        <ele>1322.43</ele>
        <time>2011-09-08T13:48:17Z</time>
      </trkpt>
      <trkpt lat="45.01661" lon="5.47541">
        <ele>1321.95</ele>
        <time>2011-09-08T13:48:03Z</time>
      </trkpt>
      <trkpt lat="45.01641" lon="5.47512">
        <ele>1320.99</ele>
        <time>2011-09-08T13:47:48Z</time>
      </trkpt>
      <trkpt lat="45.01626" lon="5.47498">
        <ele>1317.14</ele>
        <time>2011-09-08T13:47:35Z</time>
      </trkpt>
      <trkpt lat="45.01623" lon="5.47497">
        <ele>1318.1</ele>
        <time>2011-09-08T13:47:30Z</time>
      </trkpt>
      <trkpt lat="45.01617" lon="5.47495">
        <ele>1314.74</ele>
        <time>2011-09-08T13:47:20Z</time>
      </trkpt>
      <trkpt lat="45.01612" lon="5.47492">
        <ele>1314.74</ele>
        <time>2011-09-08T13:47:15Z</time>
      </trkpt>
      <trkpt lat="45.01611" lon="5.4749">
        <ele>1312.82</ele>
        <time>2011-09-08T13:47:14Z</time>
      </trkpt>
      <trkpt lat="45.01602" lon="5.47474">
        <ele>1312.34</ele>
        <time>2011-09-08T13:47:01Z</time>
      </trkpt>
      <trkpt lat="45.01573" lon="5.47436">
        <ele>1308.97</ele>
        <time>2011-09-08T13:46:49Z</time>
      </trkpt>
      <trkpt lat="45.01568" lon="5.47432">
        <ele>1310.41</ele>
        <time>2011-09-08T13:46:47Z</time>
      </trkpt>
      <trkpt lat="45.01565" lon="5.47429">
        <ele>1311.38</ele>
        <time>2011-09-08T13:46:46Z</time>
      </trkpt>
      <trkpt lat="45.01561" lon="5.47426">
        <ele>1309.93</ele>
        <time>2011-09-08T13:46:45Z</time>
      </trkpt>
      <trkpt lat="45.01558" lon="5.47423">
        <ele>1308.97</ele>
        <time>2011-09-08T13:46:44Z</time>
      </trkpt>
      <trkpt lat="45.01555" lon="5.4742">
        <ele>1310.9</ele>
        <time>2011-09-08T13:46:43Z</time>
      </trkpt>
      <trkpt lat="45.01552" lon="5.47419">
        <ele>1310.41</ele>
        <time>2011-09-08T13:46:42Z</time>
      </trkpt>
      <trkpt lat="45.01537" lon="5.47424">
        <ele>1336.803</ele>
        <time>2011-06-03T13:05:56Z</time>
      </trkpt>
      <trkpt lat="45.01524" lon="5.47449">
        <ele>1336.186</ele>
        <time>2011-06-03T13:05:50Z</time>
      </trkpt>
      <trkpt lat="45.01495" lon="5.47468">
        <ele>1336.327</ele>
        <time>2011-06-03T13:05:46Z</time>
      </trkpt>
      <trkpt lat="45.01491" lon="5.47465">
        <ele>1336.467</ele>
        <time>2011-06-03T13:05:45Z</time>
      </trkpt>
      <trkpt lat="45.01479" lon="5.47461">
        <ele>1337.24</ele>
        <time>2011-06-03T13:05:43Z</time>
      </trkpt>
      <trkpt lat="45.01471" lon="5.47462">
        <ele>1337.797</ele>
        <time>2011-06-03T13:05:42Z</time>
      </trkpt>
      <trkpt lat="45.01443" lon="5.47473">
        <ele>1340.202</ele>
        <time>2011-06-03T13:05:38Z</time>
      </trkpt>
      <trkpt lat="45.01425" lon="5.4749">
        <ele>1341.483</ele>
        <time>2011-06-03T13:05:35Z</time>
      </trkpt>
      <trkpt lat="45.01399" lon="5.47505">
        <ele>1342.555</ele>
        <time>2011-06-03T13:05:31Z</time>
      </trkpt>
      <trkpt lat="45.01368" lon="5.47514">
        <ele>1344.163</ele>
        <time>2011-06-03T13:05:26Z</time>
      </trkpt>
      <trkpt lat="45.01349" lon="5.47518">
        <ele>1344.727</ele>
        <time>2011-06-03T13:05:22Z</time>
      </trkpt>
      <trkpt lat="45.01334" lon="5.4752">
        <ele>1344.725</ele>
        <time>2011-06-03T13:05:18Z</time>
      </trkpt>
      <trkpt lat="45.01331" lon="5.4752">
        <ele>1344.782</ele>
        <time>2011-06-03T13:05:17Z</time>
      </trkpt>
      <trkpt lat="45.01311" lon="5.47531">
        <ele>1345.387</ele>
        <time>2011-06-03T13:05:12Z</time>
      </trkpt>
      <trkpt lat="45.01303" lon="5.47539">
        <ele>1345.651</ele>
        <time>2011-06-03T13:05:09Z</time>
      </trkpt>
      <trkpt lat="45.0129" lon="5.47551">
        <ele>1345.932</ele>
        <time>2011-06-03T13:05:03Z</time>
      </trkpt>
      <trkpt lat="45.01274" lon="5.47561">
        <ele>1345.941</ele>
        <time>2011-06-03T13:04:55Z</time>
      </trkpt>
      <trkpt lat="45.01267" lon="5.47565">
        <ele>1345.28</ele>
        <time>2011-06-03T13:04:51Z</time>
      </trkpt>
      <trkpt lat="45.01253" lon="5.47572">
        <ele>1344.822</ele>
        <time>2011-06-03T13:04:45Z</time>
      </trkpt>
      <trkpt lat="45.0124" lon="5.47579">
        <ele>1344.575</ele>
        <time>2011-06-03T13:04:39Z</time>
      </trkpt>
      <trkpt lat="45.01227" lon="5.47585">
        <ele>1344.628</ele>
        <time>2011-06-03T13:04:33Z</time>
      </trkpt>
      <trkpt lat="45.01227" lon="5.47585">
        <ele>1344.628</ele>
        <time>2011-06-03T13:04:33Z</time>
      </trkpt>
      <trkpt lat="45.01213" lon="5.47592">
        <ele>1344.551</ele>
        <time>2011-06-03T13:04:27Z</time>
      </trkpt>
      <trkpt lat="45.012" lon="5.47597">
        <ele>1344.681</ele>
        <time>2011-06-03T13:04:23Z</time>
      </trkpt>
      <trkpt lat="45.01168" lon="5.47604">
        <ele>1345.514</ele>
        <time>2011-06-03T13:04:17Z</time>
      </trkpt>
      <trkpt lat="45.01156" lon="5.4761">
        <ele>1345.529</ele>
        <time>2011-06-03T13:04:14Z</time>
      </trkpt>
      <trkpt lat="45.0114" lon="5.47618">
        <ele>1345.945</ele>
        <time>2011-06-03T13:04:08Z</time>
      </trkpt>
      <trkpt lat="45.01125" lon="5.47624">
        <ele>1345.196</ele>
        <time>2011-06-03T13:04:01Z</time>
      </trkpt>
      <trkpt lat="45.01112" lon="5.4763">
        <ele>1343.965</ele>
        <time>2011-06-03T13:03:54Z</time>
      </trkpt>
      <trkpt lat="45.01097" lon="5.47635">
        <ele>1343.002</ele>
        <time>2011-06-03T13:03:47Z</time>
      </trkpt>
      <trkpt lat="45.01089" lon="5.47636">
        <ele>1340.849</ele>
        <time>2011-06-03T13:03:41Z</time>
      </trkpt>
      <trkpt lat="45.01079" lon="5.47636">
        <ele>1338.943</ele>
        <time>2011-06-03T13:03:36Z</time>
      </trkpt>
      <trkpt lat="45.01055" lon="5.47628">
        <ele>1337.7</ele>
        <time>2011-06-03T13:03:28Z</time>
      </trkpt>
      <trkpt lat="45.01052" lon="5.47626">
        <ele>1337.65</ele>
        <time>2011-06-03T13:03:27Z</time>
      </trkpt>
      <trkpt lat="45.01045" lon="5.47618">
        <ele>1337.836</ele>
        <time>2011-06-03T13:03:23Z</time>
      </trkpt>
      <trkpt lat="45.01041" lon="5.47623">
        <ele>1338.321</ele>
        <time>2011-06-03T13:00:33Z</time>
      </trkpt>
      <trkpt lat="45.01041" lon="5.47623">
        <ele>1338.343</ele>
        <time>2011-06-03T13:00:28Z</time>
      </trkpt>
      <trkpt lat="45.01041" lon="5.47623">
        <ele>1338.413</ele>
        <time>2011-06-03T13:00:27Z</time>
      </trkpt>
      <trkpt lat="45.01041" lon="5.47623">
        <ele>1339.895</ele>
        <time>2011-06-03T12:58:56Z</time>
      </trkpt>
      <trkpt lat="45.01041" lon="5.47623">
        <ele>1339.961</ele>
        <time>2011-06-03T12:58:54Z</time>
      </trkpt>
      <trkpt lat="45.0103" lon="5.47626">
        <ele>1340.252</ele>
        <time>2011-06-03T12:58:49Z</time>
      </trkpt>
      <trkpt lat="45.01002" lon="5.47627">
        <ele>1340.308</ele>
        <time>2011-06-03T12:58:42Z</time>
      </trkpt>
      <trkpt lat="45.00979" lon="5.47653">
        <ele>1340.9</ele>
        <time>2011-06-03T12:58:36Z</time>
      </trkpt>
      <trkpt lat="45.00972" lon="5.47663">
        <ele>1341.019</ele>
        <time>2011-06-03T12:58:34Z</time>
      </trkpt>
      <trkpt lat="45.00947" lon="5.47696">
        <ele>1341.406</ele>
        <time>2011-06-03T12:58:28Z</time>
      </trkpt>
      <trkpt lat="45.00912" lon="5.4772">
        <ele>1341.813</ele>
        <time>2011-06-03T12:58:21Z</time>
      </trkpt>
      <trkpt lat="45.00897" lon="5.47726">
        <ele>1341.843</ele>
        <time>2011-06-03T12:58:18Z</time>
      </trkpt>
      <trkpt lat="45.0088" lon="5.47733">
        <ele>1342.096</ele>
        <time>2011-06-03T12:58:15Z</time>
      </trkpt>
      <trkpt lat="45.00853" lon="5.47747">
        <ele>1342.733</ele>
        <time>2011-06-03T12:58:10Z</time>
      </trkpt>
      <trkpt lat="45.00823" lon="5.47779">
        <ele>1342.683</ele>
        <time>2011-06-03T12:58:04Z</time>
      </trkpt>
      <trkpt lat="45.00791" lon="5.47809">
        <ele>1342.398</ele>
        <time>2011-06-03T12:57:58Z</time>
      </trkpt>
      <trkpt lat="45.00766" lon="5.47833">
        <ele>1342.283</ele>
        <time>2011-06-03T12:57:53Z</time>
      </trkpt>
      <trkpt lat="45.00748" lon="5.47846">
        <ele>1342.349</ele>
        <time>2011-06-03T12:57:50Z</time>
      </trkpt>
      <trkpt lat="45.00717" lon="5.47867">
        <ele>1342.59</ele>
        <time>2011-06-03T12:57:45Z</time>
      </trkpt>
      <trkpt lat="45.0071" lon="5.47869">
        <ele>1342.682</ele>
        <time>2011-06-03T12:57:44Z</time>
      </trkpt>
      <trkpt lat="45.00676" lon="5.47873">
        <ele>1343.181</ele>
        <time>2011-06-03T12:57:39Z</time>
      </trkpt>
      <trkpt lat="45.00663" lon="5.47871">
        <ele>1343.327</ele>
        <time>2011-06-03T12:57:37Z</time>
      </trkpt>
      <trkpt lat="45.00651" lon="5.47868">
        <ele>1343.53</ele>
        <time>2011-06-03T12:57:35Z</time>
      </trkpt>
      <trkpt lat="45.00625" lon="5.47858">
        <ele>1343.773</ele>
        <time>2011-06-03T12:57:31Z</time>
      </trkpt>
      <trkpt lat="45.00602" lon="5.47873">
        <ele>1344.266</ele>
        <time>2011-06-03T12:57:27Z</time>
      </trkpt>
      <trkpt lat="45.00587" lon="5.47889">
        <ele>1344.395</ele>
        <time>2011-06-03T12:57:24Z</time>
      </trkpt>
      <trkpt lat="45.00556" lon="5.47908">
        <ele>1344.841</ele>
        <time>2011-06-03T12:57:18Z</time>
      </trkpt>
      <trkpt lat="45.0054" lon="5.47914">
        <ele>1344.913</ele>
        <time>2011-06-03T12:57:15Z</time>
      </trkpt>
      <trkpt lat="45.00521" lon="5.47929">
        <ele>1344.825</ele>
        <time>2011-06-03T12:57:11Z</time>
      </trkpt>
      <trkpt lat="45.00516" lon="5.47934">
        <ele>1344.838</ele>
        <time>2011-06-03T12:57:10Z</time>
      </trkpt>
      <trkpt lat="45.00503" lon="5.47942">
        <ele>1344.835</ele>
        <time>2011-06-03T12:57:07Z</time>
      </trkpt>
      <trkpt lat="45.00478" lon="5.47942">
        <ele>1345.286</ele>
        <time>2011-06-03T12:57:02Z</time>
      </trkpt>
      <trkpt lat="45.00458" lon="5.47929">
        <ele>1345.233</ele>
        <time>2011-06-03T12:56:58Z</time>
      </trkpt>
      <trkpt lat="45.00443" lon="5.47907">
        <ele>1345.773</ele>
        <time>2011-06-03T12:56:54Z</time>
      </trkpt>
      <trkpt lat="45.00439" lon="5.47902">
        <ele>1345.699</ele>
        <time>2011-06-03T12:56:53Z</time>
      </trkpt>
      <trkpt lat="45.0042" lon="5.47894">
        <ele>1345.198</ele>
        <time>2011-06-03T12:56:49Z</time>
      </trkpt>
      <trkpt lat="45.00397" lon="5.47906">
        <ele>1344.801</ele>
        <time>2011-06-03T12:56:44Z</time>
      </trkpt>
      <trkpt lat="45.00385" lon="5.47914">
        <ele>1318.1</ele>
        <time>2011-09-08T13:34:00Z</time>
      </trkpt>
      <trkpt lat="45.00377" lon="5.47922">
        <ele>1319.07</ele>
        <time>2011-09-08T13:33:57Z</time>
      </trkpt>
      <trkpt lat="45.00376" lon="5.47925">
        <ele>1316.18</ele>
        <time>2011-09-08T13:33:56Z</time>
      </trkpt>
      <trkpt lat="45.00357" lon="5.47946">
        <ele>1316.66</ele>
        <time>2011-09-08T13:33:49Z</time>
      </trkpt>
      <trkpt lat="45.00338" lon="5.47966">
        <ele>1318.1</ele>
        <time>2011-09-08T13:33:42Z</time>
      </trkpt>
      <trkpt lat="45.00319" lon="5.47975">
        <ele>1315.22</ele>
        <time>2011-09-08T13:33:36Z</time>
      </trkpt>
      <trkpt lat="45.00273" lon="5.47984">
        <ele>1314.74</ele>
        <time>2011-09-08T13:33:23Z</time>
      </trkpt>
      <trkpt lat="45.0023" lon="5.48025">
        <ele>1315.22</ele>
        <time>2011-09-08T13:33:11Z</time>
      </trkpt>
      <trkpt lat="45.00198" lon="5.48048">
        <ele>1314.26</ele>
        <time>2011-09-08T13:33:02Z</time>
      </trkpt>
      <trkpt lat="45.0017" lon="5.48045">
        <ele>1310.9</ele>
        <time>2011-09-08T13:32:52Z</time>
      </trkpt>
      <trkpt lat="45.00147" lon="5.48043">
        <ele>1309.93</ele>
        <time>2011-09-08T13:32:43Z</time>
      </trkpt>
      <trkpt lat="45.00092" lon="5.48018">
        <ele>1309.45</ele>
        <time>2011-09-08T13:32:29Z</time>
      </trkpt>
      <trkpt lat="45.00047" lon="5.47982">
        <ele>1308.49</ele>
        <time>2011-09-08T13:32:18Z</time>
      </trkpt>
      <trkpt lat="45.00043" lon="5.47979">
        <ele>1308.97</ele>
        <time>2011-09-08T13:32:17Z</time>
      </trkpt>
      <trkpt lat="45.0003" lon="5.47959">
        <ele>1308.97</ele>
        <time>2011-09-08T13:32:13Z</time>
      </trkpt>
      <trkpt lat="45.00023" lon="5.4795">
        <ele>1309.45</ele>
        <time>2011-09-08T13:32:11Z</time>
      </trkpt>
      <trkpt lat="45.00019" lon="5.47945">
        <ele>1308.01</ele>
        <time>2011-09-08T13:32:10Z</time>
      </trkpt>
      <trkpt lat="45.00002" lon="5.47915">
        <ele>1309.45</ele>
        <time>2011-09-08T13:32:04Z</time>
      </trkpt>
      <trkpt lat="44.99999" lon="5.4791">
        <ele>1307.53</ele>
        <time>2011-09-08T13:32:03Z</time>
      </trkpt>
      <trkpt lat="44.99992" lon="5.47901">
        <ele>1307.05</ele>
        <time>2011-09-08T13:32:01Z</time>
      </trkpt>
      <trkpt lat="44.99989" lon="5.47896">
        <ele>1308.01</ele>
        <time>2011-09-08T13:32:00Z</time>
      </trkpt>
      <trkpt lat="44.99984" lon="5.47893">
        <ele>1308.49</ele>
        <time>2011-09-08T13:31:59Z</time>
      </trkpt>
      <trkpt lat="44.99979" lon="5.47891">
        <ele>1307.53</ele>
        <time>2011-09-08T13:31:58Z</time>
      </trkpt>
      <trkpt lat="44.99974" lon="5.4789">
        <ele>1309.45</ele>
        <time>2011-09-08T13:31:57Z</time>
      </trkpt>
      <trkpt lat="44.99954" lon="5.47881">
        <ele>1309.45</ele>
        <time>2011-09-08T13:31:53Z</time>
      </trkpt>
      <trkpt lat="44.99948" lon="5.47877">
        <ele>1308.01</ele>
        <time>2011-09-08T13:31:52Z</time>
      </trkpt>
      <trkpt lat="44.99937" lon="5.47867">
        <ele>1308.97</ele>
        <time>2011-09-08T13:31:50Z</time>
      </trkpt>
      <trkpt lat="44.99932" lon="5.47862">
        <ele>1310.41</ele>
        <time>2011-09-08T13:31:49Z</time>
      </trkpt>
      <trkpt lat="44.99926" lon="5.47856">
        <ele>1310.41</ele>
        <time>2011-09-08T13:31:48Z</time>
      </trkpt>
      <trkpt lat="44.99919" lon="5.47853">
        <ele>1310.41</ele>
        <time>2011-09-08T13:31:47Z</time>
      </trkpt>
      <trkpt lat="44.99912" lon="5.4785">
        <ele>1310.9</ele>
        <time>2011-09-08T13:31:46Z</time>
      </trkpt>
      <trkpt lat="44.99905" lon="5.47848">
        <ele>1310.41</ele>
        <time>2011-09-08T13:31:45Z</time>
      </trkpt>
      <trkpt lat="44.99899" lon="5.47845">
        <ele>1309.45</ele>
        <time>2011-09-08T13:31:44Z</time>
      </trkpt>
      <trkpt lat="44.99893" lon="5.47839">
        <ele>1308.97</ele>
        <time>2011-09-08T13:31:43Z</time>
      </trkpt>
      <trkpt lat="44.99888" lon="5.47832">
        <ele>1309.45</ele>
        <time>2011-09-08T13:31:42Z</time>
      </trkpt>
      <trkpt lat="44.99884" lon="5.47824">
        <ele>1308.97</ele>
        <time>2011-09-08T13:31:41Z</time>
      </trkpt>
      <trkpt lat="44.9988" lon="5.47816">
        <ele>1309.93</ele>
        <time>2011-09-08T13:31:40Z</time>
      </trkpt>
      <trkpt lat="44.99877" lon="5.47808">
        <ele>1311.38</ele>
        <time>2011-09-08T13:31:39Z</time>
      </trkpt>
      <trkpt lat="44.99873" lon="5.47802">
        <ele>1312.82</ele>
        <time>2011-09-08T13:31:38Z</time>
      </trkpt>
      <trkpt lat="44.99867" lon="5.47796">
        <ele>1310.9</ele>
        <time>2011-09-08T13:31:37Z</time>
      </trkpt>
      <trkpt lat="44.9986" lon="5.4779">
        <ele>1310.41</ele>
        <time>2011-09-08T13:31:36Z</time>
      </trkpt>
      <trkpt lat="44.99843" lon="5.47783">
        <ele>1311.38</ele>
        <time>2011-09-08T13:31:34Z</time>
      </trkpt>
      <trkpt lat="44.99786" lon="5.47776">
        <ele>1315.22</ele>
        <time>2011-09-08T13:31:26Z</time>
      </trkpt>
      <trkpt lat="44.99776" lon="5.47771">
        <ele>1314.74</ele>
        <time>2011-09-08T13:31:24Z</time>
      </trkpt>
      <trkpt lat="44.99771" lon="5.47767">
        <ele>1315.7</ele>
        <time>2011-09-08T13:31:23Z</time>
      </trkpt>
      <trkpt lat="44.99767" lon="5.47762">
        <ele>1315.22</ele>
        <time>2011-09-08T13:31:22Z</time>
      </trkpt>
      <trkpt lat="44.99756" lon="5.47738">
        <ele>1318.1</ele>
        <time>2011-09-08T13:31:19Z</time>
      </trkpt>
      <trkpt lat="44.99753" lon="5.4773">
        <ele>1318.59</ele>
        <time>2011-09-08T13:31:18Z</time>
      </trkpt>
      <trkpt lat="44.9975" lon="5.47723">
        <ele>1319.07</ele>
        <time>2011-09-08T13:31:17Z</time>
      </trkpt>
      <trkpt lat="44.99746" lon="5.47718">
        <ele>1320.51</ele>
        <time>2011-09-08T13:31:16Z</time>
      </trkpt>
      <trkpt lat="44.9974" lon="5.47715">
        <ele>1320.03</ele>
        <time>2011-09-08T13:31:15Z</time>
      </trkpt>
      <trkpt lat="44.99734" lon="5.47714">
        <ele>1319.55</ele>
        <time>2011-09-08T13:31:14Z</time>
      </trkpt>
      <trkpt lat="44.99728" lon="5.47715">
        <ele>1319.07</ele>
        <time>2011-09-08T13:31:13Z</time>
      </trkpt>
      <trkpt lat="44.99719" lon="5.47718">
        <ele>1319.07</ele>
        <time>2011-09-08T13:31:11Z</time>
      </trkpt>
      <trkpt lat="44.99713" lon="5.4772">
        <ele>1322.43</ele>
        <time>2011-09-08T13:31:10Z</time>
      </trkpt>
      <trkpt lat="44.99672" lon="5.47735">
        <ele>1321.47</ele>
        <time>2011-09-08T13:31:02Z</time>
      </trkpt>
      <trkpt lat="44.99667" lon="5.47736">
        <ele>1321.47</ele>
        <time>2011-09-08T13:31:01Z</time>
      </trkpt>
      <trkpt lat="44.99662" lon="5.47735">
        <ele>1322.43</ele>
        <time>2011-09-08T13:31:00Z</time>
      </trkpt>
      <trkpt lat="44.99657" lon="5.47734">
        <ele>1323.39</ele>
        <time>2011-09-08T13:30:59Z</time>
      </trkpt>
      <trkpt lat="44.99653" lon="5.47733">
        <ele>1322.43</ele>
        <time>2011-09-08T13:30:58Z</time>
      </trkpt>
      <trkpt lat="44.99649" lon="5.47731">
        <ele>1321.47</ele>
        <time>2011-09-08T13:30:57Z</time>
      </trkpt>
      <trkpt lat="44.99645" lon="5.47729">
        <ele>1322.91</ele>
        <time>2011-09-08T13:30:56Z</time>
      </trkpt>
      <trkpt lat="44.99638" lon="5.47721">
        <ele>1323.87</ele>
        <time>2011-09-08T13:30:54Z</time>
      </trkpt>
      <trkpt lat="44.99634" lon="5.47716">
        <ele>1321.47</ele>
        <time>2011-09-08T13:30:53Z</time>
      </trkpt>
      <trkpt lat="44.99623" lon="5.47688">
        <ele>1322.91</ele>
        <time>2011-09-08T13:30:49Z</time>
      </trkpt>
      <trkpt lat="44.9962" lon="5.47682">
        <ele>1325.31</ele>
        <time>2011-09-08T13:30:48Z</time>
      </trkpt>
      <trkpt lat="44.99618" lon="5.47676">
        <ele>1323.87</ele>
        <time>2011-09-08T13:30:47Z</time>
      </trkpt>
      <trkpt lat="44.99614" lon="5.47671">
        <ele>1323.39</ele>
        <time>2011-09-08T13:30:46Z</time>
      </trkpt>
      <trkpt lat="44.99609" lon="5.47667">
        <ele>1325.31</ele>
        <time>2011-09-08T13:30:45Z</time>
      </trkpt>
      <trkpt lat="44.99603" lon="5.47663">
        <ele>1323.87</ele>
        <time>2011-09-08T13:30:44Z</time>
      </trkpt>
      <trkpt lat="44.99597" lon="5.47661">
        <ele>1322.91</ele>
        <time>2011-09-08T13:30:43Z</time>
      </trkpt>
      <trkpt lat="44.99591" lon="5.4766">
        <ele>1325.31</ele>
        <time>2011-09-08T13:30:42Z</time>
      </trkpt>
      <trkpt lat="44.99585" lon="5.47661">
        <ele>1324.35</ele>
        <time>2011-09-08T13:30:41Z</time>
      </trkpt>
      <trkpt lat="44.9958" lon="5.47663">
        <ele>1325.31</ele>
        <time>2011-09-08T13:30:40Z</time>
      </trkpt>
      <trkpt lat="44.99575" lon="5.47666">
        <ele>1325.8</ele>
        <time>2011-09-08T13:30:39Z</time>
      </trkpt>
      <trkpt lat="44.99557" lon="5.47686">
        <ele>1326.76</ele>
        <time>2011-09-08T13:30:35Z</time>
      </trkpt>
      <trkpt lat="44.99524" lon="5.47716">
        <ele>1325.8</ele>
        <time>2011-09-08T13:30:29Z</time>
      </trkpt>
      <trkpt lat="44.99507" lon="5.47725">
        <ele>1327.24</ele>
        <time>2011-09-08T13:30:26Z</time>
      </trkpt>
      <trkpt lat="44.99495" lon="5.4773">
        <ele>1327.72</ele>
        <time>2011-09-08T13:30:24Z</time>
      </trkpt>
      <trkpt lat="44.99489" lon="5.47733">
        <ele>1328.68</ele>
        <time>2011-09-08T13:30:23Z</time>
      </trkpt>
      <trkpt lat="44.99469" lon="5.4775">
        <ele>1326.28</ele>
        <time>2011-09-08T13:30:19Z</time>
      </trkpt>
      <trkpt lat="44.99437" lon="5.4779">
        <ele>1329.64</ele>
        <time>2011-09-08T13:30:12Z</time>
      </trkpt>
      <trkpt lat="44.99433" lon="5.47795">
        <ele>1328.68</ele>
        <time>2011-09-08T13:30:11Z</time>
      </trkpt>
      <trkpt lat="44.99423" lon="5.47805">
        <ele>1329.64</ele>
        <time>2011-09-08T13:30:09Z</time>
      </trkpt>
      <trkpt lat="44.99408" lon="5.47816">
        <ele>1330.6</ele>
        <time>2011-09-08T13:30:06Z</time>
      </trkpt>
      <trkpt lat="44.99403" lon="5.4782">
        <ele>1329.16</ele>
        <time>2011-09-08T13:30:05Z</time>
      </trkpt>
      <trkpt lat="44.99398" lon="5.47824">
        <ele>1328.68</ele>
        <time>2011-09-08T13:30:04Z</time>
      </trkpt>
      <trkpt lat="44.99393" lon="5.47829">
        <ele>1331.08</ele>
        <time>2011-09-08T13:30:03Z</time>
      </trkpt>
      <trkpt lat="44.9933" lon="5.47869">
        <ele>1330.6</ele>
        <time>2011-09-08T13:29:51Z</time>
      </trkpt>
      <trkpt lat="44.99324" lon="5.47872">
        <ele>1333.01</ele>
        <time>2011-09-08T13:29:50Z</time>
      </trkpt>
      <trkpt lat="44.9932" lon="5.47875">
        <ele>1327.24</ele>
        <time>2011-09-08T13:29:49Z</time>
      </trkpt>
      <trkpt lat="44.99304" lon="5.47884">
        <ele>1333.01</ele>
        <time>2011-09-08T13:29:46Z</time>
      </trkpt>
      <trkpt lat="44.99299" lon="5.47887">
        <ele>1324.35</ele>
        <time>2011-09-08T13:29:45Z</time>
      </trkpt>
      <trkpt lat="44.99283" lon="5.47895">
        <ele>1332.52</ele>
        <time>2011-09-08T13:29:42Z</time>
      </trkpt>
      <trkpt lat="44.99279" lon="5.47897">
        <ele>1331.56</ele>
        <time>2011-09-08T13:29:41Z</time>
      </trkpt>
      <trkpt lat="44.99275" lon="5.47897">
        <ele>1333.01</ele>
        <time>2011-09-08T13:29:40Z</time>
      </trkpt>
      <trkpt lat="44.99273" lon="5.47895">
        <ele>1333.49</ele>
        <time>2011-09-08T13:29:39Z</time>
      </trkpt>
      <trkpt lat="44.9927" lon="5.4789">
        <ele>1333.97</ele>
        <time>2011-09-08T13:29:38Z</time>
      </trkpt>
      <trkpt lat="44.99268" lon="5.47883">
        <ele>1333.97</ele>
        <time>2011-09-08T13:29:37Z</time>
      </trkpt>
      <trkpt lat="44.99268" lon="5.47875">
        <ele>1334.93</ele>
        <time>2011-09-08T13:29:36Z</time>
      </trkpt>
      <trkpt lat="44.99269" lon="5.47865">
        <ele>1335.41</ele>
        <time>2011-09-08T13:29:35Z</time>
      </trkpt>
      <trkpt lat="44.99271" lon="5.47856">
        <ele>1334.45</ele>
        <time>2011-09-08T13:29:34Z</time>
      </trkpt>
      <trkpt lat="44.99274" lon="5.47847">
        <ele>1338.29</ele>
        <time>2011-09-08T13:29:33Z</time>
      </trkpt>
      <trkpt lat="44.99279" lon="5.47838">
        <ele>1336.85</ele>
        <time>2011-09-08T13:29:32Z</time>
      </trkpt>
      <trkpt lat="44.99284" lon="5.47832">
        <ele>1337.81</ele>
        <time>2011-09-08T13:29:31Z</time>
      </trkpt>
      <trkpt lat="44.99291" lon="5.47828">
        <ele>1339.73</ele>
        <time>2011-09-08T13:29:30Z</time>
      </trkpt>
      <trkpt lat="44.99297" lon="5.47824">
        <ele>1339.25</ele>
        <time>2011-09-08T13:29:29Z</time>
      </trkpt>
      <trkpt lat="44.99304" lon="5.47819">
        <ele>1341.18</ele>
        <time>2011-09-08T13:29:28Z</time>
      </trkpt>
      <trkpt lat="44.99311" lon="5.47812">
        <ele>1339.73</ele>
        <time>2011-09-08T13:29:27Z</time>
      </trkpt>
      <trkpt lat="44.9932" lon="5.47804">
        <ele>1339.25</ele>
        <time>2011-09-08T13:29:26Z</time>
      </trkpt>
      <trkpt lat="44.99323" lon="5.47799">
        <ele>1338.29</ele>
        <time>2011-09-08T13:29:25Z</time>
      </trkpt>
      <trkpt lat="44.99323" lon="5.47794">
        <ele>1341.18</ele>
        <time>2011-09-08T13:29:24Z</time>
      </trkpt>
      <trkpt lat="44.99318" lon="5.47783">
        <ele>1341.18</ele>
        <time>2011-09-08T13:29:22Z</time>
      </trkpt>
      <trkpt lat="44.993" lon="5.47763">
        <ele>1342.14</ele>
        <time>2011-09-08T13:29:18Z</time>
      </trkpt>
      <trkpt lat="44.99292" lon="5.47752">
        <ele>1343.1</ele>
        <time>2011-09-08T13:29:16Z</time>
      </trkpt>
      <trkpt lat="44.99289" lon="5.47747">
        <ele>1343.58</ele>
        <time>2011-09-08T13:29:15Z</time>
      </trkpt>
      <trkpt lat="44.99285" lon="5.4774">
        <ele>1344.54</ele>
        <time>2011-09-08T13:29:14Z</time>
      </trkpt>
      <trkpt lat="44.99283" lon="5.47733">
        <ele>1342.14</ele>
        <time>2011-09-08T13:29:13Z</time>
      </trkpt>
      <trkpt lat="44.99281" lon="5.47726">
        <ele>1343.1</ele>
        <time>2011-09-08T13:29:12Z</time>
      </trkpt>
      <trkpt lat="44.9928" lon="5.47719">
        <ele>1344.06</ele>
        <time>2011-09-08T13:29:11Z</time>
      </trkpt>
      <trkpt lat="44.9928" lon="5.47711">
        <ele>1343.58</ele>
        <time>2011-09-08T13:29:10Z</time>
      </trkpt>
      <trkpt lat="44.99281" lon="5.47703">
        <ele>1343.58</ele>
        <time>2011-09-08T13:29:09Z</time>
      </trkpt>
      <trkpt lat="44.99282" lon="5.47696">
        <ele>1342.62</ele>
        <time>2011-09-08T13:29:08Z</time>
      </trkpt>
      <trkpt lat="44.9928" lon="5.47689">
        <ele>1345.98</ele>
        <time>2011-09-08T13:29:07Z</time>
      </trkpt>
      <trkpt lat="44.99277" lon="5.47684">
        <ele>1344.06</ele>
        <time>2011-09-08T13:29:06Z</time>
      </trkpt>
      <trkpt lat="44.99273" lon="5.4768">
        <ele>1345.5</ele>
        <time>2011-09-08T13:29:05Z</time>
      </trkpt>
      <trkpt lat="44.99268" lon="5.47676">
        <ele>1345.5</ele>
        <time>2011-09-08T13:29:04Z</time>
      </trkpt>
      <trkpt lat="44.99263" lon="5.47674">
        <ele>1346.46</ele>
        <time>2011-09-08T13:29:03Z</time>
      </trkpt>
      <trkpt lat="44.99229" lon="5.47661">
        <ele>1346.46</ele>
        <time>2011-09-08T13:28:55Z</time>
      </trkpt>
      <trkpt lat="44.99207" lon="5.47647">
        <ele>1345.5</ele>
        <time>2011-09-08T13:28:50Z</time>
      </trkpt>
      <trkpt lat="44.99203" lon="5.47645">
        <ele>1345.5</ele>
        <time>2011-09-08T13:28:49Z</time>
      </trkpt>
      <trkpt lat="44.99198" lon="5.47644">
        <ele>1346.46</ele>
        <time>2011-09-08T13:28:48Z</time>
      </trkpt>
      <trkpt lat="44.9918" lon="5.47645">
        <ele>1346.46</ele>
        <time>2011-09-08T13:28:44Z</time>
      </trkpt>
      <trkpt lat="44.99175" lon="5.47646">
        <ele>1347.91</ele>
        <time>2011-09-08T13:28:43Z</time>
      </trkpt>
      <trkpt lat="44.9917" lon="5.47647">
        <ele>1345.98</ele>
        <time>2011-09-08T13:28:42Z</time>
      </trkpt>
      <trkpt lat="44.99165" lon="5.47648">
        <ele>1348.39</ele>
        <time>2011-09-08T13:28:41Z</time>
      </trkpt>
      <trkpt lat="44.9916" lon="5.47649">
        <ele>1346.46</ele>
        <time>2011-09-08T13:28:40Z</time>
      </trkpt>
      <trkpt lat="44.99155" lon="5.47649">
        <ele>1346.94</ele>
        <time>2011-09-08T13:28:39Z</time>
      </trkpt>
      <trkpt lat="44.99151" lon="5.4765">
        <ele>1347.43</ele>
        <time>2011-09-08T13:28:38Z</time>
      </trkpt>
      <trkpt lat="44.99126" lon="5.47659">
        <ele>1346.46</ele>
        <time>2011-09-08T13:28:33Z</time>
      </trkpt>
      <trkpt lat="44.9912" lon="5.47661">
        <ele>1345.5</ele>
        <time>2011-09-08T13:28:32Z</time>
      </trkpt>
      <trkpt lat="44.99115" lon="5.47661">
        <ele>1347.43</ele>
        <time>2011-09-08T13:28:31Z</time>
      </trkpt>
      <trkpt lat="44.99104" lon="5.47658">
        <ele>1347.43</ele>
        <time>2011-09-08T13:28:29Z</time>
      </trkpt>
      <trkpt lat="44.99062" lon="5.47642">
        <ele>1348.87</ele>
        <time>2011-09-08T13:28:21Z</time>
      </trkpt>
      <trkpt lat="44.99018" lon="5.47623">
        <ele>1349.83</ele>
        <time>2011-09-08T13:28:10Z</time>
      </trkpt>
      <trkpt lat="44.99004" lon="5.47605">
        <ele>1352.71</ele>
        <time>2011-09-08T13:28:03Z</time>
      </trkpt>
      <trkpt lat="44.99003" lon="5.47603">
        <ele>1352.71</ele>
        <time>2011-09-08T13:28:02Z</time>
      </trkpt>
      <trkpt lat="44.99001" lon="5.47598">
        <ele>1352.23</ele>
        <time>2011-09-08T13:27:59Z</time>
      </trkpt>
      <trkpt lat="44.99001" lon="5.47596">
        <ele>1352.71</ele>
        <time>2011-09-08T13:27:57Z</time>
      </trkpt>
      <trkpt lat="44.99001" lon="5.47593">
        <ele>1352.71</ele>
        <time>2011-09-08T13:27:47Z</time>
      </trkpt>
      <trkpt lat="44.99001" lon="5.47591">
        <ele>1352.71</ele>
        <time>2011-09-08T13:27:46Z</time>
      </trkpt>
      <trkpt lat="44.99003" lon="5.47576">
        <ele>1353.67</ele>
        <time>2011-09-08T13:27:43Z</time>
      </trkpt>
      <trkpt lat="44.98989" lon="5.47525">
        <ele>1357.04</ele>
        <time>2011-09-08T13:27:37Z</time>
      </trkpt>
      <trkpt lat="44.98986" lon="5.47508">
        <ele>1358</ele>
        <time>2011-09-08T13:27:35Z</time>
      </trkpt>
      <trkpt lat="44.98984" lon="5.475">
        <ele>1366.65</ele>
        <time>2011-09-08T13:27:34Z</time>
      </trkpt>
      <trkpt lat="44.98983" lon="5.47492">
        <ele>1345.5</ele>
        <time>2011-09-08T13:27:33Z</time>
      </trkpt>
      <trkpt lat="44.9898" lon="5.47485">
        <ele>1358.96</ele>
        <time>2011-09-08T13:27:32Z</time>
      </trkpt>
      <trkpt lat="44.98976" lon="5.47479">
        <ele>1359.44</ele>
        <time>2011-09-08T13:27:31Z</time>
      </trkpt>
      <trkpt lat="44.98942" lon="5.47458">
        <ele>1359.44</ele>
        <time>2011-09-08T13:27:24Z</time>
      </trkpt>
      <trkpt lat="44.98918" lon="5.4744">
        <ele>1362.81</ele>
        <time>2011-09-08T13:27:18Z</time>
      </trkpt>
      <trkpt lat="44.98883" lon="5.47413">
        <ele>1363.29</ele>
        <time>2011-09-08T13:27:04Z</time>
      </trkpt>
      <trkpt lat="44.98882" lon="5.47412">
        <ele>1365.21</ele>
        <time>2011-09-08T13:27:03Z</time>
      </trkpt>
      <trkpt lat="44.9888" lon="5.47411">
        <ele>1364.73</ele>
        <time>2011-09-08T13:27:02Z</time>
      </trkpt>
      <trkpt lat="44.98879" lon="5.4741">
        <ele>1363.77</ele>
        <time>2011-09-08T13:26:36Z</time>
      </trkpt>
      <trkpt lat="44.98879" lon="5.4741">
        <ele>1365.21</ele>
        <time>2011-09-08T13:26:34Z</time>
      </trkpt>
      <trkpt lat="44.98879" lon="5.4741">
        <ele>1368.09</ele>
        <time>2011-09-08T13:26:33Z</time>
      </trkpt>
      <trkpt lat="44.98879" lon="5.4741">
        <ele>1362.81</ele>
        <time>2011-09-08T13:26:23Z</time>
      </trkpt>
      <trkpt lat="44.98879" lon="5.4741">
        <ele>1365.21</ele>
        <time>2011-09-08T13:26:21Z</time>
      </trkpt>
      <trkpt lat="44.98879" lon="5.4741">
        <ele>1369.05</ele>
        <time>2011-09-08T13:26:20Z</time>
      </trkpt>
      <trkpt lat="44.98879" lon="5.4741">
        <ele>1365.21</ele>
        <time>2011-09-08T13:26:12Z</time>
      </trkpt>
      <trkpt lat="44.98879" lon="5.4741">
        <ele>1357.52</ele>
        <time>2011-09-08T13:26:11Z</time>
      </trkpt>
      <trkpt lat="44.98879" lon="5.4741">
        <ele>1365.69</ele>
        <time>2011-09-08T13:26:10Z</time>
      </trkpt>
      <trkpt lat="44.98879" lon="5.4741">
        <ele>1356.08</ele>
        <time>2011-09-08T13:26:09Z</time>
      </trkpt>
      <trkpt lat="44.98877" lon="5.47411">
        <ele>1362.81</ele>
        <time>2011-09-08T13:26:04Z</time>
      </trkpt>
      <trkpt lat="44.98875" lon="5.47411">
        <ele>1365.69</ele>
        <time>2011-09-08T13:26:03Z</time>
      </trkpt>
      <trkpt lat="44.98874" lon="5.47411">
        <ele>1363.29</ele>
        <time>2011-09-08T13:26:02Z</time>
      </trkpt>
      <trkpt lat="44.98871" lon="5.47411">
        <ele>1364.25</ele>
        <time>2011-09-08T13:25:59Z</time>
      </trkpt>
      <trkpt lat="44.98869" lon="5.47411">
        <ele>1365.21</ele>
        <time>2011-09-08T13:25:58Z</time>
      </trkpt>
      <trkpt lat="44.98867" lon="5.47412">
        <ele>1360.88</ele>
        <time>2011-09-08T13:25:57Z</time>
      </trkpt>
      <trkpt lat="44.98864" lon="5.47414">
        <ele>1365.21</ele>
        <time>2011-09-08T13:25:55Z</time>
      </trkpt>
      <trkpt lat="44.98863" lon="5.47414">
        <ele>1360.4</ele>
        <time>2011-09-08T13:25:54Z</time>
      </trkpt>
      <trkpt lat="44.98857" lon="5.47417">
        <ele>1365.21</ele>
        <time>2011-09-08T13:25:50Z</time>
      </trkpt>
      <trkpt lat="44.98853" lon="5.4742">
        <ele>1359.92</ele>
        <time>2011-09-08T13:25:47Z</time>
      </trkpt>
      <trkpt lat="44.98851" lon="5.4742">
        <ele>1364.25</ele>
        <time>2011-09-08T13:25:46Z</time>
      </trkpt>
      <trkpt lat="44.98845" lon="5.47422">
        <ele>1360.88</ele>
        <time>2011-09-08T13:25:43Z</time>
      </trkpt>
      <trkpt lat="44.98843" lon="5.47422">
        <ele>1364.25</ele>
        <time>2011-09-08T13:25:42Z</time>
      </trkpt>
      <trkpt lat="44.98837" lon="5.47424">
        <ele>1359.92</ele>
        <time>2011-09-08T13:25:39Z</time>
      </trkpt>
      <trkpt lat="44.98832" lon="5.47425">
        <ele>1363.29</ele>
        <time>2011-09-08T13:25:36Z</time>
      </trkpt>
      <trkpt lat="44.98824" lon="5.47429">
        <ele>1361.36</ele>
        <time>2011-09-08T13:25:32Z</time>
      </trkpt>
      <trkpt lat="44.98812" lon="5.47433">
        <ele>1360.88</ele>
        <time>2011-09-08T13:25:27Z</time>
      </trkpt>
      <trkpt lat="44.98804" lon="5.47434">
        <ele>1359.44</ele>
        <time>2011-09-08T13:25:23Z</time>
      </trkpt>
      <trkpt lat="44.98801" lon="5.47434">
        <ele>1362.81</ele>
        <time>2011-09-08T13:25:21Z</time>
      </trkpt>
      <trkpt lat="44.988" lon="5.47434">
        <ele>1363.29</ele>
        <time>2011-09-08T13:25:20Z</time>
      </trkpt>
      <trkpt lat="44.98796" lon="5.47434">
        <ele>1359.44</ele>
        <time>2011-09-08T13:25:18Z</time>
      </trkpt>
      <trkpt lat="44.9879" lon="5.47432">
        <ele>1362.33</ele>
        <time>2011-09-08T13:25:14Z</time>
      </trkpt>
      <trkpt lat="44.98789" lon="5.4743">
        <ele>1360.88</ele>
        <time>2011-09-08T13:25:13Z</time>
      </trkpt>
      <trkpt lat="44.98788" lon="5.47428">
        <ele>1363.29</ele>
        <time>2011-09-08T13:25:12Z</time>
      </trkpt>
      <trkpt lat="44.98786" lon="5.47426">
        <ele>1359.92</ele>
        <time>2011-09-08T13:25:10Z</time>
      </trkpt>
      <trkpt lat="44.98786" lon="5.47424">
        <ele>1359.44</ele>
        <time>2011-09-08T13:25:09Z</time>
      </trkpt>
      <trkpt lat="44.98785" lon="5.47422">
        <ele>1363.29</ele>
        <time>2011-09-08T13:25:07Z</time>
      </trkpt>
      <trkpt lat="44.98784" lon="5.47419">
        <ele>1362.81</ele>
        <time>2011-09-08T13:25:06Z</time>
      </trkpt>
      <trkpt lat="44.98784" lon="5.47417">
        <ele>1359.44</ele>
        <time>2011-09-08T13:25:05Z</time>
      </trkpt>
      <trkpt lat="44.98783" lon="5.47415">
        <ele>1358.96</ele>
        <time>2011-09-08T13:25:04Z</time>
      </trkpt>
      <trkpt lat="44.98783" lon="5.47414">
        <ele>1359.92</ele>
        <time>2011-09-08T13:25:03Z</time>
      </trkpt>
      <trkpt lat="44.98781" lon="5.4741">
        <ele>1362.81</ele>
        <time>2011-09-08T13:25:00Z</time>
      </trkpt>
      <trkpt lat="44.98773" lon="5.47404">
        <ele>1359.44</ele>
        <time>2011-09-08T13:24:53Z</time>
      </trkpt>
      <trkpt lat="44.98772" lon="5.47403">
        <ele>1356.56</ele>
        <time>2011-09-08T13:24:52Z</time>
      </trkpt>
      <trkpt lat="44.9877" lon="5.47398">
        <ele>1357.52</ele>
        <time>2011-09-08T13:24:50Z</time>
      </trkpt>
      <trkpt lat="44.9877" lon="5.47393">
        <ele>1356.08</ele>
        <time>2011-09-08T13:24:48Z</time>
      </trkpt>
      <trkpt lat="44.98764" lon="5.47378">
        <ele>1358.48</ele>
        <time>2011-09-08T13:24:44Z</time>
      </trkpt>
      <trkpt lat="44.98751" lon="5.47349">
        <ele>1356.56</ele>
        <time>2011-09-08T13:24:36Z</time>
      </trkpt>
      <trkpt lat="44.98733" lon="5.47295">
        <ele>1357.52</ele>
        <time>2011-09-08T13:24:27Z</time>
      </trkpt>
      <trkpt lat="44.98729" lon="5.47289">
        <ele>1357.04</ele>
        <time>2011-09-08T13:24:26Z</time>
      </trkpt>
      <trkpt lat="44.98706" lon="5.47265">
        <ele>1353.19</ele>
        <time>2011-09-08T13:24:22Z</time>
      </trkpt>
      <trkpt lat="44.98702" lon="5.47258">
        <ele>1353.67</ele>
        <time>2011-09-08T13:24:21Z</time>
      </trkpt>
      <trkpt lat="44.98689" lon="5.4723">
        <ele>1357.04</ele>
        <time>2011-09-08T13:24:17Z</time>
      </trkpt>
      <trkpt lat="44.98683" lon="5.47219">
        <ele>1360.88</ele>
        <time>2011-09-08T13:24:15Z</time>
      </trkpt>
      <trkpt lat="44.98673" lon="5.47198">
        <ele>1364.73</ele>
        <time>2011-09-08T13:24:12Z</time>
      </trkpt>
      <trkpt lat="44.98671" lon="5.47195">
        <ele>1368.09</ele>
        <time>2011-09-08T13:24:11Z</time>
      </trkpt>
      <trkpt lat="44.9867" lon="5.47194">
        <ele>1367.61</ele>
        <time>2011-09-08T13:24:10Z</time>
      </trkpt>
      <trkpt lat="44.98668" lon="5.4719">
        <ele>1372.42</ele>
        <time>2011-09-08T13:24:09Z</time>
      </trkpt>
      <trkpt lat="44.98665" lon="5.47185">
        <ele>1374.34</ele>
        <time>2011-09-08T13:24:07Z</time>
      </trkpt>
      <trkpt lat="44.98658" lon="5.47179">
        <ele>1372.9</ele>
        <time>2011-09-08T13:24:04Z</time>
      </trkpt>
      <trkpt lat="44.98656" lon="5.47177">
        <ele>1375.3</ele>
        <time>2011-09-08T13:24:03Z</time>
      </trkpt>
      <trkpt lat="44.98645" lon="5.47171">
        <ele>1370.5</ele>
        <time>2011-09-08T13:24:01Z</time>
      </trkpt>
      <trkpt lat="44.98634" lon="5.47157">
        <ele>1373.86</ele>
        <time>2011-09-08T13:23:57Z</time>
      </trkpt>
      <trkpt lat="44.98631" lon="5.47151">
        <ele>1377.23</ele>
        <time>2011-09-08T13:23:55Z</time>
      </trkpt>
      <trkpt lat="44.98628" lon="5.47147">
        <ele>1375.3</ele>
        <time>2011-09-08T13:23:54Z</time>
      </trkpt>
      <trkpt lat="44.98595" lon="5.47102">
        <ele>1379.63</ele>
        <time>2011-09-08T13:23:45Z</time>
      </trkpt>
      <trkpt lat="44.98581" lon="5.4709">
        <ele>1382.03</ele>
        <time>2011-09-08T13:23:44Z</time>
      </trkpt>
      <trkpt lat="44.98574" lon="5.47086">
        <ele>1380.11</ele>
        <time>2011-09-08T13:23:43Z</time>
      </trkpt>
      <trkpt lat="44.9856" lon="5.47079">
        <ele>1382.03</ele>
        <time>2011-09-08T13:23:38Z</time>
      </trkpt>
      <trkpt lat="44.98551" lon="5.47068">
        <ele>1384.44</ele>
        <time>2011-09-08T13:23:34Z</time>
      </trkpt>
      <trkpt lat="44.98541" lon="5.47058">
        <ele>1387.32</ele>
        <time>2011-09-08T13:23:27Z</time>
      </trkpt>
      <trkpt lat="44.98498" lon="5.47017">
        <ele>1383.96</ele>
        <time>2011-09-08T13:23:13Z</time>
      </trkpt>
      <trkpt lat="44.98476" lon="5.46956">
        <ele>1386.36</ele>
        <time>2011-09-08T13:22:58Z</time>
      </trkpt>
      <trkpt lat="44.98457" lon="5.46904">
        <ele>1387.32</ele>
        <time>2011-09-08T13:22:44Z</time>
      </trkpt>
      <trkpt lat="44.98454" lon="5.46893">
        <ele>1389.72</ele>
        <time>2011-09-08T13:22:41Z</time>
      </trkpt>
      <trkpt lat="44.98449" lon="5.46858">
        <ele>1390.68</ele>
        <time>2011-09-08T13:22:28Z</time>
      </trkpt>
      <trkpt lat="44.98447" lon="5.46815">
        <ele>1386.84</ele>
        <time>2011-09-08T13:22:18Z</time>
      </trkpt>
      <trkpt lat="44.98444" lon="5.46804">
        <ele>1386.84</ele>
        <time>2011-09-08T13:22:16Z</time>
      </trkpt>
      <trkpt lat="44.98432" lon="5.46781">
        <ele>1389.72</ele>
        <time>2011-09-08T13:22:10Z</time>
      </trkpt>
      <trkpt lat="44.98408" lon="5.46752">
        <ele>1393.57</ele>
        <time>2011-09-08T13:21:57Z</time>
      </trkpt>
      <trkpt lat="44.98394" lon="5.46729">
        <ele>1393.57</ele>
        <time>2011-09-08T13:21:43Z</time>
      </trkpt>
      <trkpt lat="44.9839" lon="5.4672">
        <ele>1394.05</ele>
        <time>2011-09-08T13:21:39Z</time>
      </trkpt>
      <trkpt lat="44.98389" lon="5.46719">
        <ele>1393.57</ele>
        <time>2011-09-08T13:21:35Z</time>
      </trkpt>
      <trkpt lat="44.98388" lon="5.46705">
        <ele>1394.05</ele>
        <time>2011-09-08T13:21:21Z</time>
      </trkpt>
      <trkpt lat="44.98388" lon="5.46687">
        <ele>1392.61</ele>
        <time>2011-09-08T13:21:07Z</time>
      </trkpt>
      <trkpt lat="44.98387" lon="5.46683">
        <ele>1392.61</ele>
        <time>2011-09-08T13:21:04Z</time>
      </trkpt>
      <trkpt lat="44.98382" lon="5.46669">
        <ele>1389.72</ele>
        <time>2011-09-08T13:20:50Z</time>
      </trkpt>
      <trkpt lat="44.98381" lon="5.46664">
        <ele>1389.24</ele>
        <time>2011-09-08T13:20:46Z</time>
      </trkpt>
      <trkpt lat="44.98381" lon="5.46663">
        <ele>1389.24</ele>
        <time>2011-09-08T13:20:45Z</time>
      </trkpt>
      <trkpt lat="44.98376" lon="5.46651">
        <ele>1386.36</ele>
        <time>2011-09-08T13:20:33Z</time>
      </trkpt>
      <trkpt lat="44.98367" lon="5.46637">
        <ele>1386.36</ele>
        <time>2011-09-08T13:20:18Z</time>
      </trkpt>
      <trkpt lat="44.98358" lon="5.46629">
        <ele>1382.51</ele>
        <time>2011-09-08T13:20:09Z</time>
      </trkpt>
      <trkpt lat="44.98357" lon="5.46627">
        <ele>1382.03</ele>
        <time>2011-09-08T13:20:08Z</time>
      </trkpt>
      <trkpt lat="44.98352" lon="5.4662">
        <ele>1381.55</ele>
        <time>2011-09-08T13:20:01Z</time>
      </trkpt>
      <trkpt lat="44.98351" lon="5.46616">
        <ele>1381.07</ele>
        <time>2011-09-08T13:19:57Z</time>
      </trkpt>
      <trkpt lat="44.98343" lon="5.46605">
        <ele>1379.15</ele>
        <time>2011-09-08T13:19:44Z</time>
      </trkpt>
      <trkpt lat="44.98334" lon="5.46596">
        <ele>1378.19</ele>
        <time>2011-09-08T13:19:30Z</time>
      </trkpt>
      <trkpt lat="44.98323" lon="5.46579">
        <ele>1374.82</ele>
        <time>2011-09-08T13:19:15Z</time>
      </trkpt>
      <trkpt lat="44.98312" lon="5.46566">
        <ele>1372.9</ele>
        <time>2011-09-08T13:19:02Z</time>
      </trkpt>
      <trkpt lat="44.98301" lon="5.46553">
        <ele>1370.5</ele>
        <time>2011-09-08T13:18:50Z</time>
      </trkpt>
      <trkpt lat="44.98291" lon="5.46537">
        <ele>1367.61</ele>
        <time>2011-09-08T13:18:36Z</time>
      </trkpt>
      <trkpt lat="44.98282" lon="5.46524">
        <ele>1366.17</ele>
        <time>2011-09-08T13:18:25Z</time>
      </trkpt>
      <trkpt lat="44.98281" lon="5.46523">
        <ele>1366.65</ele>
        <time>2011-09-08T13:18:24Z</time>
      </trkpt>
      <trkpt lat="44.9827" lon="5.46512">
        <ele>1363.77</ele>
        <time>2011-09-08T13:18:13Z</time>
      </trkpt>
      <trkpt lat="44.98269" lon="5.46509">
        <ele>1363.77</ele>
        <time>2011-09-08T13:18:10Z</time>
      </trkpt>
      <trkpt lat="44.98269" lon="5.46508">
        <ele>1363.29</ele>
        <time>2011-09-08T13:17:48Z</time>
      </trkpt>
      <trkpt lat="44.98269" lon="5.46508">
        <ele>1362.81</ele>
        <time>2011-09-08T13:17:28Z</time>
      </trkpt>
      <trkpt lat="44.98269" lon="5.46508">
        <ele>1366.65</ele>
        <time>2011-09-08T13:17:25Z</time>
      </trkpt>
      <trkpt lat="44.98269" lon="5.46508">
        <ele>1362.81</ele>
        <time>2011-09-08T13:17:23Z</time>
      </trkpt>
      <trkpt lat="44.98269" lon="5.46508">
        <ele>1367.61</ele>
        <time>2011-09-08T13:17:22Z</time>
      </trkpt>
      <trkpt lat="44.98269" lon="5.46508">
        <ele>1363.77</ele>
        <time>2011-09-08T13:17:21Z</time>
      </trkpt>
      <trkpt lat="44.98269" lon="5.46508">
        <ele>1358</ele>
        <time>2011-09-08T13:17:20Z</time>
      </trkpt>
      <trkpt lat="44.98269" lon="5.46507">
        <ele>1363.29</ele>
        <time>2011-09-08T13:17:01Z</time>
      </trkpt>
      <trkpt lat="44.9827" lon="5.46506">
        <ele>1363.77</ele>
        <time>2011-09-08T13:16:21Z</time>
      </trkpt>
      <trkpt lat="44.9827" lon="5.46506">
        <ele>1364.73</ele>
        <time>2011-09-08T13:16:15Z</time>
      </trkpt>
      <trkpt lat="44.9827" lon="5.46506">
        <ele>1363.29</ele>
        <time>2011-09-08T13:15:49Z</time>
      </trkpt>
      <trkpt lat="44.9827" lon="5.46506">
        <ele>1366.17</ele>
        <time>2011-09-08T13:15:34Z</time>
      </trkpt>
      <trkpt lat="44.9827" lon="5.46506">
        <ele>1366.17</ele>
        <time>2011-09-08T13:15:33Z</time>
      </trkpt>
      <trkpt lat="44.9827" lon="5.46506">
        <ele>1361.84</ele>
        <time>2011-09-08T13:15:31Z</time>
      </trkpt>
      <trkpt lat="44.9827" lon="5.46506">
        <ele>1363.29</ele>
        <time>2011-09-08T13:15:02Z</time>
      </trkpt>
      <trkpt lat="44.98271" lon="5.46507">
        <ele>1364.73</ele>
        <time>2011-09-08T13:14:34Z</time>
      </trkpt>
      <trkpt lat="44.98271" lon="5.46507">
        <ele>1366.17</ele>
        <time>2011-09-08T13:14:14Z</time>
      </trkpt>
      <trkpt lat="44.98272" lon="5.46507">
        <ele>1364.25</ele>
        <time>2011-09-08T13:14:11Z</time>
      </trkpt>
      <trkpt lat="44.98272" lon="5.46507">
        <ele>1363.77</ele>
        <time>2011-09-08T13:14:02Z</time>
      </trkpt>
      <trkpt lat="44.98272" lon="5.46507">
        <ele>1362.33</ele>
        <time>2011-09-08T13:13:33Z</time>
      </trkpt>
      <trkpt lat="44.98271" lon="5.46506">
        <ele>1366.65</ele>
        <time>2011-09-08T13:13:31Z</time>
      </trkpt>
      <trkpt lat="44.98273" lon="5.46504">
        <ele>1365.21</ele>
        <time>2011-09-08T13:13:13Z</time>
      </trkpt>
      <trkpt lat="44.98269" lon="5.46487">
        <ele>1363.77</ele>
        <time>2011-09-08T13:12:59Z</time>
      </trkpt>
      <trkpt lat="44.98261" lon="5.46478">
        <ele>1362.33</ele>
        <time>2011-09-08T13:12:50Z</time>
      </trkpt>
      <trkpt lat="44.98254" lon="5.46468">
        <ele>1360.4</ele>
        <time>2011-09-08T13:12:40Z</time>
      </trkpt>
      <trkpt lat="44.98241" lon="5.46448">
        <ele>1358</ele>
        <time>2011-09-08T13:12:25Z</time>
      </trkpt>
      <trkpt lat="44.98237" lon="5.46442">
        <ele>1357.52</ele>
        <time>2011-09-08T13:12:20Z</time>
      </trkpt>
      <trkpt lat="44.9823" lon="5.46436">
        <ele>1356.08</ele>
        <time>2011-09-08T13:12:13Z</time>
      </trkpt>
      <trkpt lat="44.98225" lon="5.46429">
        <ele>1353.67</ele>
        <time>2011-09-08T13:12:05Z</time>
      </trkpt>
      <trkpt lat="44.98224" lon="5.46427">
        <ele>1355.12</ele>
        <time>2011-09-08T13:12:04Z</time>
      </trkpt>
      <trkpt lat="44.9822" lon="5.46421">
        <ele>1353.67</ele>
        <time>2011-09-08T13:11:59Z</time>
      </trkpt>
      <trkpt lat="44.98211" lon="5.46402">
        <ele>1351.75</ele>
        <time>2011-09-08T13:11:45Z</time>
      </trkpt>
      <trkpt lat="44.98207" lon="5.46398">
        <ele>1348.87</ele>
        <time>2011-09-08T13:11:41Z</time>
      </trkpt>
      <trkpt lat="44.98197" lon="5.46379">
        <ele>1348.87</ele>
        <time>2011-09-08T13:11:28Z</time>
      </trkpt>
      <trkpt lat="44.9818" lon="5.46355">
        <ele>1346.46</ele>
        <time>2011-09-08T13:11:12Z</time>
      </trkpt>
      <trkpt lat="44.98179" lon="5.46354">
        <ele>1347.43</ele>
        <time>2011-09-08T13:11:11Z</time>
      </trkpt>
      <trkpt lat="44.98166" lon="5.46317">
        <ele>1343.58</ele>
        <time>2011-09-08T13:10:52Z</time>
      </trkpt>
      <trkpt lat="44.98165" lon="5.46314">
        <ele>1342.14</ele>
        <time>2011-09-08T13:10:51Z</time>
      </trkpt>
      <trkpt lat="44.98155" lon="5.46288">
        <ele>1342.14</ele>
        <time>2011-09-08T13:10:36Z</time>
      </trkpt>
      <trkpt lat="44.98154" lon="5.46288">
        <ele>1341.18</ele>
        <time>2011-09-08T13:10:26Z</time>
      </trkpt>
      <trkpt lat="44.9815" lon="5.4628">
        <ele>1340.22</ele>
        <time>2011-09-08T13:10:11Z</time>
      </trkpt>
      <trkpt lat="44.9815" lon="5.46277">
        <ele>1341.18</ele>
        <time>2011-09-08T13:10:09Z</time>
      </trkpt>
      <trkpt lat="44.9814" lon="5.46262">
        <ele>1338.29</ele>
        <time>2011-09-08T13:09:54Z</time>
      </trkpt>
      <trkpt lat="44.9814" lon="5.46261">
        <ele>1339.73</ele>
        <time>2011-09-08T13:09:53Z</time>
      </trkpt>
      <trkpt lat="44.98138" lon="5.46259">
        <ele>1336.37</ele>
        <time>2011-09-08T13:09:51Z</time>
      </trkpt>
      <trkpt lat="44.98135" lon="5.46254">
        <ele>1337.33</ele>
        <time>2011-09-08T13:09:40Z</time>
      </trkpt>
      <trkpt lat="44.98135" lon="5.46254">
        <ele>1335.41</ele>
        <time>2011-09-08T13:09:38Z</time>
      </trkpt>
      <trkpt lat="44.98135" lon="5.46254">
        <ele>1335.89</ele>
        <time>2011-09-08T13:09:36Z</time>
      </trkpt>
      <trkpt lat="44.98135" lon="5.46253">
        <ele>1338.29</ele>
        <time>2011-09-08T13:09:35Z</time>
      </trkpt>
      <trkpt lat="44.98129" lon="5.4625">
        <ele>1335.41</ele>
        <time>2011-09-08T13:09:27Z</time>
      </trkpt>
      <trkpt lat="44.98129" lon="5.46249">
        <ele>1333.49</ele>
        <time>2011-09-08T13:09:26Z</time>
      </trkpt>
      <trkpt lat="44.98123" lon="5.4624">
        <ele>1334.45</ele>
        <time>2011-09-08T13:09:16Z</time>
      </trkpt>
      <trkpt lat="44.98122" lon="5.46239">
        <ele>1332.52</ele>
        <time>2011-09-08T13:09:15Z</time>
      </trkpt>
      <trkpt lat="44.98115" lon="5.46234">
        <ele>1333.49</ele>
        <time>2011-09-08T13:08:59Z</time>
      </trkpt>
      <trkpt lat="44.98109" lon="5.46232">
        <ele>1331.08</ele>
        <time>2011-09-08T13:08:53Z</time>
      </trkpt>
      <trkpt lat="44.98105" lon="5.4623">
        <ele>1331.08</ele>
        <time>2011-09-08T13:08:48Z</time>
      </trkpt>
      <trkpt lat="44.98098" lon="5.46231">
        <ele>1330.12</ele>
        <time>2011-09-08T13:08:41Z</time>
      </trkpt>
      <trkpt lat="44.98097" lon="5.46231">
        <ele>1328.68</ele>
        <time>2011-09-08T13:08:39Z</time>
      </trkpt>
      <trkpt lat="44.98088" lon="5.46232">
        <ele>1327.72</ele>
        <time>2011-09-08T13:08:26Z</time>
      </trkpt>
      <trkpt lat="44.98079" lon="5.46237">
        <ele>1326.76</ele>
        <time>2011-09-08T13:08:16Z</time>
      </trkpt>
      <trkpt lat="44.98065" lon="5.46223">
        <ele>1324.35</ele>
        <time>2011-09-08T13:08:00Z</time>
      </trkpt>
      <trkpt lat="44.9806" lon="5.46204">
        <ele>1321.95</ele>
        <time>2011-09-08T13:07:51Z</time>
      </trkpt>
      <trkpt lat="44.98056" lon="5.46175">
        <ele>1318.59</ele>
        <time>2011-09-08T13:07:36Z</time>
      </trkpt>
      <trkpt lat="44.98056" lon="5.46165">
        <ele>1318.59</ele>
        <time>2011-09-08T13:07:28Z</time>
      </trkpt>
      <trkpt lat="44.98058" lon="5.46162">
        <ele>1319.07</ele>
        <time>2011-09-08T13:07:14Z</time>
      </trkpt>
      <trkpt lat="44.98058" lon="5.46154">
        <ele>1318.1</ele>
        <time>2011-09-08T13:07:09Z</time>
      </trkpt>
      <trkpt lat="44.9806" lon="5.46141">
        <ele>1317.62</ele>
        <time>2011-09-08T13:06:57Z</time>
      </trkpt>
      <trkpt lat="44.98059" lon="5.46128">
        <ele>1316.18</ele>
        <time>2011-09-08T13:06:48Z</time>
      </trkpt>
      <trkpt lat="44.98059" lon="5.46119">
        <ele>1315.7</ele>
        <time>2011-09-08T13:06:40Z</time>
      </trkpt>
      <trkpt lat="44.98057" lon="5.46109">
        <ele>1313.78</ele>
        <time>2011-09-08T13:06:32Z</time>
      </trkpt>
      <trkpt lat="44.98055" lon="5.46106">
        <ele>1313.3</ele>
        <time>2011-09-08T13:06:29Z</time>
      </trkpt>
      <trkpt lat="44.98052" lon="5.46093">
        <ele>1311.86</ele>
        <time>2011-09-08T13:05:46Z</time>
      </trkpt>
      <trkpt lat="44.9805" lon="5.4609">
        <ele>1311.38</ele>
        <time>2011-09-08T13:05:30Z</time>
      </trkpt>
      <trkpt lat="44.98049" lon="5.46081">
        <ele>1310.9</ele>
        <time>2011-09-08T13:05:24Z</time>
      </trkpt>
      <trkpt lat="44.98046" lon="5.46065">
        <ele>1307.53</ele>
        <time>2011-09-08T13:05:13Z</time>
      </trkpt>
      <trkpt lat="44.98045" lon="5.46051">
        <ele>1304.65</ele>
        <time>2011-09-08T13:05:04Z</time>
      </trkpt>
      <trkpt lat="44.9804" lon="5.46026">
        <ele>1302.72</ele>
        <time>2011-09-08T13:04:50Z</time>
      </trkpt>
      <trkpt lat="44.98034" lon="5.45997">
        <ele>1300.32</ele>
        <time>2011-09-08T13:04:35Z</time>
      </trkpt>
      <trkpt lat="44.98034" lon="5.45995">
        <ele>1300.32</ele>
        <time>2011-09-08T13:04:34Z</time>
      </trkpt>
      <trkpt lat="44.98032" lon="5.45989">
        <ele>1299.36</ele>
        <time>2011-09-08T13:04:31Z</time>
      </trkpt>
      <trkpt lat="44.98031" lon="5.45986">
        <ele>1299.84</ele>
        <time>2011-09-08T13:04:28Z</time>
      </trkpt>
      <trkpt lat="44.98031" lon="5.45985">
        <ele>1299.36</ele>
        <time>2011-09-08T13:04:27Z</time>
      </trkpt>
      <trkpt lat="44.98027" lon="5.45965">
        <ele>1298.4</ele>
        <time>2011-09-08T13:04:17Z</time>
      </trkpt>
      <trkpt lat="44.98025" lon="5.45962">
        <ele>1297.44</ele>
        <time>2011-09-08T13:04:15Z</time>
      </trkpt>
      <trkpt lat="44.98024" lon="5.4596">
        <ele>1297.44</ele>
        <time>2011-09-08T13:04:13Z</time>
      </trkpt>
      <trkpt lat="44.98019" lon="5.45944">
        <ele>1296.96</ele>
        <time>2011-09-08T13:04:04Z</time>
      </trkpt>
      <trkpt lat="44.98015" lon="5.45934">
        <ele>1294.07</ele>
        <time>2011-09-08T13:03:56Z</time>
      </trkpt>
      <trkpt lat="44.98016" lon="5.45928">
        <ele>1294.07</ele>
        <time>2011-09-08T13:03:51Z</time>
      </trkpt>
      <trkpt lat="44.98018" lon="5.45924">
        <ele>1292.63</ele>
        <time>2011-09-08T13:03:49Z</time>
      </trkpt>
      <trkpt lat="44.98005" lon="5.459">
        <ele>1292.63</ele>
        <time>2011-09-08T13:03:31Z</time>
      </trkpt>
      <trkpt lat="44.97987" lon="5.45897">
        <ele>1293.11</ele>
        <time>2011-09-08T13:03:28Z</time>
      </trkpt>
      <trkpt lat="44.97953" lon="5.45895">
        <ele>1294.07</ele>
        <time>2011-09-08T13:03:23Z</time>
      </trkpt>
      <trkpt lat="44.979" lon="5.45896">
        <ele>1297.44</ele>
        <time>2011-09-08T13:03:17Z</time>
      </trkpt>
      <trkpt lat="44.97878" lon="5.45899">
        <ele>1298.88</ele>
        <time>2011-09-08T13:03:15Z</time>
      </trkpt>
      <trkpt lat="44.9783" lon="5.45904">
        <ele>1302.72</ele>
        <time>2011-09-08T13:03:09Z</time>
      </trkpt>
      <trkpt lat="44.97823" lon="5.45905">
        <ele>1304.65</ele>
        <time>2011-09-08T13:03:08Z</time>
      </trkpt>
      <trkpt lat="44.97804" lon="5.45912">
        <ele>1305.61</ele>
        <time>2011-09-08T13:03:05Z</time>
      </trkpt>
      <trkpt lat="44.978" lon="5.45914">
        <ele>1307.05</ele>
        <time>2011-09-08T13:03:04Z</time>
      </trkpt>
      <trkpt lat="44.97795" lon="5.45917">
        <ele>1305.13</ele>
        <time>2011-09-08T13:03:03Z</time>
      </trkpt>
      <trkpt lat="44.97791" lon="5.45922">
        <ele>1306.09</ele>
        <time>2011-09-08T13:03:02Z</time>
      </trkpt>
      <trkpt lat="44.97788" lon="5.45929">
        <ele>1306.57</ele>
        <time>2011-09-08T13:03:01Z</time>
      </trkpt>
      <trkpt lat="44.97785" lon="5.45936">
        <ele>1306.57</ele>
        <time>2011-09-08T13:03:00Z</time>
      </trkpt>
      <trkpt lat="44.97783" lon="5.45943">
        <ele>1305.61</ele>
        <time>2011-09-08T13:02:59Z</time>
      </trkpt>
      <trkpt lat="44.97777" lon="5.45968">
        <ele>1307.05</ele>
        <time>2011-09-08T13:02:56Z</time>
      </trkpt>
      <trkpt lat="44.97769" lon="5.45994">
        <ele>1308.01</ele>
        <time>2011-09-08T13:02:53Z</time>
      </trkpt>
      <trkpt lat="44.97767" lon="5.46004">
        <ele>1308.49</ele>
        <time>2011-09-08T13:02:52Z</time>
      </trkpt>
      <trkpt lat="44.97764" lon="5.46013">
        <ele>1308.97</ele>
        <time>2011-09-08T13:02:51Z</time>
      </trkpt>
      <trkpt lat="44.97753" lon="5.4604">
        <ele>1308.49</ele>
        <time>2011-09-08T13:02:48Z</time>
      </trkpt>
      <trkpt lat="44.9775" lon="5.46047">
        <ele>1312.82</ele>
        <time>2011-09-08T13:02:47Z</time>
      </trkpt>
      <trkpt lat="44.97748" lon="5.46051">
        <ele>1301.76</ele>
        <time>2011-09-08T13:02:46Z</time>
      </trkpt>
      <trkpt lat="44.97743" lon="5.46062">
        <ele>1311.38</ele>
        <time>2011-09-08T13:02:45Z</time>
      </trkpt>
      <trkpt lat="44.97739" lon="5.46071">
        <ele>1309.93</ele>
        <time>2011-09-08T13:02:44Z</time>
      </trkpt>
      <trkpt lat="44.97735" lon="5.46079">
        <ele>1309.45</ele>
        <time>2011-09-08T13:02:43Z</time>
      </trkpt>
      <trkpt lat="44.9773" lon="5.46085">
        <ele>1310.41</ele>
        <time>2011-09-08T13:02:42Z</time>
      </trkpt>
      <trkpt lat="44.97709" lon="5.46112">
        <ele>1310.9</ele>
        <time>2011-09-08T13:02:38Z</time>
      </trkpt>
      <trkpt lat="44.97697" lon="5.46125">
        <ele>1311.38</ele>
        <time>2011-09-08T13:02:36Z</time>
      </trkpt>
      <trkpt lat="44.97691" lon="5.46131">
        <ele>1311.86</ele>
        <time>2011-09-08T13:02:35Z</time>
      </trkpt>
      <trkpt lat="44.97673" lon="5.4615">
        <ele>1311.86</ele>
        <time>2011-09-08T13:02:32Z</time>
      </trkpt>
      <trkpt lat="44.97651" lon="5.46171">
        <ele>1311.86</ele>
        <time>2011-09-08T13:02:29Z</time>
      </trkpt>
      <trkpt lat="44.97622" lon="5.46193">
        <ele>1313.3</ele>
        <time>2011-09-08T13:02:25Z</time>
      </trkpt>
      <trkpt lat="44.97613" lon="5.46197">
        <ele>1313.3</ele>
        <time>2011-09-08T13:02:24Z</time>
      </trkpt>
      <trkpt lat="44.97604" lon="5.46201">
        <ele>1314.74</ele>
        <time>2011-09-08T13:02:23Z</time>
      </trkpt>
      <trkpt lat="44.97585" lon="5.46207">
        <ele>1314.26</ele>
        <time>2011-09-08T13:02:21Z</time>
      </trkpt>
      <trkpt lat="44.97523" lon="5.46222">
        <ele>1317.62</ele>
        <time>2011-09-08T13:02:15Z</time>
      </trkpt>
      <trkpt lat="44.97467" lon="5.4624">
        <ele>1320.99</ele>
        <time>2011-09-08T13:02:08Z</time>
      </trkpt>
      <trkpt lat="44.97451" lon="5.46243">
        <ele>1321.95</ele>
        <time>2011-09-08T13:02:06Z</time>
      </trkpt>
      <trkpt lat="44.97437" lon="5.46247">
        <ele>1323.39</ele>
        <time>2011-09-08T13:02:04Z</time>
      </trkpt>
      <trkpt lat="44.97427" lon="5.46249">
        <ele>1324.35</ele>
        <time>2011-09-08T13:02:03Z</time>
      </trkpt>
      <trkpt lat="44.97424" lon="5.46249">
        <ele>1326.76</ele>
        <time>2011-09-08T13:02:02Z</time>
      </trkpt>
      <trkpt lat="44.97417" lon="5.4625">
        <ele>1324.35</ele>
        <time>2011-09-08T13:02:01Z</time>
      </trkpt>
      <trkpt lat="44.97392" lon="5.46258">
        <ele>1326.76</ele>
        <time>2011-09-08T13:01:57Z</time>
      </trkpt>
      <trkpt lat="44.97388" lon="5.4626">
        <ele>1328.2</ele>
        <time>2011-09-08T13:01:56Z</time>
      </trkpt>
      <trkpt lat="44.97382" lon="5.46262">
        <ele>1328.2</ele>
        <time>2011-09-08T13:01:55Z</time>
      </trkpt>
      <trkpt lat="44.97378" lon="5.46263">
        <ele>1327.72</ele>
        <time>2011-09-08T13:01:54Z</time>
      </trkpt>
      <trkpt lat="44.97373" lon="5.46264">
        <ele>1326.76</ele>
        <time>2011-09-08T13:01:53Z</time>
      </trkpt>
      <trkpt lat="44.97363" lon="5.46264">
        <ele>1326.76</ele>
        <time>2011-09-08T13:01:51Z</time>
      </trkpt>
      <trkpt lat="44.97346" lon="5.46262">
        <ele>1328.2</ele>
        <time>2011-09-08T13:01:48Z</time>
      </trkpt>
      <trkpt lat="44.97329" lon="5.4626">
        <ele>1328.2</ele>
        <time>2011-09-08T13:01:45Z</time>
      </trkpt>
      <trkpt lat="44.97314" lon="5.46256">
        <ele>1331.56</ele>
        <time>2011-09-08T13:01:42Z</time>
      </trkpt>
      <trkpt lat="44.97308" lon="5.46253">
        <ele>1330.6</ele>
        <time>2011-09-08T13:01:40Z</time>
      </trkpt>
      <trkpt lat="44.97284" lon="5.46239">
        <ele>1331.08</ele>
        <time>2011-09-08T13:01:33Z</time>
      </trkpt>
      <trkpt lat="44.97278" lon="5.46236">
        <ele>1331.56</ele>
        <time>2011-09-08T13:01:31Z</time>
      </trkpt>
      <trkpt lat="44.97269" lon="5.46233">
        <ele>1334.45</ele>
        <time>2011-09-08T13:01:28Z</time>
      </trkpt>
      <trkpt lat="44.97239" lon="5.46235">
        <ele>1334.45</ele>
        <time>2011-09-08T13:01:18Z</time>
      </trkpt>
      <trkpt lat="44.97222" lon="5.46235">
        <ele>1333.49</ele>
        <time>2011-09-08T13:01:13Z</time>
      </trkpt>
      <trkpt lat="44.97219" lon="5.46235">
        <ele>1331.56</ele>
        <time>2011-09-08T13:01:12Z</time>
      </trkpt>
      <trkpt lat="44.97178" lon="5.4622">
        <ele>1331.08</ele>
        <time>2011-09-08T13:00:57Z</time>
      </trkpt>
      <trkpt lat="44.97175" lon="5.46218">
        <ele>1333.01</ele>
        <time>2011-09-08T13:00:56Z</time>
      </trkpt>
      <trkpt lat="44.97134" lon="5.46164">
        <ele>1330.12</ele>
        <time>2011-09-08T13:00:37Z</time>
      </trkpt>
      <trkpt lat="44.9711" lon="5.46138">
        <ele>1328.68</ele>
        <time>2011-09-08T13:00:25Z</time>
      </trkpt>
      <trkpt lat="44.97109" lon="5.46136">
        <ele>1325.8</ele>
        <time>2011-09-08T13:00:24Z</time>
      </trkpt>
      <trkpt lat="44.97107" lon="5.46134">
        <ele>1327.24</ele>
        <time>2011-09-08T13:00:23Z</time>
      </trkpt>
      <trkpt lat="44.97087" lon="5.46095">
        <ele>1326.28</ele>
        <time>2011-09-08T13:00:10Z</time>
      </trkpt>
      <trkpt lat="44.97086" lon="5.46089">
        <ele>1323.39</ele>
        <time>2011-09-08T13:00:08Z</time>
      </trkpt>
      <trkpt lat="44.97086" lon="5.46046">
        <ele>1322.91</ele>
        <time>2011-09-08T12:59:56Z</time>
      </trkpt>
      <trkpt lat="44.9706" lon="5.45997">
        <ele>1321.95</ele>
        <time>2011-09-08T12:59:43Z</time>
      </trkpt>
      <trkpt lat="44.97036" lon="5.4597">
        <ele>1320.51</ele>
        <time>2011-09-08T12:59:33Z</time>
      </trkpt>
      <trkpt lat="44.97007" lon="5.4594">
        <ele>1319.55</ele>
        <time>2011-09-08T12:59:21Z</time>
      </trkpt>
      <trkpt lat="44.96968" lon="5.45926">
        <ele>1318.1</ele>
        <time>2011-09-08T12:59:08Z</time>
      </trkpt>
      <trkpt lat="44.96966" lon="5.45926">
        <ele>1319.55</ele>
        <time>2011-09-08T12:59:07Z</time>
      </trkpt>
      <trkpt lat="44.96956" lon="5.45925">
        <ele>1319.07</ele>
        <time>2011-09-08T12:59:03Z</time>
      </trkpt>
      <trkpt lat="44.96934" lon="5.45902">
        <ele>1316.66</ele>
        <time>2011-09-08T12:58:53Z</time>
      </trkpt>
      <trkpt lat="44.9691" lon="5.45874">
        <ele>1315.7</ele>
        <time>2011-09-08T12:58:41Z</time>
      </trkpt>
      <trkpt lat="44.96881" lon="5.45851">
        <ele>1314.74</ele>
        <time>2011-09-08T12:58:28Z</time>
      </trkpt>
      <trkpt lat="44.9687" lon="5.45832">
        <ele>1313.78</ele>
        <time>2011-09-08T12:58:22Z</time>
      </trkpt>
      <trkpt lat="44.96857" lon="5.45795">
        <ele>1312.34</ele>
        <time>2011-09-08T12:58:09Z</time>
      </trkpt>
      <trkpt lat="44.96849" lon="5.45772">
        <ele>1311.38</ele>
        <time>2011-09-08T12:58:03Z</time>
      </trkpt>
      <trkpt lat="44.96823" lon="5.45738">
        <ele>1308.49</ele>
        <time>2011-09-08T12:57:51Z</time>
      </trkpt>
      <trkpt lat="44.96801" lon="5.45706">
        <ele>1307.53</ele>
        <time>2011-09-08T12:57:39Z</time>
      </trkpt>
      <trkpt lat="44.96763" lon="5.45664">
        <ele>1306.57</ele>
        <time>2011-09-08T12:57:26Z</time>
      </trkpt>
      <trkpt lat="44.9676" lon="5.45658">
        <ele>1311.38</ele>
        <time>2011-09-08T12:57:25Z</time>
      </trkpt>
      <trkpt lat="44.96759" lon="5.45658">
        <ele>1299.84</ele>
        <time>2011-09-08T12:57:24Z</time>
      </trkpt>
      <trkpt lat="44.96751" lon="5.45651">
        <ele>1306.57</ele>
        <time>2011-09-08T12:57:22Z</time>
      </trkpt>
      <trkpt lat="44.96745" lon="5.45644">
        <ele>1309.45</ele>
        <time>2011-09-08T12:57:21Z</time>
      </trkpt>
      <trkpt lat="44.96735" lon="5.45642">
        <ele>1305.61</ele>
        <time>2011-09-08T12:57:18Z</time>
      </trkpt>
      <trkpt lat="44.96719" lon="5.45656">
        <ele>1307.53</ele>
        <time>2011-09-08T12:57:12Z</time>
      </trkpt>
      <trkpt lat="44.96683" lon="5.45724">
        <ele>1308.01</ele>
        <time>2011-09-08T12:56:57Z</time>
      </trkpt>
      <trkpt lat="44.96681" lon="5.45727">
        <ele>1301.28</ele>
        <time>2011-09-08T12:56:56Z</time>
      </trkpt>
      <trkpt lat="44.9668" lon="5.4573">
        <ele>1307.05</ele>
        <time>2011-09-08T12:56:55Z</time>
      </trkpt>
      <trkpt lat="44.9666" lon="5.45781">
        <ele>1306.09</ele>
        <time>2011-09-08T12:56:45Z</time>
      </trkpt>
      <trkpt lat="44.96651" lon="5.45821">
        <ele>1306.09</ele>
        <time>2011-09-08T12:56:36Z</time>
      </trkpt>
      <trkpt lat="44.9664" lon="5.4588">
        <ele>1305.61</ele>
        <time>2011-09-08T12:56:24Z</time>
      </trkpt>
      <trkpt lat="44.96634" lon="5.4593">
        <ele>1306.57</ele>
        <time>2011-09-08T12:56:16Z</time>
      </trkpt>
      <trkpt lat="44.96634" lon="5.45938">
        <ele>1308.49</ele>
        <time>2011-09-08T12:56:15Z</time>
      </trkpt>
      <trkpt lat="44.96633" lon="5.45944">
        <ele>1295.51</ele>
        <time>2011-09-08T12:56:14Z</time>
      </trkpt>
      <trkpt lat="44.96629" lon="5.45973">
        <ele>1306.57</ele>
        <time>2011-09-08T12:56:09Z</time>
      </trkpt>
      <trkpt lat="44.96627" lon="5.45978">
        <ele>1306.57</ele>
        <time>2011-09-08T12:56:08Z</time>
      </trkpt>
      <trkpt lat="44.96623" lon="5.45989">
        <ele>1306.57</ele>
        <time>2011-09-08T12:56:06Z</time>
      </trkpt>
      <trkpt lat="44.96617" lon="5.45998">
        <ele>1307.05</ele>
        <time>2011-09-08T12:56:04Z</time>
      </trkpt>
      <trkpt lat="44.96607" lon="5.4601">
        <ele>1306.57</ele>
        <time>2011-09-08T12:56:01Z</time>
      </trkpt>
      <trkpt lat="44.96603" lon="5.46014">
        <ele>1305.61</ele>
        <time>2011-09-08T12:56:00Z</time>
      </trkpt>
      <trkpt lat="44.96599" lon="5.46016">
        <ele>1307.05</ele>
        <time>2011-09-08T12:55:59Z</time>
      </trkpt>
      <trkpt lat="44.96584" lon="5.46021">
        <ele>1307.05</ele>
        <time>2011-09-08T12:55:56Z</time>
      </trkpt>
      <trkpt lat="44.96579" lon="5.46021">
        <ele>1306.57</ele>
        <time>2011-09-08T12:55:55Z</time>
      </trkpt>
      <trkpt lat="44.96552" lon="5.46014">
        <ele>1307.05</ele>
        <time>2011-09-08T12:55:50Z</time>
      </trkpt>
      <trkpt lat="44.96545" lon="5.46013">
        <ele>1306.57</ele>
        <time>2011-09-08T12:55:49Z</time>
      </trkpt>
      <trkpt lat="44.96538" lon="5.46013">
        <ele>1308.01</ele>
        <time>2011-09-08T12:55:48Z</time>
      </trkpt>
      <trkpt lat="44.96531" lon="5.46014">
        <ele>1307.05</ele>
        <time>2011-09-08T12:55:47Z</time>
      </trkpt>
      <trkpt lat="44.96517" lon="5.46022">
        <ele>1307.53</ele>
        <time>2011-09-08T12:55:45Z</time>
      </trkpt>
      <trkpt lat="44.96497" lon="5.46038">
        <ele>1307.53</ele>
        <time>2011-09-08T12:55:42Z</time>
      </trkpt>
      <trkpt lat="44.96486" lon="5.46047">
        <ele>1308.97</ele>
        <time>2011-09-08T12:55:41Z</time>
      </trkpt>
      <trkpt lat="44.96483" lon="5.4605">
        <ele>1307.53</ele>
        <time>2011-09-08T12:55:40Z</time>
      </trkpt>
      <trkpt lat="44.96475" lon="5.46054">
        <ele>1308.97</ele>
        <time>2011-09-08T12:55:39Z</time>
      </trkpt>
      <trkpt lat="44.96461" lon="5.46056">
        <ele>1310.9</ele>
        <time>2011-09-08T12:55:37Z</time>
      </trkpt>
      <trkpt lat="44.96454" lon="5.46054">
        <ele>1310.41</ele>
        <time>2011-09-08T12:55:36Z</time>
      </trkpt>
      <trkpt lat="44.96439" lon="5.46044">
        <ele>1310.41</ele>
        <time>2011-09-08T12:55:34Z</time>
      </trkpt>
      <trkpt lat="44.96431" lon="5.46038">
        <ele>1311.86</ele>
        <time>2011-09-08T12:55:33Z</time>
      </trkpt>
      <trkpt lat="44.96413" lon="5.46033">
        <ele>1312.82</ele>
        <time>2011-09-08T12:55:31Z</time>
      </trkpt>
      <trkpt lat="44.96388" lon="5.46032">
        <ele>1314.26</ele>
        <time>2011-09-08T12:55:28Z</time>
      </trkpt>
      <trkpt lat="44.96347" lon="5.4604">
        <ele>1317.62</ele>
        <time>2011-09-08T12:55:23Z</time>
      </trkpt>
      <trkpt lat="44.96341" lon="5.4604">
        <ele>1318.59</ele>
        <time>2011-09-08T12:55:22Z</time>
      </trkpt>
      <trkpt lat="44.96335" lon="5.46039">
        <ele>1318.1</ele>
        <time>2011-09-08T12:55:21Z</time>
      </trkpt>
      <trkpt lat="44.9633" lon="5.46037">
        <ele>1320.03</ele>
        <time>2011-09-08T12:55:20Z</time>
      </trkpt>
      <trkpt lat="44.96326" lon="5.46032">
        <ele>1318.59</ele>
        <time>2011-09-08T12:55:19Z</time>
      </trkpt>
      <trkpt lat="44.96323" lon="5.46024">
        <ele>1320.51</ele>
        <time>2011-09-08T12:55:18Z</time>
      </trkpt>
      <trkpt lat="44.96321" lon="5.46016">
        <ele>1320.99</ele>
        <time>2011-09-08T12:55:17Z</time>
      </trkpt>
      <trkpt lat="44.96321" lon="5.46007">
        <ele>1320.99</ele>
        <time>2011-09-08T12:55:16Z</time>
      </trkpt>
      <trkpt lat="44.96322" lon="5.45998">
        <ele>1322.43</ele>
        <time>2011-09-08T12:55:15Z</time>
      </trkpt>
      <trkpt lat="44.96325" lon="5.45991">
        <ele>1321.95</ele>
        <time>2011-09-08T12:55:14Z</time>
      </trkpt>
      <trkpt lat="44.96329" lon="5.45984">
        <ele>1322.43</ele>
        <time>2011-09-08T12:55:13Z</time>
      </trkpt>
      <trkpt lat="44.96336" lon="5.45976">
        <ele>1323.39</ele>
        <time>2011-09-08T12:55:12Z</time>
      </trkpt>
      <trkpt lat="44.96349" lon="5.45968">
        <ele>1324.83</ele>
        <time>2011-09-08T12:55:10Z</time>
      </trkpt>
      <trkpt lat="44.96356" lon="5.45963">
        <ele>1325.8</ele>
        <time>2011-09-08T12:55:09Z</time>
      </trkpt>
      <trkpt lat="44.96362" lon="5.45957">
        <ele>1325.31</ele>
        <time>2011-09-08T12:55:08Z</time>
      </trkpt>
      <trkpt lat="44.96397" lon="5.45929">
        <ele>1327.72</ele>
        <time>2011-09-08T12:55:02Z</time>
      </trkpt>
      <trkpt lat="44.96402" lon="5.45925">
        <ele>1329.64</ele>
        <time>2011-09-08T12:55:01Z</time>
      </trkpt>
      <trkpt lat="44.96407" lon="5.45919">
        <ele>1329.16</ele>
        <time>2011-09-08T12:55:00Z</time>
      </trkpt>
      <trkpt lat="44.96409" lon="5.45913">
        <ele>1329.16</ele>
        <time>2011-09-08T12:54:59Z</time>
      </trkpt>
      <trkpt lat="44.9641" lon="5.45906">
        <ele>1330.12</ele>
        <time>2011-09-08T12:54:58Z</time>
      </trkpt>
      <trkpt lat="44.96407" lon="5.45901">
        <ele>1331.08</ele>
        <time>2011-09-08T12:54:57Z</time>
      </trkpt>
      <trkpt lat="44.96402" lon="5.45899">
        <ele>1330.12</ele>
        <time>2011-09-08T12:54:56Z</time>
      </trkpt>
      <trkpt lat="44.96397" lon="5.459">
        <ele>1331.56</ele>
        <time>2011-09-08T12:54:55Z</time>
      </trkpt>
      <trkpt lat="44.96393" lon="5.45901">
        <ele>1331.56</ele>
        <time>2011-09-08T12:54:54Z</time>
      </trkpt>
      <trkpt lat="44.96367" lon="5.45918">
        <ele>1333.49</ele>
        <time>2011-09-08T12:54:51Z</time>
      </trkpt>
      <trkpt lat="44.96343" lon="5.45921">
        <ele>1334.93</ele>
        <time>2011-09-08T12:54:48Z</time>
      </trkpt>
      <trkpt lat="44.96335" lon="5.4592">
        <ele>1335.41</ele>
        <time>2011-09-08T12:54:47Z</time>
      </trkpt>
      <trkpt lat="44.96313" lon="5.45916">
        <ele>1338.77</ele>
        <time>2011-09-08T12:54:44Z</time>
      </trkpt>
      <trkpt lat="44.96308" lon="5.45913">
        <ele>1338.29</ele>
        <time>2011-09-08T12:54:43Z</time>
      </trkpt>
      <trkpt lat="44.96283" lon="5.45875">
        <ele>1339.73</ele>
        <time>2011-09-08T12:54:39Z</time>
      </trkpt>
      <trkpt lat="44.96276" lon="5.45867">
        <ele>1341.18</ele>
        <time>2011-09-08T12:54:38Z</time>
      </trkpt>
      <trkpt lat="44.96269" lon="5.4586">
        <ele>1342.14</ele>
        <time>2011-09-08T12:54:37Z</time>
      </trkpt>
      <trkpt lat="44.9626" lon="5.45855">
        <ele>1342.62</ele>
        <time>2011-09-08T12:54:36Z</time>
      </trkpt>
      <trkpt lat="44.96251" lon="5.45852">
        <ele>1344.06</ele>
        <time>2011-09-08T12:54:35Z</time>
      </trkpt>
      <trkpt lat="44.96231" lon="5.45851">
        <ele>1344.54</ele>
        <time>2011-09-08T12:54:33Z</time>
      </trkpt>
      <trkpt lat="44.96207" lon="5.45855">
        <ele>1346.46</ele>
        <time>2011-09-08T12:54:30Z</time>
      </trkpt>
      <trkpt lat="44.96196" lon="5.45856">
        <ele>1374.485</ele>
        <time>2011-06-03T12:17:49Z</time>
      </trkpt>
      <trkpt lat="44.96164" lon="5.45873">
        <ele>1376.651</ele>
        <time>2011-06-03T12:17:45Z</time>
      </trkpt>
      <trkpt lat="44.96132" lon="5.45908">
        <ele>1378.067</ele>
        <time>2011-06-03T12:17:39Z</time>
      </trkpt>
      <trkpt lat="44.96112" lon="5.45941">
        <ele>1379.163</ele>
        <time>2011-06-03T12:17:34Z</time>
      </trkpt>
      <trkpt lat="44.96109" lon="5.45957">
        <ele>1379.37</ele>
        <time>2011-06-03T12:17:32Z</time>
      </trkpt>
      <trkpt lat="44.96108" lon="5.45978">
        <ele>1379.604</ele>
        <time>2011-06-03T12:17:29Z</time>
      </trkpt>
      <trkpt lat="44.96103" lon="5.46002">
        <ele>1379.919</ele>
        <time>2011-06-03T12:17:24Z</time>
      </trkpt>
      <trkpt lat="44.96098" lon="5.4603">
        <ele>1379.51</ele>
        <time>2011-06-03T12:17:15Z</time>
      </trkpt>
      <trkpt lat="44.96097" lon="5.46043">
        <ele>1379.248</ele>
        <time>2011-06-03T12:17:11Z</time>
      </trkpt>
      <trkpt lat="44.96099" lon="5.46059">
        <ele>1378.403</ele>
        <time>2011-06-03T12:17:06Z</time>
      </trkpt>
      <trkpt lat="44.96099" lon="5.46078">
        <ele>1377.689</ele>
        <time>2011-06-03T12:16:59Z</time>
      </trkpt>
      <trkpt lat="44.96097" lon="5.46092">
        <ele>1376.876</ele>
        <time>2011-06-03T12:16:53Z</time>
      </trkpt>
      <trkpt lat="44.96091" lon="5.46103">
        <ele>1375.999</ele>
        <time>2011-06-03T12:16:47Z</time>
      </trkpt>
      <trkpt lat="44.96079" lon="5.46112">
        <ele>1374.217</ele>
        <time>2011-06-03T12:16:39Z</time>
      </trkpt>
      <trkpt lat="44.96072" lon="5.46128">
        <ele>1373.181</ele>
        <time>2011-06-03T12:16:33Z</time>
      </trkpt>
      <trkpt lat="44.96078" lon="5.46137">
        <ele>1372.608</ele>
        <time>2011-06-03T12:16:28Z</time>
      </trkpt>
      <trkpt lat="44.96094" lon="5.46147">
        <ele>1371.177</ele>
        <time>2011-06-03T12:16:19Z</time>
      </trkpt>
      <trkpt lat="44.96108" lon="5.46156">
        <ele>1369.642</ele>
        <time>2011-06-03T12:16:11Z</time>
      </trkpt>
      <trkpt lat="44.96116" lon="5.46167">
        <ele>1368.637</ele>
        <time>2011-06-03T12:16:04Z</time>
      </trkpt>
      <trkpt lat="44.96116" lon="5.4617">
        <ele>1368.481</ele>
        <time>2011-06-03T12:16:03Z</time>
      </trkpt>
      <trkpt lat="44.9611" lon="5.46184">
        <ele>1367.891</ele>
        <time>2011-06-03T12:15:57Z</time>
      </trkpt>
      <trkpt lat="44.96098" lon="5.46186">
        <ele>1367.079</ele>
        <time>2011-06-03T12:15:51Z</time>
      </trkpt>
      <trkpt lat="44.96083" lon="5.46182">
        <ele>1365.892</ele>
        <time>2011-06-03T12:15:45Z</time>
      </trkpt>
      <trkpt lat="44.96072" lon="5.46194">
        <ele>1364.925</ele>
        <time>2011-06-03T12:15:39Z</time>
      </trkpt>
      <trkpt lat="44.96067" lon="5.46207">
        <ele>1363.646</ele>
        <time>2011-06-03T12:15:34Z</time>
      </trkpt>
      <trkpt lat="44.96061" lon="5.46225">
        <ele>1362.424</ele>
        <time>2011-06-03T12:15:28Z</time>
      </trkpt>
      <trkpt lat="44.9605" lon="5.46244">
        <ele>1361.42</ele>
        <time>2011-06-03T12:15:22Z</time>
      </trkpt>
      <trkpt lat="44.96031" lon="5.46258">
        <ele>1361.282</ele>
        <time>2011-06-03T12:15:17Z</time>
      </trkpt>
      <trkpt lat="44.95993" lon="5.46265">
        <ele>1362.052</ele>
        <time>2011-06-03T12:15:11Z</time>
      </trkpt>
      <trkpt lat="44.95991" lon="5.46264">
        <ele>1352.9140625</ele>
      </trkpt>
      <trkpt lat="44.95987" lon="5.46263">
        <ele>1352.875</ele>
      </trkpt>
      <trkpt lat="44.95982" lon="5.4626">
        <ele>1352.109375</ele>
      </trkpt>
      <trkpt lat="44.95976" lon="5.46253">
        <ele>1350.25</ele>
      </trkpt>
      <trkpt lat="44.9597" lon="5.46248">
        <ele>1348.8164063</ele>
      </trkpt>
      <trkpt lat="44.95966" lon="5.46239">
        <ele>1346.5078125</ele>
      </trkpt>
      <trkpt lat="44.95961" lon="5.46228">
        <ele>1340.22</ele>
        <time>2011-09-08T12:51:19Z</time>
      </trkpt>
      <trkpt lat="44.95955" lon="5.46211">
        <ele>1339.73</ele>
        <time>2011-09-08T12:51:13Z</time>
      </trkpt>
      <trkpt lat="44.95955" lon="5.46209">
        <ele>1338.29</ele>
        <time>2011-09-08T12:51:12Z</time>
      </trkpt>
      <trkpt lat="44.95954" lon="5.46206">
        <ele>1339.73</ele>
        <time>2011-09-08T12:51:11Z</time>
      </trkpt>
      <trkpt lat="44.95952" lon="5.46195">
        <ele>1338.77</ele>
        <time>2011-09-08T12:51:06Z</time>
      </trkpt>
      <trkpt lat="44.95956" lon="5.46151">
        <ele>1336.85</ele>
        <time>2011-09-08T12:50:52Z</time>
      </trkpt>
      <trkpt lat="44.95956" lon="5.46149">
        <ele>1338.77</ele>
        <time>2011-09-08T12:50:51Z</time>
      </trkpt>
      <trkpt lat="44.95953" lon="5.46128">
        <ele>1336.37</ele>
        <time>2011-09-08T12:50:41Z</time>
      </trkpt>
      <trkpt lat="44.95953" lon="5.46126">
        <ele>1334.93</ele>
        <time>2011-09-08T12:50:40Z</time>
      </trkpt>
      <trkpt lat="44.9595" lon="5.46118">
        <ele>1335.89</ele>
        <time>2011-09-08T12:50:37Z</time>
      </trkpt>
      <trkpt lat="44.9595" lon="5.46116">
        <ele>1337.81</ele>
        <time>2011-09-08T12:50:36Z</time>
      </trkpt>
      <trkpt lat="44.95946" lon="5.46109">
        <ele>1337.33</ele>
        <time>2011-09-08T12:50:33Z</time>
      </trkpt>
      <trkpt lat="44.95936" lon="5.46102">
        <ele>1335.89</ele>
        <time>2011-09-08T12:50:26Z</time>
      </trkpt>
      <trkpt lat="44.95936" lon="5.46102">
        <ele>1335.89</ele>
        <time>2011-09-08T12:50:07Z</time>
      </trkpt>
      <trkpt lat="44.95936" lon="5.46102">
        <ele>1334.45</ele>
        <time>2011-09-08T12:50:06Z</time>
      </trkpt>
      <trkpt lat="44.95936" lon="5.46102">
        <ele>1335.41</ele>
        <time>2011-09-08T12:50:02Z</time>
      </trkpt>
      <trkpt lat="44.95936" lon="5.46102">
        <ele>1333.97</ele>
        <time>2011-09-08T12:50:01Z</time>
      </trkpt>
      <trkpt lat="44.95936" lon="5.46102">
        <ele>1336.37</ele>
        <time>2011-09-08T12:49:59Z</time>
      </trkpt>
      <trkpt lat="44.95936" lon="5.46102">
        <ele>1334.93</ele>
        <time>2011-09-08T12:49:58Z</time>
      </trkpt>
      <trkpt lat="44.95936" lon="5.46103">
        <ele>1335.41</ele>
        <time>2011-09-08T12:49:21Z</time>
      </trkpt>
      <trkpt lat="44.95936" lon="5.46103">
        <ele>1333.49</ele>
        <time>2011-09-08T12:49:20Z</time>
      </trkpt>
      <trkpt lat="44.95936" lon="5.46103">
        <ele>1333.97</ele>
        <time>2011-09-08T12:48:55Z</time>
      </trkpt>
      <trkpt lat="44.95935" lon="5.46103">
        <ele>1335.41</ele>
        <time>2011-09-08T12:48:46Z</time>
      </trkpt>
      <trkpt lat="44.95922" lon="5.46101">
        <ele>1333.97</ele>
        <time>2011-09-08T12:48:29Z</time>
      </trkpt>
      <trkpt lat="44.95919" lon="5.46102">
        <ele>1333.49</ele>
        <time>2011-09-08T12:48:26Z</time>
      </trkpt>
      <trkpt lat="44.95909" lon="5.46104">
        <ele>1332.52</ele>
        <time>2011-09-08T12:48:11Z</time>
      </trkpt>
      <trkpt lat="44.95909" lon="5.46104">
        <ele>1330.6</ele>
        <time>2011-09-08T12:48:10Z</time>
      </trkpt>
      <trkpt lat="44.95909" lon="5.46104">
        <ele>1332.04</ele>
        <time>2011-09-08T12:48:07Z</time>
      </trkpt>
      <trkpt lat="44.95909" lon="5.46104">
        <ele>1334.45</ele>
        <time>2011-09-08T12:48:06Z</time>
      </trkpt>
      <trkpt lat="44.95909" lon="5.46104">
        <ele>1332.04</ele>
        <time>2011-09-08T12:48:02Z</time>
      </trkpt>
      <trkpt lat="44.95909" lon="5.46104">
        <ele>1333.97</ele>
        <time>2011-09-08T12:47:59Z</time>
      </trkpt>
      <trkpt lat="44.95908" lon="5.46105">
        <ele>1333.49</ele>
        <time>2011-09-08T12:47:57Z</time>
      </trkpt>
      <trkpt lat="44.95907" lon="5.46105">
        <ele>1331.56</ele>
        <time>2011-09-08T12:47:56Z</time>
      </trkpt>
      <trkpt lat="44.95902" lon="5.46105">
        <ele>1332.04</ele>
        <time>2011-09-08T12:47:51Z</time>
      </trkpt>
      <trkpt lat="44.95901" lon="5.46105">
        <ele>1331.08</ele>
        <time>2011-09-08T12:47:49Z</time>
      </trkpt>
      <trkpt lat="44.95897" lon="5.46105">
        <ele>1330.12</ele>
        <time>2011-09-08T12:47:41Z</time>
      </trkpt>
      <trkpt lat="44.95892" lon="5.46104">
        <ele>1329.64</ele>
        <time>2011-09-08T12:47:36Z</time>
      </trkpt>
      <trkpt lat="44.9589" lon="5.46104">
        <ele>1327.72</ele>
        <time>2011-09-08T12:47:31Z</time>
      </trkpt>
      <trkpt lat="44.95889" lon="5.46105">
        <ele>1327.72</ele>
        <time>2011-09-08T12:47:28Z</time>
      </trkpt>
      <trkpt lat="44.95872" lon="5.46097">
        <ele>1326.76</ele>
        <time>2011-09-08T12:47:16Z</time>
      </trkpt>
      <trkpt lat="44.95871" lon="5.46096">
        <ele>1327.72</ele>
        <time>2011-09-08T12:47:15Z</time>
      </trkpt>
      <trkpt lat="44.9587" lon="5.46096">
        <ele>1324.35</ele>
        <time>2011-09-08T12:47:14Z</time>
      </trkpt>
      <trkpt lat="44.95868" lon="5.46094">
        <ele>1326.76</ele>
        <time>2011-09-08T12:47:12Z</time>
      </trkpt>
      <trkpt lat="44.95866" lon="5.46092">
        <ele>1324.35</ele>
        <time>2011-09-08T12:47:11Z</time>
      </trkpt>
      <trkpt lat="44.95857" lon="5.46088">
        <ele>1323.87</ele>
        <time>2011-09-08T12:47:04Z</time>
      </trkpt>
      <trkpt lat="44.95855" lon="5.46086">
        <ele>1325.31</ele>
        <time>2011-09-08T12:47:03Z</time>
      </trkpt>
      <trkpt lat="44.95842" lon="5.46078">
        <ele>1325.31</ele>
        <time>2011-09-08T12:46:52Z</time>
      </trkpt>
      <trkpt lat="44.95832" lon="5.46062">
        <ele>1322.91</ele>
        <time>2011-09-08T12:46:39Z</time>
      </trkpt>
      <trkpt lat="44.9583" lon="5.46054">
        <ele>1321.95</ele>
        <time>2011-09-08T12:46:34Z</time>
      </trkpt>
      <trkpt lat="44.95817" lon="5.46047">
        <ele>1321.47</ele>
        <time>2011-09-08T12:46:25Z</time>
      </trkpt>
      <trkpt lat="44.95801" lon="5.46046">
        <ele>1319.07</ele>
        <time>2011-09-08T12:46:14Z</time>
      </trkpt>
      <trkpt lat="44.95796" lon="5.46046">
        <ele>1318.59</ele>
        <time>2011-09-08T12:46:10Z</time>
      </trkpt>
      <trkpt lat="44.95775" lon="5.46054">
        <ele>1316.66</ele>
        <time>2011-09-08T12:45:57Z</time>
      </trkpt>
      <trkpt lat="44.95774" lon="5.46055">
        <ele>1315.7</ele>
        <time>2011-09-08T12:45:56Z</time>
      </trkpt>
      <trkpt lat="44.95755" lon="5.46052">
        <ele>1314.74</ele>
        <time>2011-09-08T12:45:43Z</time>
      </trkpt>
      <trkpt lat="44.95751" lon="5.46051">
        <ele>1315.22</ele>
        <time>2011-09-08T12:45:39Z</time>
      </trkpt>
      <trkpt lat="44.95748" lon="5.4605">
        <ele>1315.22</ele>
        <time>2011-09-08T12:45:33Z</time>
      </trkpt>
      <trkpt lat="44.95748" lon="5.4605">
        <ele>1311.38</ele>
        <time>2011-09-08T12:45:32Z</time>
      </trkpt>
      <trkpt lat="44.95748" lon="5.4605">
        <ele>1316.18</ele>
        <time>2011-09-08T12:45:31Z</time>
      </trkpt>
      <trkpt lat="44.95747" lon="5.46049">
        <ele>1315.22</ele>
        <time>2011-09-08T12:45:24Z</time>
      </trkpt>
      <trkpt lat="44.95738" lon="5.46044">
        <ele>1314.26</ele>
        <time>2011-09-08T12:45:17Z</time>
      </trkpt>
      <trkpt lat="44.95731" lon="5.46038">
        <ele>1314.26</ele>
        <time>2011-09-08T12:45:05Z</time>
      </trkpt>
      <trkpt lat="44.95725" lon="5.46029">
        <ele>1312.34</ele>
        <time>2011-09-08T12:44:54Z</time>
      </trkpt>
      <trkpt lat="44.95725" lon="5.46029">
        <ele>1305.61</ele>
        <time>2011-09-08T12:44:53Z</time>
      </trkpt>
      <trkpt lat="44.95725" lon="5.4603">
        <ele>1312.34</ele>
        <time>2011-09-08T12:44:50Z</time>
      </trkpt>
      <trkpt lat="44.95725" lon="5.46029">
        <ele>1315.22</ele>
        <time>2011-09-08T12:44:49Z</time>
      </trkpt>
      <trkpt lat="44.95725" lon="5.46029">
        <ele>1307.53</ele>
        <time>2011-09-08T12:44:48Z</time>
      </trkpt>
      <trkpt lat="44.95722" lon="5.46023">
        <ele>1309.93</ele>
        <time>2011-09-08T12:44:42Z</time>
      </trkpt>
      <trkpt lat="44.95722" lon="5.46023">
        <ele>1314.26</ele>
        <time>2011-09-08T12:44:41Z</time>
      </trkpt>
      <trkpt lat="44.95722" lon="5.46023">
        <ele>1300.32</ele>
        <time>2011-09-08T12:44:40Z</time>
      </trkpt>
      <trkpt lat="44.95722" lon="5.46023">
        <ele>1311.86</ele>
        <time>2011-09-08T12:44:38Z</time>
      </trkpt>
      <trkpt lat="44.95721" lon="5.46023">
        <ele>1310.9</ele>
        <time>2011-09-08T12:44:36Z</time>
      </trkpt>
      <trkpt lat="44.9572" lon="5.46022">
        <ele>1311.38</ele>
        <time>2011-09-08T12:44:35Z</time>
      </trkpt>
      <trkpt lat="44.9572" lon="5.46021">
        <ele>1310.41</ele>
        <time>2011-09-08T12:44:34Z</time>
      </trkpt>
      <trkpt lat="44.9572" lon="5.4602">
        <ele>1311.38</ele>
        <time>2011-09-08T12:44:29Z</time>
      </trkpt>
      <trkpt lat="44.95719" lon="5.46019">
        <ele>1309.93</ele>
        <time>2011-09-08T12:44:27Z</time>
      </trkpt>
      <trkpt lat="44.95718" lon="5.46019">
        <ele>1310.41</ele>
        <time>2011-09-08T12:44:25Z</time>
      </trkpt>
      <trkpt lat="44.95718" lon="5.46018">
        <ele>1308.49</ele>
        <time>2011-09-08T12:44:24Z</time>
      </trkpt>
      <trkpt lat="44.95716" lon="5.46015">
        <ele>1308.01</ele>
        <time>2011-09-08T12:44:17Z</time>
      </trkpt>
      <trkpt lat="44.95716" lon="5.46014">
        <ele>1309.45</ele>
        <time>2011-09-08T12:44:16Z</time>
      </trkpt>
      <trkpt lat="44.95716" lon="5.46013">
        <ele>1307.05</ele>
        <time>2011-09-08T12:44:15Z</time>
      </trkpt>
      <trkpt lat="44.95715" lon="5.46013">
        <ele>1308.97</ele>
        <time>2011-09-08T12:44:14Z</time>
      </trkpt>
      <trkpt lat="44.95713" lon="5.46009">
        <ele>1308.01</ele>
        <time>2011-09-08T12:44:10Z</time>
      </trkpt>
      <trkpt lat="44.95713" lon="5.46008">
        <ele>1307.53</ele>
        <time>2011-09-08T12:44:08Z</time>
      </trkpt>
      <trkpt lat="44.95713" lon="5.46008">
        <ele>1305.61</ele>
        <time>2011-09-08T12:44:07Z</time>
      </trkpt>
      <trkpt lat="44.95712" lon="5.46008">
        <ele>1307.05</ele>
        <time>2011-09-08T12:44:06Z</time>
      </trkpt>
      <trkpt lat="44.95712" lon="5.46008">
        <ele>1306.09</ele>
        <time>2011-09-08T12:44:05Z</time>
      </trkpt>
      <trkpt lat="44.95712" lon="5.46007">
        <ele>1307.53</ele>
        <time>2011-09-08T12:44:04Z</time>
      </trkpt>
      <trkpt lat="44.95711" lon="5.46007">
        <ele>1305.61</ele>
        <time>2011-09-08T12:44:03Z</time>
      </trkpt>
      <trkpt lat="44.9571" lon="5.46007">
        <ele>1307.05</ele>
        <time>2011-09-08T12:44:02Z</time>
      </trkpt>
      <trkpt lat="44.95708" lon="5.46006">
        <ele>1306.09</ele>
        <time>2011-09-08T12:43:59Z</time>
      </trkpt>
      <trkpt lat="44.95702" lon="5.46001">
        <ele>1304.65</ele>
        <time>2011-09-08T12:43:48Z</time>
      </trkpt>
      <trkpt lat="44.95701" lon="5.46">
        <ele>1302.72</ele>
        <time>2011-09-08T12:43:45Z</time>
      </trkpt>
      <trkpt lat="44.95697" lon="5.45996">
        <ele>1302.72</ele>
        <time>2011-09-08T12:43:38Z</time>
      </trkpt>
      <trkpt lat="44.95696" lon="5.45997">
        <ele>1302.72</ele>
        <time>2011-09-08T12:43:34Z</time>
      </trkpt>
      <trkpt lat="44.95695" lon="5.45996">
        <ele>1299.84</ele>
        <time>2011-09-08T12:43:33Z</time>
      </trkpt>
      <trkpt lat="44.95693" lon="5.45995">
        <ele>1301.28</ele>
        <time>2011-09-08T12:43:23Z</time>
      </trkpt>
      <trkpt lat="44.95688" lon="5.45995">
        <ele>1297.92</ele>
        <time>2011-09-08T12:43:16Z</time>
      </trkpt>
      <trkpt lat="44.95683" lon="5.45995">
        <ele>1298.4</ele>
        <time>2011-09-08T12:43:07Z</time>
      </trkpt>
      <trkpt lat="44.95681" lon="5.45996">
        <ele>1297.44</ele>
        <time>2011-09-08T12:43:04Z</time>
      </trkpt>
      <trkpt lat="44.95672" lon="5.46">
        <ele>1294.55</ele>
        <time>2011-09-08T12:42:53Z</time>
      </trkpt>
      <trkpt lat="44.95669" lon="5.46003">
        <ele>1293.59</ele>
        <time>2011-09-08T12:42:46Z</time>
      </trkpt>
      <trkpt lat="44.95665" lon="5.46003">
        <ele>1292.63</ele>
        <time>2011-09-08T12:42:33Z</time>
      </trkpt>
      <trkpt lat="44.95659" lon="5.46008">
        <ele>1291.19</ele>
        <time>2011-09-08T12:42:23Z</time>
      </trkpt>
      <trkpt lat="44.95658" lon="5.46008">
        <ele>1291.19</ele>
        <time>2011-09-08T12:42:21Z</time>
      </trkpt>
      <trkpt lat="44.95657" lon="5.46009">
        <ele>1290.71</ele>
        <time>2011-09-08T12:42:18Z</time>
      </trkpt>
      <trkpt lat="44.95646" lon="5.46007">
        <ele>1287.82</ele>
        <time>2011-09-08T12:42:04Z</time>
      </trkpt>
      <trkpt lat="44.95643" lon="5.46006">
        <ele>1287.34</ele>
        <time>2011-09-08T12:42:01Z</time>
      </trkpt>
      <trkpt lat="44.95638" lon="5.46007">
        <ele>1286.38</ele>
        <time>2011-09-08T12:41:55Z</time>
      </trkpt>
      <trkpt lat="44.95636" lon="5.46008">
        <ele>1284.94</ele>
        <time>2011-09-08T12:41:54Z</time>
      </trkpt>
      <trkpt lat="44.95629" lon="5.46006">
        <ele>1284.46</ele>
        <time>2011-09-08T12:41:48Z</time>
      </trkpt>
      <trkpt lat="44.9562" lon="5.46004">
        <ele>1283.5</ele>
        <time>2011-09-08T12:41:40Z</time>
      </trkpt>
      <trkpt lat="44.95614" lon="5.46003">
        <ele>1282.54</ele>
        <time>2011-09-08T12:41:34Z</time>
      </trkpt>
      <trkpt lat="44.95607" lon="5.45998">
        <ele>1282.06</ele>
        <time>2011-09-08T12:41:28Z</time>
      </trkpt>
      <trkpt lat="44.95605" lon="5.45997">
        <ele>1281.57</ele>
        <time>2011-09-08T12:41:27Z</time>
      </trkpt>
      <trkpt lat="44.95598" lon="5.45989">
        <ele>1279.65</ele>
        <time>2011-09-08T12:41:19Z</time>
      </trkpt>
      <trkpt lat="44.95594" lon="5.45983">
        <ele>1280.61</ele>
        <time>2011-09-08T12:41:14Z</time>
      </trkpt>
      <trkpt lat="44.95593" lon="5.45981">
        <ele>1278.69</ele>
        <time>2011-09-08T12:41:11Z</time>
      </trkpt>
      <trkpt lat="44.95591" lon="5.45981">
        <ele>1280.13</ele>
        <time>2011-09-08T12:41:09Z</time>
      </trkpt>
      <trkpt lat="44.95586" lon="5.45974">
        <ele>1278.69</ele>
        <time>2011-09-08T12:41:02Z</time>
      </trkpt>
      <trkpt lat="44.95572" lon="5.45964">
        <ele>1278.21</ele>
        <time>2011-09-08T12:40:50Z</time>
      </trkpt>
      <trkpt lat="44.95559" lon="5.45951">
        <ele>1275.33</ele>
        <time>2011-09-08T12:40:36Z</time>
      </trkpt>
      <trkpt lat="44.95552" lon="5.45946">
        <ele>1275.33</ele>
        <time>2011-09-08T12:40:29Z</time>
      </trkpt>
      <trkpt lat="44.95551" lon="5.45945">
        <ele>1275.33</ele>
        <time>2011-09-08T12:40:28Z</time>
      </trkpt>
      <trkpt lat="44.95545" lon="5.45942">
        <ele>1275.81</ele>
        <time>2011-09-08T12:40:21Z</time>
      </trkpt>
      <trkpt lat="44.95528" lon="5.45935">
        <ele>1271.48</ele>
        <time>2011-09-08T12:40:10Z</time>
      </trkpt>
      <trkpt lat="44.95506" lon="5.45928">
        <ele>1270.52</ele>
        <time>2011-09-08T12:39:57Z</time>
      </trkpt>
      <trkpt lat="44.95498" lon="5.45906">
        <ele>1268.12</ele>
        <time>2011-09-08T12:39:49Z</time>
      </trkpt>
      <trkpt lat="44.95495" lon="5.45905">
        <ele>1271.0742188</ele>
      </trkpt>
      <trkpt lat="44.95492" lon="5.45907">
        <ele>1270.7265625</ele>
      </trkpt>
      <trkpt lat="44.95487" lon="5.45911">
        <ele>1270.21875</ele>
      </trkpt>
      <trkpt lat="44.95482" lon="5.45914">
        <ele>1269.8945313</ele>
      </trkpt>
      <trkpt lat="44.95482" lon="5.45915">
        <ele>1269.90625</ele>
      </trkpt>
      <trkpt lat="44.95477" lon="5.45917">
        <ele>1269.9765625</ele>
      </trkpt>
      <trkpt lat="44.95476" lon="5.45917">
        <ele>1269.9765625</ele>
      </trkpt>
      <trkpt lat="44.95471" lon="5.45916">
        <ele>1269.9609375</ele>
      </trkpt>
      <trkpt lat="44.95471" lon="5.45916">
        <ele>1269.9609375</ele>
      </trkpt>
      <trkpt lat="44.95465" lon="5.45917">
        <ele>1270.0039063</ele>
      </trkpt>
      <trkpt lat="44.95464" lon="5.45917">
        <ele>1270.0039063</ele>
      </trkpt>
      <trkpt lat="44.95457" lon="5.45919">
        <ele>1270.0585938</ele>
      </trkpt>
      <trkpt lat="44.95457" lon="5.45919">
        <ele>1270.0585938</ele>
      </trkpt>
      <trkpt lat="44.95449" lon="5.45919">
        <ele>1270.2695313</ele>
      </trkpt>
      <trkpt lat="44.9544" lon="5.4592">
        <ele>1270.5820313</ele>
      </trkpt>
      <trkpt lat="44.9544" lon="5.4592">
        <ele>1270.5898438</ele>
      </trkpt>
      <trkpt lat="44.95432" lon="5.4592">
        <ele>1271.48</ele>
        <time>2011-09-08T12:37:34Z</time>
      </trkpt>
      <trkpt lat="44.95419" lon="5.45923">
        <ele>1271</ele>
        <time>2011-09-08T12:37:32Z</time>
      </trkpt>
      <trkpt lat="44.95412" lon="5.45926">
        <ele>1270.52</ele>
        <time>2011-09-08T12:37:31Z</time>
      </trkpt>
      <trkpt lat="44.95391" lon="5.45989">
        <ele>1274.36</ele>
        <time>2011-09-08T12:37:24Z</time>
      </trkpt>
      <trkpt lat="44.95378" lon="5.4602">
        <ele>1277.25</ele>
        <time>2011-09-08T12:37:20Z</time>
      </trkpt>
      <trkpt lat="44.95375" lon="5.46028">
        <ele>1276.29</ele>
        <time>2011-09-08T12:37:19Z</time>
      </trkpt>
      <trkpt lat="44.95364" lon="5.46066">
        <ele>1278.21</ele>
        <time>2011-09-08T12:37:15Z</time>
      </trkpt>
      <trkpt lat="44.9536" lon="5.46076">
        <ele>1277.25</ele>
        <time>2011-09-08T12:37:14Z</time>
      </trkpt>
      <trkpt lat="44.95355" lon="5.46086">
        <ele>1279.17</ele>
        <time>2011-09-08T12:37:13Z</time>
      </trkpt>
      <trkpt lat="44.95343" lon="5.46102">
        <ele>1278.69</ele>
        <time>2011-09-08T12:37:11Z</time>
      </trkpt>
      <trkpt lat="44.95338" lon="5.46112">
        <ele>1279.65</ele>
        <time>2011-09-08T12:37:10Z</time>
      </trkpt>
      <trkpt lat="44.95334" lon="5.46134">
        <ele>1280.13</ele>
        <time>2011-09-08T12:37:08Z</time>
      </trkpt>
      <trkpt lat="44.95332" lon="5.46156">
        <ele>1280.61</ele>
        <time>2011-09-08T12:37:06Z</time>
      </trkpt>
      <trkpt lat="44.9533" lon="5.46167">
        <ele>1282.06</ele>
        <time>2011-09-08T12:37:05Z</time>
      </trkpt>
      <trkpt lat="44.95329" lon="5.46178">
        <ele>1282.06</ele>
        <time>2011-09-08T12:37:04Z</time>
      </trkpt>
      <trkpt lat="44.95326" lon="5.46187">
        <ele>1284.46</ele>
        <time>2011-09-08T12:37:03Z</time>
      </trkpt>
      <trkpt lat="44.95321" lon="5.46195">
        <ele>1284.94</ele>
        <time>2011-09-08T12:37:02Z</time>
      </trkpt>
      <trkpt lat="44.95316" lon="5.462">
        <ele>1283.98</ele>
        <time>2011-09-08T12:37:01Z</time>
      </trkpt>
      <trkpt lat="44.95311" lon="5.46204">
        <ele>1285.42</ele>
        <time>2011-09-08T12:37:00Z</time>
      </trkpt>
      <trkpt lat="44.953" lon="5.46209">
        <ele>1285.42</ele>
        <time>2011-09-08T12:36:58Z</time>
      </trkpt>
      <trkpt lat="44.95295" lon="5.46211">
        <ele>1284.94</ele>
        <time>2011-09-08T12:36:57Z</time>
      </trkpt>
      <trkpt lat="44.95282" lon="5.46221">
        <ele>1286.86</ele>
        <time>2011-09-08T12:36:54Z</time>
      </trkpt>
      <trkpt lat="44.95272" lon="5.46229">
        <ele>1287.34</ele>
        <time>2011-09-08T12:36:52Z</time>
      </trkpt>
      <trkpt lat="44.95264" lon="5.46234">
        <ele>1286.86</ele>
        <time>2011-09-08T12:36:51Z</time>
      </trkpt>
      <trkpt lat="44.9526" lon="5.46236">
        <ele>1285.42</ele>
        <time>2011-09-08T12:36:50Z</time>
      </trkpt>
      <trkpt lat="44.95256" lon="5.46238">
        <ele>1287.34</ele>
        <time>2011-09-08T12:36:49Z</time>
      </trkpt>
      <trkpt lat="44.95252" lon="5.46239">
        <ele>1287.34</ele>
        <time>2011-09-08T12:36:48Z</time>
      </trkpt>
      <trkpt lat="44.95244" lon="5.46237">
        <ele>1285.42</ele>
        <time>2011-09-08T12:36:46Z</time>
      </trkpt>
      <trkpt lat="44.95239" lon="5.46233">
        <ele>1286.86</ele>
        <time>2011-09-08T12:36:45Z</time>
      </trkpt>
      <trkpt lat="44.95233" lon="5.46227">
        <ele>1285.9</ele>
        <time>2011-09-08T12:36:44Z</time>
      </trkpt>
      <trkpt lat="44.95224" lon="5.46213">
        <ele>1285.9</ele>
        <time>2011-09-08T12:36:42Z</time>
      </trkpt>
      <trkpt lat="44.95219" lon="5.46205">
        <ele>1286.86</ele>
        <time>2011-09-08T12:36:41Z</time>
      </trkpt>
      <trkpt lat="44.95213" lon="5.46199">
        <ele>1286.86</ele>
        <time>2011-09-08T12:36:40Z</time>
      </trkpt>
      <trkpt lat="44.95207" lon="5.46194">
        <ele>1289.27</ele>
        <time>2011-09-08T12:36:39Z</time>
      </trkpt>
      <trkpt lat="44.952" lon="5.4619">
        <ele>1289.27</ele>
        <time>2011-09-08T12:36:38Z</time>
      </trkpt>
      <trkpt lat="44.9519" lon="5.46187">
        <ele>1289.27</ele>
        <time>2011-09-08T12:36:37Z</time>
      </trkpt>
      <trkpt lat="44.95185" lon="5.46188">
        <ele>1290.71</ele>
        <time>2011-09-08T12:36:36Z</time>
      </trkpt>
      <trkpt lat="44.95178" lon="5.4619">
        <ele>1288.78</ele>
        <time>2011-09-08T12:36:35Z</time>
      </trkpt>
      <trkpt lat="44.95165" lon="5.46195">
        <ele>1289.75</ele>
        <time>2011-09-08T12:36:33Z</time>
      </trkpt>
      <trkpt lat="44.95159" lon="5.46196">
        <ele>1291.67</ele>
        <time>2011-09-08T12:36:32Z</time>
      </trkpt>
      <trkpt lat="44.95153" lon="5.46196">
        <ele>1290.71</ele>
        <time>2011-09-08T12:36:31Z</time>
      </trkpt>
      <trkpt lat="44.95149" lon="5.46191">
        <ele>1292.15</ele>
        <time>2011-09-08T12:36:30Z</time>
      </trkpt>
      <trkpt lat="44.95144" lon="5.46185">
        <ele>1293.11</ele>
        <time>2011-09-08T12:36:29Z</time>
      </trkpt>
      <trkpt lat="44.95137" lon="5.4617">
        <ele>1294.07</ele>
        <time>2011-09-08T12:36:27Z</time>
      </trkpt>
      <trkpt lat="44.95134" lon="5.46164">
        <ele>1294.55</ele>
        <time>2011-09-08T12:36:26Z</time>
      </trkpt>
      <trkpt lat="44.95129" lon="5.46159">
        <ele>1295.51</ele>
        <time>2011-09-08T12:36:25Z</time>
      </trkpt>
      <trkpt lat="44.95123" lon="5.46157">
        <ele>1295.99</ele>
        <time>2011-09-08T12:36:24Z</time>
      </trkpt>
      <trkpt lat="44.95116" lon="5.46159">
        <ele>1296.48</ele>
        <time>2011-09-08T12:36:23Z</time>
      </trkpt>
      <trkpt lat="44.95111" lon="5.46164">
        <ele>1296.48</ele>
        <time>2011-09-08T12:36:22Z</time>
      </trkpt>
      <trkpt lat="44.95105" lon="5.46172">
        <ele>1295.99</ele>
        <time>2011-09-08T12:36:21Z</time>
      </trkpt>
      <trkpt lat="44.95089" lon="5.46194">
        <ele>1297.44</ele>
        <time>2011-09-08T12:36:18Z</time>
      </trkpt>
      <trkpt lat="44.95084" lon="5.46201">
        <ele>1297.92</ele>
        <time>2011-09-08T12:36:17Z</time>
      </trkpt>
      <trkpt lat="44.95069" lon="5.46216">
        <ele>1299.36</ele>
        <time>2011-09-08T12:36:14Z</time>
      </trkpt>
      <trkpt lat="44.95048" lon="5.46234">
        <ele>1302.24</ele>
        <time>2011-09-08T12:36:10Z</time>
      </trkpt>
      <trkpt lat="44.95044" lon="5.46237">
        <ele>1301.28</ele>
        <time>2011-09-08T12:36:09Z</time>
      </trkpt>
      <trkpt lat="44.95039" lon="5.46239">
        <ele>1302.72</ele>
        <time>2011-09-08T12:36:08Z</time>
      </trkpt>
      <trkpt lat="44.95034" lon="5.4624">
        <ele>1303.2</ele>
        <time>2011-09-08T12:36:07Z</time>
      </trkpt>
      <trkpt lat="44.95011" lon="5.46237">
        <ele>1304.65</ele>
        <time>2011-09-08T12:36:01Z</time>
      </trkpt>
      <trkpt lat="44.95007" lon="5.46235">
        <ele>1303.69</ele>
        <time>2011-09-08T12:36:00Z</time>
      </trkpt>
      <trkpt lat="44.94962" lon="5.46215">
        <ele>1302.72</ele>
        <time>2011-09-08T12:35:49Z</time>
      </trkpt>
      <trkpt lat="44.94957" lon="5.46214">
        <ele>1303.2</ele>
        <time>2011-09-08T12:35:48Z</time>
      </trkpt>
      <trkpt lat="44.94953" lon="5.46211">
        <ele>1304.17</ele>
        <time>2011-09-08T12:35:47Z</time>
      </trkpt>
      <trkpt lat="44.94941" lon="5.46177">
        <ele>1304.65</ele>
        <time>2011-09-08T12:35:41Z</time>
      </trkpt>
      <trkpt lat="44.94941" lon="5.46169">
        <ele>1304.65</ele>
        <time>2011-09-08T12:35:40Z</time>
      </trkpt>
      <trkpt lat="44.94937" lon="5.46164">
        <ele>1303.69</ele>
        <time>2011-09-08T12:35:39Z</time>
      </trkpt>
      <trkpt lat="44.94934" lon="5.46158">
        <ele>1305.13</ele>
        <time>2011-09-08T12:35:38Z</time>
      </trkpt>
      <trkpt lat="44.94929" lon="5.46154">
        <ele>1304.17</ele>
        <time>2011-09-08T12:35:37Z</time>
      </trkpt>
      <trkpt lat="44.94925" lon="5.4615">
        <ele>1304.65</ele>
        <time>2011-09-08T12:35:36Z</time>
      </trkpt>
      <trkpt lat="44.9492" lon="5.46148">
        <ele>1304.17</ele>
        <time>2011-09-08T12:35:35Z</time>
      </trkpt>
      <trkpt lat="44.94912" lon="5.46147">
        <ele>1305.13</ele>
        <time>2011-09-08T12:35:34Z</time>
      </trkpt>
      <trkpt lat="44.949" lon="5.46153">
        <ele>1305.61</ele>
        <time>2011-09-08T12:35:33Z</time>
      </trkpt>
      <trkpt lat="44.94892" lon="5.46159">
        <ele>1305.13</ele>
        <time>2011-09-08T12:35:31Z</time>
      </trkpt>
      <trkpt lat="44.94883" lon="5.4617">
        <ele>1304.65</ele>
        <time>2011-09-08T12:35:28Z</time>
      </trkpt>
      <trkpt lat="44.9487" lon="5.4619">
        <ele>1306.09</ele>
        <time>2011-09-08T12:35:23Z</time>
      </trkpt>
      <trkpt lat="44.94858" lon="5.46206">
        <ele>1306.09</ele>
        <time>2011-09-08T12:35:17Z</time>
      </trkpt>
      <trkpt lat="44.9483" lon="5.46245">
        <ele>1307.05</ele>
        <time>2011-09-08T12:35:04Z</time>
      </trkpt>
      <trkpt lat="44.94828" lon="5.46251">
        <ele>1307.05</ele>
        <time>2011-09-08T12:35:02Z</time>
      </trkpt>
      <trkpt lat="44.94804" lon="5.46288">
        <ele>1306.57</ele>
        <time>2011-09-08T12:34:52Z</time>
      </trkpt>
      <trkpt lat="44.94802" lon="5.46293">
        <ele>1308.01</ele>
        <time>2011-09-08T12:34:51Z</time>
      </trkpt>
      <trkpt lat="44.94798" lon="5.46298">
        <ele>1306.57</ele>
        <time>2011-09-08T12:34:50Z</time>
      </trkpt>
      <trkpt lat="44.94793" lon="5.46303">
        <ele>1307.53</ele>
        <time>2011-09-08T12:34:49Z</time>
      </trkpt>
      <trkpt lat="44.94785" lon="5.46309">
        <ele>1307.53</ele>
        <time>2011-09-08T12:34:47Z</time>
      </trkpt>
      <trkpt lat="44.94781" lon="5.46312">
        <ele>1308.01</ele>
        <time>2011-09-08T12:34:46Z</time>
      </trkpt>
      <trkpt lat="44.94766" lon="5.46315">
        <ele>1308.97</ele>
        <time>2011-09-08T12:34:43Z</time>
      </trkpt>
      <trkpt lat="44.94761" lon="5.46316">
        <ele>1309.93</ele>
        <time>2011-09-08T12:34:42Z</time>
      </trkpt>
      <trkpt lat="44.94755" lon="5.46318">
        <ele>1308.49</ele>
        <time>2011-09-08T12:34:41Z</time>
      </trkpt>
      <trkpt lat="44.94749" lon="5.4632">
        <ele>1307.53</ele>
        <time>2011-09-08T12:34:40Z</time>
      </trkpt>
      <trkpt lat="44.94743" lon="5.46324">
        <ele>1308.97</ele>
        <time>2011-09-08T12:34:39Z</time>
      </trkpt>
      <trkpt lat="44.94738" lon="5.46326">
        <ele>1308.97</ele>
        <time>2011-09-08T12:34:38Z</time>
      </trkpt>
      <trkpt lat="44.94733" lon="5.46328">
        <ele>1308.97</ele>
        <time>2011-09-08T12:34:37Z</time>
      </trkpt>
      <trkpt lat="44.94729" lon="5.4633">
        <ele>1309.93</ele>
        <time>2011-09-08T12:34:36Z</time>
      </trkpt>
      <trkpt lat="44.9472" lon="5.46331">
        <ele>1312.34</ele>
        <time>2011-09-08T12:34:34Z</time>
      </trkpt>
      <trkpt lat="44.94714" lon="5.46332">
        <ele>1313.78</ele>
        <time>2011-09-08T12:34:33Z</time>
      </trkpt>
      <trkpt lat="44.94696" lon="5.46332">
        <ele>1315.22</ele>
        <time>2011-09-08T12:34:28Z</time>
      </trkpt>
      <trkpt lat="44.94694" lon="5.46332">
        <ele>1317.62</ele>
        <time>2011-09-08T12:34:27Z</time>
      </trkpt>
      <trkpt lat="44.94684" lon="5.4633">
        <ele>1317.62</ele>
        <time>2011-09-08T12:34:22Z</time>
      </trkpt>
      <trkpt lat="44.94675" lon="5.46319">
        <ele>1314.26</ele>
        <time>2011-09-08T12:34:17Z</time>
      </trkpt>
      <trkpt lat="44.94668" lon="5.46288">
        <ele>1317.62</ele>
        <time>2011-09-08T12:34:08Z</time>
      </trkpt>
      <trkpt lat="44.94672" lon="5.46252">
        <ele>1316.66</ele>
        <time>2011-09-08T12:33:55Z</time>
      </trkpt>
      <trkpt lat="44.94672" lon="5.46249">
        <ele>1318.1</ele>
        <time>2011-09-08T12:33:54Z</time>
      </trkpt>
      <trkpt lat="44.94681" lon="5.46223">
        <ele>1316.18</ele>
        <time>2011-09-08T12:33:46Z</time>
      </trkpt>
      <trkpt lat="44.94687" lon="5.46199">
        <ele>1316.18</ele>
        <time>2011-09-08T12:33:42Z</time>
      </trkpt>
      <trkpt lat="44.9469" lon="5.46155">
        <ele>1319.55</ele>
        <time>2011-09-08T12:33:35Z</time>
      </trkpt>
      <trkpt lat="44.94689" lon="5.46117">
        <ele>1320.99</ele>
        <time>2011-09-08T12:33:22Z</time>
      </trkpt>
      <trkpt lat="44.94689" lon="5.46114">
        <ele>1320.99</ele>
        <time>2011-09-08T12:33:21Z</time>
      </trkpt>
      <trkpt lat="44.9469" lon="5.46111">
        <ele>1321.95</ele>
        <time>2011-09-08T12:33:20Z</time>
      </trkpt>
      <trkpt lat="44.9469" lon="5.46108">
        <ele>1323.39</ele>
        <time>2011-09-08T12:33:19Z</time>
      </trkpt>
      <trkpt lat="44.9469" lon="5.46106">
        <ele>1320.99</ele>
        <time>2011-09-08T12:33:18Z</time>
      </trkpt>
      <trkpt lat="44.9469" lon="5.46104">
        <ele>1320.99</ele>
        <time>2011-09-08T12:33:17Z</time>
      </trkpt>
      <trkpt lat="44.94688" lon="5.46102">
        <ele>1320.99</ele>
        <time>2011-09-08T12:33:16Z</time>
      </trkpt>
      <trkpt lat="44.94686" lon="5.46092">
        <ele>1322.91</ele>
        <time>2011-09-08T12:33:12Z</time>
      </trkpt>
      <trkpt lat="44.94681" lon="5.46065">
        <ele>1322.91</ele>
        <time>2011-09-08T12:33:01Z</time>
      </trkpt>
      <trkpt lat="44.94667" lon="5.46044">
        <ele>1323.39</ele>
        <time>2011-09-08T12:32:48Z</time>
      </trkpt>
      <trkpt lat="44.94666" lon="5.46043">
        <ele>1322.91</ele>
        <time>2011-09-08T12:32:47Z</time>
      </trkpt>
      <trkpt lat="44.94663" lon="5.46041">
        <ele>1322.43</ele>
        <time>2011-09-08T12:32:46Z</time>
      </trkpt>
      <trkpt lat="44.94659" lon="5.46038">
        <ele>1323.87</ele>
        <time>2011-09-08T12:32:44Z</time>
      </trkpt>
      <trkpt lat="44.94648" lon="5.46034">
        <ele>1322.91</ele>
        <time>2011-09-08T12:32:43Z</time>
      </trkpt>
      <trkpt lat="44.94647" lon="5.46029">
        <ele>1323.39</ele>
        <time>2011-09-08T12:32:40Z</time>
      </trkpt>
      <trkpt lat="44.94647" lon="5.46028">
        <ele>1323.87</ele>
        <time>2011-09-08T12:32:39Z</time>
      </trkpt>
      <trkpt lat="44.94647" lon="5.46025">
        <ele>1321.95</ele>
        <time>2011-09-08T12:32:34Z</time>
      </trkpt>
      <trkpt lat="44.94647" lon="5.46027">
        <ele>1323.87</ele>
        <time>2011-09-08T12:32:28Z</time>
      </trkpt>
      <trkpt lat="44.94646" lon="5.46026">
        <ele>1325.31</ele>
        <time>2011-09-08T12:32:26Z</time>
      </trkpt>
      <trkpt lat="44.94645" lon="5.46024">
        <ele>1322.91</ele>
        <time>2011-09-08T12:32:25Z</time>
      </trkpt>
      <trkpt lat="44.94644" lon="5.46018">
        <ele>1324.83</ele>
        <time>2011-09-08T12:32:24Z</time>
      </trkpt>
      <trkpt lat="44.9464" lon="5.45988">
        <ele>1323.87</ele>
        <time>2011-09-08T12:32:19Z</time>
      </trkpt>
      <trkpt lat="44.94638" lon="5.45972">
        <ele>1326.76</ele>
        <time>2011-09-08T12:32:16Z</time>
      </trkpt>
      <trkpt lat="44.94638" lon="5.45954">
        <ele>1328.2</ele>
        <time>2011-09-08T12:32:12Z</time>
      </trkpt>
      <trkpt lat="44.94634" lon="5.45945">
        <ele>1331.08</ele>
        <time>2011-09-08T12:32:09Z</time>
      </trkpt>
      <trkpt lat="44.94632" lon="5.45935">
        <ele>1333.01</ele>
        <time>2011-09-08T12:32:07Z</time>
      </trkpt>
      <trkpt lat="44.9463" lon="5.45916">
        <ele>1334.93</ele>
        <time>2011-09-08T12:32:04Z</time>
      </trkpt>
      <trkpt lat="44.94632" lon="5.45909">
        <ele>1334.93</ele>
        <time>2011-09-08T12:32:03Z</time>
      </trkpt>
      <trkpt lat="44.94633" lon="5.45896">
        <ele>1337.33</ele>
        <time>2011-09-08T12:32:01Z</time>
      </trkpt>
      <trkpt lat="44.94633" lon="5.45876">
        <ele>1339.73</ele>
        <time>2011-09-08T12:31:58Z</time>
      </trkpt>
      <trkpt lat="44.94636" lon="5.45856">
        <ele>1341.66</ele>
        <time>2011-09-08T12:31:55Z</time>
      </trkpt>
      <trkpt lat="44.94634" lon="5.45833">
        <ele>1344.54</ele>
        <time>2011-09-08T12:31:49Z</time>
      </trkpt>
      <trkpt lat="44.94631" lon="5.45828">
        <ele>1345.02</ele>
        <time>2011-09-08T12:31:45Z</time>
      </trkpt>
      <trkpt lat="44.94627" lon="5.45825">
        <ele>1344.54</ele>
        <time>2011-09-08T12:31:39Z</time>
      </trkpt>
      <trkpt lat="44.94613" lon="5.45824">
        <ele>1342.14</ele>
        <time>2011-09-08T12:31:24Z</time>
      </trkpt>
      <trkpt lat="44.94609" lon="5.45823">
        <ele>1341.18</ele>
        <time>2011-09-08T12:31:22Z</time>
      </trkpt>
      <trkpt lat="44.94597" lon="5.45816">
        <ele>1342.62</ele>
        <time>2011-09-08T12:31:15Z</time>
      </trkpt>
      <trkpt lat="44.94588" lon="5.45801">
        <ele>1343.58</ele>
        <time>2011-09-08T12:31:09Z</time>
      </trkpt>
      <trkpt lat="44.94587" lon="5.45799">
        <ele>1343.1</ele>
        <time>2011-09-08T12:31:08Z</time>
      </trkpt>
      <trkpt lat="44.94586" lon="5.45797">
        <ele>1343.1</ele>
        <time>2011-09-08T12:31:07Z</time>
      </trkpt>
      <trkpt lat="44.94584" lon="5.45794">
        <ele>1345.02</ele>
        <time>2011-09-08T12:31:05Z</time>
      </trkpt>
      <trkpt lat="44.94585" lon="5.45786">
        <ele>1341.66</ele>
        <time>2011-09-08T12:31:00Z</time>
      </trkpt>
      <trkpt lat="44.94586" lon="5.45785">
        <ele>1342.62</ele>
        <time>2011-09-08T12:30:59Z</time>
      </trkpt>
      <trkpt lat="44.94583" lon="5.45778">
        <ele>1342.14</ele>
        <time>2011-09-08T12:30:25Z</time>
      </trkpt>
      <trkpt lat="44.94581" lon="5.45775">
        <ele>1344.06</ele>
        <time>2011-09-08T12:30:24Z</time>
      </trkpt>
      <trkpt lat="44.9457" lon="5.45772">
        <ele>1342.62</ele>
        <time>2011-09-08T12:30:20Z</time>
      </trkpt>
      <trkpt lat="44.94543" lon="5.45803">
        <ele>1345.98</ele>
        <time>2011-09-08T12:30:09Z</time>
      </trkpt>
      <trkpt lat="44.94523" lon="5.45849">
        <ele>1345.98</ele>
        <time>2011-09-08T12:29:56Z</time>
      </trkpt>
      <trkpt lat="44.94518" lon="5.45852">
        <ele>1344.54</ele>
        <time>2011-09-08T12:29:53Z</time>
      </trkpt>
      <trkpt lat="44.9451" lon="5.45857">
        <ele>1347.91</ele>
        <time>2011-09-08T12:29:48Z</time>
      </trkpt>
      <trkpt lat="44.94487" lon="5.45874">
        <ele>1343.58</ele>
        <time>2011-09-08T12:29:36Z</time>
      </trkpt>
      <trkpt lat="44.9446" lon="5.45892">
        <ele>1342.62</ele>
        <time>2011-09-08T12:29:22Z</time>
      </trkpt>
      <trkpt lat="44.94429" lon="5.45879">
        <ele>1342.14</ele>
        <time>2011-09-08T12:29:09Z</time>
      </trkpt>
      <trkpt lat="44.94398" lon="5.45889">
        <ele>1340.7</ele>
        <time>2011-09-08T12:28:57Z</time>
      </trkpt>
      <trkpt lat="44.94393" lon="5.4589">
        <ele>1342.14</ele>
        <time>2011-09-08T12:28:55Z</time>
      </trkpt>
      <trkpt lat="44.9439" lon="5.4589">
        <ele>1343.1</ele>
        <time>2011-09-08T12:28:54Z</time>
      </trkpt>
      <trkpt lat="44.94378" lon="5.45887">
        <ele>1338.77</ele>
        <time>2011-09-08T12:28:49Z</time>
      </trkpt>
      <trkpt lat="44.94376" lon="5.45885">
        <ele>1337.81</ele>
        <time>2011-09-08T12:28:48Z</time>
      </trkpt>
      <trkpt lat="44.94373" lon="5.45883">
        <ele>1341.66</ele>
        <time>2011-09-08T12:28:47Z</time>
      </trkpt>
      <trkpt lat="44.94359" lon="5.45878">
        <ele>1338.29</ele>
        <time>2011-09-08T12:28:41Z</time>
      </trkpt>
      <trkpt lat="44.94354" lon="5.45879">
        <ele>1337.33</ele>
        <time>2011-09-08T12:28:39Z</time>
      </trkpt>
      <trkpt lat="44.94333" lon="5.45879">
        <ele>1337.33</ele>
        <time>2011-09-08T12:28:32Z</time>
      </trkpt>
      <trkpt lat="44.94314" lon="5.45879">
        <ele>1338.29</ele>
        <time>2011-09-08T12:28:26Z</time>
      </trkpt>
      <trkpt lat="44.94306" lon="5.45876">
        <ele>1336.37</ele>
        <time>2011-09-08T12:28:23Z</time>
      </trkpt>
      <trkpt lat="44.94268" lon="5.45851">
        <ele>1334.93</ele>
        <time>2011-09-08T12:28:12Z</time>
      </trkpt>
      <trkpt lat="44.94264" lon="5.45847">
        <ele>1335.89</ele>
        <time>2011-09-08T12:28:11Z</time>
      </trkpt>
      <trkpt lat="44.94258" lon="5.45845">
        <ele>1335.41</ele>
        <time>2011-09-08T12:28:10Z</time>
      </trkpt>
      <trkpt lat="44.94244" lon="5.45844">
        <ele>1335.89</ele>
        <time>2011-09-08T12:28:08Z</time>
      </trkpt>
      <trkpt lat="44.94214" lon="5.45844">
        <ele>1337.81</ele>
        <time>2011-09-08T12:28:04Z</time>
      </trkpt>
      <trkpt lat="44.94206" lon="5.45843">
        <ele>1334.45</ele>
        <time>2011-09-08T12:28:03Z</time>
      </trkpt>
      <trkpt lat="44.94133" lon="5.45853">
        <ele>1337.81</ele>
        <time>2011-09-08T12:27:54Z</time>
      </trkpt>
      <trkpt lat="44.94124" lon="5.45854">
        <ele>1339.25</ele>
        <time>2011-09-08T12:27:53Z</time>
      </trkpt>
      <trkpt lat="44.94073" lon="5.45854">
        <ele>1341.18</ele>
        <time>2011-09-08T12:27:47Z</time>
      </trkpt>
      <trkpt lat="44.94065" lon="5.45856">
        <ele>1342.62</ele>
        <time>2011-09-08T12:27:46Z</time>
      </trkpt>
      <trkpt lat="44.94056" lon="5.45859">
        <ele>1339.25</ele>
        <time>2011-09-08T12:27:45Z</time>
      </trkpt>
      <trkpt lat="44.94047" lon="5.45863">
        <ele>1345.02</ele>
        <time>2011-09-08T12:27:44Z</time>
      </trkpt>
      <trkpt lat="44.94038" lon="5.45868">
        <ele>1342.62</ele>
        <time>2011-09-08T12:27:43Z</time>
      </trkpt>
      <trkpt lat="44.94029" lon="5.45871">
        <ele>1342.62</ele>
        <time>2011-09-08T12:27:42Z</time>
      </trkpt>
      <trkpt lat="44.94019" lon="5.45875">
        <ele>1346.46</ele>
        <time>2011-09-08T12:27:41Z</time>
      </trkpt>
      <trkpt lat="44.94009" lon="5.45876">
        <ele>1344.54</ele>
        <time>2011-09-08T12:27:40Z</time>
      </trkpt>
      <trkpt lat="44.94003" lon="5.45875">
        <ele>1347.43</ele>
        <time>2011-09-08T12:27:39Z</time>
      </trkpt>
      <trkpt lat="44.94" lon="5.45874">
        <ele>1344.06</ele>
        <time>2011-09-08T12:27:38Z</time>
      </trkpt>
      <trkpt lat="44.93993" lon="5.45873">
        <ele>1347.91</ele>
        <time>2011-09-08T12:27:37Z</time>
      </trkpt>
      <trkpt lat="44.93987" lon="5.45871">
        <ele>1346.46</ele>
        <time>2011-09-08T12:27:36Z</time>
      </trkpt>
      <trkpt lat="44.93979" lon="5.45866">
        <ele>1349.35</ele>
        <time>2011-09-08T12:27:35Z</time>
      </trkpt>
      <trkpt lat="44.93964" lon="5.4586">
        <ele>1347.91</ele>
        <time>2011-09-08T12:27:33Z</time>
      </trkpt>
      <trkpt lat="44.93957" lon="5.45858">
        <ele>1346.94</ele>
        <time>2011-09-08T12:27:32Z</time>
      </trkpt>
      <trkpt lat="44.9395" lon="5.45856">
        <ele>1351.27</ele>
        <time>2011-09-08T12:27:31Z</time>
      </trkpt>
      <trkpt lat="44.93942" lon="5.45855">
        <ele>1348.39</ele>
        <time>2011-09-08T12:27:30Z</time>
      </trkpt>
      <trkpt lat="44.93933" lon="5.45854">
        <ele>1378.077</ele>
        <time>2011-06-03T11:32:20Z</time>
      </trkpt>
      <trkpt lat="44.93928" lon="5.45853">
        <ele>1378.464</ele>
        <time>2011-06-03T11:32:19Z</time>
      </trkpt>
      <trkpt lat="44.93907" lon="5.45825">
        <ele>1381.745</ele>
        <time>2011-06-03T11:32:14Z</time>
      </trkpt>
      <trkpt lat="44.93902" lon="5.45817">
        <ele>1382.407</ele>
        <time>2011-06-03T11:32:13Z</time>
      </trkpt>
      <trkpt lat="44.93884" lon="5.45812">
        <ele>1383.938</ele>
        <time>2011-06-03T11:32:10Z</time>
      </trkpt>
      <trkpt lat="44.93864" lon="5.45803">
        <ele>1385.92</ele>
        <time>2011-06-03T11:32:06Z</time>
      </trkpt>
      <trkpt lat="44.93859" lon="5.45787">
        <ele>1387.224</ele>
        <time>2011-06-03T11:32:03Z</time>
      </trkpt>
      <trkpt lat="44.9386" lon="5.45762">
        <ele>1388.323</ele>
        <time>2011-06-03T11:32:00Z</time>
      </trkpt>
      <trkpt lat="44.93842" lon="5.4575">
        <ele>1389.002</ele>
        <time>2011-06-03T11:31:56Z</time>
      </trkpt>
      <trkpt lat="44.93833" lon="5.45752">
        <ele>1362.33</ele>
        <time>2011-09-08T12:27:09Z</time>
      </trkpt>
      <trkpt lat="44.9382" lon="5.45757">
        <ele>1365.21</ele>
        <time>2011-09-08T12:27:04Z</time>
      </trkpt>
      <trkpt lat="44.93818" lon="5.45758">
        <ele>1362.81</ele>
        <time>2011-09-08T12:27:03Z</time>
      </trkpt>
      <trkpt lat="44.93814" lon="5.45762">
        <ele>1366.17</ele>
        <time>2011-09-08T12:27:00Z</time>
      </trkpt>
      <trkpt lat="44.9381" lon="5.45765">
        <ele>1363.77</ele>
        <time>2011-09-08T12:26:58Z</time>
      </trkpt>
      <trkpt lat="44.93807" lon="5.45767">
        <ele>1365.69</ele>
        <time>2011-09-08T12:26:57Z</time>
      </trkpt>
      <trkpt lat="44.93804" lon="5.4577">
        <ele>1362.81</ele>
        <time>2011-09-08T12:26:55Z</time>
      </trkpt>
      <trkpt lat="44.93795" lon="5.45781">
        <ele>1364.25</ele>
        <time>2011-09-08T12:26:50Z</time>
      </trkpt>
      <trkpt lat="44.93789" lon="5.45788">
        <ele>1365.69</ele>
        <time>2011-09-08T12:26:47Z</time>
      </trkpt>
      <trkpt lat="44.93784" lon="5.45795">
        <ele>1362.81</ele>
        <time>2011-09-08T12:26:44Z</time>
      </trkpt>
      <trkpt lat="44.93783" lon="5.45797">
        <ele>1360.4</ele>
        <time>2011-09-08T12:26:43Z</time>
      </trkpt>
      <trkpt lat="44.93774" lon="5.45812">
        <ele>1361.84</ele>
        <time>2011-09-08T12:26:37Z</time>
      </trkpt>
      <trkpt lat="44.93758" lon="5.45845">
        <ele>1360.88</ele>
        <time>2011-09-08T12:26:26Z</time>
      </trkpt>
      <trkpt lat="44.93755" lon="5.45852">
        <ele>1359.92</ele>
        <time>2011-09-08T12:26:24Z</time>
      </trkpt>
      <trkpt lat="44.93734" lon="5.45895">
        <ele>1360.4</ele>
        <time>2011-09-08T12:26:11Z</time>
      </trkpt>
      <trkpt lat="44.93725" lon="5.45898">
        <ele>1357.04</ele>
        <time>2011-09-08T12:26:08Z</time>
      </trkpt>
      <trkpt lat="44.93691" lon="5.45861">
        <ele>1358.96</ele>
        <time>2011-09-08T12:25:54Z</time>
      </trkpt>
      <trkpt lat="44.93666" lon="5.45801">
        <ele>1355.6</ele>
        <time>2011-09-08T12:25:38Z</time>
      </trkpt>
      <trkpt lat="44.93663" lon="5.45793">
        <ele>1358.48</ele>
        <time>2011-09-08T12:25:36Z</time>
      </trkpt>
      <trkpt lat="44.93655" lon="5.4575">
        <ele>1355.6</ele>
        <time>2011-09-08T12:25:23Z</time>
      </trkpt>
      <trkpt lat="44.93655" lon="5.45747">
        <ele>1357.04</ele>
        <time>2011-09-08T12:25:22Z</time>
      </trkpt>
      <trkpt lat="44.93656" lon="5.45745">
        <ele>1355.6</ele>
        <time>2011-09-08T12:25:21Z</time>
      </trkpt>
      <trkpt lat="44.93656" lon="5.45742">
        <ele>1353.67</ele>
        <time>2011-09-08T12:25:20Z</time>
      </trkpt>
      <trkpt lat="44.93656" lon="5.45739">
        <ele>1357.04</ele>
        <time>2011-09-08T12:25:19Z</time>
      </trkpt>
      <trkpt lat="44.93654" lon="5.45716">
        <ele>1353.19</ele>
        <time>2011-09-08T12:25:12Z</time>
      </trkpt>
      <trkpt lat="44.93648" lon="5.45694">
        <ele>1354.63</ele>
        <time>2011-09-08T12:25:05Z</time>
      </trkpt>
      <trkpt lat="44.93634" lon="5.45672">
        <ele>1352.71</ele>
        <time>2011-09-08T12:24:56Z</time>
      </trkpt>
      <trkpt lat="44.9362" lon="5.45663">
        <ele>1349.35</ele>
        <time>2011-09-08T12:24:51Z</time>
      </trkpt>
      <trkpt lat="44.93575" lon="5.45653">
        <ele>1349.83</ele>
        <time>2011-09-08T12:24:38Z</time>
      </trkpt>
      <trkpt lat="44.93565" lon="5.45649">
        <ele>1349.35</ele>
        <time>2011-09-08T12:24:36Z</time>
      </trkpt>
      <trkpt lat="44.93556" lon="5.45643">
        <ele>1348.87</ele>
        <time>2011-09-08T12:24:34Z</time>
      </trkpt>
      <trkpt lat="44.9355" lon="5.45639">
        <ele>1349.83</ele>
        <time>2011-09-08T12:24:33Z</time>
      </trkpt>
      <trkpt lat="44.93544" lon="5.45636">
        <ele>1349.35</ele>
        <time>2011-09-08T12:24:32Z</time>
      </trkpt>
      <trkpt lat="44.93537" lon="5.45633">
        <ele>1349.83</ele>
        <time>2011-09-08T12:24:31Z</time>
      </trkpt>
      <trkpt lat="44.93531" lon="5.45631">
        <ele>1348.87</ele>
        <time>2011-09-08T12:24:30Z</time>
      </trkpt>
      <trkpt lat="44.93526" lon="5.45632">
        <ele>1346.46</ele>
        <time>2011-09-08T12:24:29Z</time>
      </trkpt>
      <trkpt lat="44.93522" lon="5.45634">
        <ele>1348.39</ele>
        <time>2011-09-08T12:24:28Z</time>
      </trkpt>
      <trkpt lat="44.93504" lon="5.45654">
        <ele>1349.35</ele>
        <time>2011-09-08T12:24:24Z</time>
      </trkpt>
      <trkpt lat="44.93492" lon="5.45666">
        <ele>1352.23</ele>
        <time>2011-09-08T12:24:21Z</time>
      </trkpt>
      <trkpt lat="44.93485" lon="5.45672">
        <ele>1347.91</ele>
        <time>2011-09-08T12:24:19Z</time>
      </trkpt>
      <trkpt lat="44.93481" lon="5.45675">
        <ele>1349.83</ele>
        <time>2011-09-08T12:24:18Z</time>
      </trkpt>
      <trkpt lat="44.93465" lon="5.45689">
        <ele>1350.79</ele>
        <time>2011-09-08T12:24:14Z</time>
      </trkpt>
      <trkpt lat="44.93418" lon="5.45709">
        <ele>1351.75</ele>
        <time>2011-09-08T12:24:02Z</time>
      </trkpt>
      <trkpt lat="44.93414" lon="5.45711">
        <ele>1350.79</ele>
        <time>2011-09-08T12:24:01Z</time>
      </trkpt>
      <trkpt lat="44.93409" lon="5.45712">
        <ele>1351.27</ele>
        <time>2011-09-08T12:24:00Z</time>
      </trkpt>
      <trkpt lat="44.93405" lon="5.45713">
        <ele>1353.19</ele>
        <time>2011-09-08T12:23:59Z</time>
      </trkpt>
      <trkpt lat="44.934" lon="5.45713">
        <ele>1352.71</ele>
        <time>2011-09-08T12:23:58Z</time>
      </trkpt>
      <trkpt lat="44.93395" lon="5.45713">
        <ele>1353.67</ele>
        <time>2011-09-08T12:23:57Z</time>
      </trkpt>
      <trkpt lat="44.93391" lon="5.45711">
        <ele>1350.79</ele>
        <time>2011-09-08T12:23:56Z</time>
      </trkpt>
      <trkpt lat="44.93387" lon="5.45707">
        <ele>1349.83</ele>
        <time>2011-09-08T12:23:55Z</time>
      </trkpt>
      <trkpt lat="44.93383" lon="5.45704">
        <ele>1352.71</ele>
        <time>2011-09-08T12:23:54Z</time>
      </trkpt>
      <trkpt lat="44.93378" lon="5.457">
        <ele>1354.15</ele>
        <time>2011-09-08T12:23:53Z</time>
      </trkpt>
      <trkpt lat="44.9337" lon="5.45692">
        <ele>1352.71</ele>
        <time>2011-09-08T12:23:51Z</time>
      </trkpt>
      <trkpt lat="44.93367" lon="5.45687">
        <ele>1353.19</ele>
        <time>2011-09-08T12:23:50Z</time>
      </trkpt>
      <trkpt lat="44.93363" lon="5.45683">
        <ele>1354.15</ele>
        <time>2011-09-08T12:23:49Z</time>
      </trkpt>
      <trkpt lat="44.93361" lon="5.45677">
        <ele>1351.27</ele>
        <time>2011-09-08T12:23:48Z</time>
      </trkpt>
      <trkpt lat="44.93359" lon="5.45672">
        <ele>1352.71</ele>
        <time>2011-09-08T12:23:47Z</time>
      </trkpt>
      <trkpt lat="44.93359" lon="5.45666">
        <ele>1354.15</ele>
        <time>2011-09-08T12:23:46Z</time>
      </trkpt>
      <trkpt lat="44.93359" lon="5.45654">
        <ele>1354.15</ele>
        <time>2011-09-08T12:23:44Z</time>
      </trkpt>
      <trkpt lat="44.93358" lon="5.45648">
        <ele>1352.23</ele>
        <time>2011-09-08T12:23:43Z</time>
      </trkpt>
      <trkpt lat="44.93357" lon="5.4564">
        <ele>1352.23</ele>
        <time>2011-09-08T12:23:42Z</time>
      </trkpt>
      <trkpt lat="44.93368" lon="5.45583">
        <ele>1351.75</ele>
        <time>2011-09-08T12:23:35Z</time>
      </trkpt>
      <trkpt lat="44.9337" lon="5.45574">
        <ele>1353.19</ele>
        <time>2011-09-08T12:23:34Z</time>
      </trkpt>
      <trkpt lat="44.93374" lon="5.45566">
        <ele>1353.67</ele>
        <time>2011-09-08T12:23:33Z</time>
      </trkpt>
      <trkpt lat="44.9338" lon="5.45552">
        <ele>1376.611</ele>
        <time>2011-06-03T11:20:37Z</time>
      </trkpt>
      <trkpt lat="44.93384" lon="5.45543">
        <ele>1376.774</ele>
        <time>2011-06-03T11:20:36Z</time>
      </trkpt>
      <trkpt lat="44.93403" lon="5.45484">
        <ele>1379.142</ele>
        <time>2011-06-03T11:20:30Z</time>
      </trkpt>
      <trkpt lat="44.93402" lon="5.45442">
        <ele>1380.302</ele>
        <time>2011-06-03T11:20:26Z</time>
      </trkpt>
      <trkpt lat="44.93392" lon="5.45384">
        <ele>1381.915</ele>
        <time>2011-06-03T11:20:20Z</time>
      </trkpt>
      <trkpt lat="44.93391" lon="5.45376">
        <ele>1382.157</ele>
        <time>2011-06-03T11:20:19Z</time>
      </trkpt>
      <trkpt lat="44.93392" lon="5.45352">
        <ele>1383.175</ele>
        <time>2011-06-03T11:20:16Z</time>
      </trkpt>
      <trkpt lat="44.93393" lon="5.45345">
        <ele>1383.388</ele>
        <time>2011-06-03T11:20:15Z</time>
      </trkpt>
      <trkpt lat="44.93389" lon="5.45327">
        <ele>1384.88</ele>
        <time>2011-06-03T11:20:12Z</time>
      </trkpt>
      <trkpt lat="44.93382" lon="5.45329">
        <ele>1385.734</ele>
        <time>2011-06-03T11:20:10Z</time>
      </trkpt>
      <trkpt lat="44.93378" lon="5.45352">
        <ele>1386.635</ele>
        <time>2011-06-03T11:20:07Z</time>
      </trkpt>
      <trkpt lat="44.93374" lon="5.4541">
        <ele>1388.002</ele>
        <time>2011-06-03T11:20:01Z</time>
      </trkpt>
      <trkpt lat="44.93372" lon="5.45435">
        <ele>1368.57</ele>
        <time>2011-09-08T12:22:47Z</time>
      </trkpt>
      <trkpt lat="44.93365" lon="5.45464">
        <ele>1368.09</ele>
        <time>2011-09-08T12:22:43Z</time>
      </trkpt>
      <trkpt lat="44.93363" lon="5.45472">
        <ele>1368.09</ele>
        <time>2011-09-08T12:22:42Z</time>
      </trkpt>
      <trkpt lat="44.93361" lon="5.45482">
        <ele>1366.65</ele>
        <time>2011-09-08T12:22:41Z</time>
      </trkpt>
      <trkpt lat="44.93359" lon="5.45491">
        <ele>1366.65</ele>
        <time>2011-09-08T12:22:40Z</time>
      </trkpt>
      <trkpt lat="44.93358" lon="5.45501">
        <ele>1368.57</ele>
        <time>2011-09-08T12:22:39Z</time>
      </trkpt>
      <trkpt lat="44.93356" lon="5.45511">
        <ele>1368.57</ele>
        <time>2011-09-08T12:22:38Z</time>
      </trkpt>
      <trkpt lat="44.93353" lon="5.45521">
        <ele>1368.57</ele>
        <time>2011-09-08T12:22:37Z</time>
      </trkpt>
      <trkpt lat="44.93348" lon="5.45531">
        <ele>1368.09</ele>
        <time>2011-09-08T12:22:36Z</time>
      </trkpt>
      <trkpt lat="44.93322" lon="5.45572">
        <ele>1369.54</ele>
        <time>2011-09-08T12:22:31Z</time>
      </trkpt>
      <trkpt lat="44.93316" lon="5.45581">
        <ele>1370.5</ele>
        <time>2011-09-08T12:22:30Z</time>
      </trkpt>
      <trkpt lat="44.9331" lon="5.45588">
        <ele>1370.02</ele>
        <time>2011-09-08T12:22:29Z</time>
      </trkpt>
      <trkpt lat="44.93302" lon="5.45593">
        <ele>1371.46</ele>
        <time>2011-09-08T12:22:28Z</time>
      </trkpt>
      <trkpt lat="44.93285" lon="5.45598">
        <ele>1372.42</ele>
        <time>2011-09-08T12:22:26Z</time>
      </trkpt>
      <trkpt lat="44.93277" lon="5.45598">
        <ele>1372.42</ele>
        <time>2011-09-08T12:22:25Z</time>
      </trkpt>
      <trkpt lat="44.93269" lon="5.45599">
        <ele>1374.34</ele>
        <time>2011-09-08T12:22:24Z</time>
      </trkpt>
      <trkpt lat="44.93263" lon="5.45602">
        <ele>1372.42</ele>
        <time>2011-09-08T12:22:23Z</time>
      </trkpt>
      <trkpt lat="44.9322" lon="5.45635">
        <ele>1375.3</ele>
        <time>2011-09-08T12:22:16Z</time>
      </trkpt>
      <trkpt lat="44.93214" lon="5.45641">
        <ele>1375.78</ele>
        <time>2011-09-08T12:22:15Z</time>
      </trkpt>
      <trkpt lat="44.93208" lon="5.45647">
        <ele>1376.75</ele>
        <time>2011-09-08T12:22:14Z</time>
      </trkpt>
      <trkpt lat="44.93199" lon="5.45651">
        <ele>1377.23</ele>
        <time>2011-09-08T12:22:13Z</time>
      </trkpt>
      <trkpt lat="44.93182" lon="5.45653">
        <ele>1378.19</ele>
        <time>2011-09-08T12:22:11Z</time>
      </trkpt>
      <trkpt lat="44.93175" lon="5.45655">
        <ele>1380.11</ele>
        <time>2011-09-08T12:22:10Z</time>
      </trkpt>
      <trkpt lat="44.93168" lon="5.45659">
        <ele>1378.67</ele>
        <time>2011-09-08T12:22:09Z</time>
      </trkpt>
      <trkpt lat="44.93144" lon="5.45689">
        <ele>1381.07</ele>
        <time>2011-09-08T12:22:05Z</time>
      </trkpt>
      <trkpt lat="44.93138" lon="5.45696">
        <ele>1381.55</ele>
        <time>2011-09-08T12:22:04Z</time>
      </trkpt>
      <trkpt lat="44.93132" lon="5.45701">
        <ele>1382.51</ele>
        <time>2011-09-08T12:22:03Z</time>
      </trkpt>
      <trkpt lat="44.93127" lon="5.45706">
        <ele>1382.99</ele>
        <time>2011-09-08T12:22:02Z</time>
      </trkpt>
      <trkpt lat="44.93122" lon="5.45712">
        <ele>1382.51</ele>
        <time>2011-09-08T12:22:01Z</time>
      </trkpt>
      <trkpt lat="44.93117" lon="5.45718">
        <ele>1381.55</ele>
        <time>2011-09-08T12:22:00Z</time>
      </trkpt>
      <trkpt lat="44.93112" lon="5.45725">
        <ele>1382.51</ele>
        <time>2011-09-08T12:21:59Z</time>
      </trkpt>
      <trkpt lat="44.93108" lon="5.45734">
        <ele>1381.07</ele>
        <time>2011-09-08T12:21:58Z</time>
      </trkpt>
      <trkpt lat="44.93104" lon="5.45744">
        <ele>1383.96</ele>
        <time>2011-09-08T12:21:57Z</time>
      </trkpt>
      <trkpt lat="44.93098" lon="5.45753">
        <ele>1382.99</ele>
        <time>2011-09-08T12:21:56Z</time>
      </trkpt>
      <trkpt lat="44.93078" lon="5.45778">
        <ele>1384.44</ele>
        <time>2011-09-08T12:21:53Z</time>
      </trkpt>
      <trkpt lat="44.93072" lon="5.45786">
        <ele>1384.44</ele>
        <time>2011-09-08T12:21:52Z</time>
      </trkpt>
      <trkpt lat="44.93064" lon="5.45793">
        <ele>1386.36</ele>
        <time>2011-09-08T12:21:51Z</time>
      </trkpt>
      <trkpt lat="44.93056" lon="5.45798">
        <ele>1386.36</ele>
        <time>2011-09-08T12:21:50Z</time>
      </trkpt>
      <trkpt lat="44.93047" lon="5.45802">
        <ele>1385.4</ele>
        <time>2011-09-08T12:21:49Z</time>
      </trkpt>
      <trkpt lat="44.93024" lon="5.45804">
        <ele>1386.84</ele>
        <time>2011-09-08T12:21:48Z</time>
      </trkpt>
      <trkpt lat="44.93017" lon="5.45806">
        <ele>1386.84</ele>
        <time>2011-09-08T12:21:46Z</time>
      </trkpt>
      <trkpt lat="44.93002" lon="5.45817">
        <ele>1388.28</ele>
        <time>2011-09-08T12:21:42Z</time>
      </trkpt>
      <trkpt lat="44.93" lon="5.45823">
        <ele>1390.2</ele>
        <time>2011-09-08T12:21:41Z</time>
      </trkpt>
      <trkpt lat="44.92998" lon="5.4583">
        <ele>1391.17</ele>
        <time>2011-09-08T12:21:40Z</time>
      </trkpt>
      <trkpt lat="44.92996" lon="5.45837">
        <ele>1390.2</ele>
        <time>2011-09-08T12:21:39Z</time>
      </trkpt>
      <trkpt lat="44.92995" lon="5.45846">
        <ele>1392.61</ele>
        <time>2011-09-08T12:21:38Z</time>
      </trkpt>
      <trkpt lat="44.92994" lon="5.45908">
        <ele>1391.17</ele>
        <time>2011-09-08T12:21:31Z</time>
      </trkpt>
      <trkpt lat="44.92994" lon="5.45916">
        <ele>1392.61</ele>
        <time>2011-09-08T12:21:30Z</time>
      </trkpt>
      <trkpt lat="44.92994" lon="5.45925">
        <ele>1391.65</ele>
        <time>2011-09-08T12:21:29Z</time>
      </trkpt>
      <trkpt lat="44.92978" lon="5.45957">
        <ele>1395.49</ele>
        <time>2011-09-08T12:21:25Z</time>
      </trkpt>
      <trkpt lat="44.92968" lon="5.45974">
        <ele>1396.45</ele>
        <time>2011-09-08T12:21:23Z</time>
      </trkpt>
      <trkpt lat="44.92963" lon="5.45987">
        <ele>1396.93</ele>
        <time>2011-09-08T12:21:21Z</time>
      </trkpt>
      <trkpt lat="44.9296" lon="5.45993">
        <ele>1396.93</ele>
        <time>2011-09-08T12:21:20Z</time>
      </trkpt>
      <trkpt lat="44.92959" lon="5.45998">
        <ele>1397.41</ele>
        <time>2011-09-08T12:21:19Z</time>
      </trkpt>
      <trkpt lat="44.92959" lon="5.46004">
        <ele>1396.93</ele>
        <time>2011-09-08T12:21:18Z</time>
      </trkpt>
      <trkpt lat="44.92959" lon="5.46011">
        <ele>1398.37</ele>
        <time>2011-09-08T12:21:17Z</time>
      </trkpt>
      <trkpt lat="44.92966" lon="5.46042">
        <ele>1399.82</ele>
        <time>2011-09-08T12:21:14Z</time>
      </trkpt>
      <trkpt lat="44.92975" lon="5.46079">
        <ele>1401.26</ele>
        <time>2011-09-08T12:21:10Z</time>
      </trkpt>
      <trkpt lat="44.92973" lon="5.46125">
        <ele>1402.22</ele>
        <time>2011-09-08T12:21:05Z</time>
      </trkpt>
      <trkpt lat="44.92972" lon="5.46134">
        <ele>1403.18</ele>
        <time>2011-09-08T12:21:04Z</time>
      </trkpt>
      <trkpt lat="44.92971" lon="5.46142">
        <ele>1402.7</ele>
        <time>2011-09-08T12:21:03Z</time>
      </trkpt>
      <trkpt lat="44.92969" lon="5.4615">
        <ele>1404.14</ele>
        <time>2011-09-08T12:21:02Z</time>
      </trkpt>
      <trkpt lat="44.92967" lon="5.46157">
        <ele>1404.62</ele>
        <time>2011-09-08T12:21:01Z</time>
      </trkpt>
      <trkpt lat="44.92963" lon="5.46164">
        <ele>1404.62</ele>
        <time>2011-09-08T12:21:00Z</time>
      </trkpt>
      <trkpt lat="44.92951" lon="5.46177">
        <ele>1405.58</ele>
        <time>2011-09-08T12:20:57Z</time>
      </trkpt>
      <trkpt lat="44.92947" lon="5.46182">
        <ele>1404.62</ele>
        <time>2011-09-08T12:20:56Z</time>
      </trkpt>
      <trkpt lat="44.92923" lon="5.4623">
        <ele>1405.58</ele>
        <time>2011-09-08T12:20:47Z</time>
      </trkpt>
      <trkpt lat="44.92921" lon="5.46236">
        <ele>1404.62</ele>
        <time>2011-09-08T12:20:46Z</time>
      </trkpt>
      <trkpt lat="44.9292" lon="5.46243">
        <ele>1404.14</ele>
        <time>2011-09-08T12:20:45Z</time>
      </trkpt>
      <trkpt lat="44.92918" lon="5.46249">
        <ele>1405.1</ele>
        <time>2011-09-08T12:20:44Z</time>
      </trkpt>
      <trkpt lat="44.92915" lon="5.46256">
        <ele>1403.66</ele>
        <time>2011-09-08T12:20:43Z</time>
      </trkpt>
      <trkpt lat="44.92913" lon="5.46262">
        <ele>1405.58</ele>
        <time>2011-09-08T12:20:42Z</time>
      </trkpt>
      <trkpt lat="44.92909" lon="5.46268">
        <ele>1405.1</ele>
        <time>2011-09-08T12:20:41Z</time>
      </trkpt>
      <trkpt lat="44.92906" lon="5.46274">
        <ele>1404.62</ele>
        <time>2011-09-08T12:20:40Z</time>
      </trkpt>
      <trkpt lat="44.92901" lon="5.46279">
        <ele>1405.1</ele>
        <time>2011-09-08T12:20:39Z</time>
      </trkpt>
      <trkpt lat="44.92895" lon="5.46283">
        <ele>1405.1</ele>
        <time>2011-09-08T12:20:38Z</time>
      </trkpt>
      <trkpt lat="44.9289" lon="5.46287">
        <ele>1404.62</ele>
        <time>2011-09-08T12:20:37Z</time>
      </trkpt>
      <trkpt lat="44.92874" lon="5.46304">
        <ele>1404.62</ele>
        <time>2011-09-08T12:20:34Z</time>
      </trkpt>
      <trkpt lat="44.9287" lon="5.4631">
        <ele>1405.1</ele>
        <time>2011-09-08T12:20:33Z</time>
      </trkpt>
      <trkpt lat="44.92868" lon="5.46314">
        <ele>1404.62</ele>
        <time>2011-09-08T12:20:32Z</time>
      </trkpt>
      <trkpt lat="44.92865" lon="5.46316">
        <ele>1405.1</ele>
        <time>2011-09-08T12:20:31Z</time>
      </trkpt>
      <trkpt lat="44.92863" lon="5.46316">
        <ele>1405.1</ele>
        <time>2011-09-08T12:20:30Z</time>
      </trkpt>
      <trkpt lat="44.92862" lon="5.46312">
        <ele>1406.07</ele>
        <time>2011-09-08T12:20:29Z</time>
      </trkpt>
      <trkpt lat="44.92861" lon="5.46306">
        <ele>1405.58</ele>
        <time>2011-09-08T12:20:28Z</time>
      </trkpt>
      <trkpt lat="44.92862" lon="5.46288">
        <ele>1406.55</ele>
        <time>2011-09-08T12:20:26Z</time>
      </trkpt>
      <trkpt lat="44.92861" lon="5.46281">
        <ele>1429.556</ele>
        <time>2011-06-03T11:17:34Z</time>
      </trkpt>
      <trkpt lat="44.92864" lon="5.46244">
        <ele>1430.238</ele>
        <time>2011-06-03T11:17:30Z</time>
      </trkpt>
      <trkpt lat="44.92878" lon="5.46183">
        <ele>1431.359</ele>
        <time>2011-06-03T11:17:23Z</time>
      </trkpt>
      <trkpt lat="44.92884" lon="5.46139">
        <ele>1431.863</ele>
        <time>2011-06-03T11:17:18Z</time>
      </trkpt>
      <trkpt lat="44.9288" lon="5.46091">
        <ele>1432.693</ele>
        <time>2011-06-03T11:17:12Z</time>
      </trkpt>
      <trkpt lat="44.92877" lon="5.46076">
        <ele>1433.26</ele>
        <time>2011-06-03T11:17:10Z</time>
      </trkpt>
      <trkpt lat="44.92865" lon="5.46068">
        <ele>1433.661</ele>
        <time>2011-06-03T11:17:07Z</time>
      </trkpt>
      <trkpt lat="44.92852" lon="5.46094">
        <ele>1434.217</ele>
        <time>2011-06-03T11:17:03Z</time>
      </trkpt>
      <trkpt lat="44.92833" lon="5.46109">
        <ele>1434.688</ele>
        <time>2011-06-03T11:16:59Z</time>
      </trkpt>
      <trkpt lat="44.92822" lon="5.46113">
        <ele>1435.031</ele>
        <time>2011-06-03T11:16:57Z</time>
      </trkpt>
      <trkpt lat="44.92809" lon="5.46127">
        <ele>1435.201</ele>
        <time>2011-06-03T11:16:54Z</time>
      </trkpt>
      <trkpt lat="44.92806" lon="5.46128">
        <ele>1413.28</ele>
        <time>2011-09-08T12:19:42Z</time>
      </trkpt>
      <trkpt lat="44.92794" lon="5.46204">
        <ele>1414.72</ele>
        <time>2011-09-08T12:19:28Z</time>
      </trkpt>
      <trkpt lat="44.9278" lon="5.46233">
        <ele>1415.2</ele>
        <time>2011-09-08T12:19:20Z</time>
      </trkpt>
      <trkpt lat="44.92778" lon="5.46235">
        <ele>1415.68</ele>
        <time>2011-09-08T12:19:19Z</time>
      </trkpt>
      <trkpt lat="44.92777" lon="5.46237">
        <ele>1415.68</ele>
        <time>2011-09-08T12:19:18Z</time>
      </trkpt>
      <trkpt lat="44.92775" lon="5.46238">
        <ele>1415.2</ele>
        <time>2011-09-08T12:19:17Z</time>
      </trkpt>
      <trkpt lat="44.92773" lon="5.4624">
        <ele>1415.2</ele>
        <time>2011-09-08T12:19:15Z</time>
      </trkpt>
      <trkpt lat="44.92766" lon="5.46248">
        <ele>1416.64</ele>
        <time>2011-09-08T12:14:51Z</time>
      </trkpt>
      <trkpt lat="44.92764" lon="5.46249">
        <ele>1416.64</ele>
        <time>2011-09-08T12:14:49Z</time>
      </trkpt>
      <trkpt lat="44.92755" lon="5.46243">
        <ele>1415.2</ele>
        <time>2011-09-08T12:14:42Z</time>
      </trkpt>
      <trkpt lat="44.9274" lon="5.46218">
        <ele>1416.64</ele>
        <time>2011-09-08T12:14:27Z</time>
      </trkpt>
      <trkpt lat="44.9274" lon="5.46215">
        <ele>1416.64</ele>
        <time>2011-09-08T12:14:26Z</time>
      </trkpt>
      <trkpt lat="44.92735" lon="5.4619">
        <ele>1412.31</ele>
        <time>2011-09-08T12:14:15Z</time>
      </trkpt>
      <trkpt lat="44.92731" lon="5.46176">
        <ele>1412.79</ele>
        <time>2011-09-08T12:14:09Z</time>
      </trkpt>
      <trkpt lat="44.92731" lon="5.46173">
        <ele>1407.99</ele>
        <time>2011-09-08T12:14:08Z</time>
      </trkpt>
      <trkpt lat="44.9273" lon="5.46171">
        <ele>1413.28</ele>
        <time>2011-09-08T12:14:07Z</time>
      </trkpt>
      <trkpt lat="44.92724" lon="5.46153">
        <ele>1408.95</ele>
        <time>2011-09-08T12:13:59Z</time>
      </trkpt>
      <trkpt lat="44.92722" lon="5.46151">
        <ele>1408.95</ele>
        <time>2011-09-08T12:13:58Z</time>
      </trkpt>
      <trkpt lat="44.92716" lon="5.46147">
        <ele>1408.47</ele>
        <time>2011-09-08T12:13:54Z</time>
      </trkpt>
      <trkpt lat="44.92712" lon="5.46144">
        <ele>1405.1</ele>
        <time>2011-09-08T12:13:52Z</time>
      </trkpt>
      <trkpt lat="44.92708" lon="5.46142">
        <ele>1408.47</ele>
        <time>2011-09-08T12:13:50Z</time>
      </trkpt>
      <trkpt lat="44.92703" lon="5.46139">
        <ele>1405.1</ele>
        <time>2011-09-08T12:13:47Z</time>
      </trkpt>
      <trkpt lat="44.92691" lon="5.46131">
        <ele>1408.47</ele>
        <time>2011-09-08T12:13:39Z</time>
      </trkpt>
      <trkpt lat="44.92688" lon="5.4613">
        <ele>1406.07</ele>
        <time>2011-09-08T12:13:37Z</time>
      </trkpt>
      <trkpt lat="44.92686" lon="5.46129">
        <ele>1402.22</ele>
        <time>2011-09-08T12:13:36Z</time>
      </trkpt>
      <trkpt lat="44.92677" lon="5.46124">
        <ele>1407.03</ele>
        <time>2011-09-08T12:13:31Z</time>
      </trkpt>
      <trkpt lat="44.92673" lon="5.4612">
        <ele>1403.66</ele>
        <time>2011-09-08T12:13:28Z</time>
      </trkpt>
      <trkpt lat="44.92672" lon="5.46118">
        <ele>1404.14</ele>
        <time>2011-09-08T12:13:27Z</time>
      </trkpt>
      <trkpt lat="44.92671" lon="5.46116">
        <ele>1401.26</ele>
        <time>2011-09-08T12:13:26Z</time>
      </trkpt>
      <trkpt lat="44.9267" lon="5.46115">
        <ele>1402.22</ele>
        <time>2011-09-08T12:13:25Z</time>
      </trkpt>
      <trkpt lat="44.92669" lon="5.46113">
        <ele>1404.62</ele>
        <time>2011-09-08T12:13:24Z</time>
      </trkpt>
      <trkpt lat="44.92662" lon="5.46089">
        <ele>1401.26</ele>
        <time>2011-09-08T12:13:13Z</time>
      </trkpt>
      <trkpt lat="44.9266" lon="5.46075">
        <ele>1401.26</ele>
        <time>2011-09-08T12:13:07Z</time>
      </trkpt>
      <trkpt lat="44.92659" lon="5.46072">
        <ele>1400.3</ele>
        <time>2011-09-08T12:13:06Z</time>
      </trkpt>
      <trkpt lat="44.92659" lon="5.4607">
        <ele>1403.18</ele>
        <time>2011-09-08T12:13:05Z</time>
      </trkpt>
      <trkpt lat="44.92658" lon="5.46067">
        <ele>1400.3</ele>
        <time>2011-09-08T12:13:04Z</time>
      </trkpt>
      <trkpt lat="44.92656" lon="5.46066">
        <ele>1399.34</ele>
        <time>2011-09-08T12:13:03Z</time>
      </trkpt>
      <trkpt lat="44.92654" lon="5.46066">
        <ele>1397.41</ele>
        <time>2011-09-08T12:13:02Z</time>
      </trkpt>
      <trkpt lat="44.92653" lon="5.46067">
        <ele>1397.41</ele>
        <time>2011-09-08T12:13:01Z</time>
      </trkpt>
      <trkpt lat="44.92651" lon="5.46072">
        <ele>1397.89</ele>
        <time>2011-09-08T12:12:59Z</time>
      </trkpt>
      <trkpt lat="44.92651" lon="5.46074">
        <ele>1395.01</ele>
        <time>2011-09-08T12:12:58Z</time>
      </trkpt>
      <trkpt lat="44.92652" lon="5.46082">
        <ele>1398.86</ele>
        <time>2011-09-08T12:12:55Z</time>
      </trkpt>
      <trkpt lat="44.92654" lon="5.46089">
        <ele>1395.49</ele>
        <time>2011-09-08T12:12:52Z</time>
      </trkpt>
      <trkpt lat="44.92656" lon="5.46102">
        <ele>1398.37</ele>
        <time>2011-09-08T12:12:47Z</time>
      </trkpt>
      <trkpt lat="44.92657" lon="5.46105">
        <ele>1394.53</ele>
        <time>2011-09-08T12:12:46Z</time>
      </trkpt>
      <trkpt lat="44.92658" lon="5.46107">
        <ele>1398.86</ele>
        <time>2011-09-08T12:12:45Z</time>
      </trkpt>
      <trkpt lat="44.92659" lon="5.46111">
        <ele>1394.05</ele>
        <time>2011-09-08T12:12:43Z</time>
      </trkpt>
      <trkpt lat="44.9266" lon="5.46114">
        <ele>1391.65</ele>
        <time>2011-09-08T12:12:42Z</time>
      </trkpt>
      <trkpt lat="44.92661" lon="5.46127">
        <ele>1396.93</ele>
        <time>2011-09-08T12:12:37Z</time>
      </trkpt>
      <trkpt lat="44.92661" lon="5.4613">
        <ele>1391.65</ele>
        <time>2011-09-08T12:12:36Z</time>
      </trkpt>
      <trkpt lat="44.92661" lon="5.46133">
        <ele>1396.93</ele>
        <time>2011-09-08T12:12:35Z</time>
      </trkpt>
      <trkpt lat="44.92661" lon="5.46144">
        <ele>1393.57</ele>
        <time>2011-09-08T12:12:31Z</time>
      </trkpt>
      <trkpt lat="44.92659" lon="5.46152">
        <ele>1395.01</ele>
        <time>2011-09-08T12:12:28Z</time>
      </trkpt>
      <trkpt lat="44.92657" lon="5.46156">
        <ele>1389.24</ele>
        <time>2011-09-08T12:12:27Z</time>
      </trkpt>
      <trkpt lat="44.92637" lon="5.4618">
        <ele>1392.61</ele>
        <time>2011-09-08T12:12:18Z</time>
      </trkpt>
      <trkpt lat="44.92636" lon="5.46182">
        <ele>1387.8</ele>
        <time>2011-09-08T12:12:17Z</time>
      </trkpt>
      <trkpt lat="44.92633" lon="5.46184">
        <ele>1392.13</ele>
        <time>2011-09-08T12:12:16Z</time>
      </trkpt>
      <trkpt lat="44.92629" lon="5.46188">
        <ele>1387.8</ele>
        <time>2011-09-08T12:12:14Z</time>
      </trkpt>
      <trkpt lat="44.92627" lon="5.46191">
        <ele>1394.05</ele>
        <time>2011-09-08T12:12:13Z</time>
      </trkpt>
      <trkpt lat="44.92622" lon="5.46199">
        <ele>1388.76</ele>
        <time>2011-09-08T12:12:11Z</time>
      </trkpt>
      <trkpt lat="44.92622" lon="5.462">
        <ele>1392.13</ele>
        <time>2011-09-08T12:12:10Z</time>
      </trkpt>
      <trkpt lat="44.92618" lon="5.46206">
        <ele>1389.24</ele>
        <time>2011-09-08T12:12:08Z</time>
      </trkpt>
      <trkpt lat="44.92615" lon="5.4621">
        <ele>1392.13</ele>
        <time>2011-09-08T12:12:07Z</time>
      </trkpt>
      <trkpt lat="44.92608" lon="5.46224">
        <ele>1389.24</ele>
        <time>2011-09-08T12:12:02Z</time>
      </trkpt>
      <trkpt lat="44.92604" lon="5.46226">
        <ele>1386.36</ele>
        <time>2011-09-08T12:12:01Z</time>
      </trkpt>
      <trkpt lat="44.92601" lon="5.46229">
        <ele>1390.68</ele>
        <time>2011-09-08T12:12:00Z</time>
      </trkpt>
      <trkpt lat="44.92592" lon="5.46234">
        <ele>1386.84</ele>
        <time>2011-09-08T12:11:59Z</time>
      </trkpt>
      <trkpt lat="44.9259" lon="5.46237">
        <ele>1390.2</ele>
        <time>2011-09-08T12:11:58Z</time>
      </trkpt>
      <trkpt lat="44.92588" lon="5.46238">
        <ele>1389.72</ele>
        <time>2011-09-08T12:11:57Z</time>
      </trkpt>
      <trkpt lat="44.92581" lon="5.46238">
        <ele>1385.88</ele>
        <time>2011-09-08T12:11:54Z</time>
      </trkpt>
      <trkpt lat="44.92578" lon="5.46237">
        <ele>1384.44</ele>
        <time>2011-09-08T12:11:53Z</time>
      </trkpt>
      <trkpt lat="44.92572" lon="5.46233">
        <ele>1388.76</ele>
        <time>2011-09-08T12:11:51Z</time>
      </trkpt>
      <trkpt lat="44.92569" lon="5.46231">
        <ele>1384.92</ele>
        <time>2011-09-08T12:11:50Z</time>
      </trkpt>
      <trkpt lat="44.92566" lon="5.4623">
        <ele>1389.72</ele>
        <time>2011-09-08T12:11:49Z</time>
      </trkpt>
      <trkpt lat="44.92563" lon="5.46228">
        <ele>1386.84</ele>
        <time>2011-09-08T12:11:48Z</time>
      </trkpt>
      <trkpt lat="44.9256" lon="5.46226">
        <ele>1385.4</ele>
        <time>2011-09-08T12:11:47Z</time>
      </trkpt>
      <trkpt lat="44.92556" lon="5.46223">
        <ele>1388.76</ele>
        <time>2011-09-08T12:11:45Z</time>
      </trkpt>
      <trkpt lat="44.92555" lon="5.46223">
        <ele>1383.96</ele>
        <time>2011-09-08T12:11:44Z</time>
      </trkpt>
      <trkpt lat="44.92553" lon="5.46222">
        <ele>1386.84</ele>
        <time>2011-09-08T12:11:43Z</time>
      </trkpt>
      <trkpt lat="44.92551" lon="5.4622">
        <ele>1386.84</ele>
        <time>2011-09-08T12:11:42Z</time>
      </trkpt>
      <trkpt lat="44.9255" lon="5.46218">
        <ele>1382.51</ele>
        <time>2011-09-08T12:11:41Z</time>
      </trkpt>
      <trkpt lat="44.9255" lon="5.46215">
        <ele>1388.28</ele>
        <time>2011-09-08T12:11:40Z</time>
      </trkpt>
      <trkpt lat="44.92549" lon="5.46212">
        <ele>1386.84</ele>
        <time>2011-09-08T12:11:39Z</time>
      </trkpt>
      <trkpt lat="44.92548" lon="5.46209">
        <ele>1384.92</ele>
        <time>2011-09-08T12:11:38Z</time>
      </trkpt>
      <trkpt lat="44.92547" lon="5.46205">
        <ele>1386.36</ele>
        <time>2011-09-08T12:11:37Z</time>
      </trkpt>
      <trkpt lat="44.92545" lon="5.46201">
        <ele>1382.99</ele>
        <time>2011-09-08T12:11:36Z</time>
      </trkpt>
      <trkpt lat="44.92545" lon="5.46199">
        <ele>1386.84</ele>
        <time>2011-09-08T12:11:35Z</time>
      </trkpt>
      <trkpt lat="44.92543" lon="5.46193">
        <ele>1382.51</ele>
        <time>2011-09-08T12:11:34Z</time>
      </trkpt>
      <trkpt lat="44.92542" lon="5.4619">
        <ele>1388.28</ele>
        <time>2011-09-08T12:11:33Z</time>
      </trkpt>
      <trkpt lat="44.92542" lon="5.46185">
        <ele>1383.96</ele>
        <time>2011-09-08T12:11:32Z</time>
      </trkpt>
      <trkpt lat="44.9254" lon="5.46181">
        <ele>1388.28</ele>
        <time>2011-09-08T12:11:31Z</time>
      </trkpt>
      <trkpt lat="44.92539" lon="5.46177">
        <ele>1382.99</ele>
        <time>2011-09-08T12:11:30Z</time>
      </trkpt>
      <trkpt lat="44.92524" lon="5.4615">
        <ele>1383.96</ele>
        <time>2011-09-08T12:11:23Z</time>
      </trkpt>
      <trkpt lat="44.92519" lon="5.46135">
        <ele>1388.28</ele>
        <time>2011-09-08T12:11:19Z</time>
      </trkpt>
      <trkpt lat="44.92517" lon="5.46131">
        <ele>1382.99</ele>
        <time>2011-09-08T12:11:18Z</time>
      </trkpt>
      <trkpt lat="44.92516" lon="5.46127">
        <ele>1387.8</ele>
        <time>2011-09-08T12:11:17Z</time>
      </trkpt>
      <trkpt lat="44.92512" lon="5.4612">
        <ele>1383.47</ele>
        <time>2011-09-08T12:11:15Z</time>
      </trkpt>
      <trkpt lat="44.9251" lon="5.46118">
        <ele>1387.32</ele>
        <time>2011-09-08T12:11:14Z</time>
      </trkpt>
      <trkpt lat="44.92503" lon="5.46112">
        <ele>1383.47</ele>
        <time>2011-09-08T12:11:11Z</time>
      </trkpt>
      <trkpt lat="44.92501" lon="5.46111">
        <ele>1381.55</ele>
        <time>2011-09-08T12:11:10Z</time>
      </trkpt>
      <trkpt lat="44.92493" lon="5.46109">
        <ele>1385.88</ele>
        <time>2011-09-08T12:11:07Z</time>
      </trkpt>
      <trkpt lat="44.92469" lon="5.46099">
        <ele>1382.51</ele>
        <time>2011-09-08T12:10:56Z</time>
      </trkpt>
      <trkpt lat="44.92461" lon="5.46094">
        <ele>1384.92</ele>
        <time>2011-09-08T12:10:52Z</time>
      </trkpt>
      <trkpt lat="44.92455" lon="5.46093">
        <ele>1381.55</ele>
        <time>2011-09-08T12:10:49Z</time>
      </trkpt>
      <trkpt lat="44.92436" lon="5.46098">
        <ele>1382.99</ele>
        <time>2011-09-08T12:10:39Z</time>
      </trkpt>
      <trkpt lat="44.92433" lon="5.46098">
        <ele>1378.19</ele>
        <time>2011-09-08T12:10:38Z</time>
      </trkpt>
      <trkpt lat="44.92429" lon="5.46102">
        <ele>1383.96</ele>
        <time>2011-09-08T12:10:36Z</time>
      </trkpt>
      <trkpt lat="44.92427" lon="5.46103">
        <ele>1383.47</ele>
        <time>2011-09-08T12:10:35Z</time>
      </trkpt>
      <trkpt lat="44.92421" lon="5.46105">
        <ele>1378.19</ele>
        <time>2011-09-08T12:10:33Z</time>
      </trkpt>
      <trkpt lat="44.92413" lon="5.46108">
        <ele>1378.19</ele>
        <time>2011-09-08T12:10:29Z</time>
      </trkpt>
      <trkpt lat="44.92411" lon="5.46109">
        <ele>1375.78</ele>
        <time>2011-09-08T12:10:28Z</time>
      </trkpt>
      <trkpt lat="44.92406" lon="5.46111">
        <ele>1380.11</ele>
        <time>2011-09-08T12:10:26Z</time>
      </trkpt>
      <trkpt lat="44.92403" lon="5.46112">
        <ele>1381.07</ele>
        <time>2011-09-08T12:10:25Z</time>
      </trkpt>
      <trkpt lat="44.92393" lon="5.46113">
        <ele>1375.78</ele>
        <time>2011-09-08T12:10:21Z</time>
      </trkpt>
      <trkpt lat="44.9239" lon="5.46113">
        <ele>1379.63</ele>
        <time>2011-09-08T12:10:20Z</time>
      </trkpt>
      <trkpt lat="44.92387" lon="5.46113">
        <ele>1374.82</ele>
        <time>2011-09-08T12:10:19Z</time>
      </trkpt>
      <trkpt lat="44.92378" lon="5.46105">
        <ele>1374.82</ele>
        <time>2011-09-08T12:10:15Z</time>
      </trkpt>
      <trkpt lat="44.92376" lon="5.46103">
        <ele>1378.67</ele>
        <time>2011-09-08T12:10:14Z</time>
      </trkpt>
      <trkpt lat="44.92373" lon="5.46101">
        <ele>1374.34</ele>
        <time>2011-09-08T12:10:13Z</time>
      </trkpt>
      <trkpt lat="44.92371" lon="5.461">
        <ele>1373.38</ele>
        <time>2011-09-08T12:10:12Z</time>
      </trkpt>
      <trkpt lat="44.92367" lon="5.46098">
        <ele>1378.67</ele>
        <time>2011-09-08T12:10:10Z</time>
      </trkpt>
      <trkpt lat="44.92358" lon="5.461">
        <ele>1375.78</ele>
        <time>2011-09-08T12:10:07Z</time>
      </trkpt>
      <trkpt lat="44.92355" lon="5.46102">
        <ele>1375.78</ele>
        <time>2011-09-08T12:10:06Z</time>
      </trkpt>
      <trkpt lat="44.92352" lon="5.46103">
        <ele>1371.94</ele>
        <time>2011-09-08T12:10:05Z</time>
      </trkpt>
      <trkpt lat="44.92348" lon="5.46105">
        <ele>1375.3</ele>
        <time>2011-09-08T12:10:04Z</time>
      </trkpt>
      <trkpt lat="44.92344" lon="5.46106">
        <ele>1377.23</ele>
        <time>2011-09-08T12:10:03Z</time>
      </trkpt>
      <trkpt lat="44.9234" lon="5.46107">
        <ele>1375.78</ele>
        <time>2011-09-08T12:10:02Z</time>
      </trkpt>
      <trkpt lat="44.92313" lon="5.46088">
        <ele>1375.78</ele>
        <time>2011-09-08T12:09:52Z</time>
      </trkpt>
      <trkpt lat="44.92302" lon="5.46078">
        <ele>1371.94</ele>
        <time>2011-09-08T12:09:48Z</time>
      </trkpt>
      <trkpt lat="44.92299" lon="5.46077">
        <ele>1371.94</ele>
        <time>2011-09-08T12:09:47Z</time>
      </trkpt>
      <trkpt lat="44.92296" lon="5.46076">
        <ele>1374.82</ele>
        <time>2011-09-08T12:09:46Z</time>
      </trkpt>
      <trkpt lat="44.92293" lon="5.46075">
        <ele>1374.34</ele>
        <time>2011-09-08T12:09:45Z</time>
      </trkpt>
      <trkpt lat="44.92286" lon="5.46072">
        <ele>1370.02</ele>
        <time>2011-09-08T12:09:43Z</time>
      </trkpt>
      <trkpt lat="44.92273" lon="5.4607">
        <ele>1370.98</ele>
        <time>2011-09-08T12:09:40Z</time>
      </trkpt>
      <trkpt lat="44.92269" lon="5.46072">
        <ele>1371.94</ele>
        <time>2011-09-08T12:09:39Z</time>
      </trkpt>
      <trkpt lat="44.92265" lon="5.46074">
        <ele>1374.82</ele>
        <time>2011-09-08T12:09:38Z</time>
      </trkpt>
      <trkpt lat="44.9226" lon="5.46077">
        <ele>1373.38</ele>
        <time>2011-09-08T12:09:37Z</time>
      </trkpt>
      <trkpt lat="44.92255" lon="5.4608">
        <ele>1372.42</ele>
        <time>2011-09-08T12:09:36Z</time>
      </trkpt>
      <trkpt lat="44.92247" lon="5.46085">
        <ele>1374.82</ele>
        <time>2011-09-08T12:09:34Z</time>
      </trkpt>
      <trkpt lat="44.92242" lon="5.4609">
        <ele>1373.38</ele>
        <time>2011-09-08T12:09:33Z</time>
      </trkpt>
      <trkpt lat="44.92234" lon="5.46098">
        <ele>1373.86</ele>
        <time>2011-09-08T12:09:31Z</time>
      </trkpt>
      <trkpt lat="44.9223" lon="5.46101">
        <ele>1370.5</ele>
        <time>2011-09-08T12:09:30Z</time>
      </trkpt>
      <trkpt lat="44.92219" lon="5.46112">
        <ele>1375.78</ele>
        <time>2011-09-08T12:09:27Z</time>
      </trkpt>
      <trkpt lat="44.92215" lon="5.46114">
        <ele>1376.75</ele>
        <time>2011-09-08T12:09:26Z</time>
      </trkpt>
      <trkpt lat="44.92209" lon="5.4612">
        <ele>1371.46</ele>
        <time>2011-09-08T12:09:24Z</time>
      </trkpt>
      <trkpt lat="44.92205" lon="5.46122">
        <ele>1376.75</ele>
        <time>2011-09-08T12:09:23Z</time>
      </trkpt>
      <trkpt lat="44.922" lon="5.46127">
        <ele>1371.94</ele>
        <time>2011-09-08T12:09:21Z</time>
      </trkpt>
      <trkpt lat="44.92187" lon="5.46139">
        <ele>1375.3</ele>
        <time>2011-09-08T12:09:16Z</time>
      </trkpt>
      <trkpt lat="44.92184" lon="5.4614">
        <ele>1370.98</ele>
        <time>2011-09-08T12:09:15Z</time>
      </trkpt>
      <trkpt lat="44.9218" lon="5.46141">
        <ele>1377.23</ele>
        <time>2011-09-08T12:09:14Z</time>
      </trkpt>
      <trkpt lat="44.92177" lon="5.46142">
        <ele>1374.34</ele>
        <time>2011-09-08T12:09:13Z</time>
      </trkpt>
      <trkpt lat="44.92171" lon="5.46142">
        <ele>1377.23</ele>
        <time>2011-09-08T12:09:11Z</time>
      </trkpt>
      <trkpt lat="44.92168" lon="5.46141">
        <ele>1371.46</ele>
        <time>2011-09-08T12:09:10Z</time>
      </trkpt>
      <trkpt lat="44.92165" lon="5.46141">
        <ele>1374.82</ele>
        <time>2011-09-08T12:09:09Z</time>
      </trkpt>
      <trkpt lat="44.92164" lon="5.46139">
        <ele>1376.26</ele>
        <time>2011-09-08T12:09:08Z</time>
      </trkpt>
      <trkpt lat="44.92161" lon="5.46136">
        <ele>1370.02</ele>
        <time>2011-09-08T12:09:07Z</time>
      </trkpt>
      <trkpt lat="44.92159" lon="5.46134">
        <ele>1373.38</ele>
        <time>2011-09-08T12:09:06Z</time>
      </trkpt>
      <trkpt lat="44.92158" lon="5.46132">
        <ele>1369.54</ele>
        <time>2011-09-08T12:09:05Z</time>
      </trkpt>
      <trkpt lat="44.92156" lon="5.4613">
        <ele>1375.3</ele>
        <time>2011-09-08T12:09:04Z</time>
      </trkpt>
      <trkpt lat="44.92155" lon="5.4613">
        <ele>1371.94</ele>
        <time>2011-09-08T12:09:03Z</time>
      </trkpt>
      <trkpt lat="44.92154" lon="5.46132">
        <ele>1374.34</ele>
        <time>2011-09-08T12:09:02Z</time>
      </trkpt>
      <trkpt lat="44.92153" lon="5.46135">
        <ele>1370.02</ele>
        <time>2011-09-08T12:09:01Z</time>
      </trkpt>
      <trkpt lat="44.92152" lon="5.4614">
        <ele>1374.34</ele>
        <time>2011-09-08T12:09:00Z</time>
      </trkpt>
      <trkpt lat="44.92151" lon="5.46146">
        <ele>1368.09</ele>
        <time>2011-09-08T12:08:59Z</time>
      </trkpt>
      <trkpt lat="44.92149" lon="5.46152">
        <ele>1372.42</ele>
        <time>2011-09-08T12:08:58Z</time>
      </trkpt>
      <trkpt lat="44.92147" lon="5.46157">
        <ele>1368.57</ele>
        <time>2011-09-08T12:08:57Z</time>
      </trkpt>
      <trkpt lat="44.92118" lon="5.46219">
        <ele>1371.94</ele>
        <time>2011-09-08T12:08:46Z</time>
      </trkpt>
      <trkpt lat="44.92115" lon="5.46222">
        <ele>1373.86</ele>
        <time>2011-09-08T12:08:45Z</time>
      </trkpt>
      <trkpt lat="44.92102" lon="5.46247">
        <ele>1371.94</ele>
        <time>2011-09-08T12:08:40Z</time>
      </trkpt>
      <trkpt lat="44.921" lon="5.46252">
        <ele>1368.09</ele>
        <time>2011-09-08T12:08:39Z</time>
      </trkpt>
      <trkpt lat="44.92088" lon="5.46277">
        <ele>1371.94</ele>
        <time>2011-09-08T12:08:34Z</time>
      </trkpt>
      <trkpt lat="44.92085" lon="5.46282">
        <ele>1372.42</ele>
        <time>2011-09-08T12:08:33Z</time>
      </trkpt>
      <trkpt lat="44.92051" lon="5.4632">
        <ele>1370.5</ele>
        <time>2011-09-08T12:08:24Z</time>
      </trkpt>
      <trkpt lat="44.92047" lon="5.46322">
        <ele>1370.02</ele>
        <time>2011-09-08T12:08:23Z</time>
      </trkpt>
      <trkpt lat="44.92043" lon="5.46324">
        <ele>1371.46</ele>
        <time>2011-09-08T12:08:22Z</time>
      </trkpt>
      <trkpt lat="44.9204" lon="5.46325">
        <ele>1371.46</ele>
        <time>2011-09-08T12:08:21Z</time>
      </trkpt>
      <trkpt lat="44.92035" lon="5.46324">
        <ele>1369.54</ele>
        <time>2011-09-08T12:08:20Z</time>
      </trkpt>
      <trkpt lat="44.92032" lon="5.46323">
        <ele>1368.09</ele>
        <time>2011-09-08T12:08:19Z</time>
      </trkpt>
      <trkpt lat="44.92028" lon="5.4632">
        <ele>1369.05</ele>
        <time>2011-09-08T12:08:18Z</time>
      </trkpt>
      <trkpt lat="44.92022" lon="5.46311">
        <ele>1370.5</ele>
        <time>2011-09-08T12:08:16Z</time>
      </trkpt>
      <trkpt lat="44.92019" lon="5.46305">
        <ele>1369.05</ele>
        <time>2011-09-08T12:08:15Z</time>
      </trkpt>
      <trkpt lat="44.92015" lon="5.463">
        <ele>1370.02</ele>
        <time>2011-09-08T12:08:14Z</time>
      </trkpt>
      <trkpt lat="44.9201" lon="5.46295">
        <ele>1371.46</ele>
        <time>2011-09-08T12:08:13Z</time>
      </trkpt>
      <trkpt lat="44.92005" lon="5.46294">
        <ele>1370.5</ele>
        <time>2011-09-08T12:08:12Z</time>
      </trkpt>
      <trkpt lat="44.92001" lon="5.46294">
        <ele>1371.46</ele>
        <time>2011-09-08T12:08:11Z</time>
      </trkpt>
      <trkpt lat="44.91997" lon="5.46296">
        <ele>1370.5</ele>
        <time>2011-09-08T12:08:10Z</time>
      </trkpt>
      <trkpt lat="44.91988" lon="5.46302">
        <ele>1370.98</ele>
        <time>2011-09-08T12:08:08Z</time>
      </trkpt>
      <trkpt lat="44.91961" lon="5.46319">
        <ele>1374.34</ele>
        <time>2011-09-08T12:08:02Z</time>
      </trkpt>
      <trkpt lat="44.91956" lon="5.46322">
        <ele>1371.94</ele>
        <time>2011-09-08T12:08:01Z</time>
      </trkpt>
      <trkpt lat="44.91952" lon="5.46325">
        <ele>1370.02</ele>
        <time>2011-09-08T12:08:00Z</time>
      </trkpt>
      <trkpt lat="44.91948" lon="5.46328">
        <ele>1372.42</ele>
        <time>2011-09-08T12:07:59Z</time>
      </trkpt>
      <trkpt lat="44.91943" lon="5.46329">
        <ele>1370.02</ele>
        <time>2011-09-08T12:07:58Z</time>
      </trkpt>
      <trkpt lat="44.91902" lon="5.46347">
        <ele>1373.38</ele>
        <time>2011-09-08T12:07:46Z</time>
      </trkpt>
      <trkpt lat="44.91863" lon="5.46376">
        <ele>1370.5</ele>
        <time>2011-09-08T12:07:38Z</time>
      </trkpt>
      <trkpt lat="44.91824" lon="5.46402">
        <ele>1371.94</ele>
        <time>2011-09-08T12:07:29Z</time>
      </trkpt>
      <trkpt lat="44.91792" lon="5.46473">
        <ele>1373.86</ele>
        <time>2011-09-08T12:07:17Z</time>
      </trkpt>
      <trkpt lat="44.91766" lon="5.46495">
        <ele>1376.26</ele>
        <time>2011-09-08T12:07:06Z</time>
      </trkpt>
      <trkpt lat="44.91765" lon="5.46496">
        <ele>1376.26</ele>
        <time>2011-09-08T12:07:05Z</time>
      </trkpt>
      <trkpt lat="44.91762" lon="5.46498">
        <ele>1372.42</ele>
        <time>2011-09-08T12:07:03Z</time>
      </trkpt>
      <trkpt lat="44.91757" lon="5.46501">
        <ele>1374.82</ele>
        <time>2011-09-08T12:06:59Z</time>
      </trkpt>
      <trkpt lat="44.91755" lon="5.46501">
        <ele>1371.94</ele>
        <time>2011-09-08T12:06:58Z</time>
      </trkpt>
      <trkpt lat="44.91726" lon="5.46504">
        <ele>1372.42</ele>
        <time>2011-09-08T12:06:43Z</time>
      </trkpt>
      <trkpt lat="44.91721" lon="5.46497">
        <ele>1377.1289063</ele>
      </trkpt>
      <trkpt lat="44.91719" lon="5.46489">
        <ele>1376.46875</ele>
      </trkpt>
      <trkpt lat="44.9172" lon="5.46482">
        <ele>1375.8554688</ele>
      </trkpt>
      <trkpt lat="44.9172" lon="5.46482">
        <ele>1375.8203125</ele>
      </trkpt>
      <trkpt lat="44.9172" lon="5.46476">
        <ele>1375.265625</ele>
      </trkpt>
      <trkpt lat="44.91722" lon="5.46468">
        <ele>1374.4335938</ele>
      </trkpt>
      <trkpt lat="44.91723" lon="5.46462">
        <ele>1373.6523438</ele>
      </trkpt>
      <trkpt lat="44.91723" lon="5.46462">
        <ele>1373.65625</ele>
      </trkpt>
      <trkpt lat="44.91724" lon="5.46455">
        <ele>1372.875</ele>
      </trkpt>
      <trkpt lat="44.91724" lon="5.46455">
        <ele>1372.828125</ele>
      </trkpt>
      <trkpt lat="44.91725" lon="5.4645">
        <ele>1372.2070313</ele>
      </trkpt>
      <trkpt lat="44.91726" lon="5.46443">
        <ele>1371.3007813</ele>
      </trkpt>
      <trkpt lat="44.91728" lon="5.46436">
        <ele>1370.1367188</ele>
      </trkpt>
      <trkpt lat="44.91727" lon="5.46428">
        <ele>1368.8515625</ele>
      </trkpt>
      <trkpt lat="44.91728" lon="5.46428">
        <ele>1368.8554688</ele>
      </trkpt>
      <trkpt lat="44.91728" lon="5.46422">
        <ele>1367.8359375</ele>
      </trkpt>
      <trkpt lat="44.91728" lon="5.46415">
        <ele>1366.8046875</ele>
      </trkpt>
      <trkpt lat="44.91728" lon="5.46407">
        <ele>1365.953125</ele>
      </trkpt>
      <trkpt lat="44.91729" lon="5.46401">
        <ele>1365.2226563</ele>
      </trkpt>
      <trkpt lat="44.91729" lon="5.46393">
        <ele>1370.02</ele>
        <time>2011-09-08T12:05:37Z</time>
      </trkpt>
      <trkpt lat="44.91725" lon="5.46386">
        <ele>1369.05</ele>
        <time>2011-09-08T12:05:36Z</time>
      </trkpt>
      <trkpt lat="44.91721" lon="5.4638">
        <ele>1371.46</ele>
        <time>2011-09-08T12:05:35Z</time>
      </trkpt>
      <trkpt lat="44.91716" lon="5.46376">
        <ele>1375.78</ele>
        <time>2011-09-08T12:05:34Z</time>
      </trkpt>
      <trkpt lat="44.91711" lon="5.46374">
        <ele>1372.9</ele>
        <time>2011-09-08T12:05:33Z</time>
      </trkpt>
      <trkpt lat="44.91707" lon="5.46375">
        <ele>1370.5</ele>
        <time>2011-09-08T12:05:32Z</time>
      </trkpt>
      <trkpt lat="44.91692" lon="5.46386">
        <ele>1372.9</ele>
        <time>2011-09-08T12:05:28Z</time>
      </trkpt>
      <trkpt lat="44.91689" lon="5.46389">
        <ele>1376.26</ele>
        <time>2011-09-08T12:05:27Z</time>
      </trkpt>
      <trkpt lat="44.9168" lon="5.464">
        <ele>1372.9</ele>
        <time>2011-09-08T12:05:24Z</time>
      </trkpt>
      <trkpt lat="44.91677" lon="5.46404">
        <ele>1376.26</ele>
        <time>2011-09-08T12:05:23Z</time>
      </trkpt>
      <trkpt lat="44.91649" lon="5.46447">
        <ele>1370.98</ele>
        <time>2011-09-08T12:05:13Z</time>
      </trkpt>
      <trkpt lat="44.91646" lon="5.4645">
        <ele>1374.82</ele>
        <time>2011-09-08T12:05:12Z</time>
      </trkpt>
      <trkpt lat="44.91639" lon="5.46457">
        <ele>1370.5</ele>
        <time>2011-09-08T12:05:10Z</time>
      </trkpt>
      <trkpt lat="44.91636" lon="5.46461">
        <ele>1370.02</ele>
        <time>2011-09-08T12:05:09Z</time>
      </trkpt>
      <trkpt lat="44.91633" lon="5.46465">
        <ele>1369.54</ele>
        <time>2011-09-08T12:05:08Z</time>
      </trkpt>
      <trkpt lat="44.91629" lon="5.46469">
        <ele>1370.5</ele>
        <time>2011-09-08T12:05:07Z</time>
      </trkpt>
      <trkpt lat="44.91625" lon="5.46473">
        <ele>1367.61</ele>
        <time>2011-09-08T12:05:06Z</time>
      </trkpt>
      <trkpt lat="44.9162" lon="5.46477">
        <ele>1373.38</ele>
        <time>2011-09-08T12:05:05Z</time>
      </trkpt>
      <trkpt lat="44.91615" lon="5.4648">
        <ele>1368.57</ele>
        <time>2011-09-08T12:05:04Z</time>
      </trkpt>
      <trkpt lat="44.91611" lon="5.46482">
        <ele>1373.86</ele>
        <time>2011-09-08T12:05:03Z</time>
      </trkpt>
      <trkpt lat="44.91606" lon="5.46485">
        <ele>1369.54</ele>
        <time>2011-09-08T12:05:02Z</time>
      </trkpt>
      <trkpt lat="44.91601" lon="5.46487">
        <ele>1373.38</ele>
        <time>2011-09-08T12:05:01Z</time>
      </trkpt>
      <trkpt lat="44.91596" lon="5.46488">
        <ele>1369.54</ele>
        <time>2011-09-08T12:05:00Z</time>
      </trkpt>
      <trkpt lat="44.91591" lon="5.4649">
        <ele>1373.38</ele>
        <time>2011-09-08T12:04:59Z</time>
      </trkpt>
      <trkpt lat="44.91576" lon="5.46496">
        <ele>1369.05</ele>
        <time>2011-09-08T12:04:56Z</time>
      </trkpt>
      <trkpt lat="44.91565" lon="5.46499">
        <ele>1369.54</ele>
        <time>2011-09-08T12:04:54Z</time>
      </trkpt>
      <trkpt lat="44.91559" lon="5.465">
        <ele>1371.94</ele>
        <time>2011-09-08T12:04:53Z</time>
      </trkpt>
      <trkpt lat="44.91554" lon="5.465">
        <ele>1367.61</ele>
        <time>2011-09-08T12:04:52Z</time>
      </trkpt>
      <trkpt lat="44.91548" lon="5.46499">
        <ele>1374.34</ele>
        <time>2011-09-08T12:04:51Z</time>
      </trkpt>
      <trkpt lat="44.91542" lon="5.46497">
        <ele>1371.94</ele>
        <time>2011-09-08T12:04:50Z</time>
      </trkpt>
      <trkpt lat="44.91537" lon="5.46495">
        <ele>1370.98</ele>
        <time>2011-09-08T12:04:49Z</time>
      </trkpt>
      <trkpt lat="44.91531" lon="5.46491">
        <ele>1373.86</ele>
        <time>2011-09-08T12:04:48Z</time>
      </trkpt>
      <trkpt lat="44.91527" lon="5.46486">
        <ele>1368.09</ele>
        <time>2011-09-08T12:04:47Z</time>
      </trkpt>
      <trkpt lat="44.91522" lon="5.4648">
        <ele>1370.5</ele>
        <time>2011-09-08T12:04:46Z</time>
      </trkpt>
      <trkpt lat="44.91518" lon="5.46475">
        <ele>1369.54</ele>
        <time>2011-09-08T12:04:45Z</time>
      </trkpt>
      <trkpt lat="44.91513" lon="5.46471">
        <ele>1370.02</ele>
        <time>2011-09-08T12:04:44Z</time>
      </trkpt>
      <trkpt lat="44.91508" lon="5.46469">
        <ele>1373.38</ele>
        <time>2011-09-08T12:04:43Z</time>
      </trkpt>
      <trkpt lat="44.91498" lon="5.46474">
        <ele>1374.34</ele>
        <time>2011-09-08T12:04:41Z</time>
      </trkpt>
      <trkpt lat="44.91494" lon="5.46478">
        <ele>1369.54</ele>
        <time>2011-09-08T12:04:40Z</time>
      </trkpt>
      <trkpt lat="44.9149" lon="5.46482">
        <ele>1373.86</ele>
        <time>2011-09-08T12:04:39Z</time>
      </trkpt>
      <trkpt lat="44.91486" lon="5.46487">
        <ele>1370.98</ele>
        <time>2011-09-08T12:04:38Z</time>
      </trkpt>
      <trkpt lat="44.91482" lon="5.46493">
        <ele>1374.34</ele>
        <time>2011-09-08T12:04:37Z</time>
      </trkpt>
      <trkpt lat="44.91479" lon="5.46499">
        <ele>1372.42</ele>
        <time>2011-09-08T12:04:36Z</time>
      </trkpt>
      <trkpt lat="44.91475" lon="5.46506">
        <ele>1374.34</ele>
        <time>2011-09-08T12:04:35Z</time>
      </trkpt>
      <trkpt lat="44.91464" lon="5.46537">
        <ele>1371.46</ele>
        <time>2011-09-08T12:04:31Z</time>
      </trkpt>
      <trkpt lat="44.91462" lon="5.46545">
        <ele>1371.46</ele>
        <time>2011-09-08T12:04:30Z</time>
      </trkpt>
      <trkpt lat="44.91454" lon="5.46561">
        <ele>1372.9</ele>
        <time>2011-09-08T12:04:28Z</time>
      </trkpt>
      <trkpt lat="44.9145" lon="5.46568">
        <ele>1372.9</ele>
        <time>2011-09-08T12:04:27Z</time>
      </trkpt>
      <trkpt lat="44.91446" lon="5.46575">
        <ele>1370.98</ele>
        <time>2011-09-08T12:04:26Z</time>
      </trkpt>
      <trkpt lat="44.91431" lon="5.46591">
        <ele>1369.05</ele>
        <time>2011-09-08T12:04:23Z</time>
      </trkpt>
      <trkpt lat="44.91426" lon="5.46596">
        <ele>1373.38</ele>
        <time>2011-09-08T12:04:22Z</time>
      </trkpt>
      <trkpt lat="44.9142" lon="5.466">
        <ele>1371.46</ele>
        <time>2011-09-08T12:04:21Z</time>
      </trkpt>
      <trkpt lat="44.91414" lon="5.46602">
        <ele>1370.02</ele>
        <time>2011-09-08T12:04:20Z</time>
      </trkpt>
      <trkpt lat="44.91408" lon="5.46604">
        <ele>1373.86</ele>
        <time>2011-09-08T12:04:19Z</time>
      </trkpt>
      <trkpt lat="44.91402" lon="5.46603">
        <ele>1372.9</ele>
        <time>2011-09-08T12:04:18Z</time>
      </trkpt>
      <trkpt lat="44.91374" lon="5.46593">
        <ele>1376.26</ele>
        <time>2011-09-08T12:04:13Z</time>
      </trkpt>
      <trkpt lat="44.91368" lon="5.4659">
        <ele>1374.34</ele>
        <time>2011-09-08T12:04:12Z</time>
      </trkpt>
      <trkpt lat="44.91363" lon="5.46586">
        <ele>1374.34</ele>
        <time>2011-09-08T12:04:11Z</time>
      </trkpt>
      <trkpt lat="44.91357" lon="5.46583">
        <ele>1370.5</ele>
        <time>2011-09-08T12:04:10Z</time>
      </trkpt>
      <trkpt lat="44.91351" lon="5.46581">
        <ele>1375.3</ele>
        <time>2011-09-08T12:04:09Z</time>
      </trkpt>
      <trkpt lat="44.91345" lon="5.46581">
        <ele>1373.86</ele>
        <time>2011-09-08T12:04:08Z</time>
      </trkpt>
      <trkpt lat="44.91333" lon="5.46586">
        <ele>1376.75</ele>
        <time>2011-09-08T12:04:06Z</time>
      </trkpt>
      <trkpt lat="44.91327" lon="5.46589">
        <ele>1374.34</ele>
        <time>2011-09-08T12:04:05Z</time>
      </trkpt>
      <trkpt lat="44.9132" lon="5.46591">
        <ele>1378.19</ele>
        <time>2011-09-08T12:04:04Z</time>
      </trkpt>
      <trkpt lat="44.91314" lon="5.46592">
        <ele>1376.75</ele>
        <time>2011-09-08T12:04:03Z</time>
      </trkpt>
      <trkpt lat="44.91308" lon="5.46592">
        <ele>1378.67</ele>
        <time>2011-09-08T12:04:02Z</time>
      </trkpt>
      <trkpt lat="44.91303" lon="5.4659">
        <ele>1376.75</ele>
        <time>2011-09-08T12:04:01Z</time>
      </trkpt>
      <trkpt lat="44.91296" lon="5.46588">
        <ele>1377.23</ele>
        <time>2011-09-08T12:04:00Z</time>
      </trkpt>
      <trkpt lat="44.9129" lon="5.46584">
        <ele>1376.26</ele>
        <time>2011-09-08T12:03:59Z</time>
      </trkpt>
      <trkpt lat="44.91283" lon="5.46581">
        <ele>1374.82</ele>
        <time>2011-09-08T12:03:58Z</time>
      </trkpt>
      <trkpt lat="44.91267" lon="5.46567">
        <ele>1375.3</ele>
        <time>2011-09-08T12:03:55Z</time>
      </trkpt>
      <trkpt lat="44.91261" lon="5.46561">
        <ele>1375.3</ele>
        <time>2011-09-08T12:03:54Z</time>
      </trkpt>
      <trkpt lat="44.91254" lon="5.46556">
        <ele>1379.63</ele>
        <time>2011-09-08T12:03:53Z</time>
      </trkpt>
      <trkpt lat="44.91249" lon="5.46554">
        <ele>1377.71</ele>
        <time>2011-09-08T12:03:52Z</time>
      </trkpt>
      <trkpt lat="44.91244" lon="5.46553">
        <ele>1376.26</ele>
        <time>2011-09-08T12:03:51Z</time>
      </trkpt>
      <trkpt lat="44.91238" lon="5.46554">
        <ele>1376.75</ele>
        <time>2011-09-08T12:03:50Z</time>
      </trkpt>
      <trkpt lat="44.91233" lon="5.46555">
        <ele>1376.26</ele>
        <time>2011-09-08T12:03:49Z</time>
      </trkpt>
      <trkpt lat="44.91229" lon="5.46558">
        <ele>1376.75</ele>
        <time>2011-09-08T12:03:48Z</time>
      </trkpt>
      <trkpt lat="44.91224" lon="5.46562">
        <ele>1375.3</ele>
        <time>2011-09-08T12:03:47Z</time>
      </trkpt>
      <trkpt lat="44.9122" lon="5.46567">
        <ele>1377.71</ele>
        <time>2011-09-08T12:03:46Z</time>
      </trkpt>
      <trkpt lat="44.91216" lon="5.46575">
        <ele>1375.78</ele>
        <time>2011-09-08T12:03:45Z</time>
      </trkpt>
      <trkpt lat="44.91211" lon="5.46592">
        <ele>1379.15</ele>
        <time>2011-09-08T12:03:43Z</time>
      </trkpt>
      <trkpt lat="44.91209" lon="5.46601">
        <ele>1377.23</ele>
        <time>2011-09-08T12:03:42Z</time>
      </trkpt>
      <trkpt lat="44.91206" lon="5.46609">
        <ele>1381.07</ele>
        <time>2011-09-08T12:03:41Z</time>
      </trkpt>
      <trkpt lat="44.91203" lon="5.46616">
        <ele>1379.15</ele>
        <time>2011-09-08T12:03:40Z</time>
      </trkpt>
      <trkpt lat="44.91199" lon="5.46622">
        <ele>1379.15</ele>
        <time>2011-09-08T12:03:39Z</time>
      </trkpt>
      <trkpt lat="44.91183" lon="5.46636">
        <ele>1379.15</ele>
        <time>2011-09-08T12:03:36Z</time>
      </trkpt>
      <trkpt lat="44.91171" lon="5.46645">
        <ele>1380.59</ele>
        <time>2011-09-08T12:03:34Z</time>
      </trkpt>
      <trkpt lat="44.91165" lon="5.46648">
        <ele>1382.51</ele>
        <time>2011-09-08T12:03:33Z</time>
      </trkpt>
      <trkpt lat="44.91158" lon="5.4665">
        <ele>1381.55</ele>
        <time>2011-09-08T12:03:32Z</time>
      </trkpt>
      <trkpt lat="44.91145" lon="5.46649">
        <ele>1380.59</ele>
        <time>2011-09-08T12:03:30Z</time>
      </trkpt>
      <trkpt lat="44.91133" lon="5.46648">
        <ele>1382.03</ele>
        <time>2011-09-08T12:03:28Z</time>
      </trkpt>
      <trkpt lat="44.91128" lon="5.46648">
        <ele>1385.4</ele>
        <time>2011-09-08T12:03:27Z</time>
      </trkpt>
      <trkpt lat="44.91122" lon="5.46647">
        <ele>1381.55</ele>
        <time>2011-09-08T12:03:26Z</time>
      </trkpt>
      <trkpt lat="44.91117" lon="5.46644">
        <ele>1384.44</ele>
        <time>2011-09-08T12:03:25Z</time>
      </trkpt>
      <trkpt lat="44.91112" lon="5.46639">
        <ele>1382.51</ele>
        <time>2011-09-08T12:03:24Z</time>
      </trkpt>
      <trkpt lat="44.91107" lon="5.46634">
        <ele>1381.07</ele>
        <time>2011-09-08T12:03:23Z</time>
      </trkpt>
      <trkpt lat="44.91102" lon="5.46628">
        <ele>1382.99</ele>
        <time>2011-09-08T12:03:22Z</time>
      </trkpt>
      <trkpt lat="44.91097" lon="5.46624">
        <ele>1380.59</ele>
        <time>2011-09-08T12:03:21Z</time>
      </trkpt>
      <trkpt lat="44.91092" lon="5.4662">
        <ele>1382.03</ele>
        <time>2011-09-08T12:03:20Z</time>
      </trkpt>
      <trkpt lat="44.91087" lon="5.46617">
        <ele>1382.03</ele>
        <time>2011-09-08T12:03:19Z</time>
      </trkpt>
      <trkpt lat="44.91082" lon="5.46614">
        <ele>1383.47</ele>
        <time>2011-09-08T12:03:18Z</time>
      </trkpt>
      <trkpt lat="44.91077" lon="5.46611">
        <ele>1382.99</ele>
        <time>2011-09-08T12:03:17Z</time>
      </trkpt>
      <trkpt lat="44.91073" lon="5.46607">
        <ele>1383.47</ele>
        <time>2011-09-08T12:03:16Z</time>
      </trkpt>
      <trkpt lat="44.91069" lon="5.46601">
        <ele>1380.59</ele>
        <time>2011-09-08T12:03:15Z</time>
      </trkpt>
      <trkpt lat="44.91066" lon="5.46594">
        <ele>1385.88</ele>
        <time>2011-09-08T12:03:14Z</time>
      </trkpt>
      <trkpt lat="44.91063" lon="5.46586">
        <ele>1387.32</ele>
        <time>2011-09-08T12:03:13Z</time>
      </trkpt>
      <trkpt lat="44.91061" lon="5.46578">
        <ele>1385.88</ele>
        <time>2011-09-08T12:03:12Z</time>
      </trkpt>
      <trkpt lat="44.91058" lon="5.46569">
        <ele>1384.44</ele>
        <time>2011-09-08T12:03:11Z</time>
      </trkpt>
      <trkpt lat="44.91052" lon="5.46563">
        <ele>1384.44</ele>
        <time>2011-09-08T12:03:10Z</time>
      </trkpt>
      <trkpt lat="44.91045" lon="5.4656">
        <ele>1384.92</ele>
        <time>2011-09-08T12:03:09Z</time>
      </trkpt>
      <trkpt lat="44.91025" lon="5.46566">
        <ele>1389.24</ele>
        <time>2011-09-08T12:03:06Z</time>
      </trkpt>
      <trkpt lat="44.91018" lon="5.46568">
        <ele>1387.32</ele>
        <time>2011-09-08T12:03:05Z</time>
      </trkpt>
      <trkpt lat="44.91012" lon="5.46569">
        <ele>1388.76</ele>
        <time>2011-09-08T12:03:04Z</time>
      </trkpt>
      <trkpt lat="44.91006" lon="5.4657">
        <ele>1389.24</ele>
        <time>2011-09-08T12:03:03Z</time>
      </trkpt>
      <trkpt lat="44.90999" lon="5.46573">
        <ele>1387.32</ele>
        <time>2011-09-08T12:03:02Z</time>
      </trkpt>
      <trkpt lat="44.90993" lon="5.46578">
        <ele>1386.36</ele>
        <time>2011-09-08T12:03:01Z</time>
      </trkpt>
      <trkpt lat="44.90987" lon="5.46584">
        <ele>1390.68</ele>
        <time>2011-09-08T12:03:00Z</time>
      </trkpt>
      <trkpt lat="44.90981" lon="5.46591">
        <ele>1388.76</ele>
        <time>2011-09-08T12:02:59Z</time>
      </trkpt>
      <trkpt lat="44.90974" lon="5.46597">
        <ele>1386.84</ele>
        <time>2011-09-08T12:02:58Z</time>
      </trkpt>
      <trkpt lat="44.90967" lon="5.46599">
        <ele>1389.24</ele>
        <time>2011-09-08T12:02:57Z</time>
      </trkpt>
      <trkpt lat="44.90915" lon="5.46595">
        <ele>1389.24</ele>
        <time>2011-09-08T12:02:51Z</time>
      </trkpt>
      <trkpt lat="44.90907" lon="5.46596">
        <ele>1393.57</ele>
        <time>2011-09-08T12:02:50Z</time>
      </trkpt>
      <trkpt lat="44.90899" lon="5.46598">
        <ele>1392.13</ele>
        <time>2011-09-08T12:02:49Z</time>
      </trkpt>
      <trkpt lat="44.90883" lon="5.46609">
        <ele>1394.53</ele>
        <time>2011-09-08T12:02:47Z</time>
      </trkpt>
      <trkpt lat="44.90874" lon="5.46615">
        <ele>1394.05</ele>
        <time>2011-09-08T12:02:46Z</time>
      </trkpt>
      <trkpt lat="44.90865" lon="5.46617">
        <ele>1394.53</ele>
        <time>2011-09-08T12:02:45Z</time>
      </trkpt>
      <trkpt lat="44.90856" lon="5.46619">
        <ele>1398.37</ele>
        <time>2011-09-08T12:02:44Z</time>
      </trkpt>
      <trkpt lat="44.90848" lon="5.46622">
        <ele>1395.97</ele>
        <time>2011-09-08T12:02:43Z</time>
      </trkpt>
      <trkpt lat="44.90841" lon="5.46628">
        <ele>1394.53</ele>
        <time>2011-09-08T12:02:42Z</time>
      </trkpt>
      <trkpt lat="44.90832" lon="5.4663">
        <ele>1418.332</ele>
        <time>2011-06-03T11:04:50Z</time>
      </trkpt>
      <trkpt lat="44.90809" lon="5.46646">
        <ele>1420.065</ele>
        <time>2011-06-03T11:04:46Z</time>
      </trkpt>
      <trkpt lat="44.90798" lon="5.46649">
        <ele>1420.998</ele>
        <time>2011-06-03T11:04:44Z</time>
      </trkpt>
      <trkpt lat="44.90778" lon="5.46657">
        <ele>1422.39</ele>
        <time>2011-06-03T11:04:40Z</time>
      </trkpt>
      <trkpt lat="44.90753" lon="5.46655">
        <ele>1423.666</ele>
        <time>2011-06-03T11:04:36Z</time>
      </trkpt>
      <trkpt lat="44.90736" lon="5.4665">
        <ele>1424.654</ele>
        <time>2011-06-03T11:04:33Z</time>
      </trkpt>
      <trkpt lat="44.9071" lon="5.46627">
        <ele>1426.927</ele>
        <time>2011-06-03T11:04:28Z</time>
      </trkpt>
      <trkpt lat="44.90696" lon="5.46607">
        <ele>1428.01</ele>
        <time>2011-06-03T11:04:25Z</time>
      </trkpt>
      <trkpt lat="44.9069" lon="5.46602">
        <ele>1428.492</ele>
        <time>2011-06-03T11:04:24Z</time>
      </trkpt>
      <trkpt lat="44.90665" lon="5.46605">
        <ele>1430.218</ele>
        <time>2011-06-03T11:04:20Z</time>
      </trkpt>
      <trkpt lat="44.90647" lon="5.4662">
        <ele>1431.633</ele>
        <time>2011-06-03T11:04:17Z</time>
      </trkpt>
      <trkpt lat="44.90639" lon="5.46621">
        <ele>1432.122</ele>
        <time>2011-06-03T11:04:16Z</time>
      </trkpt>
      <trkpt lat="44.90619" lon="5.46615">
        <ele>1407.03</ele>
        <time>2011-09-08T12:02:15Z</time>
      </trkpt>
      <trkpt lat="44.90613" lon="5.46607">
        <ele>1411.83</ele>
        <time>2011-09-08T12:02:14Z</time>
      </trkpt>
      <trkpt lat="44.90607" lon="5.46599">
        <ele>1412.79</ele>
        <time>2011-09-08T12:02:13Z</time>
      </trkpt>
      <trkpt lat="44.90601" lon="5.46589">
        <ele>1409.43</ele>
        <time>2011-09-08T12:02:12Z</time>
      </trkpt>
      <trkpt lat="44.90595" lon="5.46579">
        <ele>1411.83</ele>
        <time>2011-09-08T12:02:11Z</time>
      </trkpt>
      <trkpt lat="44.90587" lon="5.4657">
        <ele>1414.24</ele>
        <time>2011-09-08T12:02:10Z</time>
      </trkpt>
      <trkpt lat="44.90578" lon="5.46565">
        <ele>1411.83</ele>
        <time>2011-09-08T12:02:09Z</time>
      </trkpt>
      <trkpt lat="44.90567" lon="5.46562">
        <ele>1415.2</ele>
        <time>2011-09-08T12:02:08Z</time>
      </trkpt>
      <trkpt lat="44.90558" lon="5.46561">
        <ele>1413.76</ele>
        <time>2011-09-08T12:02:07Z</time>
      </trkpt>
      <trkpt lat="44.90547" lon="5.46562">
        <ele>1416.16</ele>
        <time>2011-09-08T12:02:06Z</time>
      </trkpt>
      <trkpt lat="44.90537" lon="5.46564">
        <ele>1415.68</ele>
        <time>2011-09-08T12:02:05Z</time>
      </trkpt>
      <trkpt lat="44.90526" lon="5.46567">
        <ele>1418.08</ele>
        <time>2011-09-08T12:02:04Z</time>
      </trkpt>
      <trkpt lat="44.90515" lon="5.46568">
        <ele>1415.68</ele>
        <time>2011-09-08T12:02:03Z</time>
      </trkpt>
      <trkpt lat="44.90505" lon="5.46566">
        <ele>1417.6</ele>
        <time>2011-09-08T12:02:02Z</time>
      </trkpt>
      <trkpt lat="44.90469" lon="5.46555">
        <ele>1420.49</ele>
        <time>2011-09-08T12:01:59Z</time>
      </trkpt>
      <trkpt lat="44.90457" lon="5.46552">
        <ele>1420</ele>
        <time>2011-09-08T12:01:58Z</time>
      </trkpt>
      <trkpt lat="44.90439" lon="5.46562">
        <ele>1420.97</ele>
        <time>2011-09-08T12:01:56Z</time>
      </trkpt>
      <trkpt lat="44.90431" lon="5.46568">
        <ele>1420.49</ele>
        <time>2011-09-08T12:01:55Z</time>
      </trkpt>
      <trkpt lat="44.90423" lon="5.46572">
        <ele>1423.37</ele>
        <time>2011-09-08T12:01:54Z</time>
      </trkpt>
      <trkpt lat="44.90416" lon="5.46572">
        <ele>1422.89</ele>
        <time>2011-09-08T12:01:53Z</time>
      </trkpt>
      <trkpt lat="44.90408" lon="5.46571">
        <ele>1425.29</ele>
        <time>2011-09-08T12:01:52Z</time>
      </trkpt>
      <trkpt lat="44.90399" lon="5.46568">
        <ele>1425.29</ele>
        <time>2011-09-08T12:01:51Z</time>
      </trkpt>
      <trkpt lat="44.90391" lon="5.46564">
        <ele>1425.29</ele>
        <time>2011-09-08T12:01:50Z</time>
      </trkpt>
      <trkpt lat="44.90365" lon="5.46547">
        <ele>1427.7</ele>
        <time>2011-09-08T12:01:47Z</time>
      </trkpt>
      <trkpt lat="44.90355" lon="5.46545">
        <ele>1427.21</ele>
        <time>2011-09-08T12:01:46Z</time>
      </trkpt>
      <trkpt lat="44.90331" lon="5.46548">
        <ele>1430.1</ele>
        <time>2011-09-08T12:01:44Z</time>
      </trkpt>
      <trkpt lat="44.90301" lon="5.46555">
        <ele>1432.02</ele>
        <time>2011-09-08T12:01:41Z</time>
      </trkpt>
      <trkpt lat="44.90291" lon="5.46555">
        <ele>1432.5</ele>
        <time>2011-09-08T12:01:40Z</time>
      </trkpt>
      <trkpt lat="44.90271" lon="5.4655">
        <ele>1435.39</ele>
        <time>2011-09-08T12:01:38Z</time>
      </trkpt>
      <trkpt lat="44.90261" lon="5.46546">
        <ele>1436.35</ele>
        <time>2011-09-08T12:01:37Z</time>
      </trkpt>
      <trkpt lat="44.90252" lon="5.46542">
        <ele>1436.83</ele>
        <time>2011-09-08T12:01:36Z</time>
      </trkpt>
      <trkpt lat="44.90233" lon="5.46538">
        <ele>1438.75</ele>
        <time>2011-09-08T12:01:34Z</time>
      </trkpt>
      <trkpt lat="44.90223" lon="5.46538">
        <ele>1439.23</ele>
        <time>2011-09-08T12:01:33Z</time>
      </trkpt>
      <trkpt lat="44.90214" lon="5.46539">
        <ele>1440.67</ele>
        <time>2011-09-08T12:01:32Z</time>
      </trkpt>
      <trkpt lat="44.90205" lon="5.46541">
        <ele>1440.67</ele>
        <time>2011-09-08T12:01:31Z</time>
      </trkpt>
      <trkpt lat="44.90196" lon="5.46543">
        <ele>1440.19</ele>
        <time>2011-09-08T12:01:30Z</time>
      </trkpt>
      <trkpt lat="44.90186" lon="5.46543">
        <ele>1442.11</ele>
        <time>2011-09-08T12:01:29Z</time>
      </trkpt>
      <trkpt lat="44.90178" lon="5.46547">
        <ele>1443.08</ele>
        <time>2011-09-08T12:01:28Z</time>
      </trkpt>
      <trkpt lat="44.9017" lon="5.46554">
        <ele>1445</ele>
        <time>2011-09-08T12:01:27Z</time>
      </trkpt>
      <trkpt lat="44.90162" lon="5.46561">
        <ele>1445.96</ele>
        <time>2011-09-08T12:01:26Z</time>
      </trkpt>
      <trkpt lat="44.90153" lon="5.46566">
        <ele>1445.48</ele>
        <time>2011-09-08T12:01:25Z</time>
      </trkpt>
      <trkpt lat="44.90144" lon="5.46567">
        <ele>1446.92</ele>
        <time>2011-09-08T12:01:24Z</time>
      </trkpt>
      <trkpt lat="44.90135" lon="5.46566">
        <ele>1446.44</ele>
        <time>2011-09-08T12:01:23Z</time>
      </trkpt>
      <trkpt lat="44.90126" lon="5.46564">
        <ele>1447.88</ele>
        <time>2011-09-08T12:01:22Z</time>
      </trkpt>
      <trkpt lat="44.90109" lon="5.46561">
        <ele>1448.84</ele>
        <time>2011-09-08T12:01:20Z</time>
      </trkpt>
      <trkpt lat="44.90101" lon="5.4656">
        <ele>1449.32</ele>
        <time>2011-09-08T12:01:19Z</time>
      </trkpt>
      <trkpt lat="44.90093" lon="5.4656">
        <ele>1449.81</ele>
        <time>2011-09-08T12:01:18Z</time>
      </trkpt>
      <trkpt lat="44.90087" lon="5.46563">
        <ele>1451.73</ele>
        <time>2011-09-08T12:01:17Z</time>
      </trkpt>
      <trkpt lat="44.90083" lon="5.4657">
        <ele>1452.21</ele>
        <time>2011-09-08T12:01:16Z</time>
      </trkpt>
      <trkpt lat="44.9008" lon="5.46581">
        <ele>1453.17</ele>
        <time>2011-09-08T12:01:15Z</time>
      </trkpt>
      <trkpt lat="44.90077" lon="5.46595">
        <ele>1455.09</ele>
        <time>2011-09-08T12:01:14Z</time>
      </trkpt>
      <trkpt lat="44.90073" lon="5.46608">
        <ele>1455.09</ele>
        <time>2011-09-08T12:01:13Z</time>
      </trkpt>
      <trkpt lat="44.90067" lon="5.4662">
        <ele>1457.5</ele>
        <time>2011-09-08T12:01:12Z</time>
      </trkpt>
      <trkpt lat="44.90061" lon="5.46632">
        <ele>1459.42</ele>
        <time>2011-09-08T12:01:11Z</time>
      </trkpt>
      <trkpt lat="44.90057" lon="5.46645">
        <ele>1459.42</ele>
        <time>2011-09-08T12:01:10Z</time>
      </trkpt>
      <trkpt lat="44.90051" lon="5.4667">
        <ele>1460.38</ele>
        <time>2011-09-08T12:01:08Z</time>
      </trkpt>
      <trkpt lat="44.90036" lon="5.46731">
        <ele>1464.23</ele>
        <time>2011-09-08T12:01:02Z</time>
      </trkpt>
      <trkpt lat="44.90007" lon="5.46841">
        <ele>1467.11</ele>
        <time>2011-09-08T12:00:49Z</time>
      </trkpt>
      <trkpt lat="44.90004" lon="5.46849">
        <ele>1468.55</ele>
        <time>2011-09-08T12:00:48Z</time>
      </trkpt>
      <trkpt lat="44.90002" lon="5.46858">
        <ele>1468.07</ele>
        <time>2011-09-08T12:00:47Z</time>
      </trkpt>
      <trkpt lat="44.9" lon="5.46867">
        <ele>1468.07</ele>
        <time>2011-09-08T12:00:46Z</time>
      </trkpt>
      <trkpt lat="44.89997" lon="5.46876">
        <ele>1467.59</ele>
        <time>2011-09-08T12:00:45Z</time>
      </trkpt>
      <trkpt lat="44.89994" lon="5.46885">
        <ele>1468.07</ele>
        <time>2011-09-08T12:00:44Z</time>
      </trkpt>
      <trkpt lat="44.89991" lon="5.46894">
        <ele>1469.03</ele>
        <time>2011-09-08T12:00:43Z</time>
      </trkpt>
      <trkpt lat="44.8999" lon="5.46904">
        <ele>1468.55</ele>
        <time>2011-09-08T12:00:42Z</time>
      </trkpt>
      <trkpt lat="44.8999" lon="5.46914">
        <ele>1469.03</ele>
        <time>2011-09-08T12:00:41Z</time>
      </trkpt>
      <trkpt lat="44.8999" lon="5.46925">
        <ele>1468.55</ele>
        <time>2011-09-08T12:00:40Z</time>
      </trkpt>
      <trkpt lat="44.89992" lon="5.46935">
        <ele>1469.03</ele>
        <time>2011-09-08T12:00:39Z</time>
      </trkpt>
      <trkpt lat="44.89996" lon="5.46944">
        <ele>1470.47</ele>
        <time>2011-09-08T12:00:38Z</time>
      </trkpt>
      <trkpt lat="44.90001" lon="5.46952">
        <ele>1469.51</ele>
        <time>2011-09-08T12:00:37Z</time>
      </trkpt>
      <trkpt lat="44.90008" lon="5.4696">
        <ele>1469.99</ele>
        <time>2011-09-08T12:00:36Z</time>
      </trkpt>
      <trkpt lat="44.90015" lon="5.46968">
        <ele>1469.99</ele>
        <time>2011-09-08T12:00:35Z</time>
      </trkpt>
      <trkpt lat="44.9002" lon="5.46976">
        <ele>1470.47</ele>
        <time>2011-09-08T12:00:34Z</time>
      </trkpt>
      <trkpt lat="44.90023" lon="5.46985">
        <ele>1470.95</ele>
        <time>2011-09-08T12:00:33Z</time>
      </trkpt>
      <trkpt lat="44.90024" lon="5.46995">
        <ele>1470.95</ele>
        <time>2011-09-08T12:00:32Z</time>
      </trkpt>
      <trkpt lat="44.90019" lon="5.47022">
        <ele>1470.95</ele>
        <time>2011-09-08T12:00:29Z</time>
      </trkpt>
      <trkpt lat="44.90017" lon="5.47031">
        <ele>1472.4</ele>
        <time>2011-09-08T12:00:28Z</time>
      </trkpt>
      <trkpt lat="44.90014" lon="5.47038">
        <ele>1471.92</ele>
        <time>2011-09-08T12:00:27Z</time>
      </trkpt>
      <trkpt lat="44.89999" lon="5.47058">
        <ele>1473.36</ele>
        <time>2011-09-08T12:00:24Z</time>
      </trkpt>
      <trkpt lat="44.89973" lon="5.47087">
        <ele>1474.32</ele>
        <time>2011-09-08T12:00:19Z</time>
      </trkpt>
      <trkpt lat="44.89957" lon="5.47102">
        <ele>1474.8</ele>
        <time>2011-09-08T12:00:16Z</time>
      </trkpt>
      <trkpt lat="44.89952" lon="5.47106">
        <ele>1475.28</ele>
        <time>2011-09-08T12:00:15Z</time>
      </trkpt>
      <trkpt lat="44.89945" lon="5.4712">
        <ele>1475.76</ele>
        <time>2011-09-08T12:00:13Z</time>
      </trkpt>
      <trkpt lat="44.89935" lon="5.47132">
        <ele>1477.2</ele>
        <time>2011-09-08T12:00:11Z</time>
      </trkpt>
      <trkpt lat="44.89903" lon="5.47166">
        <ele>1477.2</ele>
        <time>2011-09-08T12:00:04Z</time>
      </trkpt>
      <trkpt lat="44.89899" lon="5.47171">
        <ele>1476.72</ele>
        <time>2011-09-08T12:00:03Z</time>
      </trkpt>
      <trkpt lat="44.89896" lon="5.47177">
        <ele>1477.68</ele>
        <time>2011-09-08T12:00:02Z</time>
      </trkpt>
      <trkpt lat="44.89894" lon="5.47184">
        <ele>1477.68</ele>
        <time>2011-09-08T12:00:01Z</time>
      </trkpt>
      <trkpt lat="44.89889" lon="5.47212">
        <ele>1477.2</ele>
        <time>2011-09-08T11:59:57Z</time>
      </trkpt>
      <trkpt lat="44.89886" lon="5.47226">
        <ele>1479.13</ele>
        <time>2011-09-08T11:59:55Z</time>
      </trkpt>
      <trkpt lat="44.89878" lon="5.47247">
        <ele>1478.65</ele>
        <time>2011-09-08T11:59:52Z</time>
      </trkpt>
      <trkpt lat="44.89876" lon="5.47253">
        <ele>1479.13</ele>
        <time>2011-09-08T11:59:51Z</time>
      </trkpt>
      <trkpt lat="44.89874" lon="5.47261">
        <ele>1479.13</ele>
        <time>2011-09-08T11:59:50Z</time>
      </trkpt>
      <trkpt lat="44.89878" lon="5.47309">
        <ele>1479.13</ele>
        <time>2011-09-08T11:59:44Z</time>
      </trkpt>
      <trkpt lat="44.89879" lon="5.47318">
        <ele>1479.61</ele>
        <time>2011-09-08T11:59:43Z</time>
      </trkpt>
      <trkpt lat="44.89879" lon="5.47326">
        <ele>1480.57</ele>
        <time>2011-09-08T11:59:42Z</time>
      </trkpt>
      <trkpt lat="44.8988" lon="5.47335">
        <ele>1480.09</ele>
        <time>2011-09-08T11:59:41Z</time>
      </trkpt>
      <trkpt lat="44.89878" lon="5.47341">
        <ele>1480.09</ele>
        <time>2011-09-08T11:59:40Z</time>
      </trkpt>
      <trkpt lat="44.89876" lon="5.47348">
        <ele>1480.57</ele>
        <time>2011-09-08T11:59:39Z</time>
      </trkpt>
      <trkpt lat="44.89872" lon="5.47354">
        <ele>1479.61</ele>
        <time>2011-09-08T11:59:38Z</time>
      </trkpt>
      <trkpt lat="44.89867" lon="5.47357">
        <ele>1480.57</ele>
        <time>2011-09-08T11:59:37Z</time>
      </trkpt>
      <trkpt lat="44.89862" lon="5.47358">
        <ele>1481.53</ele>
        <time>2011-09-08T11:59:36Z</time>
      </trkpt>
      <trkpt lat="44.89858" lon="5.47355">
        <ele>1480.09</ele>
        <time>2011-09-08T11:59:35Z</time>
      </trkpt>
      <trkpt lat="44.89854" lon="5.4735">
        <ele>1480.09</ele>
        <time>2011-09-08T11:59:34Z</time>
      </trkpt>
      <trkpt lat="44.89851" lon="5.47344">
        <ele>1479.61</ele>
        <time>2011-09-08T11:59:33Z</time>
      </trkpt>
      <trkpt lat="44.89849" lon="5.47337">
        <ele>1480.09</ele>
        <time>2011-09-08T11:59:32Z</time>
      </trkpt>
      <trkpt lat="44.89846" lon="5.4733">
        <ele>1480.57</ele>
        <time>2011-09-08T11:59:31Z</time>
      </trkpt>
      <trkpt lat="44.89842" lon="5.47323">
        <ele>1480.57</ele>
        <time>2011-09-08T11:59:30Z</time>
      </trkpt>
      <trkpt lat="44.89838" lon="5.47318">
        <ele>1480.09</ele>
        <time>2011-09-08T11:59:29Z</time>
      </trkpt>
      <trkpt lat="44.89833" lon="5.47314">
        <ele>1480.57</ele>
        <time>2011-09-08T11:59:28Z</time>
      </trkpt>
      <trkpt lat="44.89827" lon="5.47312">
        <ele>1480.57</ele>
        <time>2011-09-08T11:59:27Z</time>
      </trkpt>
      <trkpt lat="44.89822" lon="5.4731">
        <ele>1480.09</ele>
        <time>2011-09-08T11:59:26Z</time>
      </trkpt>
      <trkpt lat="44.89816" lon="5.47308">
        <ele>1481.53</ele>
        <time>2011-09-08T11:59:25Z</time>
      </trkpt>
      <trkpt lat="44.89811" lon="5.47305">
        <ele>1481.05</ele>
        <time>2011-09-08T11:59:24Z</time>
      </trkpt>
      <trkpt lat="44.89806" lon="5.473">
        <ele>1481.53</ele>
        <time>2011-09-08T11:59:23Z</time>
      </trkpt>
      <trkpt lat="44.89798" lon="5.47287">
        <ele>1480.57</ele>
        <time>2011-09-08T11:59:21Z</time>
      </trkpt>
      <trkpt lat="44.89794" lon="5.4728">
        <ele>1480.57</ele>
        <time>2011-09-08T11:59:20Z</time>
      </trkpt>
      <trkpt lat="44.8979" lon="5.47273">
        <ele>1481.05</ele>
        <time>2011-09-08T11:59:19Z</time>
      </trkpt>
      <trkpt lat="44.89785" lon="5.47267">
        <ele>1481.53</ele>
        <time>2011-09-08T11:59:18Z</time>
      </trkpt>
      <trkpt lat="44.89779" lon="5.47263">
        <ele>1482.01</ele>
        <time>2011-09-08T11:59:17Z</time>
      </trkpt>
      <trkpt lat="44.89773" lon="5.47263">
        <ele>1480.57</ele>
        <time>2011-09-08T11:59:16Z</time>
      </trkpt>
      <trkpt lat="44.89767" lon="5.47265">
        <ele>1481.53</ele>
        <time>2011-09-08T11:59:15Z</time>
      </trkpt>
      <trkpt lat="44.89761" lon="5.47268">
        <ele>1482.01</ele>
        <time>2011-09-08T11:59:14Z</time>
      </trkpt>
      <trkpt lat="44.89756" lon="5.47274">
        <ele>1482.01</ele>
        <time>2011-09-08T11:59:13Z</time>
      </trkpt>
      <trkpt lat="44.89752" lon="5.47282">
        <ele>1482.01</ele>
        <time>2011-09-08T11:59:12Z</time>
      </trkpt>
      <trkpt lat="44.89749" lon="5.47291">
        <ele>1482.49</ele>
        <time>2011-09-08T11:59:11Z</time>
      </trkpt>
      <trkpt lat="44.89748" lon="5.47302">
        <ele>1483.45</ele>
        <time>2011-09-08T11:59:10Z</time>
      </trkpt>
      <trkpt lat="44.89752" lon="5.47343">
        <ele>1482.97</ele>
        <time>2011-09-08T11:59:06Z</time>
      </trkpt>
      <trkpt lat="44.89753" lon="5.47354">
        <ele>1483.45</ele>
        <time>2011-09-08T11:59:05Z</time>
      </trkpt>
      <trkpt lat="44.89749" lon="5.47385">
        <ele>1483.45</ele>
        <time>2011-09-08T11:59:02Z</time>
      </trkpt>
      <trkpt lat="44.89747" lon="5.47396">
        <ele>1484.41</ele>
        <time>2011-09-08T11:59:01Z</time>
      </trkpt>
      <trkpt lat="44.8974" lon="5.47415">
        <ele>1484.89</ele>
        <time>2011-09-08T11:58:59Z</time>
      </trkpt>
      <trkpt lat="44.89713" lon="5.47458">
        <ele>1487.3</ele>
        <time>2011-09-08T11:58:54Z</time>
      </trkpt>
      <trkpt lat="44.89708" lon="5.47466">
        <ele>1487.78</ele>
        <time>2011-09-08T11:58:53Z</time>
      </trkpt>
      <trkpt lat="44.89704" lon="5.47475">
        <ele>1488.74</ele>
        <time>2011-09-08T11:58:52Z</time>
      </trkpt>
      <trkpt lat="44.89691" lon="5.47511">
        <ele>1489.7</ele>
        <time>2011-09-08T11:58:48Z</time>
      </trkpt>
      <trkpt lat="44.89687" lon="5.47519">
        <ele>1489.7</ele>
        <time>2011-09-08T11:58:47Z</time>
      </trkpt>
      <trkpt lat="44.89684" lon="5.47527">
        <ele>1489.7</ele>
        <time>2011-09-08T11:58:46Z</time>
      </trkpt>
      <trkpt lat="44.89679" lon="5.47534">
        <ele>1490.66</ele>
        <time>2011-09-08T11:58:45Z</time>
      </trkpt>
      <trkpt lat="44.89674" lon="5.47539">
        <ele>1490.66</ele>
        <time>2011-09-08T11:58:44Z</time>
      </trkpt>
      <trkpt lat="44.89668" lon="5.47542">
        <ele>1491.14</ele>
        <time>2011-09-08T11:58:43Z</time>
      </trkpt>
      <trkpt lat="44.89663" lon="5.47543">
        <ele>1491.62</ele>
        <time>2011-09-08T11:58:42Z</time>
      </trkpt>
      <trkpt lat="44.89658" lon="5.47543">
        <ele>1492.1</ele>
        <time>2011-09-08T11:58:41Z</time>
      </trkpt>
      <trkpt lat="44.89654" lon="5.47542">
        <ele>1492.1</ele>
        <time>2011-09-08T11:58:40Z</time>
      </trkpt>
      <trkpt lat="44.8965" lon="5.4754">
        <ele>1492.58</ele>
        <time>2011-09-08T11:58:39Z</time>
      </trkpt>
      <trkpt lat="44.89646" lon="5.47537">
        <ele>1493.06</ele>
        <time>2011-09-08T11:58:38Z</time>
      </trkpt>
      <trkpt lat="44.89639" lon="5.47504">
        <ele>1494.51</ele>
        <time>2011-09-08T11:58:35Z</time>
      </trkpt>
      <trkpt lat="44.89636" lon="5.47492">
        <ele>1494.99</ele>
        <time>2011-09-08T11:58:34Z</time>
      </trkpt>
      <trkpt lat="44.89632" lon="5.4748">
        <ele>1495.95</ele>
        <time>2011-09-08T11:58:33Z</time>
      </trkpt>
      <trkpt lat="44.89603" lon="5.47447">
        <ele>1498.35</ele>
        <time>2011-09-08T11:58:29Z</time>
      </trkpt>
      <trkpt lat="44.89596" lon="5.47438">
        <ele>1498.35</ele>
        <time>2011-09-08T11:58:28Z</time>
      </trkpt>
      <trkpt lat="44.89589" lon="5.47429">
        <ele>1499.31</ele>
        <time>2011-09-08T11:58:27Z</time>
      </trkpt>
      <trkpt lat="44.89581" lon="5.47421">
        <ele>1500.27</ele>
        <time>2011-09-08T11:58:26Z</time>
      </trkpt>
      <trkpt lat="44.89571" lon="5.47415">
        <ele>1500.76</ele>
        <time>2011-09-08T11:58:25Z</time>
      </trkpt>
      <trkpt lat="44.89562" lon="5.47412">
        <ele>1501.72</ele>
        <time>2011-09-08T11:58:24Z</time>
      </trkpt>
      <trkpt lat="44.89552" lon="5.47412">
        <ele>1503.16</ele>
        <time>2011-09-08T11:58:23Z</time>
      </trkpt>
      <trkpt lat="44.89542" lon="5.47415">
        <ele>1503.16</ele>
        <time>2011-09-08T11:58:22Z</time>
      </trkpt>
      <trkpt lat="44.89533" lon="5.47418">
        <ele>1504.12</ele>
        <time>2011-09-08T11:58:21Z</time>
      </trkpt>
      <trkpt lat="44.89524" lon="5.47424">
        <ele>1504.6</ele>
        <time>2011-09-08T11:58:20Z</time>
      </trkpt>
      <trkpt lat="44.89516" lon="5.4743">
        <ele>1505.56</ele>
        <time>2011-09-08T11:58:19Z</time>
      </trkpt>
      <trkpt lat="44.89499" lon="5.4746">
        <ele>1507.48</ele>
        <time>2011-09-08T11:58:16Z</time>
      </trkpt>
      <trkpt lat="44.89478" lon="5.47497">
        <ele>1509.89</ele>
        <time>2011-09-08T11:58:12Z</time>
      </trkpt>
      <trkpt lat="44.89475" lon="5.47506">
        <ele>1509.89</ele>
        <time>2011-09-08T11:58:11Z</time>
      </trkpt>
      <trkpt lat="44.8947" lon="5.47513">
        <ele>1510.85</ele>
        <time>2011-09-08T11:58:10Z</time>
      </trkpt>
      <trkpt lat="44.89465" lon="5.47518">
        <ele>1511.81</ele>
        <time>2011-09-08T11:58:09Z</time>
      </trkpt>
      <trkpt lat="44.89458" lon="5.4752">
        <ele>1511.81</ele>
        <time>2011-09-08T11:58:08Z</time>
      </trkpt>
      <trkpt lat="44.89452" lon="5.4752">
        <ele>1512.77</ele>
        <time>2011-09-08T11:58:07Z</time>
      </trkpt>
      <trkpt lat="44.89446" lon="5.47517">
        <ele>1512.77</ele>
        <time>2011-09-08T11:58:06Z</time>
      </trkpt>
      <trkpt lat="44.89439" lon="5.47515">
        <ele>1512.77</ele>
        <time>2011-09-08T11:58:05Z</time>
      </trkpt>
      <trkpt lat="44.89433" lon="5.47513">
        <ele>1513.25</ele>
        <time>2011-09-08T11:58:04Z</time>
      </trkpt>
      <trkpt lat="44.89427" lon="5.47514">
        <ele>1512.77</ele>
        <time>2011-09-08T11:58:03Z</time>
      </trkpt>
      <trkpt lat="44.89421" lon="5.47516">
        <ele>1513.73</ele>
        <time>2011-09-08T11:58:02Z</time>
      </trkpt>
      <trkpt lat="44.89415" lon="5.47517">
        <ele>1513.73</ele>
        <time>2011-09-08T11:58:01Z</time>
      </trkpt>
      <trkpt lat="44.89409" lon="5.47517">
        <ele>1514.21</ele>
        <time>2011-09-08T11:58:00Z</time>
      </trkpt>
      <trkpt lat="44.89404" lon="5.47515">
        <ele>1514.21</ele>
        <time>2011-09-08T11:57:59Z</time>
      </trkpt>
      <trkpt lat="44.89399" lon="5.47512">
        <ele>1514.69</ele>
        <time>2011-09-08T11:57:58Z</time>
      </trkpt>
      <trkpt lat="44.89396" lon="5.47506">
        <ele>1514.69</ele>
        <time>2011-09-08T11:57:57Z</time>
      </trkpt>
      <trkpt lat="44.89393" lon="5.47501">
        <ele>1514.69</ele>
        <time>2011-09-08T11:57:56Z</time>
      </trkpt>
      <trkpt lat="44.89378" lon="5.47424">
        <ele>1516.14</ele>
        <time>2011-09-08T11:57:44Z</time>
      </trkpt>
      <trkpt lat="44.89372" lon="5.47356">
        <ele>1515.66</ele>
        <time>2011-09-08T11:57:30Z</time>
      </trkpt>
      <trkpt lat="44.89363" lon="5.47298">
        <ele>1513.25</ele>
        <time>2011-09-08T11:57:14Z</time>
      </trkpt>
      <trkpt lat="44.89362" lon="5.47246">
        <ele>1511.33</ele>
        <time>2011-09-08T11:57:01Z</time>
      </trkpt>
      <trkpt lat="44.89369" lon="5.47165">
        <ele>1508.93</ele>
        <time>2011-09-08T11:56:44Z</time>
      </trkpt>
      <trkpt lat="44.89379" lon="5.47081">
        <ele>1507.48</ele>
        <time>2011-09-08T11:56:28Z</time>
      </trkpt>
      <trkpt lat="44.89369" lon="5.47017">
        <ele>1505.56</ele>
        <time>2011-09-08T11:56:15Z</time>
      </trkpt>
      <trkpt lat="44.89354" lon="5.46956">
        <ele>1504.6</ele>
        <time>2011-09-08T11:56:02Z</time>
      </trkpt>
      <trkpt lat="44.89353" lon="5.46951">
        <ele>1504.12</ele>
        <time>2011-09-08T11:56:01Z</time>
      </trkpt>
      <trkpt lat="44.89323" lon="5.46928">
        <ele>1503.64</ele>
        <time>2011-09-08T11:55:51Z</time>
      </trkpt>
      <trkpt lat="44.89303" lon="5.46974">
        <ele>1504.12</ele>
        <time>2011-09-08T11:55:37Z</time>
      </trkpt>
      <trkpt lat="44.89271" lon="5.47003">
        <ele>1503.64</ele>
        <time>2011-09-08T11:55:23Z</time>
      </trkpt>
      <trkpt lat="44.89238" lon="5.47015">
        <ele>1503.16</ele>
        <time>2011-09-08T11:55:11Z</time>
      </trkpt>
      <trkpt lat="44.89211" lon="5.46997">
        <ele>1503.64</ele>
        <time>2011-09-08T11:55:00Z</time>
      </trkpt>
      <trkpt lat="44.89197" lon="5.46944">
        <ele>1503.64</ele>
        <time>2011-09-08T11:54:46Z</time>
      </trkpt>
      <trkpt lat="44.89191" lon="5.46883">
        <ele>1504.12</ele>
        <time>2011-09-08T11:54:31Z</time>
      </trkpt>
      <trkpt lat="44.89174" lon="5.46838">
        <ele>1503.16</ele>
        <time>2011-09-08T11:54:19Z</time>
      </trkpt>
      <trkpt lat="44.89135" lon="5.46841">
        <ele>1502.68</ele>
        <time>2011-09-08T11:54:05Z</time>
      </trkpt>
      <trkpt lat="44.89113" lon="5.468">
        <ele>1502.68</ele>
        <time>2011-09-08T11:53:51Z</time>
      </trkpt>
      <trkpt lat="44.89088" lon="5.46769">
        <ele>1503.64</ele>
        <time>2011-09-08T11:53:40Z</time>
      </trkpt>
      <trkpt lat="44.89067" lon="5.46714">
        <ele>1502.68</ele>
        <time>2011-09-08T11:53:25Z</time>
      </trkpt>
      <trkpt lat="44.89051" lon="5.4666">
        <ele>1503.64</ele>
        <time>2011-09-08T11:53:10Z</time>
      </trkpt>
      <trkpt lat="44.89038" lon="5.46614">
        <ele>1503.16</ele>
        <time>2011-09-08T11:52:58Z</time>
      </trkpt>
      <trkpt lat="44.89011" lon="5.46579">
        <ele>1503.64</ele>
        <time>2011-09-08T11:52:46Z</time>
      </trkpt>
      <trkpt lat="44.89009" lon="5.46577">
        <ele>1503.16</ele>
        <time>2011-09-08T11:52:45Z</time>
      </trkpt>
      <trkpt lat="44.89006" lon="5.46575">
        <ele>1503.16</ele>
        <time>2011-09-08T11:52:44Z</time>
      </trkpt>
      <trkpt lat="44.89004" lon="5.46572">
        <ele>1503.64</ele>
        <time>2011-09-08T11:52:43Z</time>
      </trkpt>
      <trkpt lat="44.89002" lon="5.4657">
        <ele>1503.64</ele>
        <time>2011-09-08T11:52:42Z</time>
      </trkpt>
      <trkpt lat="44.89" lon="5.46567">
        <ele>1503.64</ele>
        <time>2011-09-08T11:52:41Z</time>
      </trkpt>
      <trkpt lat="44.88998" lon="5.46564">
        <ele>1503.64</ele>
        <time>2011-09-08T11:52:40Z</time>
      </trkpt>
      <trkpt lat="44.88988" lon="5.46544">
        <ele>1503.64</ele>
        <time>2011-09-08T11:52:33Z</time>
      </trkpt>
      <trkpt lat="44.88985" lon="5.46541">
        <ele>1503.64</ele>
        <time>2011-09-08T11:52:32Z</time>
      </trkpt>
      <trkpt lat="44.88983" lon="5.46538">
        <ele>1503.16</ele>
        <time>2011-09-08T11:52:31Z</time>
      </trkpt>
      <trkpt lat="44.88981" lon="5.46535">
        <ele>1503.64</ele>
        <time>2011-09-08T11:52:30Z</time>
      </trkpt>
      <trkpt lat="44.88979" lon="5.46532">
        <ele>1504.12</ele>
        <time>2011-09-08T11:52:29Z</time>
      </trkpt>
      <trkpt lat="44.88977" lon="5.46529">
        <ele>1503.64</ele>
        <time>2011-09-08T11:52:28Z</time>
      </trkpt>
      <trkpt lat="44.88975" lon="5.46526">
        <ele>1503.64</ele>
        <time>2011-09-08T11:52:27Z</time>
      </trkpt>
      <trkpt lat="44.88973" lon="5.46523">
        <ele>1503.64</ele>
        <time>2011-09-08T11:52:26Z</time>
      </trkpt>
      <trkpt lat="44.88971" lon="5.46519">
        <ele>1503.16</ele>
        <time>2011-09-08T11:52:25Z</time>
      </trkpt>
      <trkpt lat="44.8897" lon="5.46514">
        <ele>1503.16</ele>
        <time>2011-09-08T11:52:24Z</time>
      </trkpt>
      <trkpt lat="44.88968" lon="5.46509">
        <ele>1503.16</ele>
        <time>2011-09-08T11:52:23Z</time>
      </trkpt>
      <trkpt lat="44.88966" lon="5.46504">
        <ele>1503.64</ele>
        <time>2011-09-08T11:52:22Z</time>
      </trkpt>
      <trkpt lat="44.88957" lon="5.46491">
        <ele>1503.64</ele>
        <time>2011-09-08T11:52:19Z</time>
      </trkpt>
      <trkpt lat="44.88939" lon="5.46434">
        <ele>1504.12</ele>
        <time>2011-09-08T11:52:07Z</time>
      </trkpt>
      <trkpt lat="44.88937" lon="5.46429">
        <ele>1503.64</ele>
        <time>2011-09-08T11:52:06Z</time>
      </trkpt>
      <trkpt lat="44.88936" lon="5.46422">
        <ele>1503.64</ele>
        <time>2011-09-08T11:52:05Z</time>
      </trkpt>
      <trkpt lat="44.88932" lon="5.46417">
        <ele>1503.64</ele>
        <time>2011-09-08T11:52:04Z</time>
      </trkpt>
      <trkpt lat="44.88928" lon="5.46414">
        <ele>1504.12</ele>
        <time>2011-09-08T11:52:03Z</time>
      </trkpt>
      <trkpt lat="44.88917" lon="5.46414">
        <ele>1504.12</ele>
        <time>2011-09-08T11:52:01Z</time>
      </trkpt>
      <trkpt lat="44.8891" lon="5.46414">
        <ele>1504.12</ele>
        <time>2011-09-08T11:52:00Z</time>
      </trkpt>
      <trkpt lat="44.88904" lon="5.46414">
        <ele>1504.12</ele>
        <time>2011-09-08T11:51:59Z</time>
      </trkpt>
      <trkpt lat="44.88897" lon="5.46413">
        <ele>1504.6</ele>
        <time>2011-09-08T11:51:58Z</time>
      </trkpt>
      <trkpt lat="44.88892" lon="5.46408">
        <ele>1504.12</ele>
        <time>2011-09-08T11:51:57Z</time>
      </trkpt>
      <trkpt lat="44.88877" lon="5.46377">
        <ele>1506.04</ele>
        <time>2011-09-08T11:51:54Z</time>
      </trkpt>
      <trkpt lat="44.88872" lon="5.46364">
        <ele>1507</ele>
        <time>2011-09-08T11:51:53Z</time>
      </trkpt>
      <trkpt lat="44.88871" lon="5.46351">
        <ele>1507.48</ele>
        <time>2011-09-08T11:51:52Z</time>
      </trkpt>
      <trkpt lat="44.88868" lon="5.46303">
        <ele>1509.89</ele>
        <time>2011-09-08T11:51:48Z</time>
      </trkpt>
      <trkpt lat="44.8886" lon="5.46275">
        <ele>1510.85</ele>
        <time>2011-09-08T11:51:45Z</time>
      </trkpt>
      <trkpt lat="44.88868" lon="5.46217">
        <ele>1513.25</ele>
        <time>2011-09-08T11:51:32Z</time>
      </trkpt>
      <trkpt lat="44.88894" lon="5.46185">
        <ele>1512.29</ele>
        <time>2011-09-08T11:51:20Z</time>
      </trkpt>
      <trkpt lat="44.88893" lon="5.46136">
        <ele>1510.85</ele>
        <time>2011-09-08T11:51:07Z</time>
      </trkpt>
      <trkpt lat="44.88897" lon="5.46089">
        <ele>1509.41</ele>
        <time>2011-09-08T11:50:55Z</time>
      </trkpt>
      <trkpt lat="44.88919" lon="5.46051">
        <ele>1508.45</ele>
        <time>2011-09-08T11:50:41Z</time>
      </trkpt>
      <trkpt lat="44.88931" lon="5.46036">
        <ele>1507</ele>
        <time>2011-09-08T11:50:34Z</time>
      </trkpt>
      <trkpt lat="44.88932" lon="5.46033">
        <ele>1506.52</ele>
        <time>2011-09-08T11:50:33Z</time>
      </trkpt>
      <trkpt lat="44.88934" lon="5.46031">
        <ele>1506.52</ele>
        <time>2011-09-08T11:50:32Z</time>
      </trkpt>
      <trkpt lat="44.88934" lon="5.46029">
        <ele>1506.52</ele>
        <time>2011-09-08T11:50:31Z</time>
      </trkpt>
      <trkpt lat="44.88935" lon="5.46028">
        <ele>1506.04</ele>
        <time>2011-09-08T11:50:30Z</time>
      </trkpt>
      <trkpt lat="44.88937" lon="5.46024">
        <ele>1506.04</ele>
        <time>2011-09-08T11:50:28Z</time>
      </trkpt>
      <trkpt lat="44.88944" lon="5.45989">
        <ele>1504.6</ele>
        <time>2011-09-08T11:50:12Z</time>
      </trkpt>
      <trkpt lat="44.88945" lon="5.45957">
        <ele>1502.2</ele>
        <time>2011-09-08T11:49:58Z</time>
      </trkpt>
      <trkpt lat="44.88957" lon="5.45933">
        <ele>1501.72</ele>
        <time>2011-09-08T11:49:45Z</time>
      </trkpt>
      <trkpt lat="44.88963" lon="5.45919">
        <ele>1500.76</ele>
        <time>2011-09-08T11:49:33Z</time>
      </trkpt>
      <trkpt lat="44.88961" lon="5.45914">
        <ele>1499.79</ele>
        <time>2011-09-08T11:49:29Z</time>
      </trkpt>
      <trkpt lat="44.88962" lon="5.45911">
        <ele>1499.79</ele>
        <time>2011-09-08T11:49:26Z</time>
      </trkpt>
      <trkpt lat="44.88963" lon="5.45909">
        <ele>1499.31</ele>
        <time>2011-09-08T11:49:25Z</time>
      </trkpt>
      <trkpt lat="44.88962" lon="5.45878">
        <ele>1497.39</ele>
        <time>2011-09-08T11:49:10Z</time>
      </trkpt>
      <trkpt lat="44.88963" lon="5.45875">
        <ele>1498.35</ele>
        <time>2011-09-08T11:49:09Z</time>
      </trkpt>
      <trkpt lat="44.88963" lon="5.45874">
        <ele>1497.87</ele>
        <time>2011-09-08T11:49:08Z</time>
      </trkpt>
      <trkpt lat="44.88965" lon="5.45854">
        <ele>1496.91</ele>
        <time>2011-09-08T11:48:59Z</time>
      </trkpt>
      <trkpt lat="44.88965" lon="5.45849">
        <ele>1496.91</ele>
        <time>2011-09-08T11:48:57Z</time>
      </trkpt>
      <trkpt lat="44.88965" lon="5.45847">
        <ele>1496.43</ele>
        <time>2011-09-08T11:48:56Z</time>
      </trkpt>
      <trkpt lat="44.88976" lon="5.45816">
        <ele>1494.03</ele>
        <time>2011-09-08T11:48:42Z</time>
      </trkpt>
      <trkpt lat="44.88987" lon="5.45802">
        <ele>1515.193</ele>
        <time>2011-06-03T10:47:48Z</time>
      </trkpt>
      <trkpt lat="44.89004" lon="5.45795">
        <ele>1512.928</ele>
        <time>2011-06-03T10:47:39Z</time>
      </trkpt>
      <trkpt lat="44.89015" lon="5.45789">
        <ele>1512.171</ele>
        <time>2011-06-03T10:47:34Z</time>
      </trkpt>
      <trkpt lat="44.89027" lon="5.45766">
        <ele>1511.599</ele>
        <time>2011-06-03T10:47:28Z</time>
      </trkpt>
      <trkpt lat="44.89034" lon="5.4574">
        <ele>1511.736</ele>
        <time>2011-06-03T10:47:23Z</time>
      </trkpt>
      <trkpt lat="44.89039" lon="5.45711">
        <ele>1511.352</ele>
        <time>2011-06-03T10:47:17Z</time>
      </trkpt>
      <trkpt lat="44.89055" lon="5.45692">
        <ele>1510.962</ele>
        <time>2011-06-03T10:47:11Z</time>
      </trkpt>
      <trkpt lat="44.89061" lon="5.45676">
        <ele>1510.177</ele>
        <time>2011-06-03T10:47:05Z</time>
      </trkpt>
      <trkpt lat="44.8906" lon="5.4566">
        <ele>1509.135</ele>
        <time>2011-06-03T10:46:59Z</time>
      </trkpt>
      <trkpt lat="44.89059" lon="5.45639">
        <ele>1507.668</ele>
        <time>2011-06-03T10:46:51Z</time>
      </trkpt>
      <trkpt lat="44.89066" lon="5.45629">
        <ele>1506.908</ele>
        <time>2011-06-03T10:46:45Z</time>
      </trkpt>
      <trkpt lat="44.89077" lon="5.45622">
        <ele>1505.536</ele>
        <time>2011-06-03T10:46:38Z</time>
      </trkpt>
      <trkpt lat="44.89082" lon="5.45611">
        <ele>1504.529</ele>
        <time>2011-06-03T10:46:33Z</time>
      </trkpt>
      <trkpt lat="44.89082" lon="5.45594">
        <ele>1503.016</ele>
        <time>2011-06-03T10:46:26Z</time>
      </trkpt>
      <trkpt lat="44.89072" lon="5.4558">
        <ele>1501.219</ele>
        <time>2011-06-03T10:46:18Z</time>
      </trkpt>
      <trkpt lat="44.89063" lon="5.4557">
        <ele>1499.768</ele>
        <time>2011-06-03T10:46:10Z</time>
      </trkpt>
      <trkpt lat="44.89062" lon="5.45547">
        <ele>1497.993</ele>
        <time>2011-06-03T10:46:01Z</time>
      </trkpt>
      <trkpt lat="44.89063" lon="5.45532">
        <ele>1497.15</ele>
        <time>2011-06-03T10:45:55Z</time>
      </trkpt>
      <trkpt lat="44.89068" lon="5.45505">
        <ele>1495.488</ele>
        <time>2011-06-03T10:45:44Z</time>
      </trkpt>
      <trkpt lat="44.89074" lon="5.45482">
        <ele>1493.935</ele>
        <time>2011-06-03T10:45:35Z</time>
      </trkpt>
      <trkpt lat="44.89074" lon="5.45465">
        <ele>1493.123</ele>
        <time>2011-06-03T10:45:29Z</time>
      </trkpt>
      <trkpt lat="44.89065" lon="5.45454">
        <ele>1492.194</ele>
        <time>2011-06-03T10:45:24Z</time>
      </trkpt>
      <trkpt lat="44.89048" lon="5.45465">
        <ele>1490.98</ele>
        <time>2011-06-03T10:45:15Z</time>
      </trkpt>
      <trkpt lat="44.89031" lon="5.45484">
        <ele>1488.956</ele>
        <time>2011-06-03T10:45:05Z</time>
      </trkpt>
      <trkpt lat="44.89017" lon="5.45505">
        <ele>1487.325</ele>
        <time>2011-06-03T10:44:56Z</time>
      </trkpt>
      <trkpt lat="44.88999" lon="5.45512">
        <ele>1486.251</ele>
        <time>2011-06-03T10:44:49Z</time>
      </trkpt>
      <trkpt lat="44.88976" lon="5.45508">
        <ele>1485.721</ele>
        <time>2011-06-03T10:44:42Z</time>
      </trkpt>
      <trkpt lat="44.88956" lon="5.45506">
        <ele>1485.72</ele>
        <time>2011-06-03T10:44:36Z</time>
      </trkpt>
      <trkpt lat="44.88938" lon="5.45508">
        <ele>1485.476</ele>
        <time>2011-06-03T10:44:30Z</time>
      </trkpt>
      <trkpt lat="44.88919" lon="5.4552">
        <ele>1484.601</ele>
        <time>2011-06-03T10:44:22Z</time>
      </trkpt>
      <trkpt lat="44.88901" lon="5.45518">
        <ele>1483.397</ele>
        <time>2011-06-03T10:44:14Z</time>
      </trkpt>
      <trkpt lat="44.88887" lon="5.45519">
        <ele>1460.38</ele>
        <time>2011-09-08T11:44:17Z</time>
      </trkpt>
      <trkpt lat="44.88862" lon="5.45498">
        <ele>1457.5</ele>
        <time>2011-09-08T11:44:02Z</time>
      </trkpt>
      <trkpt lat="44.88845" lon="5.45472">
        <ele>1455.57</ele>
        <time>2011-09-08T11:43:48Z</time>
      </trkpt>
      <trkpt lat="44.88832" lon="5.45432">
        <ele>1453.65</ele>
        <time>2011-09-08T11:43:30Z</time>
      </trkpt>
      <trkpt lat="44.8882" lon="5.45396">
        <ele>1451.73</ele>
        <time>2011-09-08T11:43:15Z</time>
      </trkpt>
      <trkpt lat="44.88811" lon="5.45366">
        <ele>1449.32</ele>
        <time>2011-09-08T11:43:02Z</time>
      </trkpt>
      <trkpt lat="44.88812" lon="5.45363">
        <ele>1449.32</ele>
        <time>2011-09-08T11:43:01Z</time>
      </trkpt>
      <trkpt lat="44.88812" lon="5.45361">
        <ele>1448.84</ele>
        <time>2011-09-08T11:43:00Z</time>
      </trkpt>
      <trkpt lat="44.88813" lon="5.45359">
        <ele>1449.81</ele>
        <time>2011-09-08T11:42:59Z</time>
      </trkpt>
      <trkpt lat="44.88815" lon="5.45357">
        <ele>1448.36</ele>
        <time>2011-09-08T11:42:58Z</time>
      </trkpt>
      <trkpt lat="44.88816" lon="5.45356">
        <ele>1448.36</ele>
        <time>2011-09-08T11:42:57Z</time>
      </trkpt>
      <trkpt lat="44.88817" lon="5.45355">
        <ele>1447.88</ele>
        <time>2011-09-08T11:42:56Z</time>
      </trkpt>
      <trkpt lat="44.88819" lon="5.45354">
        <ele>1448.36</ele>
        <time>2011-09-08T11:42:55Z</time>
      </trkpt>
      <trkpt lat="44.88821" lon="5.45354">
        <ele>1448.36</ele>
        <time>2011-09-08T11:42:54Z</time>
      </trkpt>
      <trkpt lat="44.88823" lon="5.45354">
        <ele>1447.88</ele>
        <time>2011-09-08T11:42:53Z</time>
      </trkpt>
      <trkpt lat="44.88825" lon="5.45354">
        <ele>1447.88</ele>
        <time>2011-09-08T11:42:52Z</time>
      </trkpt>
      <trkpt lat="44.88836" lon="5.45376">
        <ele>1446.92</ele>
        <time>2011-09-08T11:42:41Z</time>
      </trkpt>
      <trkpt lat="44.88854" lon="5.45404">
        <ele>1445.48</ele>
        <time>2011-09-08T11:42:26Z</time>
      </trkpt>
      <trkpt lat="44.88871" lon="5.45423">
        <ele>1444.04</ele>
        <time>2011-09-08T11:42:14Z</time>
      </trkpt>
      <trkpt lat="44.88897" lon="5.45435">
        <ele>1442.11</ele>
        <time>2011-09-08T11:42:00Z</time>
      </trkpt>
      <trkpt lat="44.88923" lon="5.45423">
        <ele>1440.19</ele>
        <time>2011-09-08T11:41:46Z</time>
      </trkpt>
      <trkpt lat="44.88932" lon="5.45398">
        <ele>1438.27</ele>
        <time>2011-09-08T11:41:34Z</time>
      </trkpt>
      <trkpt lat="44.8893" lon="5.45352">
        <ele>1435.87</ele>
        <time>2011-09-08T11:41:18Z</time>
      </trkpt>
      <trkpt lat="44.88939" lon="5.4532">
        <ele>1433.46</ele>
        <time>2011-09-08T11:41:05Z</time>
      </trkpt>
      <trkpt lat="44.88958" lon="5.45289">
        <ele>1432.02</ele>
        <time>2011-09-08T11:40:51Z</time>
      </trkpt>
      <trkpt lat="44.88961" lon="5.45255">
        <ele>1430.1</ele>
        <time>2011-09-08T11:40:39Z</time>
      </trkpt>
      <trkpt lat="44.88963" lon="5.45218">
        <ele>1428.66</ele>
        <time>2011-09-08T11:40:26Z</time>
      </trkpt>
      <trkpt lat="44.88968" lon="5.45191">
        <ele>1425.29</ele>
        <time>2011-09-08T11:40:16Z</time>
      </trkpt>
      <trkpt lat="44.8897" lon="5.45138">
        <ele>1423.37</ele>
        <time>2011-09-08T11:39:57Z</time>
      </trkpt>
      <trkpt lat="44.88972" lon="5.45112">
        <ele>1421.45</ele>
        <time>2011-09-08T11:39:47Z</time>
      </trkpt>
      <trkpt lat="44.88969" lon="5.45078">
        <ele>1419.52</ele>
        <time>2011-09-08T11:39:35Z</time>
      </trkpt>
      <trkpt lat="44.88944" lon="5.45067">
        <ele>1417.6</ele>
        <time>2011-09-08T11:39:22Z</time>
      </trkpt>
      <trkpt lat="44.88932" lon="5.4503">
        <ele>1416.64</ele>
        <time>2011-09-08T11:39:08Z</time>
      </trkpt>
      <trkpt lat="44.88925" lon="5.44981">
        <ele>1413.76</ele>
        <time>2011-09-08T11:38:51Z</time>
      </trkpt>
      <trkpt lat="44.88923" lon="5.44972">
        <ele>1411.83</ele>
        <time>2011-09-08T11:38:48Z</time>
      </trkpt>
      <trkpt lat="44.88921" lon="5.44967">
        <ele>1413.28</ele>
        <time>2011-09-08T11:38:46Z</time>
      </trkpt>
      <trkpt lat="44.88919" lon="5.44948">
        <ele>1411.83</ele>
        <time>2011-09-08T11:38:40Z</time>
      </trkpt>
      <trkpt lat="44.8892" lon="5.44936">
        <ele>1409.91</ele>
        <time>2011-09-08T11:38:37Z</time>
      </trkpt>
      <trkpt lat="44.8892" lon="5.44932">
        <ele>1410.87</ele>
        <time>2011-09-08T11:38:36Z</time>
      </trkpt>
      <trkpt lat="44.8892" lon="5.44929">
        <ele>1410.87</ele>
        <time>2011-09-08T11:38:35Z</time>
      </trkpt>
      <trkpt lat="44.88901" lon="5.4491">
        <ele>1409.43</ele>
        <time>2011-09-08T11:38:25Z</time>
      </trkpt>
      <trkpt lat="44.88882" lon="5.44901">
        <ele>1406.07</ele>
        <time>2011-09-08T11:38:16Z</time>
      </trkpt>
      <trkpt lat="44.88865" lon="5.44873">
        <ele>1406.07</ele>
        <time>2011-09-08T11:38:04Z</time>
      </trkpt>
      <trkpt lat="44.88854" lon="5.44838">
        <ele>1403.66</ele>
        <time>2011-09-08T11:37:53Z</time>
      </trkpt>
      <trkpt lat="44.88834" lon="5.44818">
        <ele>1403.66</ele>
        <time>2011-09-08T11:37:45Z</time>
      </trkpt>
      <trkpt lat="44.88819" lon="5.44803">
        <ele>1400.3</ele>
        <time>2011-09-08T11:37:39Z</time>
      </trkpt>
      <trkpt lat="44.88779" lon="5.44779">
        <ele>1400.78</ele>
        <time>2011-09-08T11:37:24Z</time>
      </trkpt>
      <trkpt lat="44.88775" lon="5.44775">
        <ele>1399.82</ele>
        <time>2011-09-08T11:37:22Z</time>
      </trkpt>
      <trkpt lat="44.88764" lon="5.44733">
        <ele>1400.3</ele>
        <time>2011-09-08T11:37:11Z</time>
      </trkpt>
      <trkpt lat="44.88767" lon="5.44714">
        <ele>1399.82</ele>
        <time>2011-09-08T11:37:06Z</time>
      </trkpt>
      <trkpt lat="44.88767" lon="5.44653">
        <ele>1398.37</ele>
        <time>2011-09-08T11:36:50Z</time>
      </trkpt>
      <trkpt lat="44.88763" lon="5.44608">
        <ele>1396.93</ele>
        <time>2011-09-08T11:36:37Z</time>
      </trkpt>
      <trkpt lat="44.88762" lon="5.44602">
        <ele>1395.49</ele>
        <time>2011-09-08T11:36:35Z</time>
      </trkpt>
      <trkpt lat="44.88762" lon="5.44595">
        <ele>1397.89</ele>
        <time>2011-09-08T11:36:33Z</time>
      </trkpt>
      <trkpt lat="44.88754" lon="5.44554">
        <ele>1394.53</ele>
        <time>2011-09-08T11:36:20Z</time>
      </trkpt>
      <trkpt lat="44.88752" lon="5.44548">
        <ele>1395.97</ele>
        <time>2011-09-08T11:36:18Z</time>
      </trkpt>
      <trkpt lat="44.88742" lon="5.44516">
        <ele>1393.57</ele>
        <time>2011-09-08T11:36:07Z</time>
      </trkpt>
      <trkpt lat="44.8874" lon="5.44512">
        <ele>1395.01</ele>
        <time>2011-09-08T11:36:05Z</time>
      </trkpt>
      <trkpt lat="44.88736" lon="5.44505">
        <ele>1393.57</ele>
        <time>2011-09-08T11:36:02Z</time>
      </trkpt>
      <trkpt lat="44.88715" lon="5.44493">
        <ele>1392.13</ele>
        <time>2011-09-08T11:35:49Z</time>
      </trkpt>
      <trkpt lat="44.88708" lon="5.44515">
        <ele>1390.68</ele>
        <time>2011-09-08T11:35:40Z</time>
      </trkpt>
      <trkpt lat="44.88718" lon="5.44545">
        <ele>1387.32</ele>
        <time>2011-09-08T11:35:28Z</time>
      </trkpt>
      <trkpt lat="44.88718" lon="5.44549">
        <ele>1387.8</ele>
        <time>2011-09-08T11:35:26Z</time>
      </trkpt>
      <trkpt lat="44.88717" lon="5.44553">
        <ele>1386.84</ele>
        <time>2011-09-08T11:35:24Z</time>
      </trkpt>
      <trkpt lat="44.88715" lon="5.44556">
        <ele>1385.88</ele>
        <time>2011-09-08T11:35:22Z</time>
      </trkpt>
      <trkpt lat="44.88714" lon="5.44558">
        <ele>1386.36</ele>
        <time>2011-09-08T11:35:21Z</time>
      </trkpt>
      <trkpt lat="44.88712" lon="5.44559">
        <ele>1384.92</ele>
        <time>2011-09-08T11:35:20Z</time>
      </trkpt>
      <trkpt lat="44.88704" lon="5.44558">
        <ele>1384.44</ele>
        <time>2011-09-08T11:35:15Z</time>
      </trkpt>
      <trkpt lat="44.88686" lon="5.44546">
        <ele>1383.47</ele>
        <time>2011-09-08T11:35:02Z</time>
      </trkpt>
      <trkpt lat="44.88662" lon="5.44541">
        <ele>1381.55</ele>
        <time>2011-09-08T11:34:48Z</time>
      </trkpt>
      <trkpt lat="44.88636" lon="5.44526">
        <ele>1377.71</ele>
        <time>2011-09-08T11:34:31Z</time>
      </trkpt>
      <trkpt lat="44.8861" lon="5.44528">
        <ele>1375.78</ele>
        <time>2011-09-08T11:34:15Z</time>
      </trkpt>
      <trkpt lat="44.88586" lon="5.44524">
        <ele>1372.42</ele>
        <time>2011-09-08T11:34:00Z</time>
      </trkpt>
      <trkpt lat="44.88565" lon="5.44519">
        <ele>1369.54</ele>
        <time>2011-09-08T11:33:48Z</time>
      </trkpt>
      <trkpt lat="44.8854" lon="5.44514">
        <ele>1367.13</ele>
        <time>2011-09-08T11:33:34Z</time>
      </trkpt>
      <trkpt lat="44.88519" lon="5.44503">
        <ele>1365.21</ele>
        <time>2011-09-08T11:33:20Z</time>
      </trkpt>
      <trkpt lat="44.88518" lon="5.44501">
        <ele>1364.25</ele>
        <time>2011-09-08T11:33:19Z</time>
      </trkpt>
      <trkpt lat="44.88496" lon="5.44491">
        <ele>1362.33</ele>
        <time>2011-09-08T11:33:05Z</time>
      </trkpt>
      <trkpt lat="44.88479" lon="5.44479">
        <ele>1359.44</ele>
        <time>2011-09-08T11:32:54Z</time>
      </trkpt>
      <trkpt lat="44.88478" lon="5.44478">
        <ele>1360.4</ele>
        <time>2011-09-08T11:32:53Z</time>
      </trkpt>
      <trkpt lat="44.88475" lon="5.44475">
        <ele>1359.44</ele>
        <time>2011-09-08T11:32:51Z</time>
      </trkpt>
      <trkpt lat="44.88474" lon="5.44474">
        <ele>1359.44</ele>
        <time>2011-09-08T11:32:50Z</time>
      </trkpt>
      <trkpt lat="44.88472" lon="5.44473">
        <ele>1358.96</ele>
        <time>2011-09-08T11:32:49Z</time>
      </trkpt>
      <trkpt lat="44.88471" lon="5.44472">
        <ele>1358.96</ele>
        <time>2011-09-08T11:32:48Z</time>
      </trkpt>
      <trkpt lat="44.8847" lon="5.44471">
        <ele>1358.96</ele>
        <time>2011-09-08T11:32:47Z</time>
      </trkpt>
      <trkpt lat="44.88468" lon="5.4447">
        <ele>1357.04</ele>
        <time>2011-09-08T11:32:46Z</time>
      </trkpt>
      <trkpt lat="44.88466" lon="5.44468">
        <ele>1359.44</ele>
        <time>2011-09-08T11:32:45Z</time>
      </trkpt>
      <trkpt lat="44.88464" lon="5.44467">
        <ele>1358.48</ele>
        <time>2011-09-08T11:32:44Z</time>
      </trkpt>
      <trkpt lat="44.88462" lon="5.44466">
        <ele>1358</ele>
        <time>2011-09-08T11:32:43Z</time>
      </trkpt>
      <trkpt lat="44.8846" lon="5.44465">
        <ele>1357.52</ele>
        <time>2011-09-08T11:32:42Z</time>
      </trkpt>
      <trkpt lat="44.88458" lon="5.44463">
        <ele>1357.04</ele>
        <time>2011-09-08T11:32:41Z</time>
      </trkpt>
      <trkpt lat="44.88443" lon="5.44458">
        <ele>1357.04</ele>
        <time>2011-09-08T11:32:37Z</time>
      </trkpt>
      <trkpt lat="44.88439" lon="5.44457">
        <ele>1356.08</ele>
        <time>2011-09-08T11:32:36Z</time>
      </trkpt>
      <trkpt lat="44.88433" lon="5.4446">
        <ele>1358.48</ele>
        <time>2011-09-08T11:32:35Z</time>
      </trkpt>
      <trkpt lat="44.88428" lon="5.44466">
        <ele>1356.56</ele>
        <time>2011-09-08T11:32:34Z</time>
      </trkpt>
      <trkpt lat="44.88422" lon="5.44473">
        <ele>1358.48</ele>
        <time>2011-09-08T11:32:33Z</time>
      </trkpt>
      <trkpt lat="44.88416" lon="5.44483">
        <ele>1357.52</ele>
        <time>2011-09-08T11:32:32Z</time>
      </trkpt>
      <trkpt lat="44.88408" lon="5.44492">
        <ele>1359.44</ele>
        <time>2011-09-08T11:32:31Z</time>
      </trkpt>
      <trkpt lat="44.88397" lon="5.44503">
        <ele>1360.4</ele>
        <time>2011-09-08T11:32:30Z</time>
      </trkpt>
      <trkpt lat="44.8835" lon="5.4453">
        <ele>1359.44</ele>
        <time>2011-09-08T11:32:25Z</time>
      </trkpt>
      <trkpt lat="44.88341" lon="5.44531">
        <ele>1362.81</ele>
        <time>2011-09-08T11:32:24Z</time>
      </trkpt>
      <trkpt lat="44.88334" lon="5.44532">
        <ele>1361.36</ele>
        <time>2011-09-08T11:32:23Z</time>
      </trkpt>
      <trkpt lat="44.88328" lon="5.44533">
        <ele>1363.29</ele>
        <time>2011-09-08T11:32:22Z</time>
      </trkpt>
      <trkpt lat="44.88322" lon="5.44534">
        <ele>1364.25</ele>
        <time>2011-09-08T11:32:21Z</time>
      </trkpt>
      <trkpt lat="44.88316" lon="5.44535">
        <ele>1363.77</ele>
        <time>2011-09-08T11:32:20Z</time>
      </trkpt>
      <trkpt lat="44.8831" lon="5.44534">
        <ele>1364.73</ele>
        <time>2011-09-08T11:32:19Z</time>
      </trkpt>
      <trkpt lat="44.88298" lon="5.44527">
        <ele>1365.69</ele>
        <time>2011-09-08T11:32:17Z</time>
      </trkpt>
      <trkpt lat="44.88277" lon="5.44491">
        <ele>1368.09</ele>
        <time>2011-09-08T11:32:12Z</time>
      </trkpt>
      <trkpt lat="44.88253" lon="5.4446">
        <ele>1369.54</ele>
        <time>2011-09-08T11:32:07Z</time>
      </trkpt>
      <trkpt lat="44.88249" lon="5.44456">
        <ele>1370.5</ele>
        <time>2011-09-08T11:32:06Z</time>
      </trkpt>
      <trkpt lat="44.88244" lon="5.44452">
        <ele>1370.5</ele>
        <time>2011-09-08T11:32:05Z</time>
      </trkpt>
      <trkpt lat="44.88211" lon="5.44444">
        <ele>1369.54</ele>
        <time>2011-09-08T11:31:58Z</time>
      </trkpt>
      <trkpt lat="44.88195" lon="5.44439">
        <ele>1370.98</ele>
        <time>2011-09-08T11:31:54Z</time>
      </trkpt>
      <trkpt lat="44.88191" lon="5.44438">
        <ele>1370.5</ele>
        <time>2011-09-08T11:31:53Z</time>
      </trkpt>
      <trkpt lat="44.88187" lon="5.44436">
        <ele>1370.02</ele>
        <time>2011-09-08T11:31:52Z</time>
      </trkpt>
      <trkpt lat="44.88182" lon="5.44435">
        <ele>1370.98</ele>
        <time>2011-09-08T11:31:51Z</time>
      </trkpt>
      <trkpt lat="44.88178" lon="5.44434">
        <ele>1371.46</ele>
        <time>2011-09-08T11:31:50Z</time>
      </trkpt>
      <trkpt lat="44.88173" lon="5.44433">
        <ele>1370.02</ele>
        <time>2011-09-08T11:31:49Z</time>
      </trkpt>
      <trkpt lat="44.88169" lon="5.44433">
        <ele>1370.02</ele>
        <time>2011-09-08T11:31:48Z</time>
      </trkpt>
      <trkpt lat="44.88165" lon="5.44436">
        <ele>1370.98</ele>
        <time>2011-09-08T11:31:47Z</time>
      </trkpt>
      <trkpt lat="44.88162" lon="5.44441">
        <ele>1370.5</ele>
        <time>2011-09-08T11:31:46Z</time>
      </trkpt>
      <trkpt lat="44.88159" lon="5.44446">
        <ele>1371.46</ele>
        <time>2011-09-08T11:31:45Z</time>
      </trkpt>
      <trkpt lat="44.88158" lon="5.44455">
        <ele>1370.8242188</ele>
      </trkpt>
      <trkpt lat="44.88156" lon="5.4447">
        <ele>1370.875</ele>
      </trkpt>
      <trkpt lat="44.88153" lon="5.44488">
        <ele>1370.578125</ele>
      </trkpt>
      <trkpt lat="44.88151" lon="5.44503">
        <ele>1370.3789063</ele>
      </trkpt>
      <trkpt lat="44.88148" lon="5.44519">
        <ele>1370.5117188</ele>
      </trkpt>
      <trkpt lat="44.88145" lon="5.44536">
        <ele>1370.4101563</ele>
      </trkpt>
      <trkpt lat="44.8814" lon="5.44563">
        <ele>1369.8125</ele>
      </trkpt>
      <trkpt lat="44.8814" lon="5.44563">
        <ele>1369.8320313</ele>
      </trkpt>
      <trkpt lat="44.88136" lon="5.44584">
        <ele>1369.328125</ele>
      </trkpt>
      <trkpt lat="44.88134" lon="5.44601">
        <ele>1369.0234375</ele>
      </trkpt>
      <trkpt lat="44.8813" lon="5.44621">
        <ele>1368.875</ele>
      </trkpt>
      <trkpt lat="44.88125" lon="5.44628">
        <ele>1369.1015625</ele>
      </trkpt>
      <trkpt lat="44.88118" lon="5.44633">
        <ele>1369.6445313</ele>
      </trkpt>
      <trkpt lat="44.8811" lon="5.44642">
        <ele>1370.1796875</ele>
      </trkpt>
      <trkpt lat="44.88104" lon="5.44647">
        <ele>1370.40625</ele>
      </trkpt>
      <trkpt lat="44.88098" lon="5.44653">
        <ele>1370.59375</ele>
      </trkpt>
      <trkpt lat="44.88085" lon="5.44665">
        <ele>1371.0078125</ele>
      </trkpt>
      <trkpt lat="44.88071" lon="5.4468">
        <ele>1371.9648438</ele>
      </trkpt>
      <trkpt lat="44.88065" lon="5.44686">
        <ele>1372.7578125</ele>
      </trkpt>
      <trkpt lat="44.88063" lon="5.44693">
        <ele>1372.8554688</ele>
      </trkpt>
      <trkpt lat="44.88061" lon="5.44701">
        <ele>1373.0234375</ele>
      </trkpt>
      <trkpt lat="44.88057" lon="5.4471">
        <ele>1373.2421875</ele>
      </trkpt>
      <trkpt lat="44.88054" lon="5.44719">
        <ele>1373.3554688</ele>
      </trkpt>
      <trkpt lat="44.88052" lon="5.44732">
        <ele>1373.3828125</ele>
      </trkpt>
      <trkpt lat="44.88049" lon="5.44742">
        <ele>1373.5585938</ele>
      </trkpt>
      <trkpt lat="44.88046" lon="5.4475">
        <ele>1373.7929688</ele>
      </trkpt>
      <trkpt lat="44.8804" lon="5.44761">
        <ele>1373.9296875</ele>
      </trkpt>
      <trkpt lat="44.88036" lon="5.44767">
        <ele>1373.984375</ele>
      </trkpt>
      <trkpt lat="44.88036" lon="5.44767">
        <ele>1373.9726563</ele>
      </trkpt>
      <trkpt lat="44.88032" lon="5.44769">
        <ele>1374.1835938</ele>
      </trkpt>
      <trkpt lat="44.88031" lon="5.44769">
        <ele>1374.21875</ele>
      </trkpt>
      <trkpt lat="44.88027" lon="5.44771">
        <ele>1374.4492188</ele>
      </trkpt>
      <trkpt lat="44.8802" lon="5.44773">
        <ele>1374.8671875</ele>
      </trkpt>
      <trkpt lat="44.88013" lon="5.44774">
        <ele>1375.4414063</ele>
      </trkpt>
      <trkpt lat="44.88005" lon="5.44776">
        <ele>1376.3554688</ele>
      </trkpt>
      <trkpt lat="44.87999" lon="5.44777">
        <ele>1376.8789063</ele>
      </trkpt>
      <trkpt lat="44.87995" lon="5.44779">
        <ele>1377.25</ele>
      </trkpt>
      <trkpt lat="44.87991" lon="5.44782">
        <ele>1377.578125</ele>
      </trkpt>
      <trkpt lat="44.8799" lon="5.44782">
        <ele>1377.6054688</ele>
      </trkpt>
      <trkpt lat="44.87986" lon="5.44785">
        <ele>1378.1367188</ele>
      </trkpt>
      <trkpt lat="44.87983" lon="5.44792">
        <ele>1378.3242188</ele>
      </trkpt>
      <trkpt lat="44.87982" lon="5.44802">
        <ele>1378.0703125</ele>
      </trkpt>
      <trkpt lat="44.87982" lon="5.44813">
        <ele>1377.5976563</ele>
      </trkpt>
      <trkpt lat="44.87984" lon="5.44827">
        <ele>1376.7617188</ele>
      </trkpt>
      <trkpt lat="44.87986" lon="5.44839">
        <ele>1376.2851563</ele>
      </trkpt>
      <trkpt lat="44.87985" lon="5.44848">
        <ele>1376.4414063</ele>
      </trkpt>
      <trkpt lat="44.87982" lon="5.44857">
        <ele>1376.828125</ele>
      </trkpt>
      <trkpt lat="44.87978" lon="5.44861">
        <ele>1377.375</ele>
      </trkpt>
      <trkpt lat="44.87974" lon="5.44861">
        <ele>1377.9570313</ele>
      </trkpt>
      <trkpt lat="44.87973" lon="5.44861">
        <ele>1378.109375</ele>
      </trkpt>
      <trkpt lat="44.87969" lon="5.44861">
        <ele>1378.6914063</ele>
      </trkpt>
      <trkpt lat="44.8796" lon="5.4486">
        <ele>1379.9765625</ele>
      </trkpt>
      <trkpt lat="44.87955" lon="5.4486">
        <ele>1380.859375</ele>
      </trkpt>
      <trkpt lat="44.8795" lon="5.44861">
        <ele>1381.828125</ele>
      </trkpt>
      <trkpt lat="44.87947" lon="5.44866">
        <ele>1382.328125</ele>
      </trkpt>
      <trkpt lat="44.87941" lon="5.44877">
        <ele>1383.0195313</ele>
      </trkpt>
      <trkpt lat="44.87937" lon="5.44888">
        <ele>1383.3789063</ele>
      </trkpt>
      <trkpt lat="44.87937" lon="5.44888">
        <ele>1383.3671875</ele>
      </trkpt>
      <trkpt lat="44.87934" lon="5.44899">
        <ele>1383.703125</ele>
      </trkpt>
      <trkpt lat="44.87932" lon="5.4491">
        <ele>1384.0820313</ele>
      </trkpt>
      <trkpt lat="44.87929" lon="5.44921">
        <ele>1384.7773438</ele>
      </trkpt>
      <trkpt lat="44.87925" lon="5.44934">
        <ele>1385.4765625</ele>
      </trkpt>
      <trkpt lat="44.87922" lon="5.44943">
        <ele>1386.234375</ele>
      </trkpt>
      <trkpt lat="44.87922" lon="5.44943">
        <ele>1386.2929688</ele>
      </trkpt>
      <trkpt lat="44.87921" lon="5.44955">
        <ele>1386.5234375</ele>
      </trkpt>
      <trkpt lat="44.8792" lon="5.44966">
        <ele>1386.640625</ele>
      </trkpt>
      <trkpt lat="44.8792" lon="5.44966">
        <ele>1386.640625</ele>
      </trkpt>
      <trkpt lat="44.8792" lon="5.44978">
        <ele>1386.6992188</ele>
      </trkpt>
      <trkpt lat="44.87918" lon="5.44987">
        <ele>1387.1054688</ele>
      </trkpt>
      <trkpt lat="44.87915" lon="5.44994">
        <ele>1387.6328125</ele>
      </trkpt>
      <trkpt lat="44.87913" lon="5.45002">
        <ele>1388.1484375</ele>
      </trkpt>
      <trkpt lat="44.87913" lon="5.45002">
        <ele>1388.1367188</ele>
      </trkpt>
      <trkpt lat="44.87911" lon="5.45012">
        <ele>1388.203125</ele>
      </trkpt>
      <trkpt lat="44.87911" lon="5.45014">
        <ele>1388.28125</ele>
      </trkpt>
      <trkpt lat="44.8791" lon="5.45025">
        <ele>1388.15625</ele>
      </trkpt>
      <trkpt lat="44.8791" lon="5.45026">
        <ele>1388.1484375</ele>
      </trkpt>
      <trkpt lat="44.87907" lon="5.45036">
        <ele>1388.578125</ele>
      </trkpt>
      <trkpt lat="44.87902" lon="5.45042">
        <ele>1389.484375</ele>
      </trkpt>
      <trkpt lat="44.87898" lon="5.45046">
        <ele>1400.78</ele>
        <time>2011-09-08T11:30:16Z</time>
      </trkpt>
      <trkpt lat="44.87883" lon="5.45048">
        <ele>1401.74</ele>
        <time>2011-09-08T11:30:14Z</time>
      </trkpt>
      <trkpt lat="44.87877" lon="5.45048">
        <ele>1402.22</ele>
        <time>2011-09-08T11:30:13Z</time>
      </trkpt>
      <trkpt lat="44.8787" lon="5.45046">
        <ele>1401.74</ele>
        <time>2011-09-08T11:30:12Z</time>
      </trkpt>
      <trkpt lat="44.87864" lon="5.45044">
        <ele>1402.22</ele>
        <time>2011-09-08T11:30:11Z</time>
      </trkpt>
      <trkpt lat="44.87859" lon="5.45042">
        <ele>1403.18</ele>
        <time>2011-09-08T11:30:10Z</time>
      </trkpt>
      <trkpt lat="44.87853" lon="5.45043">
        <ele>1403.18</ele>
        <time>2011-09-08T11:30:09Z</time>
      </trkpt>
      <trkpt lat="44.87848" lon="5.45047">
        <ele>1405.1</ele>
        <time>2011-09-08T11:30:08Z</time>
      </trkpt>
      <trkpt lat="44.87844" lon="5.45056">
        <ele>1405.58</ele>
        <time>2011-09-08T11:30:07Z</time>
      </trkpt>
      <trkpt lat="44.87839" lon="5.4508">
        <ele>1407.03</ele>
        <time>2011-09-08T11:30:05Z</time>
      </trkpt>
      <trkpt lat="44.87836" lon="5.45091">
        <ele>1406.07</ele>
        <time>2011-09-08T11:30:04Z</time>
      </trkpt>
      <trkpt lat="44.87833" lon="5.45102">
        <ele>1407.51</ele>
        <time>2011-09-08T11:30:03Z</time>
      </trkpt>
      <trkpt lat="44.87822" lon="5.45122">
        <ele>1408.95</ele>
        <time>2011-09-08T11:30:01Z</time>
      </trkpt>
      <trkpt lat="44.87802" lon="5.45148">
        <ele>1412.31</ele>
        <time>2011-09-08T11:29:58Z</time>
      </trkpt>
      <trkpt lat="44.87789" lon="5.45171">
        <ele>1412.79</ele>
        <time>2011-09-08T11:29:55Z</time>
      </trkpt>
      <trkpt lat="44.87787" lon="5.45213">
        <ele>1415.68</ele>
        <time>2011-09-08T11:29:46Z</time>
      </trkpt>
      <trkpt lat="44.87789" lon="5.45219">
        <ele>1414.24</ele>
        <time>2011-09-08T11:29:45Z</time>
      </trkpt>
      <trkpt lat="44.87793" lon="5.45232">
        <ele>1415.2</ele>
        <time>2011-09-08T11:29:43Z</time>
      </trkpt>
      <trkpt lat="44.87798" lon="5.45262">
        <ele>1414.24</ele>
        <time>2011-09-08T11:29:39Z</time>
      </trkpt>
      <trkpt lat="44.87805" lon="5.45296">
        <ele>1414.72</ele>
        <time>2011-09-08T11:29:35Z</time>
      </trkpt>
      <trkpt lat="44.87806" lon="5.45305">
        <ele>1415.2</ele>
        <time>2011-09-08T11:29:34Z</time>
      </trkpt>
      <trkpt lat="44.87806" lon="5.45352">
        <ele>1415.68</ele>
        <time>2011-09-08T11:29:29Z</time>
      </trkpt>
      <trkpt lat="44.87806" lon="5.45361">
        <ele>1417.12</ele>
        <time>2011-09-08T11:29:28Z</time>
      </trkpt>
      <trkpt lat="44.87802" lon="5.45404">
        <ele>1419.04</ele>
        <time>2011-09-08T11:29:24Z</time>
      </trkpt>
      <trkpt lat="44.87801" lon="5.45414">
        <ele>1419.04</ele>
        <time>2011-09-08T11:29:23Z</time>
      </trkpt>
      <trkpt lat="44.87801" lon="5.45424">
        <ele>1419.52</ele>
        <time>2011-09-08T11:29:22Z</time>
      </trkpt>
      <trkpt lat="44.87801" lon="5.45434">
        <ele>1420</ele>
        <time>2011-09-08T11:29:21Z</time>
      </trkpt>
      <trkpt lat="44.87803" lon="5.45444">
        <ele>1421.93</ele>
        <time>2011-09-08T11:29:20Z</time>
      </trkpt>
      <trkpt lat="44.87803" lon="5.45454">
        <ele>1422.41</ele>
        <time>2011-09-08T11:29:19Z</time>
      </trkpt>
      <trkpt lat="44.87802" lon="5.45463">
        <ele>1422.41</ele>
        <time>2011-09-08T11:29:18Z</time>
      </trkpt>
      <trkpt lat="44.87799" lon="5.45472">
        <ele>1423.85</ele>
        <time>2011-09-08T11:29:17Z</time>
      </trkpt>
      <trkpt lat="44.87795" lon="5.45481">
        <ele>1424.33</ele>
        <time>2011-09-08T11:29:16Z</time>
      </trkpt>
      <trkpt lat="44.87782" lon="5.45504">
        <ele>1426.73</ele>
        <time>2011-09-08T11:29:13Z</time>
      </trkpt>
      <trkpt lat="44.87776" lon="5.45517">
        <ele>1427.21</ele>
        <time>2011-09-08T11:29:11Z</time>
      </trkpt>
      <trkpt lat="44.87771" lon="5.4553">
        <ele>1427.21</ele>
        <time>2011-09-08T11:29:09Z</time>
      </trkpt>
      <trkpt lat="44.87766" lon="5.45543">
        <ele>1429.14</ele>
        <time>2011-09-08T11:29:06Z</time>
      </trkpt>
      <trkpt lat="44.87764" lon="5.45547">
        <ele>1428.18</ele>
        <time>2011-09-08T11:29:05Z</time>
      </trkpt>
      <trkpt lat="44.87762" lon="5.4555">
        <ele>1428.66</ele>
        <time>2011-09-08T11:29:04Z</time>
      </trkpt>
      <trkpt lat="44.87761" lon="5.45552">
        <ele>1429.62</ele>
        <time>2011-09-08T11:29:03Z</time>
      </trkpt>
      <trkpt lat="44.8776" lon="5.45554">
        <ele>1429.62</ele>
        <time>2011-09-08T11:29:02Z</time>
      </trkpt>
      <trkpt lat="44.8776" lon="5.45554">
        <ele>1429.62</ele>
        <time>2011-09-08T11:28:53Z</time>
      </trkpt>
      <trkpt lat="44.87756" lon="5.4557">
        <ele>1431.54</ele>
        <time>2011-09-08T11:28:43Z</time>
      </trkpt>
      <trkpt lat="44.87754" lon="5.4559">
        <ele>1434.42</ele>
        <time>2011-09-08T11:28:37Z</time>
      </trkpt>
      <trkpt lat="44.8775" lon="5.45601">
        <ele>1434.91</ele>
        <time>2011-09-08T11:28:35Z</time>
      </trkpt>
      <trkpt lat="44.87747" lon="5.4561">
        <ele>1436.83</ele>
        <time>2011-09-08T11:28:34Z</time>
      </trkpt>
      <trkpt lat="44.87743" lon="5.45619">
        <ele>1436.83</ele>
        <time>2011-09-08T11:28:33Z</time>
      </trkpt>
      <trkpt lat="44.87738" lon="5.45628">
        <ele>1437.31</ele>
        <time>2011-09-08T11:28:32Z</time>
      </trkpt>
      <trkpt lat="44.87734" lon="5.45637">
        <ele>1437.31</ele>
        <time>2011-09-08T11:28:31Z</time>
      </trkpt>
      <trkpt lat="44.87724" lon="5.45655">
        <ele>1438.75</ele>
        <time>2011-09-08T11:28:29Z</time>
      </trkpt>
      <trkpt lat="44.87721" lon="5.45664">
        <ele>1438.75</ele>
        <time>2011-09-08T11:28:28Z</time>
      </trkpt>
      <trkpt lat="44.87714" lon="5.45684">
        <ele>1441.15</ele>
        <time>2011-09-08T11:28:26Z</time>
      </trkpt>
      <trkpt lat="44.87711" lon="5.45694">
        <ele>1442.11</ele>
        <time>2011-09-08T11:28:25Z</time>
      </trkpt>
      <trkpt lat="44.87691" lon="5.45785">
        <ele>1445.48</ele>
        <time>2011-09-08T11:28:16Z</time>
      </trkpt>
      <trkpt lat="44.87662" lon="5.45827">
        <ele>1447.4</ele>
        <time>2011-09-08T11:28:11Z</time>
      </trkpt>
      <trkpt lat="44.87646" lon="5.45856">
        <ele>1447.88</ele>
        <time>2011-09-08T11:28:08Z</time>
      </trkpt>
      <trkpt lat="44.87624" lon="5.45894">
        <ele>1450.29</ele>
        <time>2011-09-08T11:28:04Z</time>
      </trkpt>
      <trkpt lat="44.87619" lon="5.45904">
        <ele>1451.25</ele>
        <time>2011-09-08T11:28:03Z</time>
      </trkpt>
      <trkpt lat="44.87615" lon="5.45915">
        <ele>1451.73</ele>
        <time>2011-09-08T11:28:02Z</time>
      </trkpt>
      <trkpt lat="44.87611" lon="5.45925">
        <ele>1452.21</ele>
        <time>2011-09-08T11:28:01Z</time>
      </trkpt>
      <trkpt lat="44.87608" lon="5.45935">
        <ele>1453.17</ele>
        <time>2011-09-08T11:28:00Z</time>
      </trkpt>
      <trkpt lat="44.87605" lon="5.45945">
        <ele>1453.17</ele>
        <time>2011-09-08T11:27:59Z</time>
      </trkpt>
      <trkpt lat="44.87597" lon="5.45963">
        <ele>1455.57</ele>
        <time>2011-09-08T11:27:57Z</time>
      </trkpt>
      <trkpt lat="44.87592" lon="5.45971">
        <ele>1455.09</ele>
        <time>2011-09-08T11:27:56Z</time>
      </trkpt>
      <trkpt lat="44.87588" lon="5.4598">
        <ele>1455.57</ele>
        <time>2011-09-08T11:27:55Z</time>
      </trkpt>
      <trkpt lat="44.87574" lon="5.46003">
        <ele>1457.98</ele>
        <time>2011-09-08T11:27:52Z</time>
      </trkpt>
      <trkpt lat="44.87562" lon="5.46024">
        <ele>1458.46</ele>
        <time>2011-09-08T11:27:49Z</time>
      </trkpt>
      <trkpt lat="44.87502" lon="5.46126">
        <ele>1461.34</ele>
        <time>2011-09-08T11:27:34Z</time>
      </trkpt>
      <trkpt lat="44.87477" lon="5.46185">
        <ele>1462.78</ele>
        <time>2011-09-08T11:27:24Z</time>
      </trkpt>
      <trkpt lat="44.87475" lon="5.46191">
        <ele>1463.26</ele>
        <time>2011-09-08T11:27:23Z</time>
      </trkpt>
      <trkpt lat="44.87472" lon="5.46197">
        <ele>1464.23</ele>
        <time>2011-09-08T11:27:22Z</time>
      </trkpt>
      <trkpt lat="44.8746" lon="5.46213">
        <ele>1463.74</ele>
        <time>2011-09-08T11:27:19Z</time>
      </trkpt>
      <trkpt lat="44.87457" lon="5.46219">
        <ele>1463.26</ele>
        <time>2011-09-08T11:27:18Z</time>
      </trkpt>
      <trkpt lat="44.87454" lon="5.46226">
        <ele>1463.74</ele>
        <time>2011-09-08T11:27:17Z</time>
      </trkpt>
      <trkpt lat="44.87438" lon="5.4627">
        <ele>1465.19</ele>
        <time>2011-09-08T11:27:10Z</time>
      </trkpt>
      <trkpt lat="44.87435" lon="5.46275">
        <ele>1465.19</ele>
        <time>2011-09-08T11:27:09Z</time>
      </trkpt>
      <trkpt lat="44.87413" lon="5.46304">
        <ele>1466.15</ele>
        <time>2011-09-08T11:27:03Z</time>
      </trkpt>
      <trkpt lat="44.8741" lon="5.46309">
        <ele>1465.67</ele>
        <time>2011-09-08T11:27:02Z</time>
      </trkpt>
      <trkpt lat="44.87373" lon="5.46387">
        <ele>1468.07</ele>
        <time>2011-09-08T11:26:48Z</time>
      </trkpt>
      <trkpt lat="44.87365" lon="5.46402">
        <ele>1469.03</ele>
        <time>2011-09-08T11:26:45Z</time>
      </trkpt>
      <trkpt lat="44.87362" lon="5.46407">
        <ele>1469.99</ele>
        <time>2011-09-08T11:26:44Z</time>
      </trkpt>
      <trkpt lat="44.8734" lon="5.4648">
        <ele>1470.95</ele>
        <time>2011-09-08T11:26:30Z</time>
      </trkpt>
      <trkpt lat="44.87327" lon="5.46537">
        <ele>1470.47</ele>
        <time>2011-09-08T11:26:17Z</time>
      </trkpt>
      <trkpt lat="44.87316" lon="5.4661">
        <ele>1469.99</ele>
        <time>2011-09-08T11:26:03Z</time>
      </trkpt>
      <trkpt lat="44.87315" lon="5.46615">
        <ele>1469.99</ele>
        <time>2011-09-08T11:26:02Z</time>
      </trkpt>
      <trkpt lat="44.87315" lon="5.46621">
        <ele>1469.99</ele>
        <time>2011-09-08T11:26:01Z</time>
      </trkpt>
      <trkpt lat="44.87314" lon="5.46627">
        <ele>1470.47</ele>
        <time>2011-09-08T11:26:00Z</time>
      </trkpt>
      <trkpt lat="44.87313" lon="5.46633">
        <ele>1470.47</ele>
        <time>2011-09-08T11:25:59Z</time>
      </trkpt>
      <trkpt lat="44.87305" lon="5.46669">
        <ele>1470.47</ele>
        <time>2011-09-08T11:25:53Z</time>
      </trkpt>
      <trkpt lat="44.87283" lon="5.46745">
        <ele>1472.4</ele>
        <time>2011-09-08T11:25:40Z</time>
      </trkpt>
      <trkpt lat="44.87281" lon="5.46751">
        <ele>1471.92</ele>
        <time>2011-09-08T11:25:39Z</time>
      </trkpt>
      <trkpt lat="44.87272" lon="5.46789">
        <ele>1472.88</ele>
        <time>2011-09-08T11:25:33Z</time>
      </trkpt>
      <trkpt lat="44.8727" lon="5.46795">
        <ele>1472.4</ele>
        <time>2011-09-08T11:25:32Z</time>
      </trkpt>
      <trkpt lat="44.87267" lon="5.468">
        <ele>1472.4</ele>
        <time>2011-09-08T11:25:31Z</time>
      </trkpt>
      <trkpt lat="44.8724" lon="5.4683">
        <ele>1472.88</ele>
        <time>2011-09-08T11:25:23Z</time>
      </trkpt>
      <trkpt lat="44.87203" lon="5.46885">
        <ele>1474.32</ele>
        <time>2011-09-08T11:25:09Z</time>
      </trkpt>
      <trkpt lat="44.87175" lon="5.46906">
        <ele>1475.28</ele>
        <time>2011-09-08T11:24:56Z</time>
      </trkpt>
      <trkpt lat="44.87174" lon="5.46907">
        <ele>1475.28</ele>
        <time>2011-09-08T11:24:55Z</time>
      </trkpt>
      <trkpt lat="44.87172" lon="5.46909">
        <ele>1475.28</ele>
        <time>2011-09-08T11:24:54Z</time>
      </trkpt>
      <trkpt lat="44.87171" lon="5.4691">
        <ele>1475.28</ele>
        <time>2011-09-08T11:24:53Z</time>
      </trkpt>
      <trkpt lat="44.8717" lon="5.46911">
        <ele>1474.8</ele>
        <time>2011-09-08T11:24:52Z</time>
      </trkpt>
      <trkpt lat="44.87166" lon="5.46914">
        <ele>1475.28</ele>
        <time>2011-09-08T11:24:42Z</time>
      </trkpt>
      <trkpt lat="44.87164" lon="5.46914">
        <ele>1475.28</ele>
        <time>2011-09-08T11:24:41Z</time>
      </trkpt>
      <trkpt lat="44.87152" lon="5.46952">
        <ele>1477.68</ele>
        <time>2011-09-08T11:24:34Z</time>
      </trkpt>
      <trkpt lat="44.87148" lon="5.46966">
        <ele>1477.2</ele>
        <time>2011-09-08T11:24:32Z</time>
      </trkpt>
      <trkpt lat="44.87146" lon="5.4698">
        <ele>1477.2</ele>
        <time>2011-09-08T11:24:30Z</time>
      </trkpt>
      <trkpt lat="44.87145" lon="5.46988">
        <ele>1478.16</ele>
        <time>2011-09-08T11:24:29Z</time>
      </trkpt>
      <trkpt lat="44.87121" lon="5.47087">
        <ele>1479.61</ele>
        <time>2011-09-08T11:24:16Z</time>
      </trkpt>
      <trkpt lat="44.87119" lon="5.47094">
        <ele>1479.61</ele>
        <time>2011-09-08T11:24:15Z</time>
      </trkpt>
      <trkpt lat="44.87116" lon="5.471">
        <ele>1479.61</ele>
        <time>2011-09-08T11:24:14Z</time>
      </trkpt>
      <trkpt lat="44.87106" lon="5.47119">
        <ele>1480.09</ele>
        <time>2011-09-08T11:24:11Z</time>
      </trkpt>
      <trkpt lat="44.87102" lon="5.47124">
        <ele>1480.09</ele>
        <time>2011-09-08T11:24:10Z</time>
      </trkpt>
      <trkpt lat="44.87082" lon="5.47142">
        <ele>1480.57</ele>
        <time>2011-09-08T11:24:06Z</time>
      </trkpt>
      <trkpt lat="44.87067" lon="5.47158">
        <ele>1481.53</ele>
        <time>2011-09-08T11:24:03Z</time>
      </trkpt>
      <trkpt lat="44.87027" lon="5.472">
        <ele>1484.89</ele>
        <time>2011-09-08T11:23:55Z</time>
      </trkpt>
      <trkpt lat="44.87015" lon="5.47216">
        <ele>1486.34</ele>
        <time>2011-09-08T11:23:52Z</time>
      </trkpt>
      <trkpt lat="44.87" lon="5.47235">
        <ele>1487.78</ele>
        <time>2011-09-08T11:23:48Z</time>
      </trkpt>
      <trkpt lat="44.86996" lon="5.47239">
        <ele>1487.78</ele>
        <time>2011-09-08T11:23:47Z</time>
      </trkpt>
      <trkpt lat="44.86992" lon="5.47241">
        <ele>1487.78</ele>
        <time>2011-09-08T11:23:46Z</time>
      </trkpt>
      <trkpt lat="44.86984" lon="5.47242">
        <ele>1487.78</ele>
        <time>2011-09-08T11:23:44Z</time>
      </trkpt>
      <trkpt lat="44.8698" lon="5.47242">
        <ele>1487.78</ele>
        <time>2011-09-08T11:23:43Z</time>
      </trkpt>
      <trkpt lat="44.86975" lon="5.47242">
        <ele>1487.3</ele>
        <time>2011-09-08T11:23:42Z</time>
      </trkpt>
      <trkpt lat="44.8697" lon="5.47243">
        <ele>1487.3</ele>
        <time>2011-09-08T11:23:41Z</time>
      </trkpt>
      <trkpt lat="44.86965" lon="5.47244">
        <ele>1488.74</ele>
        <time>2011-09-08T11:23:40Z</time>
      </trkpt>
      <trkpt lat="44.86961" lon="5.47247">
        <ele>1488.74</ele>
        <time>2011-09-08T11:23:39Z</time>
      </trkpt>
      <trkpt lat="44.86957" lon="5.47251">
        <ele>1488.74</ele>
        <time>2011-09-08T11:23:38Z</time>
      </trkpt>
      <trkpt lat="44.86954" lon="5.47256">
        <ele>1489.22</ele>
        <time>2011-09-08T11:23:37Z</time>
      </trkpt>
      <trkpt lat="44.86949" lon="5.47268">
        <ele>1488.74</ele>
        <time>2011-09-08T11:23:35Z</time>
      </trkpt>
      <trkpt lat="44.8692" lon="5.47328">
        <ele>1492.1</ele>
        <time>2011-09-08T11:23:24Z</time>
      </trkpt>
      <trkpt lat="44.86911" lon="5.47342">
        <ele>1492.1</ele>
        <time>2011-09-08T11:23:21Z</time>
      </trkpt>
      <trkpt lat="44.86908" lon="5.47346">
        <ele>1492.58</ele>
        <time>2011-09-08T11:23:20Z</time>
      </trkpt>
      <trkpt lat="44.869" lon="5.47354">
        <ele>1493.55</ele>
        <time>2011-09-08T11:23:18Z</time>
      </trkpt>
      <trkpt lat="44.86897" lon="5.47358">
        <ele>1493.06</ele>
        <time>2011-09-08T11:23:17Z</time>
      </trkpt>
      <trkpt lat="44.86884" lon="5.47379">
        <ele>1493.55</ele>
        <time>2011-09-08T11:23:12Z</time>
      </trkpt>
      <trkpt lat="44.86871" lon="5.47394">
        <ele>1494.51</ele>
        <time>2011-09-08T11:23:08Z</time>
      </trkpt>
      <trkpt lat="44.86866" lon="5.47403">
        <ele>1494.51</ele>
        <time>2011-09-08T11:23:06Z</time>
      </trkpt>
      <trkpt lat="44.86863" lon="5.47407">
        <ele>1494.51</ele>
        <time>2011-09-08T11:23:05Z</time>
      </trkpt>
      <trkpt lat="44.8686" lon="5.47412">
        <ele>1494.51</ele>
        <time>2011-09-08T11:23:04Z</time>
      </trkpt>
      <trkpt lat="44.86858" lon="5.47416">
        <ele>1494.51</ele>
        <time>2011-09-08T11:23:03Z</time>
      </trkpt>
      <trkpt lat="44.86855" lon="5.47421">
        <ele>1494.51</ele>
        <time>2011-09-08T11:23:02Z</time>
      </trkpt>
      <trkpt lat="44.86852" lon="5.47426">
        <ele>1494.51</ele>
        <time>2011-09-08T11:23:01Z</time>
      </trkpt>
      <trkpt lat="44.86849" lon="5.4743">
        <ele>1494.51</ele>
        <time>2011-09-08T11:23:00Z</time>
      </trkpt>
      <trkpt lat="44.86806" lon="5.47473">
        <ele>1496.91</ele>
        <time>2011-09-08T11:22:50Z</time>
      </trkpt>
      <trkpt lat="44.86766" lon="5.47525">
        <ele>1499.31</ele>
        <time>2011-09-08T11:22:36Z</time>
      </trkpt>
      <trkpt lat="44.86764" lon="5.47527">
        <ele>1499.79</ele>
        <time>2011-09-08T11:22:35Z</time>
      </trkpt>
      <trkpt lat="44.86762" lon="5.4753">
        <ele>1499.79</ele>
        <time>2011-09-08T11:22:34Z</time>
      </trkpt>
      <trkpt lat="44.8676" lon="5.47532">
        <ele>1499.79</ele>
        <time>2011-09-08T11:22:33Z</time>
      </trkpt>
      <trkpt lat="44.86758" lon="5.47533">
        <ele>1499.79</ele>
        <time>2011-09-08T11:22:32Z</time>
      </trkpt>
      <trkpt lat="44.86757" lon="5.47535">
        <ele>1499.79</ele>
        <time>2011-09-08T11:22:21Z</time>
      </trkpt>
      <trkpt lat="44.86755" lon="5.47538">
        <ele>1500.27</ele>
        <time>2011-09-08T11:21:39Z</time>
      </trkpt>
      <trkpt lat="44.86752" lon="5.4754">
        <ele>1499.79</ele>
        <time>2011-09-08T11:20:49Z</time>
      </trkpt>
      <trkpt lat="44.86747" lon="5.47547">
        <ele>1499.79</ele>
        <time>2011-09-08T11:20:43Z</time>
      </trkpt>
      <trkpt lat="44.86747" lon="5.47547">
        <ele>1499.31</ele>
        <time>2011-09-08T11:20:13Z</time>
      </trkpt>
      <trkpt lat="44.86747" lon="5.47548">
        <ele>1499.79</ele>
        <time>2011-09-08T11:19:55Z</time>
      </trkpt>
      <trkpt lat="44.86736" lon="5.47557">
        <ele>1499.79</ele>
        <time>2011-09-08T11:19:45Z</time>
      </trkpt>
      <trkpt lat="44.86699" lon="5.47549">
        <ele>1499.79</ele>
        <time>2011-09-08T11:19:31Z</time>
      </trkpt>
      <trkpt lat="44.86669" lon="5.47528">
        <ele>1498.35</ele>
        <time>2011-09-08T11:19:17Z</time>
      </trkpt>
      <trkpt lat="44.86636" lon="5.47511">
        <ele>1498.35</ele>
        <time>2011-09-08T11:19:04Z</time>
      </trkpt>
      <trkpt lat="44.86607" lon="5.47512">
        <ele>1496.91</ele>
        <time>2011-09-08T11:18:51Z</time>
      </trkpt>
      <trkpt lat="44.86568" lon="5.47537">
        <ele>1497.87</ele>
        <time>2011-09-08T11:18:38Z</time>
      </trkpt>
      <trkpt lat="44.86545" lon="5.47566">
        <ele>1499.31</ele>
        <time>2011-09-08T11:18:28Z</time>
      </trkpt>
      <trkpt lat="44.86501" lon="5.47591">
        <ele>1501.24</ele>
        <time>2011-09-08T10:35:35Z</time>
      </trkpt>
      <trkpt lat="44.86481" lon="5.47586">
        <ele>1501.24</ele>
        <time>2011-09-08T10:35:27Z</time>
      </trkpt>
      <trkpt lat="44.86449" lon="5.47577">
        <ele>1500.27</ele>
        <time>2011-09-08T10:35:16Z</time>
      </trkpt>
      <trkpt lat="44.86435" lon="5.47579">
        <ele>1501.24</ele>
        <time>2011-09-08T10:35:12Z</time>
      </trkpt>
      <trkpt lat="44.86431" lon="5.47579">
        <ele>1501.24</ele>
        <time>2011-09-08T10:35:11Z</time>
      </trkpt>
      <trkpt lat="44.86427" lon="5.4758">
        <ele>1501.72</ele>
        <time>2011-09-08T10:35:10Z</time>
      </trkpt>
      <trkpt lat="44.86422" lon="5.47581">
        <ele>1501.72</ele>
        <time>2011-09-08T10:35:09Z</time>
      </trkpt>
      <trkpt lat="44.86419" lon="5.47581">
        <ele>1501.72</ele>
        <time>2011-09-08T10:35:08Z</time>
      </trkpt>
      <trkpt lat="44.86415" lon="5.4758">
        <ele>1501.72</ele>
        <time>2011-09-08T10:35:07Z</time>
      </trkpt>
      <trkpt lat="44.86412" lon="5.47579">
        <ele>1501.72</ele>
        <time>2011-09-08T10:35:06Z</time>
      </trkpt>
      <trkpt lat="44.86408" lon="5.47578">
        <ele>1501.72</ele>
        <time>2011-09-08T10:35:05Z</time>
      </trkpt>
      <trkpt lat="44.86404" lon="5.47575">
        <ele>1501.24</ele>
        <time>2011-09-08T10:35:04Z</time>
      </trkpt>
      <trkpt lat="44.86401" lon="5.47573">
        <ele>1501.24</ele>
        <time>2011-09-08T10:35:03Z</time>
      </trkpt>
      <trkpt lat="44.86397" lon="5.4757">
        <ele>1500.76</ele>
        <time>2011-09-08T10:35:02Z</time>
      </trkpt>
      <trkpt lat="44.8639" lon="5.4756">
        <ele>1501.24</ele>
        <time>2011-09-08T10:35:00Z</time>
      </trkpt>
      <trkpt lat="44.86386" lon="5.47555">
        <ele>1501.24</ele>
        <time>2011-09-08T10:34:59Z</time>
      </trkpt>
      <trkpt lat="44.86382" lon="5.4755">
        <ele>1501.72</ele>
        <time>2011-09-08T10:34:58Z</time>
      </trkpt>
      <trkpt lat="44.86377" lon="5.47545">
        <ele>1502.2</ele>
        <time>2011-09-08T10:34:57Z</time>
      </trkpt>
      <trkpt lat="44.86374" lon="5.47539">
        <ele>1502.2</ele>
        <time>2011-09-08T10:34:56Z</time>
      </trkpt>
      <trkpt lat="44.86369" lon="5.47535">
        <ele>1503.16</ele>
        <time>2011-09-08T10:34:55Z</time>
      </trkpt>
      <trkpt lat="44.86365" lon="5.47532">
        <ele>1503.64</ele>
        <time>2011-09-08T10:34:54Z</time>
      </trkpt>
      <trkpt lat="44.86356" lon="5.47528">
        <ele>1503.16</ele>
        <time>2011-09-08T10:34:52Z</time>
      </trkpt>
      <trkpt lat="44.86351" lon="5.47527">
        <ele>1503.64</ele>
        <time>2011-09-08T10:34:51Z</time>
      </trkpt>
      <trkpt lat="44.86348" lon="5.47523">
        <ele>1504.12</ele>
        <time>2011-09-08T10:34:50Z</time>
      </trkpt>
      <trkpt lat="44.8634" lon="5.47518">
        <ele>1503.64</ele>
        <time>2011-09-08T10:34:48Z</time>
      </trkpt>
      <trkpt lat="44.86325" lon="5.47513">
        <ele>1502.68</ele>
        <time>2011-09-08T10:34:45Z</time>
      </trkpt>
      <trkpt lat="44.86319" lon="5.47511">
        <ele>1503.16</ele>
        <time>2011-09-08T10:34:44Z</time>
      </trkpt>
      <trkpt lat="44.86305" lon="5.4751">
        <ele>1504.12</ele>
        <time>2011-09-08T10:34:42Z</time>
      </trkpt>
      <trkpt lat="44.863" lon="5.47508">
        <ele>1504.12</ele>
        <time>2011-09-08T10:34:41Z</time>
      </trkpt>
      <trkpt lat="44.86295" lon="5.47505">
        <ele>1504.12</ele>
        <time>2011-09-08T10:34:40Z</time>
      </trkpt>
      <trkpt lat="44.8629" lon="5.47503">
        <ele>1504.12</ele>
        <time>2011-09-08T10:34:39Z</time>
      </trkpt>
      <trkpt lat="44.86285" lon="5.47503">
        <ele>1504.6</ele>
        <time>2011-09-08T10:34:38Z</time>
      </trkpt>
      <trkpt lat="44.8628" lon="5.47505">
        <ele>1505.08</ele>
        <time>2011-09-08T10:34:37Z</time>
      </trkpt>
      <trkpt lat="44.86275" lon="5.47508">
        <ele>1504.6</ele>
        <time>2011-09-08T10:34:36Z</time>
      </trkpt>
      <trkpt lat="44.86262" lon="5.4752">
        <ele>1505.08</ele>
        <time>2011-09-08T10:34:33Z</time>
      </trkpt>
      <trkpt lat="44.86258" lon="5.47525">
        <ele>1505.56</ele>
        <time>2011-09-08T10:34:32Z</time>
      </trkpt>
      <trkpt lat="44.86248" lon="5.47541">
        <ele>1505.56</ele>
        <time>2011-09-08T10:34:29Z</time>
      </trkpt>
      <trkpt lat="44.86245" lon="5.47547">
        <ele>1505.56</ele>
        <time>2011-09-08T10:34:28Z</time>
      </trkpt>
      <trkpt lat="44.86242" lon="5.47552">
        <ele>1506.52</ele>
        <time>2011-09-08T10:34:27Z</time>
      </trkpt>
      <trkpt lat="44.86238" lon="5.47559">
        <ele>1507</ele>
        <time>2011-09-08T10:34:26Z</time>
      </trkpt>
      <trkpt lat="44.86225" lon="5.47578">
        <ele>1507</ele>
        <time>2011-09-08T10:34:23Z</time>
      </trkpt>
      <trkpt lat="44.86219" lon="5.47584">
        <ele>1507</ele>
        <time>2011-09-08T10:34:22Z</time>
      </trkpt>
      <trkpt lat="44.86214" lon="5.4759">
        <ele>1507.97</ele>
        <time>2011-09-08T10:34:21Z</time>
      </trkpt>
      <trkpt lat="44.86208" lon="5.47595">
        <ele>1508.45</ele>
        <time>2011-09-08T10:34:20Z</time>
      </trkpt>
      <trkpt lat="44.86202" lon="5.47599">
        <ele>1508.93</ele>
        <time>2011-09-08T10:34:19Z</time>
      </trkpt>
      <trkpt lat="44.86195" lon="5.47603">
        <ele>1508.93</ele>
        <time>2011-09-08T10:34:18Z</time>
      </trkpt>
      <trkpt lat="44.86189" lon="5.47606">
        <ele>1508.93</ele>
        <time>2011-09-08T10:34:17Z</time>
      </trkpt>
      <trkpt lat="44.86182" lon="5.47608">
        <ele>1509.89</ele>
        <time>2011-09-08T10:34:16Z</time>
      </trkpt>
      <trkpt lat="44.86175" lon="5.47608">
        <ele>1509.41</ele>
        <time>2011-09-08T10:34:15Z</time>
      </trkpt>
      <trkpt lat="44.86168" lon="5.47608">
        <ele>1508.93</ele>
        <time>2011-09-08T10:34:14Z</time>
      </trkpt>
      <trkpt lat="44.86161" lon="5.47607">
        <ele>1509.89</ele>
        <time>2011-09-08T10:34:13Z</time>
      </trkpt>
      <trkpt lat="44.86154" lon="5.47604">
        <ele>1510.85</ele>
        <time>2011-09-08T10:34:12Z</time>
      </trkpt>
      <trkpt lat="44.86148" lon="5.47602">
        <ele>1511.81</ele>
        <time>2011-09-08T10:34:11Z</time>
      </trkpt>
      <trkpt lat="44.86141" lon="5.47602">
        <ele>1511.33</ele>
        <time>2011-09-08T10:34:10Z</time>
      </trkpt>
      <trkpt lat="44.86135" lon="5.47602">
        <ele>1512.29</ele>
        <time>2011-09-08T10:34:09Z</time>
      </trkpt>
      <trkpt lat="44.86128" lon="5.47604">
        <ele>1511.81</ele>
        <time>2011-09-08T10:34:08Z</time>
      </trkpt>
      <trkpt lat="44.86122" lon="5.47608">
        <ele>1512.29</ele>
        <time>2011-09-08T10:34:07Z</time>
      </trkpt>
      <trkpt lat="44.86116" lon="5.47615">
        <ele>1512.77</ele>
        <time>2011-09-08T10:34:06Z</time>
      </trkpt>
      <trkpt lat="44.8611" lon="5.47623">
        <ele>1512.77</ele>
        <time>2011-09-08T10:34:05Z</time>
      </trkpt>
      <trkpt lat="44.86105" lon="5.47631">
        <ele>1514.21</ele>
        <time>2011-09-08T10:34:04Z</time>
      </trkpt>
      <trkpt lat="44.86085" lon="5.4765">
        <ele>1516.14</ele>
        <time>2011-09-08T10:34:01Z</time>
      </trkpt>
      <trkpt lat="44.86073" lon="5.47657">
        <ele>1518.54</ele>
        <time>2011-09-08T10:33:59Z</time>
      </trkpt>
      <trkpt lat="44.86067" lon="5.47659">
        <ele>1518.54</ele>
        <time>2011-09-08T10:33:58Z</time>
      </trkpt>
      <trkpt lat="44.86055" lon="5.47659">
        <ele>1518.54</ele>
        <time>2011-09-08T10:33:56Z</time>
      </trkpt>
      <trkpt lat="44.86049" lon="5.4766">
        <ele>1519.02</ele>
        <time>2011-09-08T10:33:55Z</time>
      </trkpt>
      <trkpt lat="44.86043" lon="5.47661">
        <ele>1519.5</ele>
        <time>2011-09-08T10:33:54Z</time>
      </trkpt>
      <trkpt lat="44.86024" lon="5.4767">
        <ele>1519.98</ele>
        <time>2011-09-08T10:33:51Z</time>
      </trkpt>
      <trkpt lat="44.86012" lon="5.47677">
        <ele>1520.46</ele>
        <time>2011-09-08T10:33:49Z</time>
      </trkpt>
      <trkpt lat="44.86006" lon="5.4768">
        <ele>1520.46</ele>
        <time>2011-09-08T10:33:48Z</time>
      </trkpt>
      <trkpt lat="44.86" lon="5.47683">
        <ele>1519.98</ele>
        <time>2011-09-08T10:33:47Z</time>
      </trkpt>
      <trkpt lat="44.85994" lon="5.47683">
        <ele>1520.94</ele>
        <time>2011-09-08T10:33:46Z</time>
      </trkpt>
      <trkpt lat="44.85987" lon="5.47681">
        <ele>1520.94</ele>
        <time>2011-09-08T10:33:45Z</time>
      </trkpt>
      <trkpt lat="44.8598" lon="5.47679">
        <ele>1520.46</ele>
        <time>2011-09-08T10:33:44Z</time>
      </trkpt>
      <trkpt lat="44.85957" lon="5.47682">
        <ele>1522.87</ele>
        <time>2011-09-08T10:33:41Z</time>
      </trkpt>
      <trkpt lat="44.85937" lon="5.47685">
        <ele>1524.31</ele>
        <time>2011-09-08T10:33:38Z</time>
      </trkpt>
      <trkpt lat="44.85931" lon="5.47686">
        <ele>1524.79</ele>
        <time>2011-09-08T10:33:37Z</time>
      </trkpt>
      <trkpt lat="44.85926" lon="5.47687">
        <ele>1525.27</ele>
        <time>2011-09-08T10:33:36Z</time>
      </trkpt>
      <trkpt lat="44.85915" lon="5.4769">
        <ele>1525.27</ele>
        <time>2011-09-08T10:33:34Z</time>
      </trkpt>
      <trkpt lat="44.85895" lon="5.47701">
        <ele>1526.23</ele>
        <time>2011-09-08T10:33:30Z</time>
      </trkpt>
      <trkpt lat="44.8589" lon="5.47703">
        <ele>1525.75</ele>
        <time>2011-09-08T10:33:29Z</time>
      </trkpt>
      <trkpt lat="44.85842" lon="5.47706">
        <ele>1526.71</ele>
        <time>2011-09-08T10:33:19Z</time>
      </trkpt>
      <trkpt lat="44.85837" lon="5.47705">
        <ele>1526.71</ele>
        <time>2011-09-08T10:33:18Z</time>
      </trkpt>
      <trkpt lat="44.85817" lon="5.47699">
        <ele>1527.67</ele>
        <time>2011-09-08T10:33:13Z</time>
      </trkpt>
      <trkpt lat="44.85813" lon="5.47697">
        <ele>1527.67</ele>
        <time>2011-09-08T10:33:12Z</time>
      </trkpt>
      <trkpt lat="44.85809" lon="5.47695">
        <ele>1527.67</ele>
        <time>2011-09-08T10:33:11Z</time>
      </trkpt>
      <trkpt lat="44.85781" lon="5.47691">
        <ele>1527.67</ele>
        <time>2011-09-08T10:33:05Z</time>
      </trkpt>
      <trkpt lat="44.85719" lon="5.47681">
        <ele>1530.08</ele>
        <time>2011-09-08T10:32:53Z</time>
      </trkpt>
      <trkpt lat="44.85688" lon="5.47686">
        <ele>1529.11</ele>
        <time>2011-09-08T10:32:46Z</time>
      </trkpt>
      <trkpt lat="44.85684" lon="5.47687">
        <ele>1530.08</ele>
        <time>2011-09-08T10:32:45Z</time>
      </trkpt>
      <trkpt lat="44.8568" lon="5.47689">
        <ele>1530.08</ele>
        <time>2011-09-08T10:32:44Z</time>
      </trkpt>
      <trkpt lat="44.85669" lon="5.47698">
        <ele>1530.56</ele>
        <time>2011-09-08T10:32:41Z</time>
      </trkpt>
      <trkpt lat="44.85665" lon="5.47701">
        <ele>1530.56</ele>
        <time>2011-09-08T10:32:40Z</time>
      </trkpt>
      <trkpt lat="44.85645" lon="5.47712">
        <ele>1530.56</ele>
        <time>2011-09-08T10:32:36Z</time>
      </trkpt>
      <trkpt lat="44.85634" lon="5.47719">
        <ele>1531.04</ele>
        <time>2011-09-08T10:32:34Z</time>
      </trkpt>
      <trkpt lat="44.85629" lon="5.47724">
        <ele>1531.52</ele>
        <time>2011-09-08T10:32:33Z</time>
      </trkpt>
      <trkpt lat="44.8562" lon="5.47735">
        <ele>1532</ele>
        <time>2011-09-08T10:32:31Z</time>
      </trkpt>
      <trkpt lat="44.85616" lon="5.47741">
        <ele>1532.48</ele>
        <time>2011-09-08T10:32:30Z</time>
      </trkpt>
      <trkpt lat="44.85605" lon="5.47751">
        <ele>1532.96</ele>
        <time>2011-09-08T10:32:28Z</time>
      </trkpt>
      <trkpt lat="44.856" lon="5.47756">
        <ele>1532.48</ele>
        <time>2011-09-08T10:32:27Z</time>
      </trkpt>
      <trkpt lat="44.85594" lon="5.47761">
        <ele>1533.92</ele>
        <time>2011-09-08T10:32:26Z</time>
      </trkpt>
      <trkpt lat="44.85583" lon="5.47772">
        <ele>1534.88</ele>
        <time>2011-09-08T10:32:24Z</time>
      </trkpt>
      <trkpt lat="44.85578" lon="5.47778">
        <ele>1534.88</ele>
        <time>2011-09-08T10:32:23Z</time>
      </trkpt>
      <trkpt lat="44.85572" lon="5.47784">
        <ele>1535.36</ele>
        <time>2011-09-08T10:32:22Z</time>
      </trkpt>
      <trkpt lat="44.85566" lon="5.47788">
        <ele>1535.84</ele>
        <time>2011-09-08T10:32:21Z</time>
      </trkpt>
      <trkpt lat="44.8556" lon="5.47791">
        <ele>1536.8</ele>
        <time>2011-09-08T10:32:20Z</time>
      </trkpt>
      <trkpt lat="44.85553" lon="5.4779">
        <ele>1536.8</ele>
        <time>2011-09-08T10:32:19Z</time>
      </trkpt>
      <trkpt lat="44.85547" lon="5.47789">
        <ele>1537.77</ele>
        <time>2011-09-08T10:32:18Z</time>
      </trkpt>
      <trkpt lat="44.85514" lon="5.47788">
        <ele>1538.73</ele>
        <time>2011-09-08T10:32:13Z</time>
      </trkpt>
      <trkpt lat="44.85471" lon="5.47792">
        <ele>1542.57</ele>
        <time>2011-09-08T10:32:06Z</time>
      </trkpt>
      <trkpt lat="44.85465" lon="5.47792">
        <ele>1542.09</ele>
        <time>2011-09-08T10:32:05Z</time>
      </trkpt>
      <trkpt lat="44.85458" lon="5.47793">
        <ele>1542.57</ele>
        <time>2011-09-08T10:32:04Z</time>
      </trkpt>
      <trkpt lat="44.85451" lon="5.47794">
        <ele>1543.53</ele>
        <time>2011-09-08T10:32:03Z</time>
      </trkpt>
      <trkpt lat="44.85444" lon="5.47795">
        <ele>1544.5</ele>
        <time>2011-09-08T10:32:02Z</time>
      </trkpt>
      <trkpt lat="44.85437" lon="5.47798">
        <ele>1544.5</ele>
        <time>2011-09-08T10:32:01Z</time>
      </trkpt>
      <trkpt lat="44.85431" lon="5.47801">
        <ele>1545.46</ele>
        <time>2011-09-08T10:32:00Z</time>
      </trkpt>
      <trkpt lat="44.85426" lon="5.47806">
        <ele>1545.46</ele>
        <time>2011-09-08T10:31:59Z</time>
      </trkpt>
      <trkpt lat="44.85421" lon="5.47813">
        <ele>1546.9</ele>
        <time>2011-09-08T10:31:58Z</time>
      </trkpt>
      <trkpt lat="44.85417" lon="5.4782">
        <ele>1547.38</ele>
        <time>2011-09-08T10:31:57Z</time>
      </trkpt>
      <trkpt lat="44.85412" lon="5.47826">
        <ele>1547.86</ele>
        <time>2011-09-08T10:31:56Z</time>
      </trkpt>
      <trkpt lat="44.85407" lon="5.47831">
        <ele>1547.86</ele>
        <time>2011-09-08T10:31:55Z</time>
      </trkpt>
      <trkpt lat="44.85402" lon="5.47835">
        <ele>1547.86</ele>
        <time>2011-09-08T10:31:54Z</time>
      </trkpt>
      <trkpt lat="44.85369" lon="5.47842">
        <ele>1550.26</ele>
        <time>2011-09-08T10:31:48Z</time>
      </trkpt>
      <trkpt lat="44.8536" lon="5.47842">
        <ele>1550.74</ele>
        <time>2011-09-08T10:31:46Z</time>
      </trkpt>
      <trkpt lat="44.85341" lon="5.47844">
        <ele>1552.19</ele>
        <time>2011-09-08T10:31:42Z</time>
      </trkpt>
      <trkpt lat="44.85336" lon="5.47845">
        <ele>1552.19</ele>
        <time>2011-09-08T10:31:41Z</time>
      </trkpt>
      <trkpt lat="44.85331" lon="5.47846">
        <ele>1553.15</ele>
        <time>2011-09-08T10:31:40Z</time>
      </trkpt>
      <trkpt lat="44.85327" lon="5.47846">
        <ele>1552.67</ele>
        <time>2011-09-08T10:31:39Z</time>
      </trkpt>
      <trkpt lat="44.85322" lon="5.47846">
        <ele>1553.15</ele>
        <time>2011-09-08T10:31:38Z</time>
      </trkpt>
      <trkpt lat="44.85317" lon="5.47845">
        <ele>1554.11</ele>
        <time>2011-09-08T10:31:37Z</time>
      </trkpt>
      <trkpt lat="44.85302" lon="5.47839">
        <ele>1554.59</ele>
        <time>2011-09-08T10:31:34Z</time>
      </trkpt>
      <trkpt lat="44.85298" lon="5.47838">
        <ele>1555.07</ele>
        <time>2011-09-08T10:31:33Z</time>
      </trkpt>
      <trkpt lat="44.85272" lon="5.47831">
        <ele>1556.03</ele>
        <time>2011-09-08T10:31:26Z</time>
      </trkpt>
      <trkpt lat="44.85232" lon="5.47832">
        <ele>1558.43</ele>
        <time>2011-09-08T10:31:14Z</time>
      </trkpt>
      <trkpt lat="44.8523" lon="5.47833">
        <ele>1558.43</ele>
        <time>2011-09-08T10:31:13Z</time>
      </trkpt>
      <trkpt lat="44.85228" lon="5.47834">
        <ele>1557.47</ele>
        <time>2011-09-08T10:31:12Z</time>
      </trkpt>
      <trkpt lat="44.85226" lon="5.47834">
        <ele>1558.43</ele>
        <time>2011-09-08T10:31:11Z</time>
      </trkpt>
      <trkpt lat="44.85225" lon="5.47834">
        <ele>1557.95</ele>
        <time>2011-09-08T10:31:10Z</time>
      </trkpt>
      <trkpt lat="44.8521" lon="5.47838">
        <ele>1556.99</ele>
        <time>2011-09-08T10:31:02Z</time>
      </trkpt>
      <trkpt lat="44.85209" lon="5.47839">
        <ele>1556.51</ele>
        <time>2011-09-08T10:31:01Z</time>
      </trkpt>
      <trkpt lat="44.85207" lon="5.4784">
        <ele>1556.99</ele>
        <time>2011-09-08T10:31:00Z</time>
      </trkpt>
      <trkpt lat="44.85205" lon="5.47841">
        <ele>1556.51</ele>
        <time>2011-09-08T10:30:59Z</time>
      </trkpt>
      <trkpt lat="44.85203" lon="5.47842">
        <ele>1556.03</ele>
        <time>2011-09-08T10:30:58Z</time>
      </trkpt>
      <trkpt lat="44.85202" lon="5.47843">
        <ele>1556.03</ele>
        <time>2011-09-08T10:30:57Z</time>
      </trkpt>
      <trkpt lat="44.85201" lon="5.47843">
        <ele>1555.55</ele>
        <time>2011-09-08T10:30:56Z</time>
      </trkpt>
      <trkpt lat="44.852" lon="5.47844">
        <ele>1556.03</ele>
        <time>2011-09-08T10:30:55Z</time>
      </trkpt>
      <trkpt lat="44.852" lon="5.47844">
        <ele>1552.67</ele>
        <time>2011-09-08T10:30:53Z</time>
      </trkpt>
      <trkpt lat="44.852" lon="5.47844">
        <ele>1556.03</ele>
        <time>2011-09-08T10:30:49Z</time>
      </trkpt>
      <trkpt lat="44.852" lon="5.47844">
        <ele>1549.3</ele>
        <time>2011-09-08T10:30:48Z</time>
      </trkpt>
      <trkpt lat="44.852" lon="5.47844">
        <ele>1559.88</ele>
        <time>2011-09-08T10:30:47Z</time>
      </trkpt>
      <trkpt lat="44.852" lon="5.47844">
        <ele>1555.07</ele>
        <time>2011-09-08T10:30:43Z</time>
      </trkpt>
      <trkpt lat="44.852" lon="5.47843">
        <ele>1554.59</ele>
        <time>2011-09-08T10:30:04Z</time>
      </trkpt>
      <trkpt lat="44.85199" lon="5.47844">
        <ele>1555.55</ele>
        <time>2011-09-08T10:29:20Z</time>
      </trkpt>
      <trkpt lat="44.85199" lon="5.47843">
        <ele>1555.07</ele>
        <time>2011-09-08T10:28:41Z</time>
      </trkpt>
      <trkpt lat="44.85198" lon="5.47842">
        <ele>1555.07</ele>
        <time>2011-09-08T10:27:55Z</time>
      </trkpt>
      <trkpt lat="44.85198" lon="5.47844">
        <ele>1555.55</ele>
        <time>2011-09-08T10:27:08Z</time>
      </trkpt>
      <trkpt lat="44.85197" lon="5.47844">
        <ele>1554.59</ele>
        <time>2011-09-08T10:26:24Z</time>
      </trkpt>
      <trkpt lat="44.85197" lon="5.47845">
        <ele>1554.59</ele>
        <time>2011-09-08T10:25:36Z</time>
      </trkpt>
      <trkpt lat="44.85197" lon="5.47845">
        <ele>1554.59</ele>
        <time>2011-09-08T10:24:49Z</time>
      </trkpt>
      <trkpt lat="44.85197" lon="5.47845">
        <ele>1554.59</ele>
        <time>2011-09-08T10:24:01Z</time>
      </trkpt>
      <trkpt lat="44.85198" lon="5.47844">
        <ele>1554.11</ele>
        <time>2011-09-08T10:23:11Z</time>
      </trkpt>
      <trkpt lat="44.85198" lon="5.47844">
        <ele>1554.59</ele>
        <time>2011-09-08T10:22:26Z</time>
      </trkpt>
      <trkpt lat="44.85199" lon="5.47843">
        <ele>1554.11</ele>
        <time>2011-09-08T10:21:44Z</time>
      </trkpt>
      <trkpt lat="44.85199" lon="5.47842">
        <ele>1554.11</ele>
        <time>2011-09-08T10:21:06Z</time>
      </trkpt>
      <trkpt lat="44.85199" lon="5.47842">
        <ele>1555.07</ele>
        <time>2011-09-08T10:20:43Z</time>
      </trkpt>
      <trkpt lat="44.85193" lon="5.47847">
        <ele>1554.11</ele>
        <time>2011-09-08T10:20:32Z</time>
      </trkpt>
      <trkpt lat="44.8518" lon="5.47855">
        <ele>1552.67</ele>
        <time>2011-09-08T10:20:23Z</time>
      </trkpt>
      <trkpt lat="44.85155" lon="5.47867">
        <ele>1551.22</ele>
        <time>2011-09-08T10:20:11Z</time>
      </trkpt>
      <trkpt lat="44.8512" lon="5.47857">
        <ele>1552.67</ele>
        <time>2011-09-08T10:20:00Z</time>
      </trkpt>
      <trkpt lat="44.85117" lon="5.47855">
        <ele>1548.82</ele>
        <time>2011-09-08T10:19:59Z</time>
      </trkpt>
      <trkpt lat="44.85111" lon="5.47852">
        <ele>1553.15</ele>
        <time>2011-09-08T10:19:57Z</time>
      </trkpt>
      <trkpt lat="44.85108" lon="5.47851">
        <ele>1549.78</ele>
        <time>2011-09-08T10:19:56Z</time>
      </trkpt>
      <trkpt lat="44.85078" lon="5.47838">
        <ele>1554.11</ele>
        <time>2011-09-08T10:19:46Z</time>
      </trkpt>
      <trkpt lat="44.85031" lon="5.47803">
        <ele>1555.55</ele>
        <time>2011-09-08T10:19:30Z</time>
      </trkpt>
      <trkpt lat="44.85029" lon="5.47801">
        <ele>1555.55</ele>
        <time>2011-09-08T10:19:29Z</time>
      </trkpt>
      <trkpt lat="44.85026" lon="5.47799">
        <ele>1555.07</ele>
        <time>2011-09-08T10:19:28Z</time>
      </trkpt>
      <trkpt lat="44.85024" lon="5.47798">
        <ele>1555.55</ele>
        <time>2011-09-08T10:19:27Z</time>
      </trkpt>
      <trkpt lat="44.85013" lon="5.47837">
        <ele>1554.11</ele>
        <time>2011-09-08T10:19:13Z</time>
      </trkpt>
      <trkpt lat="44.84993" lon="5.47893">
        <ele>1553.15</ele>
        <time>2011-09-08T10:19:01Z</time>
      </trkpt>
      <trkpt lat="44.84986" lon="5.47896">
        <ele>1554.59</ele>
        <time>2011-09-08T10:18:59Z</time>
      </trkpt>
      <trkpt lat="44.8494" lon="5.47908">
        <ele>1555.55</ele>
        <time>2011-09-08T10:18:46Z</time>
      </trkpt>
      <trkpt lat="44.8491" lon="5.47912">
        <ele>1556.99</ele>
        <time>2011-09-08T10:18:39Z</time>
      </trkpt>
      <trkpt lat="44.84865" lon="5.47916">
        <ele>1557.95</ele>
        <time>2011-09-08T10:18:26Z</time>
      </trkpt>
      <trkpt lat="44.8485" lon="5.47922">
        <ele>1558.92</ele>
        <time>2011-09-08T10:18:21Z</time>
      </trkpt>
      <trkpt lat="44.84827" lon="5.47943">
        <ele>1558.43</ele>
        <time>2011-09-08T10:18:10Z</time>
      </trkpt>
      <trkpt lat="44.84806" lon="5.47976">
        <ele>1556.99</ele>
        <time>2011-09-08T10:17:58Z</time>
      </trkpt>
      <trkpt lat="44.84776" lon="5.47986">
        <ele>1554.59</ele>
        <time>2011-09-08T10:17:47Z</time>
      </trkpt>
      <trkpt lat="44.8477" lon="5.47985">
        <ele>1557.95</ele>
        <time>2011-09-08T10:17:45Z</time>
      </trkpt>
      <trkpt lat="44.84767" lon="5.47983">
        <ele>1553.63</ele>
        <time>2011-09-08T10:17:44Z</time>
      </trkpt>
      <trkpt lat="44.84741" lon="5.47971">
        <ele>1556.99</ele>
        <time>2011-09-08T10:17:35Z</time>
      </trkpt>
      <trkpt lat="44.84724" lon="5.47966">
        <ele>1560.36</ele>
        <time>2011-09-08T10:17:30Z</time>
      </trkpt>
      <trkpt lat="44.84722" lon="5.47966">
        <ele>1550.26</ele>
        <time>2011-09-08T10:17:29Z</time>
      </trkpt>
      <trkpt lat="44.84699" lon="5.47971">
        <ele>1560.84</ele>
        <time>2011-09-08T10:17:17Z</time>
      </trkpt>
      <trkpt lat="44.84697" lon="5.47972">
        <ele>1570.45</ele>
        <time>2011-09-08T10:17:16Z</time>
      </trkpt>
      <trkpt lat="44.84695" lon="5.47973">
        <ele>1559.88</ele>
        <time>2011-09-08T10:17:15Z</time>
      </trkpt>
      <trkpt lat="44.84692" lon="5.47973">
        <ele>1561.32</ele>
        <time>2011-09-08T10:17:13Z</time>
      </trkpt>
      <trkpt lat="44.8469" lon="5.47973">
        <ele>1563.72</ele>
        <time>2011-09-08T10:17:12Z</time>
      </trkpt>
      <trkpt lat="44.84667" lon="5.47962">
        <ele>1559.4</ele>
        <time>2011-09-08T10:17:02Z</time>
      </trkpt>
      <trkpt lat="44.84664" lon="5.47962">
        <ele>1559.4</ele>
        <time>2011-09-08T10:17:01Z</time>
      </trkpt>
      <trkpt lat="44.84647" lon="5.47973">
        <ele>1557.95</ele>
        <time>2011-09-08T10:16:51Z</time>
      </trkpt>
      <trkpt lat="44.84623" lon="5.48004">
        <ele>1558.43</ele>
        <time>2011-09-08T10:16:41Z</time>
      </trkpt>
      <trkpt lat="44.8462" lon="5.48007">
        <ele>1558.43</ele>
        <time>2011-09-08T10:16:40Z</time>
      </trkpt>
      <trkpt lat="44.84609" lon="5.48012">
        <ele>1558.92</ele>
        <time>2011-09-08T10:16:37Z</time>
      </trkpt>
      <trkpt lat="44.84568" lon="5.4802">
        <ele>1560.84</ele>
        <time>2011-09-08T10:16:25Z</time>
      </trkpt>
      <trkpt lat="44.84556" lon="5.48032">
        <ele>1560.36</ele>
        <time>2011-09-08T10:16:19Z</time>
      </trkpt>
      <trkpt lat="44.84528" lon="5.48048">
        <ele>1559.4</ele>
        <time>2011-09-08T10:16:10Z</time>
      </trkpt>
      <trkpt lat="44.84523" lon="5.4805">
        <ele>1559.4</ele>
        <time>2011-09-08T10:16:09Z</time>
      </trkpt>
      <trkpt lat="44.84485" lon="5.48069">
        <ele>1561.32</ele>
        <time>2011-09-08T10:16:01Z</time>
      </trkpt>
      <trkpt lat="44.84477" lon="5.48075">
        <ele>1561.8</ele>
        <time>2011-09-08T10:15:59Z</time>
      </trkpt>
      <trkpt lat="44.84467" lon="5.48081">
        <ele>1562.28</ele>
        <time>2011-09-08T10:15:56Z</time>
      </trkpt>
      <trkpt lat="44.84443" lon="5.48092">
        <ele>1562.28</ele>
        <time>2011-09-08T10:15:50Z</time>
      </trkpt>
      <trkpt lat="44.84438" lon="5.48095">
        <ele>1562.28</ele>
        <time>2011-09-08T10:15:49Z</time>
      </trkpt>
      <trkpt lat="44.84431" lon="5.48098">
        <ele>1563.24</ele>
        <time>2011-09-08T10:15:48Z</time>
      </trkpt>
      <trkpt lat="44.84425" lon="5.48103">
        <ele>1563.24</ele>
        <time>2011-09-08T10:15:47Z</time>
      </trkpt>
      <trkpt lat="44.8442" lon="5.4811">
        <ele>1563.72</ele>
        <time>2011-09-08T10:15:46Z</time>
      </trkpt>
      <trkpt lat="44.84411" lon="5.48137">
        <ele>1567.09</ele>
        <time>2011-09-08T10:15:43Z</time>
      </trkpt>
      <trkpt lat="44.84407" lon="5.48154">
        <ele>1569.01</ele>
        <time>2011-09-08T10:15:41Z</time>
      </trkpt>
      <trkpt lat="44.84397" lon="5.48187">
        <ele>1569.97</ele>
        <time>2011-09-08T10:15:37Z</time>
      </trkpt>
      <trkpt lat="44.84395" lon="5.48196">
        <ele>1570.93</ele>
        <time>2011-09-08T10:15:36Z</time>
      </trkpt>
      <trkpt lat="44.8439" lon="5.4822">
        <ele>1572.37</ele>
        <time>2011-09-08T10:15:33Z</time>
      </trkpt>
      <trkpt lat="44.84386" lon="5.48236">
        <ele>1573.33</ele>
        <time>2011-09-08T10:15:31Z</time>
      </trkpt>
      <trkpt lat="44.84384" lon="5.48244">
        <ele>1573.33</ele>
        <time>2011-09-08T10:15:30Z</time>
      </trkpt>
      <trkpt lat="44.84382" lon="5.48261">
        <ele>1573.33</ele>
        <time>2011-09-08T10:15:28Z</time>
      </trkpt>
      <trkpt lat="44.84369" lon="5.48327">
        <ele>1577.18</ele>
        <time>2011-09-08T10:15:19Z</time>
      </trkpt>
      <trkpt lat="44.84367" lon="5.48334">
        <ele>1577.18</ele>
        <time>2011-09-08T10:15:18Z</time>
      </trkpt>
      <trkpt lat="44.84365" lon="5.4834">
        <ele>1578.14</ele>
        <time>2011-09-08T10:15:17Z</time>
      </trkpt>
      <trkpt lat="44.84364" lon="5.48346">
        <ele>1579.1</ele>
        <time>2011-09-08T10:15:16Z</time>
      </trkpt>
      <trkpt lat="44.84363" lon="5.48352">
        <ele>1578.62</ele>
        <time>2011-09-08T10:15:15Z</time>
      </trkpt>
      <trkpt lat="44.84362" lon="5.48356">
        <ele>1578.62</ele>
        <time>2011-09-08T10:15:14Z</time>
      </trkpt>
      <trkpt lat="44.84362" lon="5.48361">
        <ele>1579.1</ele>
        <time>2011-09-08T10:15:13Z</time>
      </trkpt>
      <trkpt lat="44.84362" lon="5.48365">
        <ele>1579.1</ele>
        <time>2011-09-08T10:15:12Z</time>
      </trkpt>
      <trkpt lat="44.84362" lon="5.48368">
        <ele>1578.62</ele>
        <time>2011-09-08T10:15:11Z</time>
      </trkpt>
      <trkpt lat="44.84362" lon="5.4837">
        <ele>1579.58</ele>
        <time>2011-09-08T10:15:09Z</time>
      </trkpt>
      <trkpt lat="44.84362" lon="5.48371">
        <ele>1579.58</ele>
        <time>2011-09-08T10:15:08Z</time>
      </trkpt>
      <trkpt lat="44.84362" lon="5.48374">
        <ele>1579.58</ele>
        <time>2011-09-08T10:15:07Z</time>
      </trkpt>
      <trkpt lat="44.84362" lon="5.48376">
        <ele>1579.58</ele>
        <time>2011-09-08T10:15:06Z</time>
      </trkpt>
      <trkpt lat="44.84362" lon="5.4838">
        <ele>1579.58</ele>
        <time>2011-09-08T10:15:05Z</time>
      </trkpt>
      <trkpt lat="44.84362" lon="5.48384">
        <ele>1579.58</ele>
        <time>2011-09-08T10:15:04Z</time>
      </trkpt>
      <trkpt lat="44.84362" lon="5.48388">
        <ele>1580.54</ele>
        <time>2011-09-08T10:15:03Z</time>
      </trkpt>
      <trkpt lat="44.84361" lon="5.48394">
        <ele>1580.54</ele>
        <time>2011-09-08T10:15:02Z</time>
      </trkpt>
      <trkpt lat="44.8436" lon="5.484">
        <ele>1581.03</ele>
        <time>2011-09-08T10:15:01Z</time>
      </trkpt>
      <trkpt lat="44.84351" lon="5.48416">
        <ele>1582.47</ele>
        <time>2011-09-08T10:14:57Z</time>
      </trkpt>
      <trkpt lat="44.84338" lon="5.48418">
        <ele>1583.91</ele>
        <time>2011-09-08T10:14:53Z</time>
      </trkpt>
      <trkpt lat="44.84318" lon="5.48418">
        <ele>1585.35</ele>
        <time>2011-09-08T10:14:50Z</time>
      </trkpt>
      <trkpt lat="44.84311" lon="5.48418">
        <ele>1585.35</ele>
        <time>2011-09-08T10:14:49Z</time>
      </trkpt>
      <trkpt lat="44.84305" lon="5.48416">
        <ele>1586.31</ele>
        <time>2011-09-08T10:14:48Z</time>
      </trkpt>
      <trkpt lat="44.84299" lon="5.48414">
        <ele>1586.31</ele>
        <time>2011-09-08T10:14:47Z</time>
      </trkpt>
      <trkpt lat="44.84287" lon="5.48408">
        <ele>1587.27</ele>
        <time>2011-09-08T10:14:45Z</time>
      </trkpt>
      <trkpt lat="44.8428" lon="5.48404">
        <ele>1588.24</ele>
        <time>2011-09-08T10:14:44Z</time>
      </trkpt>
      <trkpt lat="44.84245" lon="5.48377">
        <ele>1590.64</ele>
        <time>2011-09-08T10:14:38Z</time>
      </trkpt>
      <trkpt lat="44.84238" lon="5.48371">
        <ele>1591.12</ele>
        <time>2011-09-08T10:14:37Z</time>
      </trkpt>
      <trkpt lat="44.84231" lon="5.48368">
        <ele>1591.6</ele>
        <time>2011-09-08T10:14:36Z</time>
      </trkpt>
      <trkpt lat="44.84201" lon="5.48361">
        <ele>1594</ele>
        <time>2011-09-08T10:14:32Z</time>
      </trkpt>
      <trkpt lat="44.84194" lon="5.4836">
        <ele>1594.96</ele>
        <time>2011-09-08T10:14:31Z</time>
      </trkpt>
      <trkpt lat="44.84173" lon="5.48363">
        <ele>1597.85</ele>
        <time>2011-09-08T10:14:28Z</time>
      </trkpt>
      <trkpt lat="44.84166" lon="5.48363">
        <ele>1598.33</ele>
        <time>2011-09-08T10:14:27Z</time>
      </trkpt>
      <trkpt lat="44.8416" lon="5.48362">
        <ele>1599.77</ele>
        <time>2011-09-08T10:14:26Z</time>
      </trkpt>
      <trkpt lat="44.84123" lon="5.48358">
        <ele>1603.62</ele>
        <time>2011-09-08T10:14:21Z</time>
      </trkpt>
      <trkpt lat="44.84116" lon="5.48357">
        <ele>1603.62</ele>
        <time>2011-09-08T10:14:20Z</time>
      </trkpt>
      <trkpt lat="44.84109" lon="5.48356">
        <ele>1604.58</ele>
        <time>2011-09-08T10:14:19Z</time>
      </trkpt>
      <trkpt lat="44.84101" lon="5.48354">
        <ele>1606.02</ele>
        <time>2011-09-08T10:14:18Z</time>
      </trkpt>
      <trkpt lat="44.84094" lon="5.48353">
        <ele>1606.5</ele>
        <time>2011-09-08T10:14:17Z</time>
      </trkpt>
      <trkpt lat="44.84087" lon="5.48352">
        <ele>1606.5</ele>
        <time>2011-09-08T10:14:16Z</time>
      </trkpt>
      <trkpt lat="44.8408" lon="5.48354">
        <ele>1607.46</ele>
        <time>2011-09-08T10:14:15Z</time>
      </trkpt>
      <trkpt lat="44.84073" lon="5.48355">
        <ele>1608.42</ele>
        <time>2011-09-08T10:14:14Z</time>
      </trkpt>
      <trkpt lat="44.84066" lon="5.48355">
        <ele>1608.42</ele>
        <time>2011-09-08T10:14:13Z</time>
      </trkpt>
      <trkpt lat="44.8406" lon="5.48354">
        <ele>1609.86</ele>
        <time>2011-09-08T10:14:12Z</time>
      </trkpt>
      <trkpt lat="44.84054" lon="5.4835">
        <ele>1610.83</ele>
        <time>2011-09-08T10:14:11Z</time>
      </trkpt>
      <trkpt lat="44.84049" lon="5.48345">
        <ele>1612.27</ele>
        <time>2011-09-08T10:14:10Z</time>
      </trkpt>
      <trkpt lat="44.84043" lon="5.48341">
        <ele>1611.79</ele>
        <time>2011-09-08T10:14:09Z</time>
      </trkpt>
      <trkpt lat="44.84037" lon="5.48337">
        <ele>1612.75</ele>
        <time>2011-09-08T10:14:08Z</time>
      </trkpt>
      <trkpt lat="44.84031" lon="5.48334">
        <ele>1613.23</ele>
        <time>2011-09-08T10:14:07Z</time>
      </trkpt>
      <trkpt lat="44.84026" lon="5.48333">
        <ele>1613.23</ele>
        <time>2011-09-08T10:14:06Z</time>
      </trkpt>
      <trkpt lat="44.83981" lon="5.48303">
        <ele>1615.15</ele>
        <time>2011-09-08T10:13:57Z</time>
      </trkpt>
      <trkpt lat="44.83961" lon="5.4829">
        <ele>1616.59</ele>
        <time>2011-09-08T10:13:53Z</time>
      </trkpt>
      <trkpt lat="44.83957" lon="5.48287">
        <ele>1617.07</ele>
        <time>2011-09-08T10:13:52Z</time>
      </trkpt>
      <trkpt lat="44.83944" lon="5.4828">
        <ele>1617.07</ele>
        <time>2011-09-08T10:13:49Z</time>
      </trkpt>
      <trkpt lat="44.83922" lon="5.48263">
        <ele>1618.52</ele>
        <time>2011-09-08T10:13:44Z</time>
      </trkpt>
      <trkpt lat="44.83907" lon="5.48254">
        <ele>1619.48</ele>
        <time>2011-09-08T10:13:40Z</time>
      </trkpt>
      <trkpt lat="44.83864" lon="5.48221">
        <ele>1620.44</ele>
        <time>2011-09-08T10:13:30Z</time>
      </trkpt>
      <trkpt lat="44.8386" lon="5.48218">
        <ele>1619.96</ele>
        <time>2011-09-08T10:13:29Z</time>
      </trkpt>
      <trkpt lat="44.8382" lon="5.48205">
        <ele>1622.36</ele>
        <time>2011-09-08T10:13:19Z</time>
      </trkpt>
      <trkpt lat="44.83759" lon="5.48192">
        <ele>1624.28</ele>
        <time>2011-09-08T10:13:04Z</time>
      </trkpt>
      <trkpt lat="44.83746" lon="5.4819">
        <ele>1624.77</ele>
        <time>2011-09-08T10:12:59Z</time>
      </trkpt>
      <trkpt lat="44.83717" lon="5.48193">
        <ele>1623.32</ele>
        <time>2011-09-08T10:12:47Z</time>
      </trkpt>
      <trkpt lat="44.83685" lon="5.48186">
        <ele>1622.84</ele>
        <time>2011-09-08T10:12:36Z</time>
      </trkpt>
      <trkpt lat="44.8368" lon="5.48184">
        <ele>1626.69</ele>
        <time>2011-09-08T10:12:35Z</time>
      </trkpt>
      <trkpt lat="44.83672" lon="5.4818">
        <ele>1623.32</ele>
        <time>2011-09-08T10:12:33Z</time>
      </trkpt>
      <trkpt lat="44.83661" lon="5.48174">
        <ele>1623.8</ele>
        <time>2011-09-08T10:12:30Z</time>
      </trkpt>
      <trkpt lat="44.83658" lon="5.48172">
        <ele>1627.65</ele>
        <time>2011-09-08T10:12:29Z</time>
      </trkpt>
      <trkpt lat="44.83628" lon="5.48159">
        <ele>1624.28</ele>
        <time>2011-09-08T10:12:22Z</time>
      </trkpt>
      <trkpt lat="44.8358" lon="5.48145">
        <ele>1626.21</ele>
        <time>2011-09-08T10:12:08Z</time>
      </trkpt>
      <trkpt lat="44.83549" lon="5.48141">
        <ele>1626.21</ele>
        <time>2011-09-08T10:11:57Z</time>
      </trkpt>
      <trkpt lat="44.83541" lon="5.48144">
        <ele>1626.21</ele>
        <time>2011-09-08T10:11:55Z</time>
      </trkpt>
      <trkpt lat="44.83537" lon="5.48144">
        <ele>1625.73</ele>
        <time>2011-09-08T10:11:54Z</time>
      </trkpt>
      <trkpt lat="44.83508" lon="5.48149">
        <ele>1627.17</ele>
        <time>2011-09-08T10:11:47Z</time>
      </trkpt>
      <trkpt lat="44.83475" lon="5.4816">
        <ele>1628.61</ele>
        <time>2011-09-08T10:11:36Z</time>
      </trkpt>
      <trkpt lat="44.83445" lon="5.48169">
        <ele>1629.09</ele>
        <time>2011-09-08T10:11:22Z</time>
      </trkpt>
      <trkpt lat="44.83443" lon="5.4817">
        <ele>1628.61</ele>
        <time>2011-09-08T10:11:20Z</time>
      </trkpt>
      <trkpt lat="44.83416" lon="5.48173">
        <ele>1627.65</ele>
        <time>2011-09-08T10:11:06Z</time>
      </trkpt>
      <trkpt lat="44.83388" lon="5.4817">
        <ele>1626.21</ele>
        <time>2011-09-08T10:10:51Z</time>
      </trkpt>
      <trkpt lat="44.83386" lon="5.48172">
        <ele>1627.453125</ele>
      </trkpt>
      <trkpt lat="44.83382" lon="5.48175">
        <ele>1627.3984375</ele>
      </trkpt>
      <trkpt lat="44.83377" lon="5.48178">
        <ele>1627.3515625</ele>
      </trkpt>
      <trkpt lat="44.83374" lon="5.48182">
        <ele>1627.3671875</ele>
      </trkpt>
      <trkpt lat="44.83371" lon="5.48188">
        <ele>1627.4921875</ele>
      </trkpt>
      <trkpt lat="44.83366" lon="5.48196">
        <ele>1627.6289063</ele>
      </trkpt>
      <trkpt lat="44.83359" lon="5.48205">
        <ele>1628.109375</ele>
      </trkpt>
      <trkpt lat="44.83359" lon="5.48206">
        <ele>1628.1367188</ele>
      </trkpt>
      <trkpt lat="44.83354" lon="5.48214">
        <ele>1628.5625</ele>
      </trkpt>
      <trkpt lat="44.83349" lon="5.48223">
        <ele>1628.9453125</ele>
      </trkpt>
      <trkpt lat="44.83348" lon="5.48223">
        <ele>1628.9375</ele>
      </trkpt>
      <trkpt lat="44.83343" lon="5.48231">
        <ele>1629.1679688</ele>
      </trkpt>
      <trkpt lat="44.83342" lon="5.48236">
        <ele>1629.3476563</ele>
      </trkpt>
      <trkpt lat="44.83339" lon="5.48241">
        <ele>1629.5585938</ele>
      </trkpt>
      <trkpt lat="44.83339" lon="5.48241">
        <ele>1629.578125</ele>
      </trkpt>
      <trkpt lat="44.83334" lon="5.48243">
        <ele>1629.6132813</ele>
      </trkpt>
      <trkpt lat="44.83334" lon="5.48243">
        <ele>1629.609375</ele>
      </trkpt>
      <trkpt lat="44.83329" lon="5.48241">
        <ele>1629.4492188</ele>
      </trkpt>
      <trkpt lat="44.83325" lon="5.48236">
        <ele>1629.0390625</ele>
      </trkpt>
      <trkpt lat="44.83324" lon="5.48231">
        <ele>1628.671875</ele>
      </trkpt>
      <trkpt lat="44.83323" lon="5.48224">
        <ele>1628.1484375</ele>
      </trkpt>
      <trkpt lat="44.83322" lon="5.48213">
        <ele>1627.3945313</ele>
      </trkpt>
      <trkpt lat="44.83321" lon="5.48208">
        <ele>1626.9882813</ele>
      </trkpt>
      <trkpt lat="44.83319" lon="5.48198">
        <ele>1626.2890625</ele>
      </trkpt>
      <trkpt lat="44.83316" lon="5.4819">
        <ele>1625.7851563</ele>
      </trkpt>
      <trkpt lat="44.83315" lon="5.48184">
        <ele>1625.3945313</ele>
      </trkpt>
      <trkpt lat="44.83312" lon="5.48179">
        <ele>1624.9804688</ele>
      </trkpt>
      <trkpt lat="44.83307" lon="5.48175">
        <ele>1624.5429688</ele>
      </trkpt>
      <trkpt lat="44.83303" lon="5.48172">
        <ele>1624.0507813</ele>
      </trkpt>
      <trkpt lat="44.833" lon="5.4817">
        <ele>1623.6640625</ele>
      </trkpt>
      <trkpt lat="44.83297" lon="5.48169">
        <ele>1623.34375</ele>
      </trkpt>
      <trkpt lat="44.83297" lon="5.48169">
        <ele>1623.3242188</ele>
      </trkpt>
      <trkpt lat="44.83293" lon="5.48168">
        <ele>1623.1835938</ele>
      </trkpt>
      <trkpt lat="44.83288" lon="5.48169">
        <ele>1623.28125</ele>
      </trkpt>
      <trkpt lat="44.83282" lon="5.4817">
        <ele>1623.3632813</ele>
      </trkpt>
      <trkpt lat="44.83282" lon="5.4817">
        <ele>1623.359375</ele>
      </trkpt>
      <trkpt lat="44.83278" lon="5.4817">
        <ele>1623.3398438</ele>
      </trkpt>
      <trkpt lat="44.83272" lon="5.4817">
        <ele>1623.3398438</ele>
      </trkpt>
      <trkpt lat="44.83271" lon="5.48169">
        <ele>1623.25</ele>
      </trkpt>
      <trkpt lat="44.83268" lon="5.48168">
        <ele>1623.1289063</ele>
      </trkpt>
      <trkpt lat="44.83267" lon="5.48168">
        <ele>1623.15625</ele>
      </trkpt>
      <trkpt lat="44.83262" lon="5.48166">
        <ele>1623.0195313</ele>
      </trkpt>
      <trkpt lat="44.83262" lon="5.48166">
        <ele>1622.9960938</ele>
      </trkpt>
      <trkpt lat="44.83258" lon="5.48163">
        <ele>1622.9023438</ele>
      </trkpt>
      <trkpt lat="44.83252" lon="5.48159">
        <ele>1622.7539063</ele>
      </trkpt>
      <trkpt lat="44.83236" lon="5.48157">
        <ele>1620.92</ele>
        <time>2011-09-08T10:09:00Z</time>
      </trkpt>
      <trkpt lat="44.8321" lon="5.48145">
        <ele>1619.96</ele>
        <time>2011-09-08T10:08:50Z</time>
      </trkpt>
      <trkpt lat="44.83187" lon="5.48121">
        <ele>1618.52</ele>
        <time>2011-09-08T10:08:39Z</time>
      </trkpt>
      <trkpt lat="44.83184" lon="5.48119">
        <ele>1618.52</ele>
        <time>2011-09-08T10:08:38Z</time>
      </trkpt>
      <trkpt lat="44.8318" lon="5.48119">
        <ele>1619.48</ele>
        <time>2011-09-08T10:08:37Z</time>
      </trkpt>
      <trkpt lat="44.83176" lon="5.48118">
        <ele>1618.52</ele>
        <time>2011-09-08T10:08:36Z</time>
      </trkpt>
      <trkpt lat="44.83171" lon="5.48118">
        <ele>1618.52</ele>
        <time>2011-09-08T10:08:35Z</time>
      </trkpt>
      <trkpt lat="44.83157" lon="5.48123">
        <ele>1619.48</ele>
        <time>2011-09-08T10:08:32Z</time>
      </trkpt>
      <trkpt lat="44.83129" lon="5.48149">
        <ele>1619.96</ele>
        <time>2011-09-08T10:08:22Z</time>
      </trkpt>
      <trkpt lat="44.83114" lon="5.48192">
        <ele>1621.88</ele>
        <time>2011-09-08T10:08:12Z</time>
      </trkpt>
      <trkpt lat="44.83105" lon="5.48229">
        <ele>1622.36</ele>
        <time>2011-09-08T10:08:00Z</time>
      </trkpt>
      <trkpt lat="44.83096" lon="5.48266">
        <ele>1621.4</ele>
        <time>2011-09-08T10:07:45Z</time>
      </trkpt>
      <trkpt lat="44.83086" lon="5.48292">
        <ele>1619.48</ele>
        <time>2011-09-08T10:07:31Z</time>
      </trkpt>
      <trkpt lat="44.8308" lon="5.48318">
        <ele>1616.11</ele>
        <time>2011-09-08T10:07:18Z</time>
      </trkpt>
      <trkpt lat="44.83072" lon="5.48347">
        <ele>1614.19</ele>
        <time>2011-09-08T10:07:06Z</time>
      </trkpt>
      <trkpt lat="44.83059" lon="5.48394">
        <ele>1612.27</ele>
        <time>2011-09-08T10:06:55Z</time>
      </trkpt>
      <trkpt lat="44.83057" lon="5.484">
        <ele>1612.27</ele>
        <time>2011-09-08T10:06:54Z</time>
      </trkpt>
      <trkpt lat="44.83056" lon="5.48407">
        <ele>1612.27</ele>
        <time>2011-09-08T10:06:53Z</time>
      </trkpt>
      <trkpt lat="44.83055" lon="5.48415">
        <ele>1612.75</ele>
        <time>2011-09-08T10:06:52Z</time>
      </trkpt>
      <trkpt lat="44.83055" lon="5.48424">
        <ele>1612.27</ele>
        <time>2011-09-08T10:06:51Z</time>
      </trkpt>
      <trkpt lat="44.83053" lon="5.48433">
        <ele>1612.75</ele>
        <time>2011-09-08T10:06:50Z</time>
      </trkpt>
      <trkpt lat="44.83051" lon="5.48443">
        <ele>1613.71</ele>
        <time>2011-09-08T10:06:49Z</time>
      </trkpt>
      <trkpt lat="44.83049" lon="5.48452">
        <ele>1613.23</ele>
        <time>2011-09-08T10:06:48Z</time>
      </trkpt>
      <trkpt lat="44.83046" lon="5.48462">
        <ele>1613.23</ele>
        <time>2011-09-08T10:06:47Z</time>
      </trkpt>
      <trkpt lat="44.83046" lon="5.48473">
        <ele>1614.67</ele>
        <time>2011-09-08T10:06:46Z</time>
      </trkpt>
      <trkpt lat="44.83044" lon="5.48483">
        <ele>1615.15</ele>
        <time>2011-09-08T10:06:45Z</time>
      </trkpt>
      <trkpt lat="44.83042" lon="5.48492">
        <ele>1615.63</ele>
        <time>2011-09-08T10:06:44Z</time>
      </trkpt>
      <trkpt lat="44.83039" lon="5.48499">
        <ele>1616.11</ele>
        <time>2011-09-08T10:06:43Z</time>
      </trkpt>
      <trkpt lat="44.83036" lon="5.48504">
        <ele>1616.59</ele>
        <time>2011-09-08T10:06:42Z</time>
      </trkpt>
      <trkpt lat="44.83015" lon="5.48521">
        <ele>1619.96</ele>
        <time>2011-09-08T10:06:36Z</time>
      </trkpt>
      <trkpt lat="44.82991" lon="5.48549">
        <ele>1619.96</ele>
        <time>2011-09-08T10:06:26Z</time>
      </trkpt>
      <trkpt lat="44.82979" lon="5.48597">
        <ele>1620.44</ele>
        <time>2011-09-08T10:06:14Z</time>
      </trkpt>
      <trkpt lat="44.82951" lon="5.48616">
        <ele>1621.4</ele>
        <time>2011-09-08T10:06:01Z</time>
      </trkpt>
      <trkpt lat="44.82949" lon="5.48617">
        <ele>1621.4</ele>
        <time>2011-09-08T10:06:00Z</time>
      </trkpt>
      <trkpt lat="44.82947" lon="5.4862">
        <ele>1621.4</ele>
        <time>2011-09-08T10:05:58Z</time>
      </trkpt>
      <trkpt lat="44.8294" lon="5.48624">
        <ele>1620.92</ele>
        <time>2011-09-08T10:05:44Z</time>
      </trkpt>
      <trkpt lat="44.82939" lon="5.48625">
        <ele>1619.96</ele>
        <time>2011-09-08T10:05:43Z</time>
      </trkpt>
      <trkpt lat="44.82938" lon="5.48626">
        <ele>1619.96</ele>
        <time>2011-09-08T10:05:42Z</time>
      </trkpt>
      <trkpt lat="44.82937" lon="5.48627">
        <ele>1619.96</ele>
        <time>2011-09-08T10:05:41Z</time>
      </trkpt>
      <trkpt lat="44.82937" lon="5.48628">
        <ele>1619.96</ele>
        <time>2011-09-08T10:05:40Z</time>
      </trkpt>
      <trkpt lat="44.82929" lon="5.48634">
        <ele>1618.04</ele>
        <time>2011-09-08T10:05:28Z</time>
      </trkpt>
      <trkpt lat="44.82928" lon="5.48634">
        <ele>1618.04</ele>
        <time>2011-09-08T10:05:27Z</time>
      </trkpt>
      <trkpt lat="44.82916" lon="5.48635">
        <ele>1615.15</ele>
        <time>2011-09-08T10:05:15Z</time>
      </trkpt>
      <trkpt lat="44.82915" lon="5.48635">
        <ele>1615.15</ele>
        <time>2011-09-08T10:05:14Z</time>
      </trkpt>
      <trkpt lat="44.82913" lon="5.48635">
        <ele>1615.63</ele>
        <time>2011-09-08T10:05:13Z</time>
      </trkpt>
      <trkpt lat="44.82911" lon="5.48636">
        <ele>1614.67</ele>
        <time>2011-09-08T10:05:12Z</time>
      </trkpt>
      <trkpt lat="44.8291" lon="5.48636">
        <ele>1614.67</ele>
        <time>2011-09-08T10:05:11Z</time>
      </trkpt>
      <trkpt lat="44.82905" lon="5.48637">
        <ele>1613.71</ele>
        <time>2011-09-08T10:05:04Z</time>
      </trkpt>
      <trkpt lat="44.82902" lon="5.48637">
        <ele>1613.23</ele>
        <time>2011-09-08T10:04:50Z</time>
      </trkpt>
      <trkpt lat="44.82898" lon="5.48636">
        <ele>1612.75</ele>
        <time>2011-09-08T10:04:37Z</time>
      </trkpt>
      <trkpt lat="44.82896" lon="5.48635">
        <ele>1612.27</ele>
        <time>2011-09-08T10:04:36Z</time>
      </trkpt>
      <trkpt lat="44.82895" lon="5.48635">
        <ele>1612.75</ele>
        <time>2011-09-08T10:04:35Z</time>
      </trkpt>
      <trkpt lat="44.82881" lon="5.48638">
        <ele>1609.86</ele>
        <time>2011-09-08T10:04:25Z</time>
      </trkpt>
      <trkpt lat="44.82861" lon="5.48643">
        <ele>1606.98</ele>
        <time>2011-09-08T10:04:14Z</time>
      </trkpt>
      <trkpt lat="44.82818" lon="5.48656">
        <ele>1609.38</ele>
        <time>2011-09-08T10:04:02Z</time>
      </trkpt>
      <trkpt lat="44.82776" lon="5.48644">
        <ele>1609.86</ele>
        <time>2011-09-08T10:03:48Z</time>
      </trkpt>
      <trkpt lat="44.82752" lon="5.48606">
        <ele>1609.38</ele>
        <time>2011-09-08T10:03:34Z</time>
      </trkpt>
      <trkpt lat="44.82751" lon="5.48603">
        <ele>1609.38</ele>
        <time>2011-09-08T10:03:33Z</time>
      </trkpt>
      <trkpt lat="44.8275" lon="5.486">
        <ele>1609.38</ele>
        <time>2011-09-08T10:03:32Z</time>
      </trkpt>
      <trkpt lat="44.82748" lon="5.48598">
        <ele>1609.38</ele>
        <time>2011-09-08T10:03:31Z</time>
      </trkpt>
      <trkpt lat="44.82747" lon="5.48596">
        <ele>1609.38</ele>
        <time>2011-09-08T10:03:30Z</time>
      </trkpt>
      <trkpt lat="44.82744" lon="5.4858">
        <ele>1608.42</ele>
        <time>2011-09-08T10:03:24Z</time>
      </trkpt>
      <trkpt lat="44.82738" lon="5.48535">
        <ele>1606.98</ele>
        <time>2011-09-08T10:03:07Z</time>
      </trkpt>
      <trkpt lat="44.82731" lon="5.48501">
        <ele>1605.54</ele>
        <time>2011-09-08T10:02:55Z</time>
      </trkpt>
      <trkpt lat="44.82725" lon="5.48457">
        <ele>1604.58</ele>
        <time>2011-09-08T10:02:40Z</time>
      </trkpt>
      <trkpt lat="44.82718" lon="5.4841">
        <ele>1603.14</ele>
        <time>2011-09-08T10:02:25Z</time>
      </trkpt>
      <trkpt lat="44.8271" lon="5.48369">
        <ele>1601.69</ele>
        <time>2011-09-08T10:02:11Z</time>
      </trkpt>
      <trkpt lat="44.8271" lon="5.48366">
        <ele>1623.896</ele>
        <time>2011-06-03T09:51:35Z</time>
      </trkpt>
      <trkpt lat="44.82707" lon="5.48356">
        <ele>1625.675</ele>
        <time>2011-06-03T09:51:31Z</time>
      </trkpt>
      <trkpt lat="44.82706" lon="5.48351">
        <ele>1625.628</ele>
        <time>2011-06-03T09:51:29Z</time>
      </trkpt>
      <trkpt lat="44.82701" lon="5.48333">
        <ele>1624.47</ele>
        <time>2011-06-03T09:51:21Z</time>
      </trkpt>
      <trkpt lat="44.82694" lon="5.48253">
        <ele>1623.992</ele>
        <time>2011-06-03T09:51:14Z</time>
      </trkpt>
      <trkpt lat="44.82702" lon="5.48243">
        <ele>1624.46</ele>
        <time>2011-06-03T09:51:10Z</time>
      </trkpt>
      <trkpt lat="44.82713" lon="5.48228">
        <ele>1625.266</ele>
        <time>2011-06-03T09:51:04Z</time>
      </trkpt>
      <trkpt lat="44.82715" lon="5.48225">
        <ele>1625.14</ele>
        <time>2011-06-03T09:51:03Z</time>
      </trkpt>
      <trkpt lat="44.8272" lon="5.48216">
        <ele>1625.807</ele>
        <time>2011-06-03T09:50:58Z</time>
      </trkpt>
      <trkpt lat="44.82722" lon="5.48213">
        <ele>1627.138</ele>
        <time>2011-06-03T09:50:40Z</time>
      </trkpt>
      <trkpt lat="44.82723" lon="5.48211">
        <ele>1626.958</ele>
        <time>2011-06-03T09:50:37Z</time>
      </trkpt>
      <trkpt lat="44.82731" lon="5.48196">
        <ele>1626.349</ele>
        <time>2011-06-03T09:50:28Z</time>
      </trkpt>
      <trkpt lat="44.82733" lon="5.48192">
        <ele>1626.526</ele>
        <time>2011-06-03T09:50:25Z</time>
      </trkpt>
      <trkpt lat="44.82735" lon="5.48188">
        <ele>1626.924</ele>
        <time>2011-06-03T09:50:23Z</time>
      </trkpt>
      <trkpt lat="44.8274" lon="5.48178">
        <ele>1627.695</ele>
        <time>2011-06-03T09:50:20Z</time>
      </trkpt>
      <trkpt lat="44.82749" lon="5.48161">
        <ele>1629.112</ele>
        <time>2011-06-03T09:50:16Z</time>
      </trkpt>
      <trkpt lat="44.82752" lon="5.48157">
        <ele>1629.349</ele>
        <time>2011-06-03T09:50:15Z</time>
      </trkpt>
      <trkpt lat="44.82752" lon="5.4816">
        <ele>1604.1</ele>
        <time>2011-09-08T10:01:09Z</time>
      </trkpt>
      <trkpt lat="44.82758" lon="5.48144">
        <ele>1605.54</ele>
        <time>2011-09-08T10:01:06Z</time>
      </trkpt>
      <trkpt lat="44.82762" lon="5.48141">
        <ele>1606.02</ele>
        <time>2011-09-08T10:01:05Z</time>
      </trkpt>
      <trkpt lat="44.82774" lon="5.48121">
        <ele>1608.9</ele>
        <time>2011-09-08T10:01:01Z</time>
      </trkpt>
      <trkpt lat="44.82776" lon="5.48118">
        <ele>1608.9</ele>
        <time>2011-09-08T10:01:00Z</time>
      </trkpt>
      <trkpt lat="44.8279" lon="5.4811">
        <ele>1612.75</ele>
        <time>2011-09-08T10:00:55Z</time>
      </trkpt>
      <trkpt lat="44.82805" lon="5.48113">
        <ele>1614.67</ele>
        <time>2011-09-08T10:00:31Z</time>
      </trkpt>
      <trkpt lat="44.82841" lon="5.48084">
        <ele>1613.71</ele>
        <time>2011-09-08T10:00:16Z</time>
      </trkpt>
      <trkpt lat="44.8287" lon="5.48068">
        <ele>1613.23</ele>
        <time>2011-09-08T10:00:06Z</time>
      </trkpt>
      <trkpt lat="44.82874" lon="5.48066">
        <ele>1612.27</ele>
        <time>2011-09-08T10:00:05Z</time>
      </trkpt>
      <trkpt lat="44.82879" lon="5.48064">
        <ele>1611.79</ele>
        <time>2011-09-08T10:00:04Z</time>
      </trkpt>
      <trkpt lat="44.82883" lon="5.48062">
        <ele>1611.79</ele>
        <time>2011-09-08T10:00:03Z</time>
      </trkpt>
      <trkpt lat="44.82887" lon="5.48059">
        <ele>1611.79</ele>
        <time>2011-09-08T10:00:02Z</time>
      </trkpt>
      <trkpt lat="44.82913" lon="5.48023">
        <ele>1612.75</ele>
        <time>2011-09-08T09:59:51Z</time>
      </trkpt>
      <trkpt lat="44.82927" lon="5.47994">
        <ele>1613.23</ele>
        <time>2011-09-08T09:59:42Z</time>
      </trkpt>
      <trkpt lat="44.82926" lon="5.47955">
        <ele>1616.59</ele>
        <time>2011-09-08T09:59:32Z</time>
      </trkpt>
      <trkpt lat="44.82925" lon="5.47953">
        <ele>1617.07</ele>
        <time>2011-09-08T09:59:02Z</time>
      </trkpt>
      <trkpt lat="44.82925" lon="5.47953">
        <ele>1616.11</ele>
        <time>2011-09-08T09:59:00Z</time>
      </trkpt>
      <trkpt lat="44.82925" lon="5.47953">
        <ele>1610.83</ele>
        <time>2011-09-08T09:58:59Z</time>
      </trkpt>
      <trkpt lat="44.82925" lon="5.47953">
        <ele>1618.52</ele>
        <time>2011-09-08T09:58:55Z</time>
      </trkpt>
      <trkpt lat="44.82925" lon="5.47953">
        <ele>1606.5</ele>
        <time>2011-09-08T09:58:54Z</time>
      </trkpt>
      <trkpt lat="44.82925" lon="5.47953">
        <ele>1616.59</ele>
        <time>2011-09-08T09:58:51Z</time>
      </trkpt>
      <trkpt lat="44.82924" lon="5.47952">
        <ele>1617.07</ele>
        <time>2011-09-08T09:58:50Z</time>
      </trkpt>
      <trkpt lat="44.82923" lon="5.4795">
        <ele>1616.59</ele>
        <time>2011-09-08T09:58:49Z</time>
      </trkpt>
      <trkpt lat="44.82922" lon="5.47948">
        <ele>1617.07</ele>
        <time>2011-09-08T09:58:48Z</time>
      </trkpt>
      <trkpt lat="44.82918" lon="5.47915">
        <ele>1617.56</ele>
        <time>2011-09-08T09:58:36Z</time>
      </trkpt>
      <trkpt lat="44.82918" lon="5.47912">
        <ele>1618.04</ele>
        <time>2011-09-08T09:58:35Z</time>
      </trkpt>
      <trkpt lat="44.82916" lon="5.47904">
        <ele>1618.52</ele>
        <time>2011-09-08T09:58:29Z</time>
      </trkpt>
      <trkpt lat="44.82916" lon="5.47903">
        <ele>1618.52</ele>
        <time>2011-09-08T09:58:28Z</time>
      </trkpt>
      <trkpt lat="44.82915" lon="5.47899">
        <ele>1618.52</ele>
        <time>2011-09-08T09:58:23Z</time>
      </trkpt>
      <trkpt lat="44.82916" lon="5.47898">
        <ele>1619</ele>
        <time>2011-09-08T09:58:22Z</time>
      </trkpt>
      <trkpt lat="44.82915" lon="5.47892">
        <ele>1619</ele>
        <time>2011-09-08T09:58:14Z</time>
      </trkpt>
      <trkpt lat="44.82916" lon="5.47889">
        <ele>1619</ele>
        <time>2011-09-08T09:58:13Z</time>
      </trkpt>
      <trkpt lat="44.82922" lon="5.4786">
        <ele>1618.52</ele>
        <time>2011-09-08T09:58:02Z</time>
      </trkpt>
      <trkpt lat="44.82922" lon="5.47831">
        <ele>1617.07</ele>
        <time>2011-09-08T09:57:52Z</time>
      </trkpt>
      <trkpt lat="44.82921" lon="5.47828">
        <ele>1617.07</ele>
        <time>2011-09-08T09:57:51Z</time>
      </trkpt>
      <trkpt lat="44.82921" lon="5.47824">
        <ele>1617.07</ele>
        <time>2011-09-08T09:57:50Z</time>
      </trkpt>
      <trkpt lat="44.8292" lon="5.47821">
        <ele>1617.07</ele>
        <time>2011-09-08T09:57:49Z</time>
      </trkpt>
      <trkpt lat="44.8292" lon="5.47818">
        <ele>1616.59</ele>
        <time>2011-09-08T09:57:48Z</time>
      </trkpt>
      <trkpt lat="44.8292" lon="5.47814">
        <ele>1617.07</ele>
        <time>2011-09-08T09:57:47Z</time>
      </trkpt>
      <trkpt lat="44.8292" lon="5.4781">
        <ele>1617.56</ele>
        <time>2011-09-08T09:57:46Z</time>
      </trkpt>
      <trkpt lat="44.82921" lon="5.47806">
        <ele>1617.56</ele>
        <time>2011-09-08T09:57:45Z</time>
      </trkpt>
      <trkpt lat="44.82921" lon="5.47801">
        <ele>1618.04</ele>
        <time>2011-09-08T09:57:44Z</time>
      </trkpt>
      <trkpt lat="44.82921" lon="5.47796">
        <ele>1618.04</ele>
        <time>2011-09-08T09:57:43Z</time>
      </trkpt>
      <trkpt lat="44.82922" lon="5.47792">
        <ele>1619</ele>
        <time>2011-09-08T09:57:42Z</time>
      </trkpt>
      <trkpt lat="44.82922" lon="5.47786">
        <ele>1618.04</ele>
        <time>2011-09-08T09:57:41Z</time>
      </trkpt>
      <trkpt lat="44.82923" lon="5.47781">
        <ele>1618.52</ele>
        <time>2011-09-08T09:57:40Z</time>
      </trkpt>
      <trkpt lat="44.82923" lon="5.47774">
        <ele>1619.48</ele>
        <time>2011-09-08T09:57:39Z</time>
      </trkpt>
      <trkpt lat="44.82924" lon="5.47732">
        <ele>1619.48</ele>
        <time>2011-09-08T09:57:30Z</time>
      </trkpt>
      <trkpt lat="44.82929" lon="5.4772">
        <ele>1620.44</ele>
        <time>2011-09-08T09:57:28Z</time>
      </trkpt>
      <trkpt lat="44.8293" lon="5.47713">
        <ele>1620.92</ele>
        <time>2011-09-08T09:57:27Z</time>
      </trkpt>
      <trkpt lat="44.82937" lon="5.47698">
        <ele>1622.36</ele>
        <time>2011-09-08T09:57:24Z</time>
      </trkpt>
      <trkpt lat="44.82938" lon="5.47693">
        <ele>1621.88</ele>
        <time>2011-09-08T09:57:23Z</time>
      </trkpt>
      <trkpt lat="44.82939" lon="5.47687">
        <ele>1622.36</ele>
        <time>2011-09-08T09:57:22Z</time>
      </trkpt>
      <trkpt lat="44.82945" lon="5.4765">
        <ele>1623.8</ele>
        <time>2011-09-08T09:57:17Z</time>
      </trkpt>
      <trkpt lat="44.82948" lon="5.47633">
        <ele>1624.28</ele>
        <time>2011-09-08T09:57:15Z</time>
      </trkpt>
      <trkpt lat="44.82949" lon="5.47625">
        <ele>1624.77</ele>
        <time>2011-09-08T09:57:14Z</time>
      </trkpt>
      <trkpt lat="44.8295" lon="5.47616">
        <ele>1626.21</ele>
        <time>2011-09-08T09:57:13Z</time>
      </trkpt>
      <trkpt lat="44.82954" lon="5.47597">
        <ele>1628.61</ele>
        <time>2011-09-08T09:57:11Z</time>
      </trkpt>
      <trkpt lat="44.8296" lon="5.47577">
        <ele>1632.46</ele>
        <time>2011-09-08T09:57:09Z</time>
      </trkpt>
      <trkpt lat="44.82967" lon="5.47549">
        <ele>1637.74</ele>
        <time>2011-09-08T09:57:06Z</time>
      </trkpt>
      <trkpt lat="44.82972" lon="5.47531">
        <ele>1640.15</ele>
        <time>2011-09-08T09:57:04Z</time>
      </trkpt>
      <trkpt lat="44.82973" lon="5.47523">
        <ele>1640.63</ele>
        <time>2011-09-08T09:57:03Z</time>
      </trkpt>
      <trkpt lat="44.82974" lon="5.47515">
        <ele>1641.11</ele>
        <time>2011-09-08T09:57:02Z</time>
      </trkpt>
      <trkpt lat="44.82973" lon="5.47507">
        <ele>1642.07</ele>
        <time>2011-09-08T09:57:01Z</time>
      </trkpt>
      <trkpt lat="44.82972" lon="5.47499">
        <ele>1642.55</ele>
        <time>2011-09-08T09:57:00Z</time>
      </trkpt>
      <trkpt lat="44.8297" lon="5.47492">
        <ele>1643.03</ele>
        <time>2011-09-08T09:56:59Z</time>
      </trkpt>
      <trkpt lat="44.82971" lon="5.47486">
        <ele>1643.03</ele>
        <time>2011-09-08T09:56:58Z</time>
      </trkpt>
      <trkpt lat="44.82974" lon="5.47478">
        <ele>1644.47</ele>
        <time>2011-09-08T09:56:57Z</time>
      </trkpt>
      <trkpt lat="44.82975" lon="5.4747">
        <ele>1645.91</ele>
        <time>2011-09-08T09:56:56Z</time>
      </trkpt>
      <trkpt lat="44.82975" lon="5.4746">
        <ele>1647.36</ele>
        <time>2011-09-08T09:56:55Z</time>
      </trkpt>
      <trkpt lat="44.8297" lon="5.47428">
        <ele>1649.76</ele>
        <time>2011-09-08T09:56:52Z</time>
      </trkpt>
      <trkpt lat="44.82969" lon="5.47419">
        <ele>1649.76</ele>
        <time>2011-09-08T09:56:51Z</time>
      </trkpt>
      <trkpt lat="44.82968" lon="5.47411">
        <ele>1650.72</ele>
        <time>2011-09-08T09:56:50Z</time>
      </trkpt>
      <trkpt lat="44.82968" lon="5.47395">
        <ele>1651.68</ele>
        <time>2011-09-08T09:56:48Z</time>
      </trkpt>
      <trkpt lat="44.82968" lon="5.47388">
        <ele>1652.16</ele>
        <time>2011-09-08T09:56:47Z</time>
      </trkpt>
      <trkpt lat="44.82964" lon="5.47365">
        <ele>1652.64</ele>
        <time>2011-09-08T09:56:44Z</time>
      </trkpt>
      <trkpt lat="44.82959" lon="5.47342">
        <ele>1654.57</ele>
        <time>2011-09-08T09:56:41Z</time>
      </trkpt>
      <trkpt lat="44.82958" lon="5.47334">
        <ele>1654.57</ele>
        <time>2011-09-08T09:56:40Z</time>
      </trkpt>
      <trkpt lat="44.82957" lon="5.47311">
        <ele>1655.53</ele>
        <time>2011-09-08T09:56:37Z</time>
      </trkpt>
      <trkpt lat="44.82958" lon="5.47303">
        <ele>1656.01</ele>
        <time>2011-09-08T09:56:36Z</time>
      </trkpt>
      <trkpt lat="44.82959" lon="5.47297">
        <ele>1656.49</ele>
        <time>2011-09-08T09:56:35Z</time>
      </trkpt>
      <trkpt lat="44.82967" lon="5.47272">
        <ele>1657.93</ele>
        <time>2011-09-08T09:56:31Z</time>
      </trkpt>
      <trkpt lat="44.8297" lon="5.47267">
        <ele>1657.93</ele>
        <time>2011-09-08T09:56:30Z</time>
      </trkpt>
      <trkpt lat="44.82973" lon="5.47262">
        <ele>1658.41</ele>
        <time>2011-09-08T09:56:29Z</time>
      </trkpt>
      <trkpt lat="44.82978" lon="5.4725">
        <ele>1658.89</ele>
        <time>2011-09-08T09:56:27Z</time>
      </trkpt>
      <trkpt lat="44.82998" lon="5.47205">
        <ele>1661.78</ele>
        <time>2011-09-08T09:56:19Z</time>
      </trkpt>
      <trkpt lat="44.83014" lon="5.47156">
        <ele>1662.26</ele>
        <time>2011-09-08T09:56:05Z</time>
      </trkpt>
      <trkpt lat="44.83015" lon="5.47145">
        <ele>1662.74</ele>
        <time>2011-09-08T09:56:01Z</time>
      </trkpt>
      <trkpt lat="44.83015" lon="5.47144">
        <ele>1661.78</ele>
        <time>2011-09-08T09:55:46Z</time>
      </trkpt>
      <trkpt lat="44.83015" lon="5.47144">
        <ele>1663.22</ele>
        <time>2011-09-08T09:55:32Z</time>
      </trkpt>
      <trkpt lat="44.83016" lon="5.47144">
        <ele>1663.22</ele>
        <time>2011-09-08T09:55:14Z</time>
      </trkpt>
      <trkpt lat="44.83016" lon="5.47144">
        <ele>1659.85</ele>
        <time>2011-09-08T09:55:13Z</time>
      </trkpt>
      <trkpt lat="44.83016" lon="5.47144">
        <ele>1662.74</ele>
        <time>2011-09-08T09:55:02Z</time>
      </trkpt>
      <trkpt lat="44.83016" lon="5.47144">
        <ele>1662.74</ele>
        <time>2011-09-08T09:54:48Z</time>
      </trkpt>
      <trkpt lat="44.83016" lon="5.47144">
        <ele>1663.22</ele>
        <time>2011-09-08T09:54:43Z</time>
      </trkpt>
      <trkpt lat="44.83008" lon="5.47182">
        <ele>1662.26</ele>
        <time>2011-09-08T09:53:08Z</time>
      </trkpt>
      <trkpt lat="44.83007" lon="5.4718">
        <ele>1662.74</ele>
        <time>2011-09-08T09:52:56Z</time>
      </trkpt>
      <trkpt lat="44.83007" lon="5.4718">
        <ele>1662.26</ele>
        <time>2011-09-08T09:52:39Z</time>
      </trkpt>
      <trkpt lat="44.83007" lon="5.4718">
        <ele>1661.78</ele>
        <time>2011-09-08T09:52:15Z</time>
      </trkpt>
      <trkpt lat="44.83007" lon="5.4718">
        <ele>1661.78</ele>
        <time>2011-09-08T09:51:55Z</time>
      </trkpt>
      <trkpt lat="44.83007" lon="5.47179">
        <ele>1661.3</ele>
        <time>2011-09-08T09:51:41Z</time>
      </trkpt>
      <trkpt lat="44.83014" lon="5.47154">
        <ele>1661.78</ele>
        <time>2011-09-08T09:51:30Z</time>
      </trkpt>
      <trkpt lat="44.83012" lon="5.47115">
        <ele>1660.33</ele>
        <time>2011-09-08T09:51:20Z</time>
      </trkpt>
      <trkpt lat="44.83007" lon="5.47074">
        <ele>1663.7</ele>
        <time>2011-09-08T09:51:11Z</time>
      </trkpt>
      <trkpt lat="44.83012" lon="5.47048">
        <ele>1664.18</ele>
        <time>2011-09-08T09:50:58Z</time>
      </trkpt>
      <trkpt lat="44.83022" lon="5.47016">
        <ele>1662.74</ele>
        <time>2011-09-08T09:50:44Z</time>
      </trkpt>
      <trkpt lat="44.83035" lon="5.4699">
        <ele>1660.81</ele>
        <time>2011-09-08T09:50:30Z</time>
      </trkpt>
      <trkpt lat="44.83035" lon="5.46953">
        <ele>1660.81</ele>
        <time>2011-09-08T09:50:17Z</time>
      </trkpt>
      <trkpt lat="44.83045" lon="5.46925">
        <ele>1659.85</ele>
        <time>2011-09-08T09:50:03Z</time>
      </trkpt>
      <trkpt lat="44.83059" lon="5.46899">
        <ele>1658.41</ele>
        <time>2011-09-08T09:49:49Z</time>
      </trkpt>
      <trkpt lat="44.8307" lon="5.46872">
        <ele>1657.45</ele>
        <time>2011-09-08T09:49:34Z</time>
      </trkpt>
      <trkpt lat="44.83071" lon="5.46868">
        <ele>1657.45</ele>
        <time>2011-09-08T09:49:32Z</time>
      </trkpt>
      <trkpt lat="44.83077" lon="5.4685">
        <ele>1655.53</ele>
        <time>2011-09-08T09:49:19Z</time>
      </trkpt>
      <trkpt lat="44.83078" lon="5.46849">
        <ele>1655.53</ele>
        <time>2011-09-08T09:49:18Z</time>
      </trkpt>
      <trkpt lat="44.83082" lon="5.46834">
        <ele>1654.09</ele>
        <time>2011-09-08T09:49:07Z</time>
      </trkpt>
      <trkpt lat="44.83082" lon="5.46833">
        <ele>1654.09</ele>
        <time>2011-09-08T09:49:06Z</time>
      </trkpt>
      <trkpt lat="44.83083" lon="5.46832">
        <ele>1653.6</ele>
        <time>2011-09-08T09:49:05Z</time>
      </trkpt>
      <trkpt lat="44.83083" lon="5.46831">
        <ele>1654.09</ele>
        <time>2011-09-08T09:49:04Z</time>
      </trkpt>
      <trkpt lat="44.83084" lon="5.46829">
        <ele>1654.09</ele>
        <time>2011-09-08T09:49:03Z</time>
      </trkpt>
      <trkpt lat="44.83084" lon="5.46828">
        <ele>1653.6</ele>
        <time>2011-09-08T09:49:02Z</time>
      </trkpt>
      <trkpt lat="44.83088" lon="5.46813">
        <ele>1652.64</ele>
        <time>2011-09-08T09:48:52Z</time>
      </trkpt>
      <trkpt lat="44.83088" lon="5.46811">
        <ele>1652.64</ele>
        <time>2011-09-08T09:48:51Z</time>
      </trkpt>
      <trkpt lat="44.83088" lon="5.4681">
        <ele>1652.64</ele>
        <time>2011-09-08T09:48:50Z</time>
      </trkpt>
      <trkpt lat="44.83091" lon="5.468">
        <ele>1651.2</ele>
        <time>2011-09-08T09:48:44Z</time>
      </trkpt>
      <trkpt lat="44.83092" lon="5.46799">
        <ele>1650.24</ele>
        <time>2011-09-08T09:48:43Z</time>
      </trkpt>
      <trkpt lat="44.83093" lon="5.46797">
        <ele>1650.72</ele>
        <time>2011-09-08T09:48:42Z</time>
      </trkpt>
      <trkpt lat="44.83093" lon="5.46795">
        <ele>1650.24</ele>
        <time>2011-09-08T09:48:41Z</time>
      </trkpt>
      <trkpt lat="44.83093" lon="5.46794">
        <ele>1650.24</ele>
        <time>2011-09-08T09:48:40Z</time>
      </trkpt>
      <trkpt lat="44.83094" lon="5.46786">
        <ele>1649.28</ele>
        <time>2011-09-08T09:48:35Z</time>
      </trkpt>
      <trkpt lat="44.83101" lon="5.46762">
        <ele>1646.4</ele>
        <time>2011-09-08T09:48:20Z</time>
      </trkpt>
      <trkpt lat="44.83101" lon="5.4676">
        <ele>1646.4</ele>
        <time>2011-09-08T09:48:19Z</time>
      </trkpt>
      <trkpt lat="44.83102" lon="5.46759">
        <ele>1645.91</ele>
        <time>2011-09-08T09:48:18Z</time>
      </trkpt>
      <trkpt lat="44.83102" lon="5.46756">
        <ele>1645.91</ele>
        <time>2011-09-08T09:48:16Z</time>
      </trkpt>
      <trkpt lat="44.83102" lon="5.46755">
        <ele>1645.91</ele>
        <time>2011-09-08T09:48:15Z</time>
      </trkpt>
      <trkpt lat="44.83103" lon="5.46753">
        <ele>1645.43</ele>
        <time>2011-09-08T09:48:14Z</time>
      </trkpt>
      <trkpt lat="44.83104" lon="5.46751">
        <ele>1645.91</ele>
        <time>2011-09-08T09:48:13Z</time>
      </trkpt>
      <trkpt lat="44.83104" lon="5.46749">
        <ele>1645.43</ele>
        <time>2011-09-08T09:48:12Z</time>
      </trkpt>
      <trkpt lat="44.83104" lon="5.46747">
        <ele>1645.43</ele>
        <time>2011-09-08T09:48:11Z</time>
      </trkpt>
      <trkpt lat="44.83105" lon="5.46745">
        <ele>1644.95</ele>
        <time>2011-09-08T09:48:10Z</time>
      </trkpt>
      <trkpt lat="44.83106" lon="5.46743">
        <ele>1645.43</ele>
        <time>2011-09-08T09:48:09Z</time>
      </trkpt>
      <trkpt lat="44.83106" lon="5.46741">
        <ele>1644.95</ele>
        <time>2011-09-08T09:48:01Z</time>
      </trkpt>
      <trkpt lat="44.83107" lon="5.4673">
        <ele>1643.03</ele>
        <time>2011-09-08T09:47:47Z</time>
      </trkpt>
      <trkpt lat="44.83112" lon="5.46713">
        <ele>1641.59</ele>
        <time>2011-09-08T09:47:32Z</time>
      </trkpt>
      <trkpt lat="44.83115" lon="5.46702">
        <ele>1639.19</ele>
        <time>2011-09-08T09:47:21Z</time>
      </trkpt>
      <trkpt lat="44.83116" lon="5.46696">
        <ele>1638.7</ele>
        <time>2011-09-08T09:47:13Z</time>
      </trkpt>
      <trkpt lat="44.83117" lon="5.46667">
        <ele>1635.82</ele>
        <time>2011-09-08T09:46:57Z</time>
      </trkpt>
      <trkpt lat="44.83117" lon="5.46628">
        <ele>1635.34</ele>
        <time>2011-09-08T09:46:41Z</time>
      </trkpt>
      <trkpt lat="44.8312" lon="5.46594">
        <ele>1632.94</ele>
        <time>2011-09-08T09:46:25Z</time>
      </trkpt>
      <trkpt lat="44.83121" lon="5.46592">
        <ele>1633.42</ele>
        <time>2011-09-08T09:46:24Z</time>
      </trkpt>
      <trkpt lat="44.83122" lon="5.4659">
        <ele>1632.46</ele>
        <time>2011-09-08T09:46:23Z</time>
      </trkpt>
      <trkpt lat="44.83125" lon="5.46576">
        <ele>1632.94</ele>
        <time>2011-09-08T09:46:09Z</time>
      </trkpt>
      <trkpt lat="44.8313" lon="5.46559">
        <ele>1630.05</ele>
        <time>2011-09-08T09:45:55Z</time>
      </trkpt>
      <trkpt lat="44.83131" lon="5.46554">
        <ele>1629.57</ele>
        <time>2011-09-08T09:45:51Z</time>
      </trkpt>
      <trkpt lat="44.83135" lon="5.46534">
        <ele>1627.17</ele>
        <time>2011-09-08T09:45:36Z</time>
      </trkpt>
      <trkpt lat="44.83136" lon="5.46513">
        <ele>1624.77</ele>
        <time>2011-09-08T09:45:20Z</time>
      </trkpt>
      <trkpt lat="44.83135" lon="5.46497">
        <ele>1623.32</ele>
        <time>2011-09-08T09:45:06Z</time>
      </trkpt>
      <trkpt lat="44.83135" lon="5.46491">
        <ele>1621.88</ele>
        <time>2011-09-08T09:44:52Z</time>
      </trkpt>
      <trkpt lat="44.83135" lon="5.46481">
        <ele>1618.52</ele>
        <time>2011-09-08T09:44:40Z</time>
      </trkpt>
      <trkpt lat="44.83136" lon="5.46464">
        <ele>1617.07</ele>
        <time>2011-09-08T09:44:24Z</time>
      </trkpt>
      <trkpt lat="44.83139" lon="5.46448">
        <ele>1614.67</ele>
        <time>2011-09-08T09:44:10Z</time>
      </trkpt>
      <trkpt lat="44.83144" lon="5.46434">
        <ele>1613.71</ele>
        <time>2011-09-08T09:43:58Z</time>
      </trkpt>
      <trkpt lat="44.83145" lon="5.46433">
        <ele>1613.71</ele>
        <time>2011-09-08T09:43:57Z</time>
      </trkpt>
      <trkpt lat="44.83146" lon="5.46431">
        <ele>1613.71</ele>
        <time>2011-09-08T09:43:56Z</time>
      </trkpt>
      <trkpt lat="44.83146" lon="5.4643">
        <ele>1613.23</ele>
        <time>2011-09-08T09:43:55Z</time>
      </trkpt>
      <trkpt lat="44.83146" lon="5.46428">
        <ele>1613.23</ele>
        <time>2011-09-08T09:43:54Z</time>
      </trkpt>
      <trkpt lat="44.83146" lon="5.46427">
        <ele>1613.23</ele>
        <time>2011-09-08T09:43:53Z</time>
      </trkpt>
      <trkpt lat="44.83151" lon="5.46404">
        <ele>1611.31</ele>
        <time>2011-09-08T09:43:40Z</time>
      </trkpt>
      <trkpt lat="44.83152" lon="5.46402">
        <ele>1611.31</ele>
        <time>2011-09-08T09:43:39Z</time>
      </trkpt>
      <trkpt lat="44.83153" lon="5.46401">
        <ele>1611.31</ele>
        <time>2011-09-08T09:43:38Z</time>
      </trkpt>
      <trkpt lat="44.83153" lon="5.46399">
        <ele>1610.35</ele>
        <time>2011-09-08T09:43:37Z</time>
      </trkpt>
      <trkpt lat="44.83153" lon="5.46398">
        <ele>1610.83</ele>
        <time>2011-09-08T09:43:36Z</time>
      </trkpt>
      <trkpt lat="44.83154" lon="5.46396">
        <ele>1610.35</ele>
        <time>2011-09-08T09:43:35Z</time>
      </trkpt>
      <trkpt lat="44.83154" lon="5.46394">
        <ele>1611.31</ele>
        <time>2011-09-08T09:43:34Z</time>
      </trkpt>
      <trkpt lat="44.83155" lon="5.46393">
        <ele>1610.83</ele>
        <time>2011-09-08T09:43:33Z</time>
      </trkpt>
      <trkpt lat="44.83155" lon="5.46387">
        <ele>1610.35</ele>
        <time>2011-09-08T09:43:30Z</time>
      </trkpt>
      <trkpt lat="44.83155" lon="5.46386">
        <ele>1610.35</ele>
        <time>2011-09-08T09:43:29Z</time>
      </trkpt>
      <trkpt lat="44.83156" lon="5.46384">
        <ele>1610.35</ele>
        <time>2011-09-08T09:43:28Z</time>
      </trkpt>
      <trkpt lat="44.83156" lon="5.46383">
        <ele>1609.86</ele>
        <time>2011-09-08T09:43:27Z</time>
      </trkpt>
      <trkpt lat="44.83157" lon="5.46381">
        <ele>1609.38</ele>
        <time>2011-09-08T09:43:26Z</time>
      </trkpt>
      <trkpt lat="44.83158" lon="5.4638">
        <ele>1608.9</ele>
        <time>2011-09-08T09:43:25Z</time>
      </trkpt>
      <trkpt lat="44.83159" lon="5.46378">
        <ele>1609.86</ele>
        <time>2011-09-08T09:43:24Z</time>
      </trkpt>
      <trkpt lat="44.83159" lon="5.46376">
        <ele>1608.9</ele>
        <time>2011-09-08T09:43:23Z</time>
      </trkpt>
      <trkpt lat="44.83164" lon="5.46364">
        <ele>1608.42</ele>
        <time>2011-09-08T09:43:16Z</time>
      </trkpt>
      <trkpt lat="44.83164" lon="5.46362">
        <ele>1608.9</ele>
        <time>2011-09-08T09:43:15Z</time>
      </trkpt>
      <trkpt lat="44.83164" lon="5.4636">
        <ele>1607.94</ele>
        <time>2011-09-08T09:43:14Z</time>
      </trkpt>
      <trkpt lat="44.83165" lon="5.46358">
        <ele>1608.42</ele>
        <time>2011-09-08T09:43:13Z</time>
      </trkpt>
      <trkpt lat="44.83165" lon="5.46357">
        <ele>1607.94</ele>
        <time>2011-09-08T09:43:12Z</time>
      </trkpt>
      <trkpt lat="44.83165" lon="5.46355">
        <ele>1608.9</ele>
        <time>2011-09-08T09:43:11Z</time>
      </trkpt>
      <trkpt lat="44.83166" lon="5.46354">
        <ele>1607.94</ele>
        <time>2011-09-08T09:43:10Z</time>
      </trkpt>
      <trkpt lat="44.83173" lon="5.46346">
        <ele>1606.5</ele>
        <time>2011-09-08T09:43:04Z</time>
      </trkpt>
      <trkpt lat="44.83174" lon="5.46338">
        <ele>1606.02</ele>
        <time>2011-09-08T09:42:59Z</time>
      </trkpt>
      <trkpt lat="44.83177" lon="5.46317">
        <ele>1605.06</ele>
        <time>2011-09-08T09:42:47Z</time>
      </trkpt>
      <trkpt lat="44.83183" lon="5.46289">
        <ele>1603.14</ele>
        <time>2011-09-08T09:42:30Z</time>
      </trkpt>
      <trkpt lat="44.83185" lon="5.46286">
        <ele>1603.14</ele>
        <time>2011-09-08T09:42:27Z</time>
      </trkpt>
      <trkpt lat="44.83188" lon="5.46282">
        <ele>1602.17</ele>
        <time>2011-09-08T09:42:23Z</time>
      </trkpt>
      <trkpt lat="44.83189" lon="5.4628">
        <ele>1601.21</ele>
        <time>2011-09-08T09:42:22Z</time>
      </trkpt>
      <trkpt lat="44.83189" lon="5.46278">
        <ele>1601.21</ele>
        <time>2011-09-08T09:42:21Z</time>
      </trkpt>
      <trkpt lat="44.83189" lon="5.46277">
        <ele>1601.21</ele>
        <time>2011-09-08T09:42:20Z</time>
      </trkpt>
      <trkpt lat="44.83189" lon="5.46274">
        <ele>1601.21</ele>
        <time>2011-09-08T09:42:18Z</time>
      </trkpt>
      <trkpt lat="44.83191" lon="5.4627">
        <ele>1599.77</ele>
        <time>2011-09-08T09:42:15Z</time>
      </trkpt>
      <trkpt lat="44.83191" lon="5.46269">
        <ele>1600.25</ele>
        <time>2011-09-08T09:42:14Z</time>
      </trkpt>
      <trkpt lat="44.83191" lon="5.46267">
        <ele>1600.25</ele>
        <time>2011-09-08T09:42:13Z</time>
      </trkpt>
      <trkpt lat="44.83192" lon="5.46265">
        <ele>1599.77</ele>
        <time>2011-09-08T09:42:12Z</time>
      </trkpt>
      <trkpt lat="44.83199" lon="5.46246">
        <ele>1596.89</ele>
        <time>2011-09-08T09:41:58Z</time>
      </trkpt>
      <trkpt lat="44.832" lon="5.46245">
        <ele>1597.37</ele>
        <time>2011-09-08T09:41:57Z</time>
      </trkpt>
      <trkpt lat="44.83201" lon="5.46244">
        <ele>1596.89</ele>
        <time>2011-09-08T09:41:56Z</time>
      </trkpt>
      <trkpt lat="44.83202" lon="5.46243">
        <ele>1596.89</ele>
        <time>2011-09-08T09:41:55Z</time>
      </trkpt>
      <trkpt lat="44.83202" lon="5.46241">
        <ele>1596.41</ele>
        <time>2011-09-08T09:41:54Z</time>
      </trkpt>
      <trkpt lat="44.83203" lon="5.4624">
        <ele>1596.41</ele>
        <time>2011-09-08T09:41:53Z</time>
      </trkpt>
      <trkpt lat="44.83208" lon="5.46231">
        <ele>1594.96</ele>
        <time>2011-09-08T09:41:46Z</time>
      </trkpt>
      <trkpt lat="44.83214" lon="5.46211">
        <ele>1592.56</ele>
        <time>2011-09-08T09:41:33Z</time>
      </trkpt>
      <trkpt lat="44.83225" lon="5.46174">
        <ele>1589.68</ele>
        <time>2011-09-08T09:41:16Z</time>
      </trkpt>
      <trkpt lat="44.83234" lon="5.46136">
        <ele>1588.24</ele>
        <time>2011-09-08T09:41:00Z</time>
      </trkpt>
      <trkpt lat="44.8324" lon="5.46096">
        <ele>1585.83</ele>
        <time>2011-09-08T09:40:44Z</time>
      </trkpt>
      <trkpt lat="44.83248" lon="5.46063">
        <ele>1583.91</ele>
        <time>2011-09-08T09:40:28Z</time>
      </trkpt>
      <trkpt lat="44.83256" lon="5.46021">
        <ele>1581.99</ele>
        <time>2011-09-08T09:40:11Z</time>
      </trkpt>
      <trkpt lat="44.83261" lon="5.45982">
        <ele>1580.54</ele>
        <time>2011-09-08T09:39:55Z</time>
      </trkpt>
      <trkpt lat="44.83263" lon="5.45954">
        <ele>1578.62</ele>
        <time>2011-09-08T09:39:42Z</time>
      </trkpt>
      <trkpt lat="44.83262" lon="5.45953">
        <ele>1578.14</ele>
        <time>2011-09-08T09:39:41Z</time>
      </trkpt>
      <trkpt lat="44.83262" lon="5.4595">
        <ele>1578.14</ele>
        <time>2011-09-08T09:39:40Z</time>
      </trkpt>
      <trkpt lat="44.83262" lon="5.45948">
        <ele>1578.14</ele>
        <time>2011-09-08T09:39:39Z</time>
      </trkpt>
      <trkpt lat="44.83261" lon="5.45946">
        <ele>1577.66</ele>
        <time>2011-09-08T09:39:38Z</time>
      </trkpt>
      <trkpt lat="44.83262" lon="5.45935">
        <ele>1576.7</ele>
        <time>2011-09-08T09:39:31Z</time>
      </trkpt>
      <trkpt lat="44.83267" lon="5.4591">
        <ele>1574.78</ele>
        <time>2011-09-08T09:39:18Z</time>
      </trkpt>
      <trkpt lat="44.83272" lon="5.45878">
        <ele>1572.37</ele>
        <time>2011-09-08T09:39:03Z</time>
      </trkpt>
      <trkpt lat="44.83277" lon="5.45848">
        <ele>1571.41</ele>
        <time>2011-09-08T09:38:49Z</time>
      </trkpt>
      <trkpt lat="44.8328" lon="5.45817">
        <ele>1568.53</ele>
        <time>2011-09-08T09:38:34Z</time>
      </trkpt>
      <trkpt lat="44.83281" lon="5.45815">
        <ele>1568.05</ele>
        <time>2011-09-08T09:38:33Z</time>
      </trkpt>
      <trkpt lat="44.83281" lon="5.45813">
        <ele>1568.05</ele>
        <time>2011-09-08T09:38:32Z</time>
      </trkpt>
      <trkpt lat="44.83281" lon="5.4581">
        <ele>1568.05</ele>
        <time>2011-09-08T09:38:31Z</time>
      </trkpt>
      <trkpt lat="44.83281" lon="5.45808">
        <ele>1569.49</ele>
        <time>2011-09-08T09:38:30Z</time>
      </trkpt>
      <trkpt lat="44.83281" lon="5.45806">
        <ele>1568.05</ele>
        <time>2011-09-08T09:38:29Z</time>
      </trkpt>
      <trkpt lat="44.83281" lon="5.4579">
        <ele>1566.61</ele>
        <time>2011-09-08T09:38:21Z</time>
      </trkpt>
      <trkpt lat="44.83276" lon="5.45755">
        <ele>1565.16</ele>
        <time>2011-09-08T09:38:04Z</time>
      </trkpt>
      <trkpt lat="44.83269" lon="5.45724">
        <ele>1562.28</ele>
        <time>2011-09-08T09:37:49Z</time>
      </trkpt>
      <trkpt lat="44.83262" lon="5.45691">
        <ele>1562.28</ele>
        <time>2011-09-08T09:37:37Z</time>
      </trkpt>
      <trkpt lat="44.83255" lon="5.45672">
        <ele>1560.84</ele>
        <time>2011-09-08T09:37:29Z</time>
      </trkpt>
      <trkpt lat="44.83242" lon="5.45638">
        <ele>1561.32</ele>
        <time>2011-09-08T09:37:17Z</time>
      </trkpt>
      <trkpt lat="44.83237" lon="5.45612">
        <ele>1560.36</ele>
        <time>2011-09-08T09:37:06Z</time>
      </trkpt>
      <trkpt lat="44.83226" lon="5.4559">
        <ele>1558.92</ele>
        <time>2011-09-08T09:36:53Z</time>
      </trkpt>
      <trkpt lat="44.83206" lon="5.4555">
        <ele>1558.43</ele>
        <time>2011-09-08T09:36:37Z</time>
      </trkpt>
      <trkpt lat="44.83186" lon="5.45533">
        <ele>1558.43</ele>
        <time>2011-09-08T09:36:24Z</time>
      </trkpt>
      <trkpt lat="44.8316" lon="5.45517">
        <ele>1557.95</ele>
        <time>2011-09-08T09:36:09Z</time>
      </trkpt>
      <trkpt lat="44.83142" lon="5.45511">
        <ele>1556.51</ele>
        <time>2011-09-08T09:35:56Z</time>
      </trkpt>
      <trkpt lat="44.8314" lon="5.45511">
        <ele>1556.51</ele>
        <time>2011-09-08T09:35:55Z</time>
      </trkpt>
      <trkpt lat="44.8313" lon="5.45507">
        <ele>1556.03</ele>
        <time>2011-09-08T09:35:49Z</time>
      </trkpt>
      <trkpt lat="44.83108" lon="5.45495">
        <ele>1554.59</ele>
        <time>2011-09-08T09:35:36Z</time>
      </trkpt>
      <trkpt lat="44.83089" lon="5.45486">
        <ele>1552.67</ele>
        <time>2011-09-08T09:35:23Z</time>
      </trkpt>
      <trkpt lat="44.83073" lon="5.45477">
        <ele>1550.26</ele>
        <time>2011-09-08T09:35:10Z</time>
      </trkpt>
      <trkpt lat="44.83072" lon="5.45476">
        <ele>1551.22</ele>
        <time>2011-09-08T09:35:09Z</time>
      </trkpt>
      <trkpt lat="44.83071" lon="5.45475">
        <ele>1551.22</ele>
        <time>2011-09-08T09:35:08Z</time>
      </trkpt>
      <trkpt lat="44.8307" lon="5.45474">
        <ele>1550.74</ele>
        <time>2011-09-08T09:35:07Z</time>
      </trkpt>
      <trkpt lat="44.83069" lon="5.45473">
        <ele>1550.74</ele>
        <time>2011-09-08T09:35:06Z</time>
      </trkpt>
      <trkpt lat="44.83067" lon="5.45472">
        <ele>1550.26</ele>
        <time>2011-09-08T09:35:05Z</time>
      </trkpt>
      <trkpt lat="44.83066" lon="5.45471">
        <ele>1550.74</ele>
        <time>2011-09-08T09:35:04Z</time>
      </trkpt>
      <trkpt lat="44.83065" lon="5.4547">
        <ele>1550.26</ele>
        <time>2011-09-08T09:35:03Z</time>
      </trkpt>
      <trkpt lat="44.83064" lon="5.45468">
        <ele>1549.78</ele>
        <time>2011-09-08T09:35:02Z</time>
      </trkpt>
      <trkpt lat="44.83062" lon="5.45467">
        <ele>1549.78</ele>
        <time>2011-09-08T09:35:01Z</time>
      </trkpt>
      <trkpt lat="44.83061" lon="5.45466">
        <ele>1549.78</ele>
        <time>2011-09-08T09:35:00Z</time>
      </trkpt>
      <trkpt lat="44.8306" lon="5.45465">
        <ele>1549.3</ele>
        <time>2011-09-08T09:34:59Z</time>
      </trkpt>
      <trkpt lat="44.83059" lon="5.45464">
        <ele>1549.3</ele>
        <time>2011-09-08T09:34:58Z</time>
      </trkpt>
      <trkpt lat="44.83043" lon="5.45445">
        <ele>1549.3</ele>
        <time>2011-09-08T09:34:46Z</time>
      </trkpt>
      <trkpt lat="44.83036" lon="5.45434">
        <ele>1547.38</ele>
        <time>2011-09-08T09:34:38Z</time>
      </trkpt>
      <trkpt lat="44.83023" lon="5.45415">
        <ele>1546.9</ele>
        <time>2011-09-08T09:34:25Z</time>
      </trkpt>
      <trkpt lat="44.83017" lon="5.45395">
        <ele>1546.9</ele>
        <time>2011-09-08T09:34:15Z</time>
      </trkpt>
      <trkpt lat="44.83017" lon="5.45393">
        <ele>1546.42</ele>
        <time>2011-09-08T09:34:14Z</time>
      </trkpt>
      <trkpt lat="44.83016" lon="5.4539">
        <ele>1546.9</ele>
        <time>2011-09-08T09:34:13Z</time>
      </trkpt>
      <trkpt lat="44.83015" lon="5.45388">
        <ele>1546.42</ele>
        <time>2011-09-08T09:34:12Z</time>
      </trkpt>
      <trkpt lat="44.83015" lon="5.45386">
        <ele>1546.9</ele>
        <time>2011-09-08T09:34:11Z</time>
      </trkpt>
      <trkpt lat="44.83014" lon="5.45385">
        <ele>1546.9</ele>
        <time>2011-09-08T09:34:10Z</time>
      </trkpt>
      <trkpt lat="44.83013" lon="5.45384">
        <ele>1547.38</ele>
        <time>2011-09-08T09:34:09Z</time>
      </trkpt>
      <trkpt lat="44.83012" lon="5.45379">
        <ele>1546.42</ele>
        <time>2011-09-08T09:34:07Z</time>
      </trkpt>
      <trkpt lat="44.83007" lon="5.45369">
        <ele>1544.98</ele>
        <time>2011-09-08T09:34:05Z</time>
      </trkpt>
      <trkpt lat="44.83" lon="5.45354">
        <ele>1544.5</ele>
        <time>2011-09-08T09:34:03Z</time>
      </trkpt>
      <trkpt lat="44.82986" lon="5.45325">
        <ele>1547.86</ele>
        <time>2011-09-08T09:34:00Z</time>
      </trkpt>
      <trkpt lat="44.82976" lon="5.45308">
        <ele>1548.82</ele>
        <time>2011-09-08T09:33:58Z</time>
      </trkpt>
      <trkpt lat="44.82971" lon="5.453">
        <ele>1548.34</ele>
        <time>2011-09-08T09:33:57Z</time>
      </trkpt>
      <trkpt lat="44.82961" lon="5.45281">
        <ele>1552.19</ele>
        <time>2011-09-08T09:33:55Z</time>
      </trkpt>
      <trkpt lat="44.82958" lon="5.4527">
        <ele>1553.15</ele>
        <time>2011-09-08T09:33:54Z</time>
      </trkpt>
      <trkpt lat="44.82956" lon="5.45259">
        <ele>1553.15</ele>
        <time>2011-09-08T09:33:53Z</time>
      </trkpt>
      <trkpt lat="44.82958" lon="5.4525">
        <ele>1554.59</ele>
        <time>2011-09-08T09:33:52Z</time>
      </trkpt>
      <trkpt lat="44.82964" lon="5.45233">
        <ele>1557.47</ele>
        <time>2011-09-08T09:33:50Z</time>
      </trkpt>
      <trkpt lat="44.82967" lon="5.45225">
        <ele>1560.84</ele>
        <time>2011-09-08T09:33:49Z</time>
      </trkpt>
      <trkpt lat="44.82982" lon="5.45201">
        <ele>1565.64</ele>
        <time>2011-09-08T09:33:46Z</time>
      </trkpt>
      <trkpt lat="44.8299" lon="5.45185">
        <ele>1569.01</ele>
        <time>2011-09-08T09:33:44Z</time>
      </trkpt>
      <trkpt lat="44.82994" lon="5.45178">
        <ele>1570.45</ele>
        <time>2011-09-08T09:33:43Z</time>
      </trkpt>
      <trkpt lat="44.83009" lon="5.4516">
        <ele>1574.3</ele>
        <time>2011-09-08T09:33:40Z</time>
      </trkpt>
      <trkpt lat="44.83015" lon="5.45153">
        <ele>1574.3</ele>
        <time>2011-09-08T09:33:39Z</time>
      </trkpt>
      <trkpt lat="44.83021" lon="5.45146">
        <ele>1575.26</ele>
        <time>2011-09-08T09:33:38Z</time>
      </trkpt>
      <trkpt lat="44.83036" lon="5.45121">
        <ele>1579.58</ele>
        <time>2011-09-08T09:33:35Z</time>
      </trkpt>
      <trkpt lat="44.83045" lon="5.45101">
        <ele>1583.43</ele>
        <time>2011-09-08T09:33:33Z</time>
      </trkpt>
      <trkpt lat="44.83067" lon="5.45055">
        <ele>1587.27</ele>
        <time>2011-09-08T09:33:28Z</time>
      </trkpt>
      <trkpt lat="44.83094" lon="5.4501">
        <ele>1590.16</ele>
        <time>2011-09-08T09:33:21Z</time>
      </trkpt>
      <trkpt lat="44.83096" lon="5.45003">
        <ele>1590.16</ele>
        <time>2011-09-08T09:33:20Z</time>
      </trkpt>
      <trkpt lat="44.83107" lon="5.44976">
        <ele>1593.52</ele>
        <time>2011-09-08T09:33:16Z</time>
      </trkpt>
      <trkpt lat="44.8311" lon="5.44971">
        <ele>1594</ele>
        <time>2011-09-08T09:33:15Z</time>
      </trkpt>
      <trkpt lat="44.83112" lon="5.44966">
        <ele>1594.48</ele>
        <time>2011-09-08T09:33:14Z</time>
      </trkpt>
      <trkpt lat="44.83123" lon="5.44929">
        <ele>1596.41</ele>
        <time>2011-09-08T09:33:08Z</time>
      </trkpt>
      <trkpt lat="44.83135" lon="5.44854">
        <ele>1597.85</ele>
        <time>2011-09-08T09:32:57Z</time>
      </trkpt>
      <trkpt lat="44.83135" lon="5.44839">
        <ele>1598.33</ele>
        <time>2011-09-08T09:32:55Z</time>
      </trkpt>
      <trkpt lat="44.83135" lon="5.44831">
        <ele>1597.85</ele>
        <time>2011-09-08T09:32:54Z</time>
      </trkpt>
      <trkpt lat="44.83136" lon="5.44823">
        <ele>1598.81</ele>
        <time>2011-09-08T09:32:53Z</time>
      </trkpt>
      <trkpt lat="44.83138" lon="5.44816">
        <ele>1599.77</ele>
        <time>2011-09-08T09:32:52Z</time>
      </trkpt>
      <trkpt lat="44.83146" lon="5.44799">
        <ele>1603.14</ele>
        <time>2011-09-08T09:32:49Z</time>
      </trkpt>
      <trkpt lat="44.83149" lon="5.44793">
        <ele>1604.58</ele>
        <time>2011-09-08T09:32:48Z</time>
      </trkpt>
      <trkpt lat="44.83154" lon="5.4478">
        <ele>1605.54</ele>
        <time>2011-09-08T09:32:46Z</time>
      </trkpt>
      <trkpt lat="44.83157" lon="5.44774">
        <ele>1606.02</ele>
        <time>2011-09-08T09:32:45Z</time>
      </trkpt>
      <trkpt lat="44.83159" lon="5.44768">
        <ele>1606.02</ele>
        <time>2011-09-08T09:32:44Z</time>
      </trkpt>
      <trkpt lat="44.83161" lon="5.44755">
        <ele>1607.46</ele>
        <time>2011-09-08T09:32:42Z</time>
      </trkpt>
      <trkpt lat="44.83178" lon="5.4471">
        <ele>1606.5</ele>
        <time>2011-09-08T09:32:29Z</time>
      </trkpt>
      <trkpt lat="44.83192" lon="5.44682">
        <ele>1604.58</ele>
        <time>2011-09-08T09:32:21Z</time>
      </trkpt>
      <trkpt lat="44.83195" lon="5.4467">
        <ele>1605.06</ele>
        <time>2011-09-08T09:32:19Z</time>
      </trkpt>
      <trkpt lat="44.83196" lon="5.44662">
        <ele>1604.58</ele>
        <time>2011-09-08T09:32:18Z</time>
      </trkpt>
      <trkpt lat="44.83197" lon="5.44654">
        <ele>1605.54</ele>
        <time>2011-09-08T09:32:17Z</time>
      </trkpt>
      <trkpt lat="44.83197" lon="5.44635">
        <ele>1605.54</ele>
        <time>2011-09-08T09:32:15Z</time>
      </trkpt>
      <trkpt lat="44.83196" lon="5.44616">
        <ele>1607.46</ele>
        <time>2011-09-08T09:32:13Z</time>
      </trkpt>
      <trkpt lat="44.83195" lon="5.44608">
        <ele>1607.46</ele>
        <time>2011-09-08T09:32:12Z</time>
      </trkpt>
      <trkpt lat="44.83195" lon="5.44599">
        <ele>1608.42</ele>
        <time>2011-09-08T09:32:11Z</time>
      </trkpt>
      <trkpt lat="44.83193" lon="5.44585">
        <ele>1610.35</ele>
        <time>2011-09-08T09:32:09Z</time>
      </trkpt>
      <trkpt lat="44.83192" lon="5.44579">
        <ele>1610.35</ele>
        <time>2011-09-08T09:32:08Z</time>
      </trkpt>
      <trkpt lat="44.83191" lon="5.44573">
        <ele>1611.31</ele>
        <time>2011-09-08T09:32:07Z</time>
      </trkpt>
      <trkpt lat="44.8319" lon="5.44563">
        <ele>1612.75</ele>
        <time>2011-09-08T09:32:05Z</time>
      </trkpt>
      <trkpt lat="44.8319" lon="5.44559">
        <ele>1613.71</ele>
        <time>2011-09-08T09:32:04Z</time>
      </trkpt>
      <trkpt lat="44.8319" lon="5.44554">
        <ele>1613.71</ele>
        <time>2011-09-08T09:32:03Z</time>
      </trkpt>
      <trkpt lat="44.83191" lon="5.44548">
        <ele>1613.71</ele>
        <time>2011-09-08T09:32:02Z</time>
      </trkpt>
      <trkpt lat="44.83192" lon="5.4454">
        <ele>1614.67</ele>
        <time>2011-09-08T09:32:01Z</time>
      </trkpt>
      <trkpt lat="44.83195" lon="5.4452">
        <ele>1618.04</ele>
        <time>2011-09-08T09:31:59Z</time>
      </trkpt>
      <trkpt lat="44.83195" lon="5.4451">
        <ele>1618.52</ele>
        <time>2011-09-08T09:31:58Z</time>
      </trkpt>
      <trkpt lat="44.83196" lon="5.44457">
        <ele>1621.88</ele>
        <time>2011-09-08T09:31:52Z</time>
      </trkpt>
      <trkpt lat="44.832" lon="5.4438">
        <ele>1624.77</ele>
        <time>2011-09-08T09:31:41Z</time>
      </trkpt>
      <trkpt lat="44.83212" lon="5.44335">
        <ele>1626.69</ele>
        <time>2011-09-08T09:31:26Z</time>
      </trkpt>
      <trkpt lat="44.83213" lon="5.44334">
        <ele>1626.69</ele>
        <time>2011-09-08T09:31:25Z</time>
      </trkpt>
      <trkpt lat="44.83213" lon="5.44332">
        <ele>1626.21</ele>
        <time>2011-09-08T09:31:24Z</time>
      </trkpt>
      <trkpt lat="44.83213" lon="5.4433">
        <ele>1626.21</ele>
        <time>2011-09-08T09:31:23Z</time>
      </trkpt>
      <trkpt lat="44.83213" lon="5.44328">
        <ele>1626.21</ele>
        <time>2011-09-08T09:31:22Z</time>
      </trkpt>
      <trkpt lat="44.83213" lon="5.44326">
        <ele>1626.21</ele>
        <time>2011-09-08T09:31:21Z</time>
      </trkpt>
      <trkpt lat="44.83213" lon="5.44324">
        <ele>1626.21</ele>
        <time>2011-09-08T09:31:20Z</time>
      </trkpt>
      <trkpt lat="44.83213" lon="5.44323">
        <ele>1625.73</ele>
        <time>2011-09-08T09:31:19Z</time>
      </trkpt>
      <trkpt lat="44.83214" lon="5.44321">
        <ele>1625.73</ele>
        <time>2011-09-08T09:31:18Z</time>
      </trkpt>
      <trkpt lat="44.83214" lon="5.44319">
        <ele>1625.25</ele>
        <time>2011-09-08T09:31:17Z</time>
      </trkpt>
      <trkpt lat="44.83214" lon="5.44318">
        <ele>1625.25</ele>
        <time>2011-09-08T09:31:16Z</time>
      </trkpt>
      <trkpt lat="44.83214" lon="5.44316">
        <ele>1625.25</ele>
        <time>2011-09-08T09:31:15Z</time>
      </trkpt>
      <trkpt lat="44.83217" lon="5.44292">
        <ele>1623.32</ele>
        <time>2011-09-08T09:31:00Z</time>
      </trkpt>
      <trkpt lat="44.83217" lon="5.4429">
        <ele>1623.32</ele>
        <time>2011-09-08T09:30:59Z</time>
      </trkpt>
      <trkpt lat="44.83217" lon="5.44285">
        <ele>1622.84</ele>
        <time>2011-09-08T09:30:56Z</time>
      </trkpt>
      <trkpt lat="44.83219" lon="5.44262">
        <ele>1619.48</ele>
        <time>2011-09-08T09:30:43Z</time>
      </trkpt>
      <trkpt lat="44.83219" lon="5.4426">
        <ele>1619</ele>
        <time>2011-09-08T09:30:42Z</time>
      </trkpt>
      <trkpt lat="44.83218" lon="5.44258">
        <ele>1619</ele>
        <time>2011-09-08T09:30:41Z</time>
      </trkpt>
      <trkpt lat="44.83218" lon="5.44256">
        <ele>1619</ele>
        <time>2011-09-08T09:30:40Z</time>
      </trkpt>
      <trkpt lat="44.83218" lon="5.44254">
        <ele>1618.04</ele>
        <time>2011-09-08T09:30:39Z</time>
      </trkpt>
      <trkpt lat="44.83218" lon="5.44252">
        <ele>1618.04</ele>
        <time>2011-09-08T09:30:38Z</time>
      </trkpt>
      <trkpt lat="44.83218" lon="5.4425">
        <ele>1617.56</ele>
        <time>2011-09-08T09:30:37Z</time>
      </trkpt>
      <trkpt lat="44.83218" lon="5.44248">
        <ele>1616.59</ele>
        <time>2011-09-08T09:30:36Z</time>
      </trkpt>
      <trkpt lat="44.83218" lon="5.44246">
        <ele>1616.59</ele>
        <time>2011-09-08T09:30:35Z</time>
      </trkpt>
      <trkpt lat="44.83218" lon="5.44243">
        <ele>1616.11</ele>
        <time>2011-09-08T09:30:34Z</time>
      </trkpt>
      <trkpt lat="44.83218" lon="5.4424">
        <ele>1616.11</ele>
        <time>2011-09-08T09:30:33Z</time>
      </trkpt>
      <trkpt lat="44.83216" lon="5.44236">
        <ele>1615.63</ele>
        <time>2011-09-08T09:30:32Z</time>
      </trkpt>
      <trkpt lat="44.83214" lon="5.44231">
        <ele>1615.15</ele>
        <time>2011-09-08T09:30:31Z</time>
      </trkpt>
      <trkpt lat="44.83211" lon="5.44225">
        <ele>1615.63</ele>
        <time>2011-09-08T09:30:30Z</time>
      </trkpt>
      <trkpt lat="44.83208" lon="5.44217">
        <ele>1615.63</ele>
        <time>2011-09-08T09:30:29Z</time>
      </trkpt>
      <trkpt lat="44.83206" lon="5.44208">
        <ele>1615.63</ele>
        <time>2011-09-08T09:30:28Z</time>
      </trkpt>
      <trkpt lat="44.83207" lon="5.44198">
        <ele>1616.11</ele>
        <time>2011-09-08T09:30:27Z</time>
      </trkpt>
      <trkpt lat="44.8321" lon="5.44188">
        <ele>1617.56</ele>
        <time>2011-09-08T09:30:26Z</time>
      </trkpt>
      <trkpt lat="44.83218" lon="5.44164">
        <ele>1620.44</ele>
        <time>2011-09-08T09:30:23Z</time>
      </trkpt>
      <trkpt lat="44.8322" lon="5.44157">
        <ele>1621.88</ele>
        <time>2011-09-08T09:30:22Z</time>
      </trkpt>
      <trkpt lat="44.83222" lon="5.44139">
        <ele>1624.28</ele>
        <time>2011-09-08T09:30:20Z</time>
      </trkpt>
      <trkpt lat="44.83225" lon="5.44114">
        <ele>1627.65</ele>
        <time>2011-09-08T09:30:17Z</time>
      </trkpt>
      <trkpt lat="44.8323" lon="5.4408">
        <ele>1630.53</ele>
        <time>2011-09-08T09:30:10Z</time>
      </trkpt>
      <trkpt lat="44.8323" lon="5.4406">
        <ele>1631.49</ele>
        <time>2011-09-08T09:30:00Z</time>
      </trkpt>
      <trkpt lat="44.8323" lon="5.4406">
        <ele>1631.01</ele>
        <time>2011-09-08T09:29:29Z</time>
      </trkpt>
      <trkpt lat="44.83229" lon="5.4406">
        <ele>1631.01</ele>
        <time>2011-09-08T09:29:02Z</time>
      </trkpt>
      <trkpt lat="44.83229" lon="5.4406">
        <ele>1630.53</ele>
        <time>2011-09-08T09:28:37Z</time>
      </trkpt>
      <trkpt lat="44.83229" lon="5.4406">
        <ele>1631.49</ele>
        <time>2011-09-08T09:28:35Z</time>
      </trkpt>
      <trkpt lat="44.83229" lon="5.4406">
        <ele>1635.82</ele>
        <time>2011-09-08T09:28:34Z</time>
      </trkpt>
      <trkpt lat="44.83229" lon="5.4406">
        <ele>1632.46</ele>
        <time>2011-09-08T09:28:29Z</time>
      </trkpt>
      <trkpt lat="44.83229" lon="5.4406">
        <ele>1623.32</ele>
        <time>2011-09-08T09:28:28Z</time>
      </trkpt>
      <trkpt lat="44.8323" lon="5.44061">
        <ele>1630.53</ele>
        <time>2011-09-08T09:28:18Z</time>
      </trkpt>
      <trkpt lat="44.8323" lon="5.44061">
        <ele>1633.42</ele>
        <time>2011-09-08T09:28:15Z</time>
      </trkpt>
      <trkpt lat="44.8323" lon="5.44061">
        <ele>1628.13</ele>
        <time>2011-09-08T09:28:14Z</time>
      </trkpt>
      <trkpt lat="44.8323" lon="5.44061">
        <ele>1631.49</ele>
        <time>2011-09-08T09:27:53Z</time>
      </trkpt>
      <trkpt lat="44.83228" lon="5.44047">
        <ele>1631.01</ele>
        <time>2011-09-08T09:27:40Z</time>
      </trkpt>
      <trkpt lat="44.83228" lon="5.44009">
        <ele>1631.01</ele>
        <time>2011-09-08T09:27:23Z</time>
      </trkpt>
      <trkpt lat="44.83227" lon="5.43979">
        <ele>1630.53</ele>
        <time>2011-09-08T09:27:10Z</time>
      </trkpt>
      <trkpt lat="44.83229" lon="5.43952">
        <ele>1630.05</ele>
        <time>2011-09-08T09:26:58Z</time>
      </trkpt>
      <trkpt lat="44.8323" lon="5.4395">
        <ele>1630.05</ele>
        <time>2011-09-08T09:26:57Z</time>
      </trkpt>
      <trkpt lat="44.83231" lon="5.43948">
        <ele>1630.05</ele>
        <time>2011-09-08T09:26:56Z</time>
      </trkpt>
      <trkpt lat="44.83231" lon="5.43947">
        <ele>1629.09</ele>
        <time>2011-09-08T09:26:55Z</time>
      </trkpt>
      <trkpt lat="44.83231" lon="5.43945">
        <ele>1629.57</ele>
        <time>2011-09-08T09:26:54Z</time>
      </trkpt>
      <trkpt lat="44.83231" lon="5.43944">
        <ele>1629.57</ele>
        <time>2011-09-08T09:26:53Z</time>
      </trkpt>
      <trkpt lat="44.83232" lon="5.43942">
        <ele>1628.61</ele>
        <time>2011-09-08T09:26:52Z</time>
      </trkpt>
      <trkpt lat="44.83232" lon="5.43941">
        <ele>1629.09</ele>
        <time>2011-09-08T09:26:51Z</time>
      </trkpt>
      <trkpt lat="44.83232" lon="5.43939">
        <ele>1629.09</ele>
        <time>2011-09-08T09:26:50Z</time>
      </trkpt>
      <trkpt lat="44.83233" lon="5.43937">
        <ele>1629.09</ele>
        <time>2011-09-08T09:26:49Z</time>
      </trkpt>
      <trkpt lat="44.83233" lon="5.43935">
        <ele>1629.09</ele>
        <time>2011-09-08T09:26:48Z</time>
      </trkpt>
      <trkpt lat="44.83234" lon="5.43934">
        <ele>1628.61</ele>
        <time>2011-09-08T09:26:47Z</time>
      </trkpt>
      <trkpt lat="44.83234" lon="5.43933">
        <ele>1628.61</ele>
        <time>2011-09-08T09:26:46Z</time>
      </trkpt>
      <trkpt lat="44.83238" lon="5.43923">
        <ele>1627.17</ele>
        <time>2011-09-08T09:26:39Z</time>
      </trkpt>
      <trkpt lat="44.83243" lon="5.43901">
        <ele>1624.28</ele>
        <time>2011-09-08T09:26:25Z</time>
      </trkpt>
      <trkpt lat="44.83249" lon="5.43886">
        <ele>1620.92</ele>
        <time>2011-09-08T09:26:16Z</time>
      </trkpt>
      <trkpt lat="44.83257" lon="5.43859">
        <ele>1620.92</ele>
        <time>2011-09-08T09:26:05Z</time>
      </trkpt>
      <trkpt lat="44.83257" lon="5.43857">
        <ele>1620.92</ele>
        <time>2011-09-08T09:26:04Z</time>
      </trkpt>
      <trkpt lat="44.8326" lon="5.43842">
        <ele>1619.96</ele>
        <time>2011-09-08T09:25:55Z</time>
      </trkpt>
      <trkpt lat="44.83261" lon="5.43827">
        <ele>1619</ele>
        <time>2011-09-08T09:25:47Z</time>
      </trkpt>
      <trkpt lat="44.83261" lon="5.43796">
        <ele>1618.04</ele>
        <time>2011-09-08T09:25:30Z</time>
      </trkpt>
      <trkpt lat="44.83261" lon="5.43795">
        <ele>1617.56</ele>
        <time>2011-09-08T09:25:29Z</time>
      </trkpt>
      <trkpt lat="44.83261" lon="5.43793">
        <ele>1618.04</ele>
        <time>2011-09-08T09:25:28Z</time>
      </trkpt>
      <trkpt lat="44.8326" lon="5.43791">
        <ele>1616.59</ele>
        <time>2011-09-08T09:25:26Z</time>
      </trkpt>
      <trkpt lat="44.8325" lon="5.43777">
        <ele>1614.67</ele>
        <time>2011-09-08T09:25:14Z</time>
      </trkpt>
      <trkpt lat="44.83236" lon="5.43752">
        <ele>1613.23</ele>
        <time>2011-09-08T09:25:00Z</time>
      </trkpt>
      <trkpt lat="44.83235" lon="5.4375">
        <ele>1613.23</ele>
        <time>2011-09-08T09:24:59Z</time>
      </trkpt>
      <trkpt lat="44.83234" lon="5.43749">
        <ele>1613.23</ele>
        <time>2011-09-08T09:24:58Z</time>
      </trkpt>
      <trkpt lat="44.8323" lon="5.43738">
        <ele>1612.27</ele>
        <time>2011-09-08T09:24:51Z</time>
      </trkpt>
      <trkpt lat="44.83228" lon="5.43708">
        <ele>1609.86</ele>
        <time>2011-09-08T09:24:35Z</time>
      </trkpt>
      <trkpt lat="44.83228" lon="5.43695">
        <ele>1608.42</ele>
        <time>2011-09-08T09:24:27Z</time>
      </trkpt>
      <trkpt lat="44.83224" lon="5.43666">
        <ele>1606.02</ele>
        <time>2011-09-08T09:24:08Z</time>
      </trkpt>
      <trkpt lat="44.83219" lon="5.43646">
        <ele>1603.14</ele>
        <time>2011-09-08T09:23:56Z</time>
      </trkpt>
      <trkpt lat="44.83218" lon="5.43643">
        <ele>1601.69</ele>
        <time>2011-09-08T09:23:55Z</time>
      </trkpt>
      <trkpt lat="44.83217" lon="5.43641">
        <ele>1602.17</ele>
        <time>2011-09-08T09:23:54Z</time>
      </trkpt>
      <trkpt lat="44.83213" lon="5.43624">
        <ele>1600.25</ele>
        <time>2011-09-08T09:23:46Z</time>
      </trkpt>
      <trkpt lat="44.83204" lon="5.4359">
        <ele>1599.77</ele>
        <time>2011-09-08T09:23:31Z</time>
      </trkpt>
      <trkpt lat="44.83194" lon="5.43551">
        <ele>1598.81</ele>
        <time>2011-09-08T09:23:15Z</time>
      </trkpt>
      <trkpt lat="44.83184" lon="5.43517">
        <ele>1596.89</ele>
        <time>2011-09-08T09:23:00Z</time>
      </trkpt>
      <trkpt lat="44.83174" lon="5.43488">
        <ele>1595.93</ele>
        <time>2011-09-08T09:22:46Z</time>
      </trkpt>
      <trkpt lat="44.83167" lon="5.43483">
        <ele>1595.93</ele>
        <time>2011-09-08T09:22:36Z</time>
      </trkpt>
      <trkpt lat="44.83166" lon="5.43481">
        <ele>1595.45</ele>
        <time>2011-09-08T09:22:34Z</time>
      </trkpt>
      <trkpt lat="44.83164" lon="5.4348">
        <ele>1594.96</ele>
        <time>2011-09-08T09:22:32Z</time>
      </trkpt>
      <trkpt lat="44.83156" lon="5.43475">
        <ele>1592.56</ele>
        <time>2011-09-08T09:22:19Z</time>
      </trkpt>
      <trkpt lat="44.83151" lon="5.43471">
        <ele>1590.16</ele>
        <time>2011-09-08T09:22:09Z</time>
      </trkpt>
      <trkpt lat="44.83149" lon="5.43467">
        <ele>1588.72</ele>
        <time>2011-09-08T09:22:03Z</time>
      </trkpt>
      <trkpt lat="44.8315" lon="5.43462">
        <ele>1587.27</ele>
        <time>2011-09-08T09:21:52Z</time>
      </trkpt>
      <trkpt lat="44.83131" lon="5.43425">
        <ele>1587.27</ele>
        <time>2011-09-08T09:21:35Z</time>
      </trkpt>
      <trkpt lat="44.83112" lon="5.43396">
        <ele>1584.87</ele>
        <time>2011-09-08T09:21:17Z</time>
      </trkpt>
      <trkpt lat="44.83098" lon="5.43363">
        <ele>1582.95</ele>
        <time>2011-09-08T09:21:00Z</time>
      </trkpt>
      <trkpt lat="44.83086" lon="5.43329">
        <ele>1582.95</ele>
        <time>2011-09-08T09:20:46Z</time>
      </trkpt>
      <trkpt lat="44.83081" lon="5.43302">
        <ele>1581.03</ele>
        <time>2011-09-08T09:20:32Z</time>
      </trkpt>
      <trkpt lat="44.83071" lon="5.43277">
        <ele>1577.66</ele>
        <time>2011-09-08T09:20:19Z</time>
      </trkpt>
      <trkpt lat="44.8307" lon="5.43275">
        <ele>1577.66</ele>
        <time>2011-09-08T09:20:18Z</time>
      </trkpt>
      <trkpt lat="44.83069" lon="5.43229">
        <ele>1576.22</ele>
        <time>2011-09-08T09:20:05Z</time>
      </trkpt>
      <trkpt lat="44.83061" lon="5.43174">
        <ele>1578.62</ele>
        <time>2011-09-08T09:19:53Z</time>
      </trkpt>
      <trkpt lat="44.83046" lon="5.43136">
        <ele>1577.18</ele>
        <time>2011-09-08T09:19:41Z</time>
      </trkpt>
      <trkpt lat="44.83044" lon="5.4313">
        <ele>1576.22</ele>
        <time>2011-09-08T09:19:40Z</time>
      </trkpt>
      <trkpt lat="44.83041" lon="5.43124">
        <ele>1576.7</ele>
        <time>2011-09-08T09:19:39Z</time>
      </trkpt>
      <trkpt lat="44.83039" lon="5.43118">
        <ele>1577.18</ele>
        <time>2011-09-08T09:19:38Z</time>
      </trkpt>
      <trkpt lat="44.8302" lon="5.43088">
        <ele>1579.58</ele>
        <time>2011-09-08T09:19:31Z</time>
      </trkpt>
      <trkpt lat="44.83014" lon="5.43075">
        <ele>1579.58</ele>
        <time>2011-09-08T09:19:28Z</time>
      </trkpt>
      <trkpt lat="44.83003" lon="5.43056">
        <ele>1580.54</ele>
        <time>2011-09-08T09:19:23Z</time>
      </trkpt>
      <trkpt lat="44.83002" lon="5.43052">
        <ele>1580.54</ele>
        <time>2011-09-08T09:19:22Z</time>
      </trkpt>
      <trkpt lat="44.82999" lon="5.43047">
        <ele>1581.03</ele>
        <time>2011-09-08T09:19:21Z</time>
      </trkpt>
      <trkpt lat="44.82996" lon="5.43043">
        <ele>1581.03</ele>
        <time>2011-09-08T09:19:20Z</time>
      </trkpt>
      <trkpt lat="44.82993" lon="5.43039">
        <ele>1581.03</ele>
        <time>2011-09-08T09:19:19Z</time>
      </trkpt>
      <trkpt lat="44.82989" lon="5.43035">
        <ele>1581.03</ele>
        <time>2011-09-08T09:19:18Z</time>
      </trkpt>
      <trkpt lat="44.82985" lon="5.43031">
        <ele>1581.51</ele>
        <time>2011-09-08T09:19:17Z</time>
      </trkpt>
      <trkpt lat="44.8297" lon="5.43021">
        <ele>1584.87</ele>
        <time>2011-09-08T09:19:14Z</time>
      </trkpt>
      <trkpt lat="44.82966" lon="5.43019">
        <ele>1584.39</ele>
        <time>2011-09-08T09:19:13Z</time>
      </trkpt>
      <trkpt lat="44.82929" lon="5.43004">
        <ele>1586.79</ele>
        <time>2011-09-08T09:19:03Z</time>
      </trkpt>
      <trkpt lat="44.8288" lon="5.42994">
        <ele>1588.24</ele>
        <time>2011-09-08T09:18:48Z</time>
      </trkpt>
      <trkpt lat="44.82845" lon="5.42977">
        <ele>1588.72</ele>
        <time>2011-09-08T09:18:37Z</time>
      </trkpt>
      <trkpt lat="44.82813" lon="5.42947">
        <ele>1590.64</ele>
        <time>2011-09-08T09:18:24Z</time>
      </trkpt>
      <trkpt lat="44.82789" lon="5.42906">
        <ele>1590.64</ele>
        <time>2011-09-08T09:18:10Z</time>
      </trkpt>
      <trkpt lat="44.82774" lon="5.42866">
        <ele>1594</ele>
        <time>2011-09-08T09:18:03Z</time>
      </trkpt>
      <trkpt lat="44.82769" lon="5.42852">
        <ele>1595.93</ele>
        <time>2011-09-08T09:18:01Z</time>
      </trkpt>
      <trkpt lat="44.82766" lon="5.42839">
        <ele>1598.33</ele>
        <time>2011-09-08T09:17:59Z</time>
      </trkpt>
      <trkpt lat="44.82765" lon="5.42832">
        <ele>1598.81</ele>
        <time>2011-09-08T09:17:58Z</time>
      </trkpt>
      <trkpt lat="44.82764" lon="5.42825">
        <ele>1598.33</ele>
        <time>2011-09-08T09:17:57Z</time>
      </trkpt>
      <trkpt lat="44.82764" lon="5.42818">
        <ele>1599.77</ele>
        <time>2011-09-08T09:17:56Z</time>
      </trkpt>
      <trkpt lat="44.82764" lon="5.42797">
        <ele>1602.17</ele>
        <time>2011-09-08T09:17:53Z</time>
      </trkpt>
      <trkpt lat="44.82765" lon="5.4279">
        <ele>1602.17</ele>
        <time>2011-09-08T09:17:52Z</time>
      </trkpt>
      <trkpt lat="44.82767" lon="5.42784">
        <ele>1603.14</ele>
        <time>2011-09-08T09:17:51Z</time>
      </trkpt>
      <trkpt lat="44.82768" lon="5.42778">
        <ele>1603.14</ele>
        <time>2011-09-08T09:17:50Z</time>
      </trkpt>
      <trkpt lat="44.82771" lon="5.42763">
        <ele>1606.5</ele>
        <time>2011-09-08T09:17:47Z</time>
      </trkpt>
      <trkpt lat="44.82772" lon="5.4276">
        <ele>1607.46</ele>
        <time>2011-09-08T09:17:46Z</time>
      </trkpt>
      <trkpt lat="44.82773" lon="5.42757">
        <ele>1606.5</ele>
        <time>2011-09-08T09:17:33Z</time>
      </trkpt>
      <trkpt lat="44.82773" lon="5.42756">
        <ele>1606.5</ele>
        <time>2011-09-08T09:17:15Z</time>
      </trkpt>
      <trkpt lat="44.82773" lon="5.42756">
        <ele>1609.86</ele>
        <time>2011-09-08T09:17:13Z</time>
      </trkpt>
      <trkpt lat="44.82773" lon="5.42756">
        <ele>1606.5</ele>
        <time>2011-09-08T09:17:06Z</time>
      </trkpt>
      <trkpt lat="44.82773" lon="5.42756">
        <ele>1603.14</ele>
        <time>2011-09-08T09:17:03Z</time>
      </trkpt>
      <trkpt lat="44.82773" lon="5.42756">
        <ele>1607.94</ele>
        <time>2011-09-08T09:16:53Z</time>
      </trkpt>
      <trkpt lat="44.82773" lon="5.42756">
        <ele>1593.52</ele>
        <time>2011-09-08T09:16:52Z</time>
      </trkpt>
      <trkpt lat="44.82773" lon="5.42756">
        <ele>1606.5</ele>
        <time>2011-09-08T09:16:50Z</time>
      </trkpt>
      <trkpt lat="44.82773" lon="5.42756">
        <ele>1606.98</ele>
        <time>2011-09-08T09:16:45Z</time>
      </trkpt>
      <trkpt lat="44.82773" lon="5.42756">
        <ele>1599.29</ele>
        <time>2011-09-08T09:16:44Z</time>
      </trkpt>
      <trkpt lat="44.82773" lon="5.42756">
        <ele>1606.5</ele>
        <time>2011-09-08T09:16:21Z</time>
      </trkpt>
      <trkpt lat="44.82773" lon="5.42756">
        <ele>1601.21</ele>
        <time>2011-09-08T09:16:20Z</time>
      </trkpt>
      <trkpt lat="44.82773" lon="5.42756">
        <ele>1606.02</ele>
        <time>2011-09-08T09:16:18Z</time>
      </trkpt>
      <trkpt lat="44.82773" lon="5.42756">
        <ele>1608.9</ele>
        <time>2011-09-08T09:16:17Z</time>
      </trkpt>
      <trkpt lat="44.82773" lon="5.42756">
        <ele>1603.14</ele>
        <time>2011-09-08T09:16:16Z</time>
      </trkpt>
      <trkpt lat="44.82773" lon="5.42756">
        <ele>1606.5</ele>
        <time>2011-09-08T09:16:12Z</time>
      </trkpt>
      <trkpt lat="44.82773" lon="5.42756">
        <ele>1607.46</ele>
        <time>2011-09-08T09:16:07Z</time>
      </trkpt>
      <trkpt lat="44.82773" lon="5.42756">
        <ele>1599.29</ele>
        <time>2011-09-08T09:16:06Z</time>
      </trkpt>
      <trkpt lat="44.82773" lon="5.42756">
        <ele>1607.46</ele>
        <time>2011-09-08T09:15:47Z</time>
      </trkpt>
      <trkpt lat="44.82773" lon="5.42756">
        <ele>1604.1</ele>
        <time>2011-09-08T09:15:46Z</time>
      </trkpt>
      <trkpt lat="44.82773" lon="5.42756">
        <ele>1607.94</ele>
        <time>2011-09-08T09:15:45Z</time>
      </trkpt>
      <trkpt lat="44.82773" lon="5.42756">
        <ele>1598.33</ele>
        <time>2011-09-08T09:15:44Z</time>
      </trkpt>
      <trkpt lat="44.82773" lon="5.42756">
        <ele>1607.94</ele>
        <time>2011-09-08T09:15:30Z</time>
      </trkpt>
      <trkpt lat="44.82773" lon="5.42756">
        <ele>1595.93</ele>
        <time>2011-09-08T09:15:29Z</time>
      </trkpt>
      <trkpt lat="44.82773" lon="5.42756">
        <ele>1606.02</ele>
        <time>2011-09-08T09:15:27Z</time>
      </trkpt>
      <trkpt lat="44.82779" lon="5.42744">
        <ele>1606.98</ele>
        <time>2011-09-08T09:15:18Z</time>
      </trkpt>
      <trkpt lat="44.82785" lon="5.42684">
        <ele>1606.5</ele>
        <time>2011-09-08T09:15:06Z</time>
      </trkpt>
      <trkpt lat="44.82782" lon="5.42672">
        <ele>1610.35</ele>
        <time>2011-09-08T09:15:03Z</time>
      </trkpt>
      <trkpt lat="44.82775" lon="5.42628">
        <ele>1611.79</ele>
        <time>2011-09-08T09:14:50Z</time>
      </trkpt>
      <trkpt lat="44.82768" lon="5.4259">
        <ele>1612.27</ele>
        <time>2011-09-08T09:14:36Z</time>
      </trkpt>
      <trkpt lat="44.82766" lon="5.42568">
        <ele>1614.67</ele>
        <time>2011-09-08T09:14:21Z</time>
      </trkpt>
      <trkpt lat="44.82766" lon="5.42567">
        <ele>1614.67</ele>
        <time>2011-09-08T09:14:20Z</time>
      </trkpt>
      <trkpt lat="44.82766" lon="5.42552">
        <ele>1611.31</ele>
        <time>2011-09-08T09:14:04Z</time>
      </trkpt>
      <trkpt lat="44.82766" lon="5.42551">
        <ele>1611.79</ele>
        <time>2011-09-08T09:14:03Z</time>
      </trkpt>
      <trkpt lat="44.82764" lon="5.42542">
        <ele>1608.42</ele>
        <time>2011-09-08T09:13:54Z</time>
      </trkpt>
      <trkpt lat="44.82758" lon="5.42532">
        <ele>1605.54</ele>
        <time>2011-09-08T09:13:40Z</time>
      </trkpt>
      <trkpt lat="44.82757" lon="5.42527">
        <ele>1603.14</ele>
        <time>2011-09-08T09:13:35Z</time>
      </trkpt>
      <trkpt lat="44.82757" lon="5.42507">
        <ele>1600.73</ele>
        <time>2011-09-08T09:13:23Z</time>
      </trkpt>
      <trkpt lat="44.82754" lon="5.42453">
        <ele>1601.21</ele>
        <time>2011-09-08T09:13:10Z</time>
      </trkpt>
      <trkpt lat="44.82748" lon="5.42416">
        <ele>1603.14</ele>
        <time>2011-09-08T09:12:58Z</time>
      </trkpt>
      <trkpt lat="44.82748" lon="5.42414">
        <ele>1602.66</ele>
        <time>2011-09-08T09:12:57Z</time>
      </trkpt>
      <trkpt lat="44.82747" lon="5.42409">
        <ele>1604.1</ele>
        <time>2011-09-08T09:12:53Z</time>
      </trkpt>
      <trkpt lat="44.82745" lon="5.42404">
        <ele>1603.14</ele>
        <time>2011-09-08T09:12:49Z</time>
      </trkpt>
      <trkpt lat="44.82742" lon="5.42402">
        <ele>1602.66</ele>
        <time>2011-09-08T09:12:45Z</time>
      </trkpt>
      <trkpt lat="44.8274" lon="5.42401">
        <ele>1600.73</ele>
        <time>2011-09-08T09:12:42Z</time>
      </trkpt>
      <trkpt lat="44.82733" lon="5.42391">
        <ele>1600.25</ele>
        <time>2011-09-08T09:12:30Z</time>
      </trkpt>
      <trkpt lat="44.82733" lon="5.4238">
        <ele>1599.77</ele>
        <time>2011-09-08T09:12:20Z</time>
      </trkpt>
      <trkpt lat="44.82738" lon="5.42372">
        <ele>1596.41</ele>
        <time>2011-09-08T09:12:12Z</time>
      </trkpt>
      <trkpt lat="44.82739" lon="5.42371">
        <ele>1596.89</ele>
        <time>2011-09-08T09:12:11Z</time>
      </trkpt>
      <trkpt lat="44.82739" lon="5.4237">
        <ele>1596.89</ele>
        <time>2011-09-08T09:12:10Z</time>
      </trkpt>
      <trkpt lat="44.8274" lon="5.42362">
        <ele>1596.89</ele>
        <time>2011-09-08T09:12:04Z</time>
      </trkpt>
      <trkpt lat="44.8274" lon="5.42354">
        <ele>1593.52</ele>
        <time>2011-09-08T09:11:58Z</time>
      </trkpt>
      <trkpt lat="44.82737" lon="5.42344">
        <ele>1593.04</ele>
        <time>2011-09-08T09:11:51Z</time>
      </trkpt>
      <trkpt lat="44.82734" lon="5.42324">
        <ele>1591.12</ele>
        <time>2011-09-08T09:11:37Z</time>
      </trkpt>
      <trkpt lat="44.8273" lon="5.4231">
        <ele>1591.12</ele>
        <time>2011-09-08T09:11:23Z</time>
      </trkpt>
      <trkpt lat="44.82727" lon="5.42296">
        <ele>1590.16</ele>
        <time>2011-09-08T09:11:11Z</time>
      </trkpt>
      <trkpt lat="44.82726" lon="5.42293">
        <ele>1589.68</ele>
        <time>2011-09-08T09:11:09Z</time>
      </trkpt>
      <trkpt lat="44.82724" lon="5.42288">
        <ele>1586.31</ele>
        <time>2011-09-08T09:10:59Z</time>
      </trkpt>
      <trkpt lat="44.82723" lon="5.42286">
        <ele>1586.31</ele>
        <time>2011-09-08T09:10:53Z</time>
      </trkpt>
      <trkpt lat="44.82721" lon="5.42284">
        <ele>1584.87</ele>
        <time>2011-09-08T09:10:51Z</time>
      </trkpt>
      <trkpt lat="44.82716" lon="5.42284">
        <ele>1585.35</ele>
        <time>2011-09-08T09:10:47Z</time>
      </trkpt>
      <trkpt lat="44.82715" lon="5.42284">
        <ele>1585.35</ele>
        <time>2011-09-08T09:10:46Z</time>
      </trkpt>
      <trkpt lat="44.82713" lon="5.42284">
        <ele>1587.27</ele>
        <time>2011-09-08T09:10:45Z</time>
      </trkpt>
      <trkpt lat="44.82711" lon="5.42282">
        <ele>1585.35</ele>
        <time>2011-09-08T09:10:44Z</time>
      </trkpt>
      <trkpt lat="44.82711" lon="5.42281">
        <ele>1584.39</ele>
        <time>2011-09-08T09:10:43Z</time>
      </trkpt>
      <trkpt lat="44.8271" lon="5.42279">
        <ele>1583.43</ele>
        <time>2011-09-08T09:10:42Z</time>
      </trkpt>
      <trkpt lat="44.8271" lon="5.42277">
        <ele>1582.47</ele>
        <time>2011-09-08T09:10:41Z</time>
      </trkpt>
      <trkpt lat="44.8271" lon="5.42275">
        <ele>1583.91</ele>
        <time>2011-09-08T09:10:40Z</time>
      </trkpt>
      <trkpt lat="44.82709" lon="5.42272">
        <ele>1581.99</ele>
        <time>2011-09-08T09:10:39Z</time>
      </trkpt>
      <trkpt lat="44.82706" lon="5.42245">
        <ele>1583.91</ele>
        <time>2011-09-08T09:10:32Z</time>
      </trkpt>
      <trkpt lat="44.82695" lon="5.42181">
        <ele>1584.39</ele>
        <time>2011-09-08T09:10:18Z</time>
      </trkpt>
      <trkpt lat="44.82683" lon="5.42134">
        <ele>1584.87</ele>
        <time>2011-09-08T09:10:07Z</time>
      </trkpt>
      <trkpt lat="44.82683" lon="5.42127">
        <ele>1584.39</ele>
        <time>2011-09-08T09:10:06Z</time>
      </trkpt>
      <trkpt lat="44.82682" lon="5.42121">
        <ele>1582.95</ele>
        <time>2011-09-08T09:10:05Z</time>
      </trkpt>
      <trkpt lat="44.82683" lon="5.42114">
        <ele>1585.35</ele>
        <time>2011-09-08T09:10:04Z</time>
      </trkpt>
      <trkpt lat="44.82684" lon="5.42106">
        <ele>1585.35</ele>
        <time>2011-09-08T09:10:03Z</time>
      </trkpt>
      <trkpt lat="44.82685" lon="5.42098">
        <ele>1585.83</ele>
        <time>2011-09-08T09:10:02Z</time>
      </trkpt>
      <trkpt lat="44.82687" lon="5.42091">
        <ele>1585.83</ele>
        <time>2011-09-08T09:10:01Z</time>
      </trkpt>
      <trkpt lat="44.82689" lon="5.42084">
        <ele>1588.24</ele>
        <time>2011-09-08T09:10:00Z</time>
      </trkpt>
      <trkpt lat="44.82692" lon="5.42077">
        <ele>1587.27</ele>
        <time>2011-09-08T09:09:59Z</time>
      </trkpt>
      <trkpt lat="44.82695" lon="5.4207">
        <ele>1588.72</ele>
        <time>2011-09-08T09:09:58Z</time>
      </trkpt>
      <trkpt lat="44.82697" lon="5.42058">
        <ele>1588.72</ele>
        <time>2011-09-08T09:09:56Z</time>
      </trkpt>
      <trkpt lat="44.82697" lon="5.42052">
        <ele>1590.64</ele>
        <time>2011-09-08T09:09:55Z</time>
      </trkpt>
      <trkpt lat="44.82697" lon="5.42045">
        <ele>1588.72</ele>
        <time>2011-09-08T09:09:54Z</time>
      </trkpt>
      <trkpt lat="44.82698" lon="5.42038">
        <ele>1591.12</ele>
        <time>2011-09-08T09:09:53Z</time>
      </trkpt>
      <trkpt lat="44.82699" lon="5.42031">
        <ele>1591.12</ele>
        <time>2011-09-08T09:09:52Z</time>
      </trkpt>
      <trkpt lat="44.82701" lon="5.42024">
        <ele>1591.6</ele>
        <time>2011-09-08T09:09:51Z</time>
      </trkpt>
      <trkpt lat="44.82702" lon="5.42018">
        <ele>1591.12</ele>
        <time>2011-09-08T09:09:50Z</time>
      </trkpt>
      <trkpt lat="44.82704" lon="5.42011">
        <ele>1590.64</ele>
        <time>2011-09-08T09:09:49Z</time>
      </trkpt>
      <trkpt lat="44.82705" lon="5.42005">
        <ele>1593.04</ele>
        <time>2011-09-08T09:09:48Z</time>
      </trkpt>
      <trkpt lat="44.82705" lon="5.41999">
        <ele>1592.08</ele>
        <time>2011-09-08T09:09:47Z</time>
      </trkpt>
      <trkpt lat="44.82703" lon="5.41979">
        <ele>1593.52</ele>
        <time>2011-09-08T09:09:44Z</time>
      </trkpt>
      <trkpt lat="44.82702" lon="5.41957">
        <ele>1595.45</ele>
        <time>2011-09-08T09:09:40Z</time>
      </trkpt>
      <trkpt lat="44.82701" lon="5.41934">
        <ele>1596.41</ele>
        <time>2011-09-08T09:09:35Z</time>
      </trkpt>
      <trkpt lat="44.82695" lon="5.41887">
        <ele>1597.37</ele>
        <time>2011-09-08T09:09:24Z</time>
      </trkpt>
      <trkpt lat="44.82692" lon="5.41859">
        <ele>1598.81</ele>
        <time>2011-09-08T09:09:16Z</time>
      </trkpt>
      <trkpt lat="44.82675" lon="5.41796">
        <ele>1599.29</ele>
        <time>2011-09-08T09:09:01Z</time>
      </trkpt>
      <trkpt lat="44.82657" lon="5.41767">
        <ele>1601.21</ele>
        <time>2011-09-08T09:08:52Z</time>
      </trkpt>
      <trkpt lat="44.82655" lon="5.41764">
        <ele>1601.21</ele>
        <time>2011-09-08T09:08:51Z</time>
      </trkpt>
      <trkpt lat="44.82642" lon="5.41743">
        <ele>1605.06</ele>
        <time>2011-09-08T09:08:41Z</time>
      </trkpt>
      <trkpt lat="44.82639" lon="5.41736">
        <ele>1602.66</ele>
        <time>2011-09-08T09:08:34Z</time>
      </trkpt>
      <trkpt lat="44.82637" lon="5.41719">
        <ele>1603.14</ele>
        <time>2011-09-08T09:08:19Z</time>
      </trkpt>
      <trkpt lat="44.82639" lon="5.41703">
        <ele>1603.62</ele>
        <time>2011-09-08T09:08:04Z</time>
      </trkpt>
      <trkpt lat="44.82644" lon="5.41694">
        <ele>1603.14</ele>
        <time>2011-09-08T09:07:53Z</time>
      </trkpt>
      <trkpt lat="44.82653" lon="5.41689">
        <ele>1600.25</ele>
        <time>2011-09-08T09:07:41Z</time>
      </trkpt>
      <trkpt lat="44.8266" lon="5.41684">
        <ele>1596.89</ele>
        <time>2011-09-08T09:07:32Z</time>
      </trkpt>
      <trkpt lat="44.82663" lon="5.41681">
        <ele>1599.77</ele>
        <time>2011-09-08T09:07:27Z</time>
      </trkpt>
      <trkpt lat="44.82672" lon="5.41676">
        <ele>1596.41</ele>
        <time>2011-09-08T09:07:14Z</time>
      </trkpt>
      <trkpt lat="44.82673" lon="5.41676">
        <ele>1596.41</ele>
        <time>2011-09-08T09:07:13Z</time>
      </trkpt>
      <trkpt lat="44.82676" lon="5.41674">
        <ele>1593.52</ele>
        <time>2011-09-08T09:07:08Z</time>
      </trkpt>
      <trkpt lat="44.82685" lon="5.4167">
        <ele>1592.56</ele>
        <time>2011-09-08T09:06:55Z</time>
      </trkpt>
      <trkpt lat="44.82688" lon="5.41668">
        <ele>1591.6</ele>
        <time>2011-09-08T09:06:51Z</time>
      </trkpt>
      <trkpt lat="44.8269" lon="5.41666">
        <ele>1589.68</ele>
        <time>2011-09-08T09:06:48Z</time>
      </trkpt>
      <trkpt lat="44.82692" lon="5.41666">
        <ele>1591.6</ele>
        <time>2011-09-08T09:06:46Z</time>
      </trkpt>
      <trkpt lat="44.82695" lon="5.41665">
        <ele>1590.16</ele>
        <time>2011-09-08T09:06:41Z</time>
      </trkpt>
      <trkpt lat="44.82699" lon="5.41662">
        <ele>1588.24</ele>
        <time>2011-09-08T09:06:35Z</time>
      </trkpt>
      <trkpt lat="44.82701" lon="5.41662">
        <ele>1587.75</ele>
        <time>2011-09-08T09:06:33Z</time>
      </trkpt>
      <trkpt lat="44.82705" lon="5.4166">
        <ele>1587.75</ele>
        <time>2011-09-08T09:06:28Z</time>
      </trkpt>
      <trkpt lat="44.82716" lon="5.41656">
        <ele>1585.35</ele>
        <time>2011-09-08T09:06:13Z</time>
      </trkpt>
      <trkpt lat="44.82726" lon="5.41651">
        <ele>1583.43</ele>
        <time>2011-09-08T09:05:57Z</time>
      </trkpt>
      <trkpt lat="44.82737" lon="5.41644">
        <ele>1580.06</ele>
        <time>2011-09-08T09:05:42Z</time>
      </trkpt>
      <trkpt lat="44.82745" lon="5.4164">
        <ele>1579.1</ele>
        <time>2011-09-08T09:05:33Z</time>
      </trkpt>
      <trkpt lat="44.82756" lon="5.41633">
        <ele>1576.7</ele>
        <time>2011-09-08T09:05:19Z</time>
      </trkpt>
      <trkpt lat="44.82756" lon="5.41632">
        <ele>1577.18</ele>
        <time>2011-09-08T09:05:18Z</time>
      </trkpt>
      <trkpt lat="44.82765" lon="5.41626">
        <ele>1572.85</ele>
        <time>2011-09-08T09:05:02Z</time>
      </trkpt>
      <trkpt lat="44.82775" lon="5.4162">
        <ele>1571.89</ele>
        <time>2011-09-08T09:04:48Z</time>
      </trkpt>
      <trkpt lat="44.82786" lon="5.41612">
        <ele>1568.53</ele>
        <time>2011-09-08T09:04:33Z</time>
      </trkpt>
      <trkpt lat="44.82793" lon="5.41608">
        <ele>1567.09</ele>
        <time>2011-09-08T09:04:23Z</time>
      </trkpt>
      <trkpt lat="44.82805" lon="5.41599">
        <ele>1565.16</ele>
        <time>2011-09-08T09:04:08Z</time>
      </trkpt>
      <trkpt lat="44.82806" lon="5.41599">
        <ele>1565.64</ele>
        <time>2011-09-08T09:04:07Z</time>
      </trkpt>
      <trkpt lat="44.82818" lon="5.4159">
        <ele>1563.72</ele>
        <time>2011-09-08T09:03:54Z</time>
      </trkpt>
      <trkpt lat="44.82823" lon="5.41588">
        <ele>1564.2</ele>
        <time>2011-09-08T09:03:49Z</time>
      </trkpt>
      <trkpt lat="44.82837" lon="5.41583">
        <ele>1560.84</ele>
        <time>2011-09-08T09:03:37Z</time>
      </trkpt>
      <trkpt lat="44.82838" lon="5.41582">
        <ele>1559.88</ele>
        <time>2011-09-08T09:03:36Z</time>
      </trkpt>
      <trkpt lat="44.82853" lon="5.41576">
        <ele>1557.95</ele>
        <time>2011-09-08T09:03:24Z</time>
      </trkpt>
      <trkpt lat="44.82856" lon="5.41575">
        <ele>1556.51</ele>
        <time>2011-09-08T09:03:21Z</time>
      </trkpt>
      <trkpt lat="44.82857" lon="5.41575">
        <ele>1557.47</ele>
        <time>2011-09-08T09:03:20Z</time>
      </trkpt>
      <trkpt lat="44.82858" lon="5.41574">
        <ele>1556.03</ele>
        <time>2011-09-08T09:03:19Z</time>
      </trkpt>
      <trkpt lat="44.82866" lon="5.41572">
        <ele>1555.55</ele>
        <time>2011-09-08T09:03:12Z</time>
      </trkpt>
      <trkpt lat="44.82868" lon="5.41572">
        <ele>1555.07</ele>
        <time>2011-09-08T09:03:11Z</time>
      </trkpt>
      <trkpt lat="44.82874" lon="5.41571">
        <ele>1554.59</ele>
        <time>2011-09-08T09:03:06Z</time>
      </trkpt>
      <trkpt lat="44.82895" lon="5.41571">
        <ele>1551.71</ele>
        <time>2011-09-08T09:02:49Z</time>
      </trkpt>
      <trkpt lat="44.82904" lon="5.41568">
        <ele>1548.82</ele>
        <time>2011-09-08T09:02:41Z</time>
      </trkpt>
      <trkpt lat="44.82905" lon="5.41568">
        <ele>1550.26</ele>
        <time>2011-09-08T09:02:40Z</time>
      </trkpt>
      <trkpt lat="44.8291" lon="5.41567">
        <ele>1547.86</ele>
        <time>2011-09-08T09:02:36Z</time>
      </trkpt>
      <trkpt lat="44.82918" lon="5.41562">
        <ele>1546.9</ele>
        <time>2011-09-08T09:02:29Z</time>
      </trkpt>
      <trkpt lat="44.82941" lon="5.41553">
        <ele>1544.98</ele>
        <time>2011-09-08T09:02:11Z</time>
      </trkpt>
      <trkpt lat="44.82961" lon="5.41546">
        <ele>1542.57</ele>
        <time>2011-09-08T09:01:55Z</time>
      </trkpt>
      <trkpt lat="44.82962" lon="5.41546">
        <ele>1540.17</ele>
        <time>2011-09-08T09:01:54Z</time>
      </trkpt>
      <trkpt lat="44.82964" lon="5.41546">
        <ele>1541.61</ele>
        <time>2011-09-08T09:01:53Z</time>
      </trkpt>
      <trkpt lat="44.82965" lon="5.41545">
        <ele>1539.69</ele>
        <time>2011-09-08T09:01:52Z</time>
      </trkpt>
      <trkpt lat="44.82966" lon="5.41545">
        <ele>1541.13</ele>
        <time>2011-09-08T09:01:51Z</time>
      </trkpt>
      <trkpt lat="44.82972" lon="5.41542">
        <ele>1539.69</ele>
        <time>2011-09-08T09:01:46Z</time>
      </trkpt>
      <trkpt lat="44.82991" lon="5.41535">
        <ele>1538.73</ele>
        <time>2011-09-08T09:01:30Z</time>
      </trkpt>
      <trkpt lat="44.82997" lon="5.41533">
        <ele>1537.29</ele>
        <time>2011-09-08T09:01:25Z</time>
      </trkpt>
      <trkpt lat="44.82998" lon="5.41533">
        <ele>1537.77</ele>
        <time>2011-09-08T09:01:24Z</time>
      </trkpt>
      <trkpt lat="44.83017" lon="5.41526">
        <ele>1535.36</ele>
        <time>2011-09-08T09:01:07Z</time>
      </trkpt>
      <trkpt lat="44.83025" lon="5.41523">
        <ele>1532.96</ele>
        <time>2011-09-08T09:01:00Z</time>
      </trkpt>
      <trkpt lat="44.83031" lon="5.41521">
        <ele>1532.96</ele>
        <time>2011-09-08T09:00:55Z</time>
      </trkpt>
      <trkpt lat="44.83032" lon="5.41521">
        <ele>1530.56</ele>
        <time>2011-09-08T09:00:54Z</time>
      </trkpt>
      <trkpt lat="44.83043" lon="5.41517">
        <ele>1528.63</ele>
        <time>2011-09-08T09:00:45Z</time>
      </trkpt>
      <trkpt lat="44.83046" lon="5.41516">
        <ele>1527.19</ele>
        <time>2011-09-08T09:00:43Z</time>
      </trkpt>
      <trkpt lat="44.83048" lon="5.41516">
        <ele>1526.23</ele>
        <time>2011-09-08T09:00:42Z</time>
      </trkpt>
      <trkpt lat="44.83049" lon="5.41515">
        <ele>1528.15</ele>
        <time>2011-09-08T09:00:41Z</time>
      </trkpt>
      <trkpt lat="44.8305" lon="5.41514">
        <ele>1529.11</ele>
        <time>2011-09-08T09:00:40Z</time>
      </trkpt>
      <trkpt lat="44.83051" lon="5.41514">
        <ele>1527.67</ele>
        <time>2011-09-08T09:00:39Z</time>
      </trkpt>
      <trkpt lat="44.83052" lon="5.41513">
        <ele>1526.23</ele>
        <time>2011-09-08T09:00:38Z</time>
      </trkpt>
      <trkpt lat="44.83054" lon="5.41513">
        <ele>1526.23</ele>
        <time>2011-09-08T09:00:37Z</time>
      </trkpt>
      <trkpt lat="44.83067" lon="5.41507">
        <ele>1525.75</ele>
        <time>2011-09-08T09:00:27Z</time>
      </trkpt>
      <trkpt lat="44.83069" lon="5.41505">
        <ele>1524.79</ele>
        <time>2011-09-08T09:00:25Z</time>
      </trkpt>
      <trkpt lat="44.83071" lon="5.41505">
        <ele>1524.31</ele>
        <time>2011-09-08T09:00:24Z</time>
      </trkpt>
      <trkpt lat="44.83072" lon="5.41504">
        <ele>1526.71</ele>
        <time>2011-09-08T09:00:23Z</time>
      </trkpt>
      <trkpt lat="44.83079" lon="5.41499">
        <ele>1524.31</ele>
        <time>2011-09-08T09:00:17Z</time>
      </trkpt>
      <trkpt lat="44.83093" lon="5.41488">
        <ele>1522.39</ele>
        <time>2011-09-08T09:00:07Z</time>
      </trkpt>
      <trkpt lat="44.83119" lon="5.41463">
        <ele>1521.42</ele>
        <time>2011-09-08T08:59:52Z</time>
      </trkpt>
      <trkpt lat="44.83137" lon="5.41435">
        <ele>1519.5</ele>
        <time>2011-09-08T08:59:37Z</time>
      </trkpt>
      <trkpt lat="44.83143" lon="5.41428">
        <ele>1521.42</ele>
        <time>2011-09-08T08:59:32Z</time>
      </trkpt>
      <trkpt lat="44.83166" lon="5.41404">
        <ele>1516.62</ele>
        <time>2011-09-08T08:59:16Z</time>
      </trkpt>
      <trkpt lat="44.83184" lon="5.41373">
        <ele>1514.21</ele>
        <time>2011-09-08T08:59:03Z</time>
      </trkpt>
      <trkpt lat="44.8319" lon="5.41335">
        <ele>1518.06</ele>
        <time>2011-09-08T08:58:53Z</time>
      </trkpt>
      <trkpt lat="44.83192" lon="5.4129">
        <ele>1516.62</ele>
        <time>2011-09-08T08:58:49Z</time>
      </trkpt>
      <trkpt lat="44.83192" lon="5.41281">
        <ele>1513.73</ele>
        <time>2011-09-08T08:58:48Z</time>
      </trkpt>
      <trkpt lat="44.83191" lon="5.41257">
        <ele>1519.5</ele>
        <time>2011-09-08T08:58:46Z</time>
      </trkpt>
      <trkpt lat="44.83191" lon="5.4125">
        <ele>1522.87</ele>
        <time>2011-09-08T08:58:45Z</time>
      </trkpt>
      <trkpt lat="44.83191" lon="5.41244">
        <ele>1522.39</ele>
        <time>2011-09-08T08:58:44Z</time>
      </trkpt>
      <trkpt lat="44.8319" lon="5.41239">
        <ele>1526.23</ele>
        <time>2011-09-08T08:58:43Z</time>
      </trkpt>
      <trkpt lat="44.83189" lon="5.41225">
        <ele>1528.63</ele>
        <time>2011-09-08T08:58:39Z</time>
      </trkpt>
      <trkpt lat="44.83187" lon="5.41218">
        <ele>1528.63</ele>
        <time>2011-09-08T08:58:36Z</time>
      </trkpt>
      <trkpt lat="44.83184" lon="5.41223">
        <ele>1531.04</ele>
        <time>2011-09-08T08:58:27Z</time>
      </trkpt>
      <trkpt lat="44.83187" lon="5.41222">
        <ele>1531.52</ele>
        <time>2011-09-08T08:58:16Z</time>
      </trkpt>
      <trkpt lat="44.83187" lon="5.41222">
        <ele>1530.08</ele>
        <time>2011-09-08T08:57:37Z</time>
      </trkpt>
      <trkpt lat="44.83187" lon="5.41221">
        <ele>1529.59</ele>
        <time>2011-09-08T08:56:48Z</time>
      </trkpt>
      <trkpt lat="44.83187" lon="5.41221">
        <ele>1529.11</ele>
        <time>2011-09-08T08:56:09Z</time>
      </trkpt>
      <trkpt lat="44.83187" lon="5.41221">
        <ele>1530.56</ele>
        <time>2011-09-08T08:55:29Z</time>
      </trkpt>
      <trkpt lat="44.83187" lon="5.41221">
        <ele>1529.59</ele>
        <time>2011-09-08T08:54:45Z</time>
      </trkpt>
      <trkpt lat="44.83187" lon="5.41221">
        <ele>1529.11</ele>
        <time>2011-09-08T08:54:04Z</time>
      </trkpt>
      <trkpt lat="44.83189" lon="5.41221">
        <ele>1531.04</ele>
        <time>2011-09-08T08:53:55Z</time>
      </trkpt>
      <trkpt lat="44.83195" lon="5.41219">
        <ele>1529.59</ele>
        <time>2011-09-08T08:53:49Z</time>
      </trkpt>
      <trkpt lat="44.83197" lon="5.41219">
        <ele>1527.67</ele>
        <time>2011-09-08T08:53:47Z</time>
      </trkpt>
      <trkpt lat="44.83199" lon="5.4122">
        <ele>1527.67</ele>
        <time>2011-09-08T08:53:45Z</time>
      </trkpt>
      <trkpt lat="44.83204" lon="5.41221">
        <ele>1525.75</ele>
        <time>2011-09-08T08:53:40Z</time>
      </trkpt>
      <trkpt lat="44.83212" lon="5.41221">
        <ele>1522.87</ele>
        <time>2011-09-08T08:53:32Z</time>
      </trkpt>
      <trkpt lat="44.83225" lon="5.4122">
        <ele>1518.54</ele>
        <time>2011-09-08T08:53:22Z</time>
      </trkpt>
      <trkpt lat="44.83234" lon="5.41219">
        <ele>1516.62</ele>
        <time>2011-09-08T08:53:15Z</time>
      </trkpt>
      <trkpt lat="44.83237" lon="5.41219">
        <ele>1515.18</ele>
        <time>2011-09-08T08:53:12Z</time>
      </trkpt>
      <trkpt lat="44.83247" lon="5.4122">
        <ele>1513.73</ele>
        <time>2011-09-08T08:53:03Z</time>
      </trkpt>
      <trkpt lat="44.83267" lon="5.4122">
        <ele>1514.21</ele>
        <time>2011-09-08T08:52:50Z</time>
      </trkpt>
      <trkpt lat="44.83282" lon="5.41218">
        <ele>1511.33</ele>
        <time>2011-09-08T08:52:40Z</time>
      </trkpt>
      <trkpt lat="44.83302" lon="5.41208">
        <ele>1509.89</ele>
        <time>2011-09-08T08:52:27Z</time>
      </trkpt>
      <trkpt lat="44.83331" lon="5.41213">
        <ele>1507</ele>
        <time>2011-09-08T08:52:10Z</time>
      </trkpt>
      <trkpt lat="44.83358" lon="5.41211">
        <ele>1504.12</ele>
        <time>2011-09-08T08:51:53Z</time>
      </trkpt>
      <trkpt lat="44.83378" lon="5.41205">
        <ele>1501.24</ele>
        <time>2011-09-08T08:51:37Z</time>
      </trkpt>
      <trkpt lat="44.83394" lon="5.41196">
        <ele>1496.91</ele>
        <time>2011-09-08T08:51:25Z</time>
      </trkpt>
      <trkpt lat="44.83397" lon="5.412">
        <ele>1496.91</ele>
        <time>2011-09-08T08:51:20Z</time>
      </trkpt>
      <trkpt lat="44.834" lon="5.41198">
        <ele>1491.5234375</ele>
      </trkpt>
      <trkpt lat="44.83406" lon="5.41199">
        <ele>1490.0546875</ele>
      </trkpt>
      <trkpt lat="44.83407" lon="5.41198">
        <ele>1490.0039063</ele>
      </trkpt>
      <trkpt lat="44.83416" lon="5.41195">
        <ele>1488.5703125</ele>
      </trkpt>
      <trkpt lat="44.83423" lon="5.41191">
        <ele>1487.7382813</ele>
      </trkpt>
      <trkpt lat="44.83431" lon="5.41186">
        <ele>1486.6328125</ele>
      </trkpt>
      <trkpt lat="44.83438" lon="5.41178">
        <ele>1486.2304688</ele>
      </trkpt>
      <trkpt lat="44.83445" lon="5.41174">
        <ele>1485.7617188</ele>
      </trkpt>
      <trkpt lat="44.83451" lon="5.41167">
        <ele>1485.5</ele>
      </trkpt>
      <trkpt lat="44.83455" lon="5.41163">
        <ele>1485.125</ele>
      </trkpt>
      <trkpt lat="44.83482" lon="5.41154">
        <ele>1481.25</ele>
      </trkpt>
      <trkpt lat="44.83483" lon="5.41154">
        <ele>1481.1367188</ele>
      </trkpt>
      <trkpt lat="44.8351" lon="5.41147">
        <ele>1476.3085938</ele>
      </trkpt>
      <trkpt lat="44.83511" lon="5.41146">
        <ele>1476.1210938</ele>
      </trkpt>
      <trkpt lat="44.8354" lon="5.41141">
        <ele>1470.3867188</ele>
      </trkpt>
      <trkpt lat="44.83568" lon="5.41132">
        <ele>1464.6132813</ele>
      </trkpt>
      <trkpt lat="44.83589" lon="5.41126">
        <ele>1461.6875</ele>
      </trkpt>
      <trkpt lat="44.83608" lon="5.41127">
        <ele>1459.546875</ele>
      </trkpt>
      <trkpt lat="44.83624" lon="5.41126">
        <ele>1458.2421875</ele>
      </trkpt>
      <trkpt lat="44.83634" lon="5.41132">
        <ele>1456.65625</ele>
      </trkpt>
      <trkpt lat="44.8367" lon="5.41125">
        <ele>1453.4609375</ele>
      </trkpt>
      <trkpt lat="44.83673" lon="5.41125">
        <ele>1453.1523438</ele>
      </trkpt>
      <trkpt lat="44.83746" lon="5.41114">
        <ele>1447.2382813</ele>
      </trkpt>
      <trkpt lat="44.83747" lon="5.41114">
        <ele>1447.0585938</ele>
      </trkpt>
      <trkpt lat="44.83784" lon="5.41112">
        <ele>1441.859375</ele>
      </trkpt>
      <trkpt lat="44.83785" lon="5.4111">
        <ele>1441.8632813</ele>
      </trkpt>
      <trkpt lat="44.83842" lon="5.41101">
        <ele>1435.0117188</ele>
      </trkpt>
      <trkpt lat="44.83904" lon="5.41095">
        <ele>1427.765625</ele>
      </trkpt>
      <trkpt lat="44.83926" lon="5.41094">
        <ele>1424.9648438</ele>
      </trkpt>
      <trkpt lat="44.83927" lon="5.41093">
        <ele>1424.828125</ele>
      </trkpt>
      <trkpt lat="44.83934" lon="5.41089">
        <ele>1424.0585938</ele>
      </trkpt>
      <trkpt lat="44.83934" lon="5.41088">
        <ele>1424.0859375</ele>
      </trkpt>
      <trkpt lat="44.83937" lon="5.41081">
        <ele>1423.6601563</ele>
      </trkpt>
      <trkpt lat="44.83937" lon="5.4108">
        <ele>1423.6601563</ele>
      </trkpt>
      <trkpt lat="44.83936" lon="5.41074">
        <ele>1423.84375</ele>
      </trkpt>
      <trkpt lat="44.83933" lon="5.41069">
        <ele>1424.2421875</ele>
      </trkpt>
      <trkpt lat="44.83923" lon="5.41062">
        <ele>1426.1328125</ele>
      </trkpt>
      <trkpt lat="44.83912" lon="5.4106">
        <ele>1427.96875</ele>
      </trkpt>
      <trkpt lat="44.83883" lon="5.41045">
        <ele>1430.3007813</ele>
      </trkpt>
      <trkpt lat="44.83848" lon="5.41022">
        <ele>1430.5273438</ele>
      </trkpt>
      <trkpt lat="44.83818" lon="5.40992">
        <ele>1423.203125</ele>
      </trkpt>
      <trkpt lat="44.8378" lon="5.40969">
        <ele>1414.3476563</ele>
      </trkpt>
      <trkpt lat="44.83746" lon="5.40947">
        <ele>1405.6132813</ele>
      </trkpt>
      <trkpt lat="44.83713" lon="5.40932">
        <ele>1398.5625</ele>
      </trkpt>
      <trkpt lat="44.83663" lon="5.4092">
        <ele>1394</ele>
      </trkpt>
      <trkpt lat="44.83611" lon="5.40885">
        <ele>1382.0234375</ele>
      </trkpt>
      <trkpt lat="44.83547" lon="5.40838">
        <ele>1374.25</ele>
      </trkpt>
      <trkpt lat="44.83491" lon="5.40797">
        <ele>1362.0234375</ele>
      </trkpt>
      <trkpt lat="44.83471" lon="5.40781">
        <ele>1357.0546875</ele>
      </trkpt>
      <trkpt lat="44.83458" lon="5.40763">
        <ele>1351.7734375</ele>
      </trkpt>
      <trkpt lat="44.83431" lon="5.40739">
        <ele>1346.71875</ele>
      </trkpt>
      <trkpt lat="44.83431" lon="5.40738">
        <ele>1346.46875</ele>
      </trkpt>
      <trkpt lat="44.8343" lon="5.4073">
        <ele>1343.8007813</ele>
      </trkpt>
      <trkpt lat="44.8343" lon="5.40729">
        <ele>1343.3007813</ele>
      </trkpt>
      <trkpt lat="44.83435" lon="5.40721">
        <ele>1340.2539063</ele>
      </trkpt>
      <trkpt lat="44.83438" lon="5.4072">
        <ele>1339.5742188</ele>
      </trkpt>
      <trkpt lat="44.83448" lon="5.40719">
        <ele>1337.4960938</ele>
      </trkpt>
      <trkpt lat="44.83466" lon="5.40722">
        <ele>1335.2148438</ele>
      </trkpt>
      <trkpt lat="44.83489" lon="5.40726">
        <ele>1333.3085938</ele>
      </trkpt>
      <trkpt lat="44.83491" lon="5.40726">
        <ele>1333.0390625</ele>
      </trkpt>
      <trkpt lat="44.83504" lon="5.40726">
        <ele>1331.046875</ele>
      </trkpt>
      <trkpt lat="44.83506" lon="5.40726">
        <ele>1330.8671875</ele>
      </trkpt>
      <trkpt lat="44.83542" lon="5.40722">
        <ele>1325.1015625</ele>
      </trkpt>
      <trkpt lat="44.83578" lon="5.40712">
        <ele>1317.8554688</ele>
      </trkpt>
      <trkpt lat="44.83607" lon="5.40702">
        <ele>1311.5507813</ele>
      </trkpt>
      <trkpt lat="44.83607" lon="5.40701">
        <ele>1311.0507813</ele>
      </trkpt>
      <trkpt lat="44.83618" lon="5.40693">
        <ele>1307.1171875</ele>
      </trkpt>
      <trkpt lat="44.83626" lon="5.40687">
        <ele>1304.171875</ele>
      </trkpt>
      <trkpt lat="44.83627" lon="5.40685">
        <ele>1303.4179688</ele>
      </trkpt>
      <trkpt lat="44.83633" lon="5.40681">
        <ele>1301.4960938</ele>
      </trkpt>
      <trkpt lat="44.83633" lon="5.4068">
        <ele>1301.1835938</ele>
      </trkpt>
      <trkpt lat="44.83647" lon="5.40674">
        <ele>1297.421875</ele>
      </trkpt>
      <trkpt lat="44.83649" lon="5.40674">
        <ele>1297.1484375</ele>
      </trkpt>
      <trkpt lat="44.83667" lon="5.40669">
        <ele>1293.1328125</ele>
      </trkpt>
      <trkpt lat="44.8367" lon="5.40667">
        <ele>1292.203125</ele>
      </trkpt>
      <trkpt lat="44.83697" lon="5.40656">
        <ele>1285.859375</ele>
      </trkpt>
      <trkpt lat="44.83719" lon="5.40654">
        <ele>1283.2929688</ele>
      </trkpt>
      <trkpt lat="44.83721" lon="5.40654">
        <ele>1283.1289063</ele>
      </trkpt>
      <trkpt lat="44.83741" lon="5.40649">
        <ele>1280.3632813</ele>
      </trkpt>
      <trkpt lat="44.83754" lon="5.40649">
        <ele>1279.5625</ele>
      </trkpt>
      <trkpt lat="44.83775" lon="5.40645">
        <ele>1276.7382813</ele>
      </trkpt>
      <trkpt lat="44.83798" lon="5.40648">
        <ele>1275.3085938</ele>
      </trkpt>
      <trkpt lat="44.83817" lon="5.40648">
        <ele>1273.9492188</ele>
      </trkpt>
      <trkpt lat="44.83818" lon="5.40646">
        <ele>1273.4648438</ele>
      </trkpt>
      <trkpt lat="44.83829" lon="5.40641">
        <ele>1271.3007813</ele>
      </trkpt>
      <trkpt lat="44.83839" lon="5.40625">
        <ele>1267.9570313</ele>
      </trkpt>
      <trkpt lat="44.83845" lon="5.40632">
        <ele>1268.546875</ele>
      </trkpt>
      <trkpt lat="44.83846" lon="5.40631">
        <ele>1268.359375</ele>
      </trkpt>
      <trkpt lat="44.8386" lon="5.4063">
        <ele>1266.8398438</ele>
      </trkpt>
      <trkpt lat="44.8386" lon="5.4063">
        <ele>1266.7734375</ele>
      </trkpt>
      <trkpt lat="44.83873" lon="5.40626">
        <ele>1264.515625</ele>
      </trkpt>
      <trkpt lat="44.83875" lon="5.40625">
        <ele>1264.171875</ele>
      </trkpt>
      <trkpt lat="44.8389" lon="5.40616">
        <ele>1261.109375</ele>
      </trkpt>
      <trkpt lat="44.83892" lon="5.40616">
        <ele>1260.9101563</ele>
      </trkpt>
      <trkpt lat="44.83911" lon="5.40606">
        <ele>1257.6289063</ele>
      </trkpt>
      <trkpt lat="44.83911" lon="5.40605">
        <ele>1257.5390625</ele>
      </trkpt>
      <trkpt lat="44.83929" lon="5.40591">
        <ele>1253.3828125</ele>
      </trkpt>
      <trkpt lat="44.83941" lon="5.406">
        <ele>1253.7851563</ele>
      </trkpt>
      <trkpt lat="44.83941" lon="5.406">
        <ele>1253.7265625</ele>
      </trkpt>
      <trkpt lat="44.83955" lon="5.40604">
        <ele>1253.3125</ele>
      </trkpt>
      <trkpt lat="44.83955" lon="5.40604">
        <ele>1253.2578125</ele>
      </trkpt>
      <trkpt lat="44.83977" lon="5.40626">
        <ele>1256.2695313</ele>
      </trkpt>
      <trkpt lat="44.83992" lon="5.40634">
        <ele>1257.171875</ele>
      </trkpt>
      <trkpt lat="44.84001" lon="5.40635">
        <ele>1256.2148438</ele>
      </trkpt>
      <trkpt lat="44.84016" lon="5.40624">
        <ele>1250.8554688</ele>
      </trkpt>
      <trkpt lat="44.84032" lon="5.4062">
        <ele>1247.4804688</ele>
      </trkpt>
      <trkpt lat="44.84033" lon="5.4062">
        <ele>1247.3007813</ele>
      </trkpt>
      <trkpt lat="44.84055" lon="5.40618">
        <ele>1243.1210938</ele>
      </trkpt>
      <trkpt lat="44.84056" lon="5.40618">
        <ele>1243.0078125</ele>
      </trkpt>
      <trkpt lat="44.84065" lon="5.40614">
        <ele>1240.2695313</ele>
      </trkpt>
      <trkpt lat="44.84066" lon="5.40614">
        <ele>1240.15625</ele>
      </trkpt>
      <trkpt lat="44.84089" lon="5.40595">
        <ele>1231.9296875</ele>
      </trkpt>
      <trkpt lat="44.84133" lon="5.40571">
        <ele>1223.84375</ele>
      </trkpt>
      <trkpt lat="44.84134" lon="5.40569">
        <ele>1223.9414063</ele>
      </trkpt>
      <trkpt lat="44.84177" lon="5.4055">
        <ele>1218.9179688</ele>
      </trkpt>
      <trkpt lat="44.84194" lon="5.40533">
        <ele>1220.3671875</ele>
      </trkpt>
      <trkpt lat="44.84194" lon="5.40532">
        <ele>1220.5507813</ele>
      </trkpt>
      <trkpt lat="44.84209" lon="5.40514">
        <ele>1223.5195313</ele>
      </trkpt>
      <trkpt lat="44.84228" lon="5.40504">
        <ele>1223.6171875</ele>
      </trkpt>
      <trkpt lat="44.84277" lon="5.40495">
        <ele>1223.8789063</ele>
      </trkpt>
      <trkpt lat="44.84351" lon="5.40477">
        <ele>1226.8359375</ele>
      </trkpt>
      <trkpt lat="44.84351" lon="5.40476">
        <ele>1227.0976563</ele>
      </trkpt>
      <trkpt lat="44.8438" lon="5.40467">
        <ele>1228.9765625</ele>
      </trkpt>
      <trkpt lat="44.84428" lon="5.40438">
        <ele>1236.171875</ele>
      </trkpt>
      <trkpt lat="44.84443" lon="5.40426">
        <ele>1240.3203125</ele>
      </trkpt>
      <trkpt lat="44.84467" lon="5.40408">
        <ele>1247.3515625</ele>
      </trkpt>
      <trkpt lat="44.84467" lon="5.40408">
        <ele>1247.015625</ele>
      </trkpt>
      <trkpt lat="44.84482" lon="5.40405">
        <ele>1247.2578125</ele>
      </trkpt>
      <trkpt lat="44.84494" lon="5.4041">
        <ele>1244.3242188</ele>
      </trkpt>
      <trkpt lat="44.84551" lon="5.40392">
        <ele>1245.7070313</ele>
      </trkpt>
      <trkpt lat="44.84593" lon="5.40373">
        <ele>1250.1835938</ele>
      </trkpt>
      <trkpt lat="44.84612" lon="5.40364">
        <ele>1252.0664063</ele>
      </trkpt>
      <trkpt lat="44.84612" lon="5.40365">
        <ele>1251.65625</ele>
      </trkpt>
      <trkpt lat="44.84638" lon="5.40342">
        <ele>1260.3789063</ele>
      </trkpt>
      <trkpt lat="44.8464" lon="5.40342">
        <ele>1260.109375</ele>
      </trkpt>
      <trkpt lat="44.84686" lon="5.40339">
        <ele>1254.8125</ele>
      </trkpt>
      <trkpt lat="44.84723" lon="5.40307">
        <ele>1267.25</ele>
      </trkpt>
      <trkpt lat="44.84723" lon="5.40306">
        <ele>1268.109375</ele>
      </trkpt>
      <trkpt lat="44.84743" lon="5.40292">
        <ele>1274.2578125</ele>
      </trkpt>
      <trkpt lat="44.84744" lon="5.40292">
        <ele>1274.2148438</ele>
      </trkpt>
      <trkpt lat="44.84758" lon="5.40275">
        <ele>1283.1953125</ele>
      </trkpt>
      <trkpt lat="44.84758" lon="5.40275">
        <ele>1283.171875</ele>
      </trkpt>
      <trkpt lat="44.84768" lon="5.40273">
        <ele>1284.1054688</ele>
      </trkpt>
      <trkpt lat="44.8477" lon="5.40273">
        <ele>1284.1367188</ele>
      </trkpt>
      <trkpt lat="44.84791" lon="5.40293">
        <ele>1273.3242188</ele>
      </trkpt>
      <trkpt lat="44.84792" lon="5.40293">
        <ele>1273.3476563</ele>
      </trkpt>
      <trkpt lat="44.84809" lon="5.40298">
        <ele>1271.109375</ele>
      </trkpt>
      <trkpt lat="44.84809" lon="5.40299">
        <ele>1270.6835938</ele>
      </trkpt>
      <trkpt lat="44.84839" lon="5.40301">
        <ele>1270.6953125</ele>
      </trkpt>
      <trkpt lat="44.84882" lon="5.40282">
        <ele>1282.2109375</ele>
      </trkpt>
      <trkpt lat="44.84883" lon="5.40283">
        <ele>1281.5039063</ele>
      </trkpt>
      <trkpt lat="44.84892" lon="5.40285">
        <ele>1281.0429688</ele>
      </trkpt>
      <trkpt lat="44.84931" lon="5.403">
        <ele>1274.1210938</ele>
      </trkpt>
      <trkpt lat="44.84963" lon="5.40309">
        <ele>1270.1953125</ele>
      </trkpt>
      <trkpt lat="44.85058" lon="5.40304">
        <ele>1274.1953125</ele>
      </trkpt>
      <trkpt lat="44.85138" lon="5.40298">
        <ele>1272.859375</ele>
      </trkpt>
      <trkpt lat="44.85138" lon="5.40296">
        <ele>1273.5429688</ele>
      </trkpt>
      <trkpt lat="44.85161" lon="5.40289">
        <ele>1274.1875</ele>
      </trkpt>
      <trkpt lat="44.85176" lon="5.4026">
        <ele>1284.234375</ele>
      </trkpt>
      <trkpt lat="44.85177" lon="5.4026">
        <ele>1284.1601563</ele>
      </trkpt>
      <trkpt lat="44.85188" lon="5.40251">
        <ele>1286.8242188</ele>
      </trkpt>
      <trkpt lat="44.85209" lon="5.40246">
        <ele>1287.2617188</ele>
      </trkpt>
      <trkpt lat="44.85244" lon="5.40231">
        <ele>1292.3125</ele>
      </trkpt>
      <trkpt lat="44.85274" lon="5.4023">
        <ele>1294.0351563</ele>
      </trkpt>
      <trkpt lat="44.85307" lon="5.40238">
        <ele>1292.6796875</ele>
      </trkpt>
      <trkpt lat="44.85346" lon="5.4024">
        <ele>1293.4179688</ele>
      </trkpt>
      <trkpt lat="44.85372" lon="5.40238">
        <ele>1295.0273438</ele>
      </trkpt>
      <trkpt lat="44.85422" lon="5.4024">
        <ele>1293.21875</ele>
      </trkpt>
      <trkpt lat="44.85424" lon="5.4024">
        <ele>1293.1835938</ele>
      </trkpt>
      <trkpt lat="44.85448" lon="5.4023">
        <ele>1295.3828125</ele>
      </trkpt>
      <trkpt lat="44.85449" lon="5.4023">
        <ele>1295.5546875</ele>
      </trkpt>
      <trkpt lat="44.855" lon="5.40199">
        <ele>1302.578125</ele>
      </trkpt>
      <trkpt lat="44.855" lon="5.40197">
        <ele>1302.9335938</ele>
      </trkpt>
      <trkpt lat="44.85517" lon="5.40186">
        <ele>1305.2539063</ele>
      </trkpt>
      <trkpt lat="44.8554" lon="5.40173">
        <ele>1308.34375</ele>
      </trkpt>
      <trkpt lat="44.8559" lon="5.40173">
        <ele>1309.4726563</ele>
      </trkpt>
      <trkpt lat="44.85647" lon="5.4018">
        <ele>1308.4765625</ele>
      </trkpt>
      <trkpt lat="44.85694" lon="5.40177">
        <ele>1311.2460938</ele>
      </trkpt>
      <trkpt lat="44.85722" lon="5.40174">
        <ele>1313.4453125</ele>
      </trkpt>
      <trkpt lat="44.85765" lon="5.40171">
        <ele>1316.8007813</ele>
      </trkpt>
      <trkpt lat="44.85813" lon="5.40173">
        <ele>1321.2890625</ele>
      </trkpt>
      <trkpt lat="44.85846" lon="5.40179">
        <ele>1325.171875</ele>
      </trkpt>
      <trkpt lat="44.85909" lon="5.40217">
        <ele>1323.9804688</ele>
      </trkpt>
      <trkpt lat="44.85968" lon="5.40216">
        <ele>1330.9140625</ele>
      </trkpt>
      <trkpt lat="44.86014" lon="5.40224">
        <ele>1333.2421875</ele>
      </trkpt>
      <trkpt lat="44.86058" lon="5.40244">
        <ele>1331.140625</ele>
      </trkpt>
      <trkpt lat="44.86059" lon="5.40244">
        <ele>1331.2617188</ele>
      </trkpt>
      <trkpt lat="44.86093" lon="5.40266">
        <ele>1327.6640625</ele>
      </trkpt>
      <trkpt lat="44.86094" lon="5.40266">
        <ele>1327.7734375</ele>
      </trkpt>
      <trkpt lat="44.86131" lon="5.40279">
        <ele>1326.9648438</ele>
      </trkpt>
      <trkpt lat="44.86132" lon="5.40279">
        <ele>1327.0117188</ele>
      </trkpt>
      <trkpt lat="44.86151" lon="5.40282">
        <ele>1327.4609375</ele>
      </trkpt>
      <trkpt lat="44.8622" lon="5.40312">
        <ele>1324.3007813</ele>
      </trkpt>
      <trkpt lat="44.86263" lon="5.40322">
        <ele>1324.1289063</ele>
      </trkpt>
      <trkpt lat="44.86302" lon="5.40342">
        <ele>1321.1367188</ele>
      </trkpt>
      <trkpt lat="44.86332" lon="5.40367">
        <ele>1314.359375</ele>
      </trkpt>
      <trkpt lat="44.86356" lon="5.40377">
        <ele>1313.0585938</ele>
      </trkpt>
      <trkpt lat="44.86394" lon="5.40388">
        <ele>1312.5742188</ele>
      </trkpt>
      <trkpt lat="44.86452" lon="5.40392">
        <ele>1314.9726563</ele>
      </trkpt>
      <trkpt lat="44.86474" lon="5.404">
        <ele>1313.0898438</ele>
      </trkpt>
      <trkpt lat="44.86475" lon="5.40401">
        <ele>1312.8242188</ele>
      </trkpt>
      <trkpt lat="44.8651" lon="5.4041">
        <ele>1311.8476563</ele>
      </trkpt>
      <trkpt lat="44.86549" lon="5.40424">
        <ele>1307.9726563</ele>
      </trkpt>
      <trkpt lat="44.86607" lon="5.40434">
        <ele>1305.4492188</ele>
      </trkpt>
      <trkpt lat="44.86647" lon="5.40443">
        <ele>1302.9453125</ele>
      </trkpt>
      <trkpt lat="44.86718" lon="5.40473">
        <ele>1293.8710938</ele>
      </trkpt>
      <trkpt lat="44.86759" lon="5.40491">
        <ele>1286.859375</ele>
      </trkpt>
      <trkpt lat="44.86778" lon="5.40495">
        <ele>1285.3320313</ele>
      </trkpt>
      <trkpt lat="44.86813" lon="5.40514">
        <ele>1278.1171875</ele>
      </trkpt>
      <trkpt lat="44.86864" lon="5.40538">
        <ele>1270.1171875</ele>
      </trkpt>
      <trkpt lat="44.86878" lon="5.40557">
        <ele>1264.109375</ele>
      </trkpt>
      <trkpt lat="44.86918" lon="5.40573">
        <ele>1262.1445313</ele>
      </trkpt>
      <trkpt lat="44.86967" lon="5.40597">
        <ele>1257.875</ele>
      </trkpt>
      <trkpt lat="44.86998" lon="5.40624">
        <ele>1250.09375</ele>
      </trkpt>
      <trkpt lat="44.87052" lon="5.40643">
        <ele>1245.1367188</ele>
      </trkpt>
      <trkpt lat="44.87088" lon="5.40657">
        <ele>1240.2773438</ele>
      </trkpt>
      <trkpt lat="44.87115" lon="5.4067">
        <ele>1234.5859375</ele>
      </trkpt>
      <trkpt lat="44.87115" lon="5.4067">
        <ele>1234.5625</ele>
      </trkpt>
      <trkpt lat="44.87135" lon="5.40682">
        <ele>1230.4726563</ele>
      </trkpt>
      <trkpt lat="44.87161" lon="5.40693">
        <ele>1227.03125</ele>
      </trkpt>
      <trkpt lat="44.872" lon="5.4069">
        <ele>1227.8867188</ele>
      </trkpt>
      <trkpt lat="44.87222" lon="5.40685">
        <ele>1229.1289063</ele>
      </trkpt>
      <trkpt lat="44.87222" lon="5.40684">
        <ele>1229.1445313</ele>
      </trkpt>
      <trkpt lat="44.87246" lon="5.40664">
        <ele>1229.9804688</ele>
      </trkpt>
      <trkpt lat="44.87244" lon="5.40599">
        <ele>1227.8515625</ele>
      </trkpt>
      <trkpt lat="44.87244" lon="5.40501">
        <ele>1228.453125</ele>
      </trkpt>
      <trkpt lat="44.87243" lon="5.40434">
        <ele>1229.0664063</ele>
      </trkpt>
      <trkpt lat="44.87239" lon="5.4042">
        <ele>1230.8828125</ele>
      </trkpt>
      <trkpt lat="44.87201" lon="5.40338">
        <ele>1244.8125</ele>
      </trkpt>
      <trkpt lat="44.87181" lon="5.40289">
        <ele>1250.1914063</ele>
      </trkpt>
      <trkpt lat="44.87175" lon="5.40278">
        <ele>1251.4179688</ele>
      </trkpt>
      <trkpt lat="44.87174" lon="5.40278">
        <ele>1251.640625</ele>
      </trkpt>
      <trkpt lat="44.87152" lon="5.40257">
        <ele>1257.4375</ele>
      </trkpt>
      <trkpt lat="44.87118" lon="5.40233">
        <ele>1265.9414063</ele>
      </trkpt>
      <trkpt lat="44.87019" lon="5.40142">
        <ele>1283.0195313</ele>
      </trkpt>
      <trkpt lat="44.86951" lon="5.40066">
        <ele>1291.0351563</ele>
      </trkpt>
      <trkpt lat="44.86931" lon="5.40014">
        <ele>1290.4765625</ele>
      </trkpt>
      <trkpt lat="44.8692" lon="5.39997">
        <ele>1291.3632813</ele>
      </trkpt>
      <trkpt lat="44.86904" lon="5.39955">
        <ele>1290.1953125</ele>
      </trkpt>
      <trkpt lat="44.86876" lon="5.39903">
        <ele>1291.9570313</ele>
      </trkpt>
      <trkpt lat="44.86862" lon="5.39873">
        <ele>1291.5898438</ele>
      </trkpt>
      <trkpt lat="44.86821" lon="5.39815">
        <ele>1296.15625</ele>
      </trkpt>
      <trkpt lat="44.86795" lon="5.39769">
        <ele>1296.9023438</ele>
      </trkpt>
      <trkpt lat="44.86795" lon="5.39768">
        <ele>1296.7890625</ele>
      </trkpt>
      <trkpt lat="44.86764" lon="5.3973">
        <ele>1301.0585938</ele>
      </trkpt>
      <trkpt lat="44.86764" lon="5.39729">
        <ele>1300.9726563</ele>
      </trkpt>
      <trkpt lat="44.86751" lon="5.39704">
        <ele>1301.1328125</ele>
      </trkpt>
      <trkpt lat="44.8673" lon="5.39674">
        <ele>1302.8710938</ele>
      </trkpt>
      <trkpt lat="44.86695" lon="5.39643">
        <ele>1309.4023438</ele>
      </trkpt>
      <trkpt lat="44.86629" lon="5.39598">
        <ele>1319.375</ele>
      </trkpt>
      <trkpt lat="44.86578" lon="5.39561">
        <ele>1325.6992188</ele>
      </trkpt>
      <trkpt lat="44.86512" lon="5.39523">
        <ele>1332.3671875</ele>
      </trkpt>
      <trkpt lat="44.8647" lon="5.39503">
        <ele>1337.2070313</ele>
      </trkpt>
      <trkpt lat="44.86436" lon="5.39486">
        <ele>1339.84375</ele>
      </trkpt>
      <trkpt lat="44.86352" lon="5.3945">
        <ele>1344.0820313</ele>
      </trkpt>
      <trkpt lat="44.8628" lon="5.39437">
        <ele>1350.7851563</ele>
      </trkpt>
      <trkpt lat="44.86248" lon="5.39431">
        <ele>1353.7851563</ele>
      </trkpt>
      <trkpt lat="44.86112" lon="5.39388">
        <ele>1361.1445313</ele>
      </trkpt>
      <trkpt lat="44.86078" lon="5.39382">
        <ele>1365.6914063</ele>
      </trkpt>
      <trkpt lat="44.86011" lon="5.39357">
        <ele>1368.9179688</ele>
      </trkpt>
      <trkpt lat="44.85973" lon="5.39337">
        <ele>1368.5976563</ele>
      </trkpt>
      <trkpt lat="44.85897" lon="5.39309">
        <ele>1372.1640625</ele>
      </trkpt>
      <trkpt lat="44.85825" lon="5.39288">
        <ele>1376.6523438</ele>
      </trkpt>
      <trkpt lat="44.85788" lon="5.3927">
        <ele>1377.6953125</ele>
      </trkpt>
      <trkpt lat="44.85788" lon="5.39271">
        <ele>1377.9726563</ele>
      </trkpt>
      <trkpt lat="44.85722" lon="5.39237">
        <ele>1379.3242188</ele>
      </trkpt>
      <trkpt lat="44.85675" lon="5.39204">
        <ele>1377.6835938</ele>
      </trkpt>
      <trkpt lat="44.85633" lon="5.39173">
        <ele>1375.5859375</ele>
      </trkpt>
      <trkpt lat="44.85613" lon="5.39158">
        <ele>1374.6367188</ele>
      </trkpt>
      <trkpt lat="44.85587" lon="5.39144">
        <ele>1375.9140625</ele>
      </trkpt>
      <trkpt lat="44.85537" lon="5.39109">
        <ele>1376.890625</ele>
      </trkpt>
      <trkpt lat="44.85477" lon="5.3907">
        <ele>1379.5585938</ele>
      </trkpt>
      <trkpt lat="44.85412" lon="5.39041">
        <ele>1388.5039063</ele>
      </trkpt>
      <trkpt lat="44.85373" lon="5.39007">
        <ele>1388.4453125</ele>
      </trkpt>
      <trkpt lat="44.85373" lon="5.39005">
        <ele>1387.84375</ele>
      </trkpt>
      <trkpt lat="44.85336" lon="5.38981">
        <ele>1390.3710938</ele>
      </trkpt>
      <trkpt lat="44.8528" lon="5.38939">
        <ele>1393.0351563</ele>
      </trkpt>
      <trkpt lat="44.85257" lon="5.38915">
        <ele>1392.0820313</ele>
      </trkpt>
      <trkpt lat="44.85193" lon="5.38853">
        <ele>1394.1367188</ele>
      </trkpt>
      <trkpt lat="44.85193" lon="5.38852">
        <ele>1393.9140625</ele>
      </trkpt>
      <trkpt lat="44.85169" lon="5.38839">
        <ele>1397.8789063</ele>
      </trkpt>
      <trkpt lat="44.85133" lon="5.38819">
        <ele>1403.828125</ele>
      </trkpt>
      <trkpt lat="44.85088" lon="5.38803">
        <ele>1408.9726563</ele>
      </trkpt>
      <trkpt lat="44.85035" lon="5.388">
        <ele>1413.5820313</ele>
      </trkpt>
      <trkpt lat="44.84963" lon="5.38799">
        <ele>1414.0898438</ele>
      </trkpt>
      <trkpt lat="44.84963" lon="5.38799">
        <ele>1414.0742188</ele>
      </trkpt>
      <trkpt lat="44.84846" lon="5.38799">
        <ele>1415.671875</ele>
      </trkpt>
      <trkpt lat="44.84846" lon="5.38798">
        <ele>1415.3984375</ele>
      </trkpt>
      <trkpt lat="44.84825" lon="5.38798">
        <ele>1415.3984375</ele>
      </trkpt>
      <trkpt lat="44.84824" lon="5.38796">
        <ele>1414.84375</ele>
      </trkpt>
      <trkpt lat="44.84794" lon="5.38789">
        <ele>1412.0703125</ele>
      </trkpt>
      <trkpt lat="44.84794" lon="5.38788">
        <ele>1411.796875</ele>
      </trkpt>
      <trkpt lat="44.84761" lon="5.38772">
        <ele>1407.0351563</ele>
      </trkpt>
      <trkpt lat="44.84761" lon="5.38771">
        <ele>1406.8125</ele>
      </trkpt>
      <trkpt lat="44.84754" lon="5.38763">
        <ele>1404.8515625</ele>
      </trkpt>
      <trkpt lat="44.84739" lon="5.38749">
        <ele>1401.6484375</ele>
      </trkpt>
      <trkpt lat="44.84695" lon="5.38719">
        <ele>1397.6953125</ele>
      </trkpt>
      <trkpt lat="44.84631" lon="5.38664">
        <ele>1389.9375</ele>
      </trkpt>
      <trkpt lat="44.84593" lon="5.3863">
        <ele>1382.5976563</ele>
      </trkpt>
      <trkpt lat="44.84565" lon="5.38602">
        <ele>1379.2148438</ele>
      </trkpt>
      <trkpt lat="44.84564" lon="5.38602">
        <ele>1379.2695313</ele>
      </trkpt>
      <trkpt lat="44.84548" lon="5.38585">
        <ele>1378.1992188</ele>
      </trkpt>
      <trkpt lat="44.84534" lon="5.38571">
        <ele>1377.671875</ele>
      </trkpt>
      <trkpt lat="44.84526" lon="5.38568">
        <ele>1378.1132813</ele>
      </trkpt>
      <trkpt lat="44.84487" lon="5.38581">
        <ele>1383.421875</ele>
      </trkpt>
      <trkpt lat="44.84458" lon="5.38591">
        <ele>1387.4804688</ele>
      </trkpt>
      <trkpt lat="44.84428" lon="5.38604">
        <ele>1390.8242188</ele>
      </trkpt>
      <trkpt lat="44.84406" lon="5.38612">
        <ele>1393.8125</ele>
      </trkpt>
      <trkpt lat="44.8439" lon="5.38622">
        <ele>1396.2460938</ele>
      </trkpt>
      <trkpt lat="44.84366" lon="5.38627">
        <ele>1398.734375</ele>
      </trkpt>
      <trkpt lat="44.84367" lon="5.38627">
        <ele>1398.6875</ele>
      </trkpt>
      <trkpt lat="44.84394" lon="5.386">
        <ele>1394.1484375</ele>
      </trkpt>
      <trkpt lat="44.84422" lon="5.38571">
        <ele>1389.6328125</ele>
      </trkpt>
      <trkpt lat="44.84422" lon="5.38568">
        <ele>1389.5507813</ele>
      </trkpt>
      <trkpt lat="44.84434" lon="5.38549">
        <ele>1388.0585938</ele>
      </trkpt>
      <trkpt lat="44.84445" lon="5.38535">
        <ele>1386.5351563</ele>
      </trkpt>
      <trkpt lat="44.84445" lon="5.38534">
        <ele>1386.5351563</ele>
      </trkpt>
      <trkpt lat="44.8447" lon="5.38495">
        <ele>1383.5703125</ele>
      </trkpt>
      <trkpt lat="44.84483" lon="5.38467">
        <ele>1382.8164063</ele>
      </trkpt>
      <trkpt lat="44.84492" lon="5.3844">
        <ele>1382.9375</ele>
      </trkpt>
      <trkpt lat="44.84494" lon="5.3842">
        <ele>1383.5234375</ele>
      </trkpt>
      <trkpt lat="44.8449" lon="5.38395">
        <ele>1384.9960938</ele>
      </trkpt>
      <trkpt lat="44.84481" lon="5.38357">
        <ele>1387.921875</ele>
      </trkpt>
      <trkpt lat="44.84464" lon="5.38317">
        <ele>1390.8710938</ele>
      </trkpt>
      <trkpt lat="44.84445" lon="5.38291">
        <ele>1393.34375</ele>
      </trkpt>
      <trkpt lat="44.84427" lon="5.3827">
        <ele>1395.4921875</ele>
      </trkpt>
      <trkpt lat="44.84414" lon="5.38257">
        <ele>1396.2382813</ele>
      </trkpt>
      <trkpt lat="44.84412" lon="5.38254">
        <ele>1396.2890625</ele>
      </trkpt>
      <trkpt lat="44.84406" lon="5.38244">
        <ele>1396.25</ele>
      </trkpt>
      <trkpt lat="44.84401" lon="5.38234">
        <ele>1396.0742188</ele>
      </trkpt>
      <trkpt lat="44.84401" lon="5.38234">
        <ele>1396.0195313</ele>
      </trkpt>
      <trkpt lat="44.84402" lon="5.38216">
        <ele>1395.0351563</ele>
      </trkpt>
      <trkpt lat="44.84403" lon="5.38214">
        <ele>1394.9101563</ele>
      </trkpt>
      <trkpt lat="44.8441" lon="5.38198">
        <ele>1393.6328125</ele>
      </trkpt>
      <trkpt lat="44.84431" lon="5.38159">
        <ele>1390.9960938</ele>
      </trkpt>
      <trkpt lat="44.84445" lon="5.38133">
        <ele>1391.6953125</ele>
      </trkpt>
      <trkpt lat="44.84464" lon="5.38122">
        <ele>1391.2460938</ele>
      </trkpt>
      <trkpt lat="44.84465" lon="5.38122">
        <ele>1391.15625</ele>
      </trkpt>
      <trkpt lat="44.84478" lon="5.38117">
        <ele>1390.8320313</ele>
      </trkpt>
      <trkpt lat="44.84478" lon="5.38116">
        <ele>1390.9296875</ele>
      </trkpt>
      <trkpt lat="44.84488" lon="5.38102">
        <ele>1392.3085938</ele>
      </trkpt>
      <trkpt lat="44.845" lon="5.38085">
        <ele>1394.6914063</ele>
      </trkpt>
      <trkpt lat="44.84509" lon="5.38075">
        <ele>1396.0820313</ele>
      </trkpt>
      <trkpt lat="44.84509" lon="5.38075">
        <ele>1396.0703125</ele>
      </trkpt>
      <trkpt lat="44.84529" lon="5.38069">
        <ele>1396.921875</ele>
      </trkpt>
      <trkpt lat="44.84546" lon="5.38074">
        <ele>1396.1601563</ele>
      </trkpt>
      <trkpt lat="44.84559" lon="5.38069">
        <ele>1397.3007813</ele>
      </trkpt>
      <trkpt lat="44.84569" lon="5.3806">
        <ele>1398.953125</ele>
      </trkpt>
      <trkpt lat="44.84574" lon="5.38046">
        <ele>1400.578125</ele>
      </trkpt>
      <trkpt lat="44.84574" lon="5.38026">
        <ele>1401.4101563</ele>
      </trkpt>
      <trkpt lat="44.84572" lon="5.38008">
        <ele>1400.21875</ele>
      </trkpt>
      <trkpt lat="44.84561" lon="5.37996">
        <ele>1399.9296875</ele>
      </trkpt>
      <trkpt lat="44.84541" lon="5.37987">
        <ele>1400.6757813</ele>
      </trkpt>
      <trkpt lat="44.84522" lon="5.3798">
        <ele>1401.7382813</ele>
      </trkpt>
      <trkpt lat="44.84504" lon="5.37971">
        <ele>1403.1523438</ele>
      </trkpt>
      <trkpt lat="44.845" lon="5.3796">
        <ele>1402.9453125</ele>
      </trkpt>
      <trkpt lat="44.84488" lon="5.37946">
        <ele>1403.8203125</ele>
      </trkpt>
      <trkpt lat="44.84473" lon="5.37927">
        <ele>1403.9179688</ele>
      </trkpt>
      <trkpt lat="44.84473" lon="5.37926">
        <ele>1403.8359375</ele>
      </trkpt>
      <trkpt lat="44.8447" lon="5.37916">
        <ele>1402.9765625</ele>
      </trkpt>
      <trkpt lat="44.84451" lon="5.37891">
        <ele>1402.40625</ele>
      </trkpt>
      <trkpt lat="44.84431" lon="5.37863">
        <ele>1400.8242188</ele>
      </trkpt>
      <trkpt lat="44.84419" lon="5.37847">
        <ele>1399.9492188</ele>
      </trkpt>
      <trkpt lat="44.84409" lon="5.37835">
        <ele>1398.9140625</ele>
      </trkpt>
      <trkpt lat="44.84408" lon="5.37824">
        <ele>1397.1445313</ele>
      </trkpt>
      <trkpt lat="44.84374" lon="5.378">
        <ele>1397.3320313</ele>
      </trkpt>
      <trkpt lat="44.84275" lon="5.37716">
        <ele>1393.9492188</ele>
      </trkpt>
      <trkpt lat="44.84221" lon="5.37679">
        <ele>1390.8046875</ele>
      </trkpt>
      <trkpt lat="44.84189" lon="5.37664">
        <ele>1389.234375</ele>
      </trkpt>
      <trkpt lat="44.8415" lon="5.37652">
        <ele>1389.3203125</ele>
      </trkpt>
      <trkpt lat="44.84106" lon="5.37635">
        <ele>1389.2773438</ele>
      </trkpt>
      <trkpt lat="44.84053" lon="5.37611">
        <ele>1389.5625</ele>
      </trkpt>
      <trkpt lat="44.84014" lon="5.37589">
        <ele>1388.625</ele>
      </trkpt>
      <trkpt lat="44.83984" lon="5.37573">
        <ele>1388.4921875</ele>
      </trkpt>
      <trkpt lat="44.83935" lon="5.37555">
        <ele>1391.6132813</ele>
      </trkpt>
      <trkpt lat="44.83935" lon="5.37554">
        <ele>1391.3359375</ele>
      </trkpt>
      <trkpt lat="44.83892" lon="5.37533">
        <ele>1391.296875</ele>
      </trkpt>
      <trkpt lat="44.83892" lon="5.37533">
        <ele>1391.4101563</ele>
      </trkpt>
      <trkpt lat="44.83828" lon="5.375">
        <ele>1391.609375</ele>
      </trkpt>
      <trkpt lat="44.83828" lon="5.37498">
        <ele>1391.140625</ele>
      </trkpt>
      <trkpt lat="44.83786" lon="5.37478">
        <ele>1391.8125</ele>
      </trkpt>
      <trkpt lat="44.83786" lon="5.37477">
        <ele>1391.5273438</ele>
      </trkpt>
      <trkpt lat="44.83757" lon="5.37468">
        <ele>1393.421875</ele>
      </trkpt>
      <trkpt lat="44.83757" lon="5.37467">
        <ele>1393.1445313</ele>
      </trkpt>
      <trkpt lat="44.83714" lon="5.37444">
        <ele>1392.4492188</ele>
      </trkpt>
      <trkpt lat="44.83714" lon="5.37444">
        <ele>1392.1445313</ele>
      </trkpt>
      <trkpt lat="44.83625" lon="5.37401">
        <ele>1392.5429688</ele>
      </trkpt>
      <trkpt lat="44.83624" lon="5.37398">
        <ele>1391.4570313</ele>
      </trkpt>
      <trkpt lat="44.83544" lon="5.37376">
        <ele>1397.9101563</ele>
      </trkpt>
      <trkpt lat="44.83496" lon="5.37357">
        <ele>1396.8789063</ele>
      </trkpt>
      <trkpt lat="44.83403" lon="5.37312">
        <ele>1390.6289063</ele>
      </trkpt>
      <trkpt lat="44.83359" lon="5.37289">
        <ele>1389.6835938</ele>
      </trkpt>
      <trkpt lat="44.83314" lon="5.37252">
        <ele>1385.671875</ele>
      </trkpt>
      <trkpt lat="44.83299" lon="5.37229">
        <ele>1381.6015625</ele>
      </trkpt>
      <trkpt lat="44.83249" lon="5.37128">
        <ele>1366.1328125</ele>
      </trkpt>
      <trkpt lat="44.83206" lon="5.37058">
        <ele>1356.5429688</ele>
      </trkpt>
      <trkpt lat="44.83148" lon="5.36978">
        <ele>1347.3007813</ele>
      </trkpt>
      <trkpt lat="44.83116" lon="5.36928">
        <ele>1341.9726563</ele>
      </trkpt>
      <trkpt lat="44.83099" lon="5.36899">
        <ele>1338.09375</ele>
      </trkpt>
      <trkpt lat="44.83083" lon="5.36871">
        <ele>1333.8203125</ele>
      </trkpt>
      <trkpt lat="44.83063" lon="5.36835">
        <ele>1329.6015625</ele>
      </trkpt>
      <trkpt lat="44.83039" lon="5.36789">
        <ele>1323.0859375</ele>
      </trkpt>
      <trkpt lat="44.83026" lon="5.36765">
        <ele>1320.3554688</ele>
      </trkpt>
      <trkpt lat="44.83016" lon="5.36752">
        <ele>1319.8515625</ele>
      </trkpt>
      <trkpt lat="44.83016" lon="5.36751">
        <ele>1319.7695313</ele>
      </trkpt>
      <trkpt lat="44.83011" lon="5.36737">
        <ele>1319</ele>
      </trkpt>
      <trkpt lat="44.83014" lon="5.36727">
        <ele>1317.5117188</ele>
      </trkpt>
      <trkpt lat="44.83016" lon="5.36726">
        <ele>1317.3007813</ele>
      </trkpt>
      <trkpt lat="44.83023" lon="5.36719">
        <ele>1315.9179688</ele>
      </trkpt>
      <trkpt lat="44.83023" lon="5.36719">
        <ele>1315.8046875</ele>
      </trkpt>
      <trkpt lat="44.83039" lon="5.36717">
        <ele>1312.890625</ele>
      </trkpt>
      <trkpt lat="44.8304" lon="5.36716">
        <ele>1312.75</ele>
      </trkpt>
      <trkpt lat="44.83056" lon="5.36714">
        <ele>1309.7226563</ele>
      </trkpt>
      <trkpt lat="44.83077" lon="5.36709">
        <ele>1305.8710938</ele>
      </trkpt>
      <trkpt lat="44.83078" lon="5.36709">
        <ele>1305.7890625</ele>
      </trkpt>
      <trkpt lat="44.83093" lon="5.36705">
        <ele>1303.8867188</ele>
      </trkpt>
      <trkpt lat="44.83095" lon="5.36705">
        <ele>1303.6640625</ele>
      </trkpt>
      <trkpt lat="44.83108" lon="5.36701">
        <ele>1302.3984375</ele>
      </trkpt>
      <trkpt lat="44.83116" lon="5.367">
        <ele>1301.5039063</ele>
      </trkpt>
      <trkpt lat="44.83125" lon="5.36701">
        <ele>1300.4609375</ele>
      </trkpt>
      <trkpt lat="44.8314" lon="5.36706">
        <ele>1298.6640625</ele>
      </trkpt>
      <trkpt lat="44.83157" lon="5.36709">
        <ele>1296.71875</ele>
      </trkpt>
      <trkpt lat="44.83181" lon="5.36705">
        <ele>1294.2734375</ele>
      </trkpt>
      <trkpt lat="44.83209" lon="5.36693">
        <ele>1292.4765625</ele>
      </trkpt>
      <trkpt lat="44.83209" lon="5.36691">
        <ele>1292.6914063</ele>
      </trkpt>
      <trkpt lat="44.83238" lon="5.3667">
        <ele>1292.8867188</ele>
      </trkpt>
      <trkpt lat="44.83254" lon="5.36651">
        <ele>1294.1875</ele>
      </trkpt>
      <trkpt lat="44.83256" lon="5.36651">
        <ele>1293.9296875</ele>
      </trkpt>
      <trkpt lat="44.83275" lon="5.36635">
        <ele>1294.1484375</ele>
      </trkpt>
      <trkpt lat="44.83275" lon="5.36635">
        <ele>1294.015625</ele>
      </trkpt>
      <trkpt lat="44.83298" lon="5.36613">
        <ele>1294.5820313</ele>
      </trkpt>
      <trkpt lat="44.83333" lon="5.36576">
        <ele>1296.0039063</ele>
      </trkpt>
      <trkpt lat="44.83333" lon="5.36574">
        <ele>1296.3359375</ele>
      </trkpt>
      <trkpt lat="44.83365" lon="5.36535">
        <ele>1296.96875</ele>
      </trkpt>
      <trkpt lat="44.83382" lon="5.36506">
        <ele>1296.7460938</ele>
      </trkpt>
      <trkpt lat="44.834" lon="5.36474">
        <ele>1296.375</ele>
      </trkpt>
      <trkpt lat="44.83423" lon="5.36413">
        <ele>1296.9765625</ele>
      </trkpt>
      <trkpt lat="44.83433" lon="5.3639">
        <ele>1296.1914063</ele>
      </trkpt>
      <trkpt lat="44.83448" lon="5.36324">
        <ele>1295.8203125</ele>
      </trkpt>
      <trkpt lat="44.83457" lon="5.36295">
        <ele>1295.5195313</ele>
      </trkpt>
      <trkpt lat="44.83482" lon="5.36258">
        <ele>1294.5234375</ele>
      </trkpt>
      <trkpt lat="44.83523" lon="5.36209">
        <ele>1294.0546875</ele>
      </trkpt>
      <trkpt lat="44.83524" lon="5.36208">
        <ele>1294.0195313</ele>
      </trkpt>
      <trkpt lat="44.83559" lon="5.36172">
        <ele>1291.6523438</ele>
      </trkpt>
      <trkpt lat="44.83577" lon="5.3614">
        <ele>1290.8632813</ele>
      </trkpt>
      <trkpt lat="44.83586" lon="5.36103">
        <ele>1290.4570313</ele>
      </trkpt>
      <trkpt lat="44.83582" lon="5.36063">
        <ele>1292.1328125</ele>
      </trkpt>
      <trkpt lat="44.83578" lon="5.3604">
        <ele>1293.2460938</ele>
      </trkpt>
      <trkpt lat="44.83581" lon="5.35983">
        <ele>1293.2109375</ele>
      </trkpt>
      <trkpt lat="44.83587" lon="5.35943">
        <ele>1292.53125</ele>
      </trkpt>
      <trkpt lat="44.83602" lon="5.35904">
        <ele>1290.1796875</ele>
      </trkpt>
      <trkpt lat="44.83603" lon="5.35904">
        <ele>1290.1054688</ele>
      </trkpt>
      <trkpt lat="44.83604" lon="5.35876">
        <ele>1289.7109375</ele>
      </trkpt>
      <trkpt lat="44.83585" lon="5.35837">
        <ele>1289.4335938</ele>
      </trkpt>
      <trkpt lat="44.83574" lon="5.35821">
        <ele>1288.9140625</ele>
      </trkpt>
      <trkpt lat="44.83563" lon="5.35808">
        <ele>1287.8046875</ele>
      </trkpt>
      <trkpt lat="44.8355" lon="5.35804">
        <ele>1287.6835938</ele>
      </trkpt>
      <trkpt lat="44.83533" lon="5.35813">
        <ele>1288.59375</ele>
      </trkpt>
      <trkpt lat="44.83505" lon="5.35846">
        <ele>1291.3789063</ele>
      </trkpt>
      <trkpt lat="44.83482" lon="5.35872">
        <ele>1293.71875</ele>
      </trkpt>
      <trkpt lat="44.83464" lon="5.35888">
        <ele>1294.6523438</ele>
      </trkpt>
      <trkpt lat="44.83449" lon="5.35883">
        <ele>1292.453125</ele>
      </trkpt>
      <trkpt lat="44.83436" lon="5.35896">
        <ele>1293.21875</ele>
      </trkpt>
      <trkpt lat="44.83423" lon="5.35899">
        <ele>1293.0859375</ele>
      </trkpt>
      <trkpt lat="44.83423" lon="5.35899">
        <ele>1293.0585938</ele>
      </trkpt>
      <trkpt lat="44.83411" lon="5.35898">
        <ele>1292.4609375</ele>
      </trkpt>
      <trkpt lat="44.83411" lon="5.35898">
        <ele>1292.3671875</ele>
      </trkpt>
      <trkpt lat="44.83407" lon="5.35889">
        <ele>1291.0625</ele>
      </trkpt>
      <trkpt lat="44.83408" lon="5.35888">
        <ele>1290.9765625</ele>
      </trkpt>
      <trkpt lat="44.83409" lon="5.35859">
        <ele>1287.3984375</ele>
      </trkpt>
      <trkpt lat="44.83414" lon="5.35842">
        <ele>1285.953125</ele>
      </trkpt>
      <trkpt lat="44.83414" lon="5.35819">
        <ele>1284.609375</ele>
      </trkpt>
      <trkpt lat="44.83417" lon="5.35805">
        <ele>1284.1289063</ele>
      </trkpt>
      <trkpt lat="44.83418" lon="5.35803">
        <ele>1284.0898438</ele>
      </trkpt>
      <trkpt lat="44.83434" lon="5.35777">
        <ele>1282.4335938</ele>
      </trkpt>
      <trkpt lat="44.83435" lon="5.35777">
        <ele>1282.3398438</ele>
      </trkpt>
      <trkpt lat="44.83455" lon="5.3575">
        <ele>1281.6015625</ele>
      </trkpt>
      <trkpt lat="44.83482" lon="5.35699">
        <ele>1281.3632813</ele>
      </trkpt>
      <trkpt lat="44.83504" lon="5.35631">
        <ele>1286.2070313</ele>
      </trkpt>
      <trkpt lat="44.83504" lon="5.3563">
        <ele>1286.3164063</ele>
      </trkpt>
      <trkpt lat="44.83546" lon="5.35571">
        <ele>1289.8007813</ele>
      </trkpt>
      <trkpt lat="44.83548" lon="5.35567">
        <ele>1290.1054688</ele>
      </trkpt>
      <trkpt lat="44.83603" lon="5.355">
        <ele>1293.53125</ele>
      </trkpt>
      <trkpt lat="44.83603" lon="5.35498">
        <ele>1293.6953125</ele>
      </trkpt>
      <trkpt lat="44.83629" lon="5.35455">
        <ele>1292.7070313</ele>
      </trkpt>
      <trkpt lat="44.8364" lon="5.35411">
        <ele>1294.7304688</ele>
      </trkpt>
      <trkpt lat="44.83644" lon="5.35348">
        <ele>1302.1953125</ele>
      </trkpt>
      <trkpt lat="44.83637" lon="5.35148">
        <ele>1322.6835938</ele>
      </trkpt>
      <trkpt lat="44.8363" lon="5.35053">
        <ele>1328.8203125</ele>
      </trkpt>
      <trkpt lat="44.8363" lon="5.35051">
        <ele>1328.9882813</ele>
      </trkpt>
      <trkpt lat="44.83629" lon="5.3497">
        <ele>1333.375</ele>
      </trkpt>
      <trkpt lat="44.83632" lon="5.34917">
        <ele>1337.078125</ele>
      </trkpt>
      <trkpt lat="44.83635" lon="5.34922">
        <ele>1337.4257813</ele>
      </trkpt>
      <trkpt lat="44.83639" lon="5.34937">
        <ele>1336.96875</ele>
      </trkpt>
      <trkpt lat="44.83644" lon="5.34953">
        <ele>1336.6132813</ele>
      </trkpt>
      <trkpt lat="44.83645" lon="5.34953">
        <ele>1336.6992188</ele>
      </trkpt>
      <trkpt lat="44.83648" lon="5.34968">
        <ele>1336.8554688</ele>
      </trkpt>
      <trkpt lat="44.83649" lon="5.34969">
        <ele>1336.9414063</ele>
      </trkpt>
      <trkpt lat="44.83664" lon="5.34986">
        <ele>1338.7773438</ele>
      </trkpt>
      <trkpt lat="44.83675" lon="5.34997">
        <ele>1339.9296875</ele>
      </trkpt>
      <trkpt lat="44.83684" lon="5.35009">
        <ele>1340.7421875</ele>
      </trkpt>
      <trkpt lat="44.83685" lon="5.3501">
        <ele>1340.9609375</ele>
      </trkpt>
      <trkpt lat="44.83702" lon="5.35052">
        <ele>1341.8789063</ele>
      </trkpt>
      <trkpt lat="44.83704" lon="5.35052">
        <ele>1342.0976563</ele>
      </trkpt>
      <trkpt lat="44.83734" lon="5.35117">
        <ele>1343.6523438</ele>
      </trkpt>
      <trkpt lat="44.8375" lon="5.35157">
        <ele>1341.609375</ele>
      </trkpt>
      <trkpt lat="44.83768" lon="5.35198">
        <ele>1339.5507813</ele>
      </trkpt>
      <trkpt lat="44.83785" lon="5.35224">
        <ele>1338.3476563</ele>
      </trkpt>
      <trkpt lat="44.83807" lon="5.35244">
        <ele>1337.8515625</ele>
      </trkpt>
      <trkpt lat="44.83807" lon="5.35244">
        <ele>1337.8046875</ele>
      </trkpt>
      <trkpt lat="44.83868" lon="5.35265">
        <ele>1339.9453125</ele>
      </trkpt>
      <trkpt lat="44.8387" lon="5.35266">
        <ele>1340.0351563</ele>
      </trkpt>
      <trkpt lat="44.8392" lon="5.35276">
        <ele>1340.9960938</ele>
      </trkpt>
      <trkpt lat="44.83947" lon="5.35274">
        <ele>1341.4335938</ele>
      </trkpt>
      <trkpt lat="44.83948" lon="5.35274">
        <ele>1341.4648438</ele>
      </trkpt>
      <trkpt lat="44.83999" lon="5.35263">
        <ele>1342.1601563</ele>
      </trkpt>
      <trkpt lat="44.83999" lon="5.35263">
        <ele>1342.140625</ele>
      </trkpt>
      <trkpt lat="44.84043" lon="5.35243">
        <ele>1343.0976563</ele>
      </trkpt>
      <trkpt lat="44.84085" lon="5.35215">
        <ele>1344.625</ele>
      </trkpt>
      <trkpt lat="44.84094" lon="5.352">
        <ele>1345.3203125</ele>
      </trkpt>
      <trkpt lat="44.84095" lon="5.35199">
        <ele>1345.328125</ele>
      </trkpt>
      <trkpt lat="44.84099" lon="5.35166">
        <ele>1346.3554688</ele>
      </trkpt>
      <trkpt lat="44.84099" lon="5.35165">
        <ele>1346.3867188</ele>
      </trkpt>
      <trkpt lat="44.84089" lon="5.3513">
        <ele>1348.0195313</ele>
      </trkpt>
      <trkpt lat="44.84082" lon="5.35111">
        <ele>1348.6835938</ele>
      </trkpt>
      <trkpt lat="44.84086" lon="5.3504">
        <ele>1348.09375</ele>
      </trkpt>
      <trkpt lat="44.84054" lon="5.34946">
        <ele>1348.8828125</ele>
      </trkpt>
      <trkpt lat="44.84021" lon="5.34833">
        <ele>1351.09375</ele>
      </trkpt>
      <trkpt lat="44.84019" lon="5.348">
        <ele>1352.4179688</ele>
      </trkpt>
      <trkpt lat="44.84029" lon="5.3477">
        <ele>1353.5429688</ele>
      </trkpt>
      <trkpt lat="44.84047" lon="5.3475">
        <ele>1354.7695313</ele>
      </trkpt>
      <trkpt lat="44.84064" lon="5.34725">
        <ele>1357.0195313</ele>
      </trkpt>
      <trkpt lat="44.8408" lon="5.3471">
        <ele>1358.5976563</ele>
      </trkpt>
      <trkpt lat="44.84084" lon="5.34708">
        <ele>1358.703125</ele>
      </trkpt>
      <trkpt lat="44.84118" lon="5.34714">
        <ele>1356.9453125</ele>
      </trkpt>
      <trkpt lat="44.84119" lon="5.34713">
        <ele>1357.0117188</ele>
      </trkpt>
      <trkpt lat="44.842" lon="5.3469">
        <ele>1359.0546875</ele>
      </trkpt>
      <trkpt lat="44.84232" lon="5.34682">
        <ele>1359.65625</ele>
      </trkpt>
      <trkpt lat="44.84242" lon="5.34672">
        <ele>1359.9296875</ele>
      </trkpt>
      <trkpt lat="44.84241" lon="5.34653">
        <ele>1359.9726563</ele>
      </trkpt>
      <trkpt lat="44.84228" lon="5.34636">
        <ele>1360.21875</ele>
      </trkpt>
      <trkpt lat="44.84205" lon="5.34612">
        <ele>1361.0820313</ele>
      </trkpt>
      <trkpt lat="44.841" lon="5.34485">
        <ele>1365.515625</ele>
      </trkpt>
      <trkpt lat="44.84064" lon="5.34434">
        <ele>1365.2226563</ele>
      </trkpt>
      <trkpt lat="44.84023" lon="5.34382">
        <ele>1365.8164063</ele>
      </trkpt>
      <trkpt lat="44.84007" lon="5.3436">
        <ele>1367.28125</ele>
      </trkpt>
      <trkpt lat="44.84002" lon="5.34346">
        <ele>1367.5078125</ele>
      </trkpt>
      <trkpt lat="44.84002" lon="5.34325">
        <ele>1367.1679688</ele>
      </trkpt>
      <trkpt lat="44.84002" lon="5.34324">
        <ele>1367.1640625</ele>
      </trkpt>
      <trkpt lat="44.84011" lon="5.34318">
        <ele>1366.3867188</ele>
      </trkpt>
      <trkpt lat="44.84021" lon="5.34318">
        <ele>1365.703125</ele>
      </trkpt>
      <trkpt lat="44.84022" lon="5.34318">
        <ele>1365.6757813</ele>
      </trkpt>
      <trkpt lat="44.84033" lon="5.34328">
        <ele>1364.6054688</ele>
      </trkpt>
      <trkpt lat="44.84034" lon="5.34329">
        <ele>1364.5234375</ele>
      </trkpt>
      <trkpt lat="44.8404" lon="5.34342">
        <ele>1363.4375</ele>
      </trkpt>
      <trkpt lat="44.8404" lon="5.34342">
        <ele>1363.375</ele>
      </trkpt>
      <trkpt lat="44.84045" lon="5.34352">
        <ele>1362.7382813</ele>
      </trkpt>
      <trkpt lat="44.84046" lon="5.34352">
        <ele>1362.59375</ele>
      </trkpt>
      <trkpt lat="44.84077" lon="5.34374">
        <ele>1360.6640625</ele>
      </trkpt>
      <trkpt lat="44.84153" lon="5.34418">
        <ele>1354.5546875</ele>
      </trkpt>
      <trkpt lat="44.84194" lon="5.34447">
        <ele>1349.4140625</ele>
      </trkpt>
      <trkpt lat="44.84256" lon="5.34507">
        <ele>1343.6210938</ele>
      </trkpt>
      <trkpt lat="44.84286" lon="5.34514">
        <ele>1340.5859375</ele>
      </trkpt>
      <trkpt lat="44.84328" lon="5.34512">
        <ele>1335.6992188</ele>
      </trkpt>
      <trkpt lat="44.84376" lon="5.34502">
        <ele>1329.5976563</ele>
      </trkpt>
      <trkpt lat="44.84376" lon="5.34501">
        <ele>1329.6210938</ele>
      </trkpt>
      <trkpt lat="44.84398" lon="5.345">
        <ele>1327.4179688</ele>
      </trkpt>
      <trkpt lat="44.84419" lon="5.34508">
        <ele>1324.6757813</ele>
      </trkpt>
      <trkpt lat="44.84451" lon="5.34546">
        <ele>1319.9453125</ele>
      </trkpt>
      <trkpt lat="44.84485" lon="5.34583">
        <ele>1318.2070313</ele>
      </trkpt>
      <trkpt lat="44.84533" lon="5.34602">
        <ele>1314.8828125</ele>
      </trkpt>
      <trkpt lat="44.84572" lon="5.34619">
        <ele>1311.140625</ele>
      </trkpt>
      <trkpt lat="44.84678" lon="5.34652">
        <ele>1301.2460938</ele>
      </trkpt>
      <trkpt lat="44.84692" lon="5.34662">
        <ele>1300.9570313</ele>
      </trkpt>
      <trkpt lat="44.847" lon="5.34679">
        <ele>1300.3359375</ele>
      </trkpt>
      <trkpt lat="44.847" lon="5.3468">
        <ele>1300.2929688</ele>
      </trkpt>
      <trkpt lat="44.84726" lon="5.34725">
        <ele>1297.7851563</ele>
      </trkpt>
      <trkpt lat="44.84748" lon="5.34776">
        <ele>1295.1835938</ele>
      </trkpt>
      <trkpt lat="44.8478" lon="5.34821">
        <ele>1292.1015625</ele>
      </trkpt>
      <trkpt lat="44.84802" lon="5.34842">
        <ele>1290.0234375</ele>
      </trkpt>
      <trkpt lat="44.84871" lon="5.34887">
        <ele>1281.984375</ele>
      </trkpt>
      <trkpt lat="44.84871" lon="5.34887">
        <ele>1281.9335938</ele>
      </trkpt>
      <trkpt lat="44.84897" lon="5.34896">
        <ele>1280.3671875</ele>
      </trkpt>
      <trkpt lat="44.84899" lon="5.34897">
        <ele>1280.2734375</ele>
      </trkpt>
      <trkpt lat="44.8497" lon="5.34943">
        <ele>1275.3984375</ele>
      </trkpt>
      <trkpt lat="44.85006" lon="5.3498">
        <ele>1271.3554688</ele>
      </trkpt>
      <trkpt lat="44.85026" lon="5.35007">
        <ele>1267.4414063</ele>
      </trkpt>
      <trkpt lat="44.85091" lon="5.35073">
        <ele>1262.1054688</ele>
      </trkpt>
      <trkpt lat="44.85124" lon="5.35095">
        <ele>1260.8554688</ele>
      </trkpt>
      <trkpt lat="44.85124" lon="5.35094">
        <ele>1260.9023438</ele>
      </trkpt>
      <trkpt lat="44.8516" lon="5.35118">
        <ele>1260.03125</ele>
      </trkpt>
      <trkpt lat="44.85183" lon="5.35152">
        <ele>1258.7890625</ele>
      </trkpt>
      <trkpt lat="44.85184" lon="5.35152">
        <ele>1258.7773438</ele>
      </trkpt>
      <trkpt lat="44.8521" lon="5.35197">
        <ele>1256.3007813</ele>
      </trkpt>
      <trkpt lat="44.85237" lon="5.35246">
        <ele>1253.2734375</ele>
      </trkpt>
      <trkpt lat="44.85267" lon="5.35286">
        <ele>1250.0117188</ele>
      </trkpt>
      <trkpt lat="44.85289" lon="5.35307">
        <ele>1247.7890625</ele>
      </trkpt>
      <trkpt lat="44.85335" lon="5.35335">
        <ele>1243.7617188</ele>
      </trkpt>
      <trkpt lat="44.85383" lon="5.35353">
        <ele>1242.8125</ele>
      </trkpt>
      <trkpt lat="44.85442" lon="5.35374">
        <ele>1242.2070313</ele>
      </trkpt>
      <trkpt lat="44.85453" lon="5.35376">
        <ele>1242.2890625</ele>
      </trkpt>
      <trkpt lat="44.85479" lon="5.35393">
        <ele>1243.5273438</ele>
      </trkpt>
      <trkpt lat="44.85497" lon="5.35412">
        <ele>1244.9414063</ele>
      </trkpt>
      <trkpt lat="44.85497" lon="5.35412">
        <ele>1244.9765625</ele>
      </trkpt>
      <trkpt lat="44.85508" lon="5.35425">
        <ele>1245.734375</ele>
      </trkpt>
      <trkpt lat="44.85523" lon="5.35431">
        <ele>1246.46875</ele>
      </trkpt>
      <trkpt lat="44.85549" lon="5.35432">
        <ele>1247.4257813</ele>
      </trkpt>
      <trkpt lat="44.85549" lon="5.35432">
        <ele>1247.4492188</ele>
      </trkpt>
      <trkpt lat="44.85584" lon="5.35427">
        <ele>1248.4804688</ele>
      </trkpt>
      <trkpt lat="44.85585" lon="5.35427">
        <ele>1248.5</ele>
      </trkpt>
      <trkpt lat="44.85624" lon="5.35421">
        <ele>1249.0703125</ele>
      </trkpt>
      <trkpt lat="44.85644" lon="5.35412">
        <ele>1249.9765625</ele>
      </trkpt>
      <trkpt lat="44.85695" lon="5.35414">
        <ele>1251.1328125</ele>
      </trkpt>
      <trkpt lat="44.85759" lon="5.35425">
        <ele>1252.6484375</ele>
      </trkpt>
      <trkpt lat="44.85761" lon="5.35426">
        <ele>1252.6914063</ele>
      </trkpt>
      <trkpt lat="44.85831" lon="5.35454">
        <ele>1251.6015625</ele>
      </trkpt>
      <trkpt lat="44.85861" lon="5.35468">
        <ele>1249.7421875</ele>
      </trkpt>
      <trkpt lat="44.85863" lon="5.35468">
        <ele>1249.671875</ele>
      </trkpt>
      <trkpt lat="44.85871" lon="5.35484">
        <ele>1248.1445313</ele>
      </trkpt>
    </trkseg>
  </trk>
</gpx>